<?xml version="1.0" encoding="UTF-8" standalone="no" ?>
<gpx xmlns="http://www.topografix.com/GPX/1/1" xmlns:xsi="http://www.w3.org/2001/XMLSchema-instance" xsi:schemaLocation="http://www.topografix.com/GPX/1/1 http://www.topografix.com/GPX/1/1/gpx.xsd" version="1.1" creator="VisuGPX - https://www.visugpx.com">
  <metadata>
    <name>006SG77-8045586</name>
    <desc><![CDATA[
01]]></desc>
  </metadata>
  <trk>
    <name><![CDATA[006SG77-8045586]]></name>
    <trkseg>
      <trkpt lat="46.69912" lon="-1.93386">
        <ele>4</ele>
        <time>2018-01-10T22:34:31Z</time>
      </trkpt>
      <trkpt lat="46.69911" lon="-1.93386">
        <ele>4</ele>
        <time>2018-01-10T22:35:31Z</time>
      </trkpt>
      <trkpt lat="46.69909" lon="-1.93385">
        <ele>4</ele>
        <time>2018-01-10T22:36:31Z</time>
      </trkpt>
      <trkpt lat="46.69908" lon="-1.93383">
        <ele>4</ele>
        <time>2018-01-10T22:37:31Z</time>
      </trkpt>
      <trkpt lat="46.69908" lon="-1.93383">
        <ele>4</ele>
        <time>2018-01-10T22:38:31Z</time>
      </trkpt>
      <trkpt lat="46.69901" lon="-1.93383">
        <ele>5</ele>
        <time>2018-01-10T22:39:31Z</time>
      </trkpt>
      <trkpt lat="46.69898" lon="-1.93383">
        <ele>5</ele>
        <time>2018-01-10T22:40:31Z</time>
      </trkpt>
      <trkpt lat="46.69892" lon="-1.93385">
        <ele>5</ele>
        <time>2018-01-10T22:41:31Z</time>
      </trkpt>
      <trkpt lat="46.69824" lon="-1.93411">
        <ele>5</ele>
        <time>2018-01-10T22:42:31Z</time>
      </trkpt>
      <trkpt lat="46.69806" lon="-1.93419">
        <ele>5</ele>
        <time>2018-01-10T22:43:31Z</time>
      </trkpt>
      <trkpt lat="46.69798" lon="-1.93421">
        <ele>5</ele>
        <time>2018-01-10T22:44:31Z</time>
      </trkpt>
      <trkpt lat="46.69797" lon="-1.93421">
        <ele>5</ele>
        <time>2018-01-10T22:45:31Z</time>
      </trkpt>
      <trkpt lat="46.69793" lon="-1.9342">
        <ele>5</ele>
        <time>2018-01-10T22:46:31Z</time>
      </trkpt>
      <trkpt lat="46.69793" lon="-1.93421">
        <ele>5</ele>
        <time>2018-01-10T22:47:31Z</time>
      </trkpt>
      <trkpt lat="46.69793" lon="-1.93422">
        <ele>5</ele>
        <time>2018-01-10T22:48:31Z</time>
      </trkpt>
      <trkpt lat="46.69793" lon="-1.93423">
        <ele>5</ele>
        <time>2018-01-10T22:49:31Z</time>
      </trkpt>
      <trkpt lat="46.69793" lon="-1.93424">
        <ele>5</ele>
        <time>2018-01-10T22:50:31Z</time>
      </trkpt>
      <trkpt lat="46.69792" lon="-1.93425">
        <ele>5</ele>
        <time>2018-01-10T22:51:31Z</time>
      </trkpt>
      <trkpt lat="46.69792" lon="-1.93426">
        <ele>5</ele>
        <time>2018-01-10T22:52:31Z</time>
      </trkpt>
      <trkpt lat="46.69791" lon="-1.93426">
        <ele>5</ele>
        <time>2018-01-10T22:53:31Z</time>
      </trkpt>
      <trkpt lat="46.69791" lon="-1.93427">
        <ele>5</ele>
        <time>2018-01-10T22:54:31Z</time>
      </trkpt>
      <trkpt lat="46.6979" lon="-1.93427">
        <ele>5</ele>
        <time>2018-01-10T22:55:31Z</time>
      </trkpt>
      <trkpt lat="46.6979" lon="-1.93428">
        <ele>5</ele>
        <time>2018-01-10T22:56:31Z</time>
      </trkpt>
      <trkpt lat="46.69789" lon="-1.93428">
        <ele>5</ele>
        <time>2018-01-10T22:57:31Z</time>
      </trkpt>
      <trkpt lat="46.69788" lon="-1.93428">
        <ele>5</ele>
        <time>2018-01-10T22:58:31Z</time>
      </trkpt>
      <trkpt lat="46.69788" lon="-1.93427">
        <ele>5</ele>
        <time>2018-01-10T22:59:31Z</time>
      </trkpt>
      <trkpt lat="46.69787" lon="-1.93427">
        <ele>5</ele>
        <time>2018-01-10T23:00:31Z</time>
      </trkpt>
      <trkpt lat="46.69787" lon="-1.93426">
        <ele>5</ele>
        <time>2018-01-10T23:01:31Z</time>
      </trkpt>
      <trkpt lat="46.69786" lon="-1.93426">
        <ele>5</ele>
        <time>2018-01-10T23:02:31Z</time>
      </trkpt>
      <trkpt lat="46.69786" lon="-1.93425">
        <ele>5</ele>
        <time>2018-01-10T23:03:31Z</time>
      </trkpt>
      <trkpt lat="46.69786" lon="-1.93424">
        <ele>5</ele>
        <time>2018-01-10T23:04:31Z</time>
      </trkpt>
      <trkpt lat="46.69785" lon="-1.93424">
        <ele>5</ele>
        <time>2018-01-10T23:05:31Z</time>
      </trkpt>
      <trkpt lat="46.69785" lon="-1.93423">
        <ele>5</ele>
        <time>2018-01-10T23:06:31Z</time>
      </trkpt>
      <trkpt lat="46.69785" lon="-1.93422">
        <ele>5</ele>
        <time>2018-01-10T23:07:31Z</time>
      </trkpt>
      <trkpt lat="46.69779" lon="-1.9342">
        <ele>5</ele>
        <time>2018-01-10T23:08:31Z</time>
      </trkpt>
      <trkpt lat="46.69776" lon="-1.9342">
        <ele>5</ele>
        <time>2018-01-10T23:09:31Z</time>
      </trkpt>
      <trkpt lat="46.69772" lon="-1.9342">
        <ele>5</ele>
        <time>2018-01-10T23:10:31Z</time>
      </trkpt>
      <trkpt lat="46.69762" lon="-1.93423">
        <ele>5</ele>
        <time>2018-01-10T23:11:31Z</time>
      </trkpt>
      <trkpt lat="46.69759" lon="-1.93424">
        <ele>5</ele>
        <time>2018-01-10T23:12:31Z</time>
      </trkpt>
      <trkpt lat="46.69721" lon="-1.93434">
        <ele>5</ele>
        <time>2018-01-10T23:13:31Z</time>
      </trkpt>
      <trkpt lat="46.69714" lon="-1.93435">
        <ele>5</ele>
        <time>2018-01-10T23:14:31Z</time>
      </trkpt>
      <trkpt lat="46.69697" lon="-1.93436">
        <ele>5</ele>
        <time>2018-01-10T23:15:31Z</time>
      </trkpt>
      <trkpt lat="46.69685" lon="-1.93435">
        <ele>5</ele>
        <time>2018-01-10T23:16:31Z</time>
      </trkpt>
      <trkpt lat="46.69633" lon="-1.93423">
        <ele>5</ele>
        <time>2018-01-10T23:17:31Z</time>
      </trkpt>
      <trkpt lat="46.69633" lon="-1.93423">
        <ele>5</ele>
        <time>2018-01-10T23:18:31Z</time>
      </trkpt>
      <trkpt lat="46.69633" lon="-1.93424">
        <ele>4</ele>
        <time>2018-01-10T23:19:31Z</time>
      </trkpt>
      <trkpt lat="46.69633" lon="-1.93425">
        <ele>4</ele>
        <time>2018-01-10T23:20:31Z</time>
      </trkpt>
      <trkpt lat="46.69633" lon="-1.93426">
        <ele>4</ele>
        <time>2018-01-10T23:21:31Z</time>
      </trkpt>
      <trkpt lat="46.69633" lon="-1.93427">
        <ele>4</ele>
        <time>2018-01-10T23:22:31Z</time>
      </trkpt>
      <trkpt lat="46.69633" lon="-1.93428">
        <ele>4</ele>
        <time>2018-01-10T23:23:31Z</time>
      </trkpt>
      <trkpt lat="46.69633" lon="-1.93429">
        <ele>4</ele>
        <time>2018-01-10T23:24:31Z</time>
      </trkpt>
      <trkpt lat="46.69633" lon="-1.9343">
        <ele>4</ele>
        <time>2018-01-10T23:25:31Z</time>
      </trkpt>
      <trkpt lat="46.69632" lon="-1.9343">
        <ele>4</ele>
        <time>2018-01-10T23:26:31Z</time>
      </trkpt>
      <trkpt lat="46.69632" lon="-1.93431">
        <ele>4</ele>
        <time>2018-01-10T23:27:31Z</time>
      </trkpt>
      <trkpt lat="46.69632" lon="-1.93432">
        <ele>4</ele>
        <time>2018-01-10T23:28:31Z</time>
      </trkpt>
      <trkpt lat="46.69631" lon="-1.93432">
        <ele>4</ele>
        <time>2018-01-10T23:29:31Z</time>
      </trkpt>
      <trkpt lat="46.69631" lon="-1.93433">
        <ele>4</ele>
        <time>2018-01-10T23:30:31Z</time>
      </trkpt>
      <trkpt lat="46.69631" lon="-1.93434">
        <ele>4</ele>
        <time>2018-01-10T23:31:31Z</time>
      </trkpt>
      <trkpt lat="46.6963" lon="-1.93434">
        <ele>4</ele>
        <time>2018-01-10T23:32:31Z</time>
      </trkpt>
      <trkpt lat="46.6963" lon="-1.93435">
        <ele>4</ele>
        <time>2018-01-10T23:33:31Z</time>
      </trkpt>
      <trkpt lat="46.69629" lon="-1.93435">
        <ele>4</ele>
        <time>2018-01-10T23:34:31Z</time>
      </trkpt>
      <trkpt lat="46.69629" lon="-1.93436">
        <ele>4</ele>
        <time>2018-01-10T23:35:31Z</time>
      </trkpt>
      <trkpt lat="46.69628" lon="-1.93436">
        <ele>4</ele>
        <time>2018-01-10T23:36:31Z</time>
      </trkpt>
      <trkpt lat="46.69627" lon="-1.93436">
        <ele>4</ele>
        <time>2018-01-10T23:37:31Z</time>
      </trkpt>
      <trkpt lat="46.69627" lon="-1.93437">
        <ele>4</ele>
        <time>2018-01-10T23:38:31Z</time>
      </trkpt>
      <trkpt lat="46.69626" lon="-1.93437">
        <ele>4</ele>
        <time>2018-01-10T23:39:31Z</time>
      </trkpt>
      <trkpt lat="46.69625" lon="-1.93437">
        <ele>4</ele>
        <time>2018-01-10T23:40:31Z</time>
      </trkpt>
      <trkpt lat="46.69624" lon="-1.93437">
        <ele>4</ele>
        <time>2018-01-10T23:41:31Z</time>
      </trkpt>
      <trkpt lat="46.69623" lon="-1.93437">
        <ele>4</ele>
        <time>2018-01-10T23:42:31Z</time>
      </trkpt>
      <trkpt lat="46.69622" lon="-1.93436">
        <ele>4</ele>
        <time>2018-01-10T23:43:31Z</time>
      </trkpt>
      <trkpt lat="46.69621" lon="-1.93436">
        <ele>4</ele>
        <time>2018-01-10T23:44:31Z</time>
      </trkpt>
      <trkpt lat="46.6962" lon="-1.93435">
        <ele>4</ele>
        <time>2018-01-10T23:45:31Z</time>
      </trkpt>
      <trkpt lat="46.69619" lon="-1.93434">
        <ele>4</ele>
        <time>2018-01-10T23:46:31Z</time>
      </trkpt>
      <trkpt lat="46.69619" lon="-1.93433">
        <ele>4</ele>
        <time>2018-01-10T23:47:31Z</time>
      </trkpt>
      <trkpt lat="46.69618" lon="-1.93433">
        <ele>4</ele>
        <time>2018-01-10T23:48:31Z</time>
      </trkpt>
      <trkpt lat="46.69618" lon="-1.93432">
        <ele>4</ele>
        <time>2018-01-10T23:49:31Z</time>
      </trkpt>
      <trkpt lat="46.69618" lon="-1.93431">
        <ele>4</ele>
        <time>2018-01-10T23:50:31Z</time>
      </trkpt>
      <trkpt lat="46.69617" lon="-1.93431">
        <ele>4</ele>
        <time>2018-01-10T23:51:31Z</time>
      </trkpt>
      <trkpt lat="46.69617" lon="-1.9343">
        <ele>4</ele>
        <time>2018-01-10T23:52:31Z</time>
      </trkpt>
      <trkpt lat="46.69617" lon="-1.93429">
        <ele>4</ele>
        <time>2018-01-10T23:53:31Z</time>
      </trkpt>
      <trkpt lat="46.69617" lon="-1.93428">
        <ele>4</ele>
        <time>2018-01-10T23:54:31Z</time>
      </trkpt>
      <trkpt lat="46.69616" lon="-1.93428">
        <ele>4</ele>
        <time>2018-01-10T23:55:31Z</time>
      </trkpt>
      <trkpt lat="46.69616" lon="-1.93427">
        <ele>4</ele>
        <time>2018-01-10T23:56:31Z</time>
      </trkpt>
      <trkpt lat="46.69616" lon="-1.93426">
        <ele>4</ele>
        <time>2018-01-10T23:57:31Z</time>
      </trkpt>
      <trkpt lat="46.69616" lon="-1.93425">
        <ele>4</ele>
        <time>2018-01-10T23:58:31Z</time>
      </trkpt>
      <trkpt lat="46.69616" lon="-1.93424">
        <ele>4</ele>
        <time>2018-01-10T23:59:31Z</time>
      </trkpt>
      <trkpt lat="46.69616" lon="-1.93423">
        <ele>4</ele>
        <time>2018-01-11T00:00:31Z</time>
      </trkpt>
      <trkpt lat="46.69616" lon="-1.93422">
        <ele>4</ele>
        <time>2018-01-11T00:01:31Z</time>
      </trkpt>
      <trkpt lat="46.69616" lon="-1.93421">
        <ele>4</ele>
        <time>2018-01-11T00:02:31Z</time>
      </trkpt>
      <trkpt lat="46.69617" lon="-1.93421">
        <ele>4</ele>
        <time>2018-01-11T00:03:31Z</time>
      </trkpt>
      <trkpt lat="46.69617" lon="-1.9342">
        <ele>4</ele>
        <time>2018-01-11T00:04:31Z</time>
      </trkpt>
      <trkpt lat="46.69607" lon="-1.93416">
        <ele>4</ele>
        <time>2018-01-11T00:05:31Z</time>
      </trkpt>
      <trkpt lat="46.69587" lon="-1.93404">
        <ele>4</ele>
        <time>2018-01-11T00:06:31Z</time>
      </trkpt>
      <trkpt lat="46.69551" lon="-1.93388">
        <ele>4</ele>
        <time>2018-01-11T00:07:31Z</time>
      </trkpt>
      <trkpt lat="46.69518" lon="-1.93374">
        <ele>4</ele>
        <time>2018-01-11T00:08:31Z</time>
      </trkpt>
      <trkpt lat="46.69507" lon="-1.9337">
        <ele>4</ele>
        <time>2018-01-11T00:09:31Z</time>
      </trkpt>
      <trkpt lat="46.69503" lon="-1.93368">
        <ele>4</ele>
        <time>2018-01-11T00:10:31Z</time>
      </trkpt>
      <trkpt lat="46.69498" lon="-1.93366">
        <ele>4</ele>
        <time>2018-01-11T00:11:31Z</time>
      </trkpt>
      <trkpt lat="46.6946" lon="-1.93349">
        <ele>4</ele>
        <time>2018-01-11T00:12:31Z</time>
      </trkpt>
      <trkpt lat="46.69431" lon="-1.93336">
        <ele>4</ele>
        <time>2018-01-11T00:13:31Z</time>
      </trkpt>
      <trkpt lat="46.69426" lon="-1.93334">
        <ele>4</ele>
        <time>2018-01-11T00:14:31Z</time>
      </trkpt>
      <trkpt lat="46.69421" lon="-1.93333">
        <ele>4</ele>
        <time>2018-01-11T00:15:31Z</time>
      </trkpt>
      <trkpt lat="46.69416" lon="-1.93331">
        <ele>4</ele>
        <time>2018-01-11T00:16:31Z</time>
      </trkpt>
      <trkpt lat="46.69405" lon="-1.9333">
        <ele>4</ele>
        <time>2018-01-11T00:17:31Z</time>
      </trkpt>
      <trkpt lat="46.69394" lon="-1.93333">
        <ele>4</ele>
        <time>2018-01-11T00:18:31Z</time>
      </trkpt>
      <trkpt lat="46.69394" lon="-1.93333">
        <ele>4</ele>
        <time>2018-01-11T00:19:31Z</time>
      </trkpt>
      <trkpt lat="46.69394" lon="-1.93334">
        <ele>4</ele>
        <time>2018-01-11T00:20:31Z</time>
      </trkpt>
      <trkpt lat="46.69394" lon="-1.93335">
        <ele>4</ele>
        <time>2018-01-11T00:21:31Z</time>
      </trkpt>
      <trkpt lat="46.69393" lon="-1.93335">
        <ele>4</ele>
        <time>2018-01-11T00:22:31Z</time>
      </trkpt>
      <trkpt lat="46.69393" lon="-1.93336">
        <ele>4</ele>
        <time>2018-01-11T00:23:31Z</time>
      </trkpt>
      <trkpt lat="46.69392" lon="-1.93336">
        <ele>4</ele>
        <time>2018-01-11T00:24:31Z</time>
      </trkpt>
      <trkpt lat="46.69392" lon="-1.93337">
        <ele>4</ele>
        <time>2018-01-11T00:25:31Z</time>
      </trkpt>
      <trkpt lat="46.69391" lon="-1.93337">
        <ele>4</ele>
        <time>2018-01-11T00:26:31Z</time>
      </trkpt>
      <trkpt lat="46.6939" lon="-1.93338">
        <ele>4</ele>
        <time>2018-01-11T00:27:31Z</time>
      </trkpt>
      <trkpt lat="46.69389" lon="-1.93338">
        <ele>4</ele>
        <time>2018-01-11T00:28:31Z</time>
      </trkpt>
      <trkpt lat="46.69388" lon="-1.93338">
        <ele>4</ele>
        <time>2018-01-11T00:29:31Z</time>
      </trkpt>
      <trkpt lat="46.69387" lon="-1.93338">
        <ele>4</ele>
        <time>2018-01-11T00:30:31Z</time>
      </trkpt>
      <trkpt lat="46.69386" lon="-1.93338">
        <ele>4</ele>
        <time>2018-01-11T00:31:31Z</time>
      </trkpt>
      <trkpt lat="46.69385" lon="-1.93338">
        <ele>4</ele>
        <time>2018-01-11T00:32:31Z</time>
      </trkpt>
      <trkpt lat="46.69384" lon="-1.93338">
        <ele>4</ele>
        <time>2018-01-11T00:33:31Z</time>
      </trkpt>
      <trkpt lat="46.69384" lon="-1.93337">
        <ele>4</ele>
        <time>2018-01-11T00:34:31Z</time>
      </trkpt>
      <trkpt lat="46.69383" lon="-1.93337">
        <ele>4</ele>
        <time>2018-01-11T00:35:31Z</time>
      </trkpt>
      <trkpt lat="46.69383" lon="-1.93336">
        <ele>4</ele>
        <time>2018-01-11T00:36:31Z</time>
      </trkpt>
      <trkpt lat="46.69382" lon="-1.93336">
        <ele>4</ele>
        <time>2018-01-11T00:37:31Z</time>
      </trkpt>
      <trkpt lat="46.69382" lon="-1.93335">
        <ele>4</ele>
        <time>2018-01-11T00:38:31Z</time>
      </trkpt>
      <trkpt lat="46.69381" lon="-1.93335">
        <ele>4</ele>
        <time>2018-01-11T00:39:31Z</time>
      </trkpt>
      <trkpt lat="46.69381" lon="-1.93334">
        <ele>4</ele>
        <time>2018-01-11T00:40:31Z</time>
      </trkpt>
      <trkpt lat="46.6938" lon="-1.93333">
        <ele>4</ele>
        <time>2018-01-11T00:41:31Z</time>
      </trkpt>
      <trkpt lat="46.6938" lon="-1.93332">
        <ele>4</ele>
        <time>2018-01-11T00:42:31Z</time>
      </trkpt>
      <trkpt lat="46.69379" lon="-1.93332">
        <ele>4</ele>
        <time>2018-01-11T00:43:31Z</time>
      </trkpt>
      <trkpt lat="46.69379" lon="-1.93331">
        <ele>4</ele>
        <time>2018-01-11T00:44:31Z</time>
      </trkpt>
      <trkpt lat="46.69379" lon="-1.9333">
        <ele>4</ele>
        <time>2018-01-11T00:45:31Z</time>
      </trkpt>
      <trkpt lat="46.69379" lon="-1.93329">
        <ele>4</ele>
        <time>2018-01-11T00:46:31Z</time>
      </trkpt>
      <trkpt lat="46.69376" lon="-1.93327">
        <ele>4</ele>
        <time>2018-01-11T00:47:31Z</time>
      </trkpt>
      <trkpt lat="46.69367" lon="-1.93325">
        <ele>4</ele>
        <time>2018-01-11T00:48:31Z</time>
      </trkpt>
      <trkpt lat="46.69363" lon="-1.93325">
        <ele>4</ele>
        <time>2018-01-11T00:49:31Z</time>
      </trkpt>
      <trkpt lat="46.69356" lon="-1.93325">
        <ele>4</ele>
        <time>2018-01-11T00:50:31Z</time>
      </trkpt>
      <trkpt lat="46.69353" lon="-1.93324">
        <ele>4</ele>
        <time>2018-01-11T00:51:31Z</time>
      </trkpt>
      <trkpt lat="46.69315" lon="-1.93317">
        <ele>4</ele>
        <time>2018-01-11T00:52:31Z</time>
      </trkpt>
      <trkpt lat="46.69286" lon="-1.93313">
        <ele>4</ele>
        <time>2018-01-11T00:53:31Z</time>
      </trkpt>
      <trkpt lat="46.6924" lon="-1.93303">
        <ele>3</ele>
        <time>2018-01-11T00:54:31Z</time>
      </trkpt>
      <trkpt lat="46.69218" lon="-1.933">
        <ele>3</ele>
        <time>2018-01-11T00:55:31Z</time>
      </trkpt>
      <trkpt lat="46.69217" lon="-1.933">
        <ele>3</ele>
        <time>2018-01-11T00:56:31Z</time>
      </trkpt>
      <trkpt lat="46.69209" lon="-1.93298">
        <ele>3</ele>
        <time>2018-01-11T00:57:31Z</time>
      </trkpt>
      <trkpt lat="46.69203" lon="-1.93298">
        <ele>3</ele>
        <time>2018-01-11T00:58:31Z</time>
      </trkpt>
      <trkpt lat="46.69197" lon="-1.93299">
        <ele>3</ele>
        <time>2018-01-11T00:59:31Z</time>
      </trkpt>
      <trkpt lat="46.69182" lon="-1.93301">
        <ele>3</ele>
        <time>2018-01-11T01:00:31Z</time>
      </trkpt>
      <trkpt lat="46.69182" lon="-1.93301">
        <ele>3</ele>
        <time>2018-01-11T01:01:31Z</time>
      </trkpt>
      <trkpt lat="46.6918" lon="-1.93305">
        <ele>3</ele>
        <time>2018-01-11T01:02:31Z</time>
      </trkpt>
      <trkpt lat="46.69177" lon="-1.93307">
        <ele>3</ele>
        <time>2018-01-11T01:03:31Z</time>
      </trkpt>
      <trkpt lat="46.69173" lon="-1.93307">
        <ele>3</ele>
        <time>2018-01-11T01:04:31Z</time>
      </trkpt>
      <trkpt lat="46.69169" lon="-1.93306">
        <ele>3</ele>
        <time>2018-01-11T01:05:31Z</time>
      </trkpt>
      <trkpt lat="46.69167" lon="-1.93304">
        <ele>3</ele>
        <time>2018-01-11T01:06:31Z</time>
      </trkpt>
      <trkpt lat="46.69165" lon="-1.93301">
        <ele>3</ele>
        <time>2018-01-11T01:07:31Z</time>
      </trkpt>
      <trkpt lat="46.69164" lon="-1.93298">
        <ele>3</ele>
        <time>2018-01-11T01:08:31Z</time>
      </trkpt>
      <trkpt lat="46.69163" lon="-1.93296">
        <ele>3</ele>
        <time>2018-01-11T01:09:31Z</time>
      </trkpt>
      <trkpt lat="46.69163" lon="-1.93293">
        <ele>2</ele>
        <time>2018-01-11T01:10:31Z</time>
      </trkpt>
      <trkpt lat="46.69163" lon="-1.93289">
        <ele>2</ele>
        <time>2018-01-11T01:11:31Z</time>
      </trkpt>
      <trkpt lat="46.69165" lon="-1.93285">
        <ele>2</ele>
        <time>2018-01-11T01:12:31Z</time>
      </trkpt>
      <trkpt lat="46.69169" lon="-1.9328">
        <ele>2</ele>
        <time>2018-01-11T01:13:31Z</time>
      </trkpt>
      <trkpt lat="46.69166" lon="-1.93273">
        <ele>2</ele>
        <time>2018-01-11T01:14:31Z</time>
      </trkpt>
      <trkpt lat="46.69166" lon="-1.93263">
        <ele>2</ele>
        <time>2018-01-11T01:15:31Z</time>
      </trkpt>
      <trkpt lat="46.69167" lon="-1.93252">
        <ele>2</ele>
        <time>2018-01-11T01:16:31Z</time>
      </trkpt>
      <trkpt lat="46.69169" lon="-1.93244">
        <ele>2</ele>
        <time>2018-01-11T01:17:31Z</time>
      </trkpt>
      <trkpt lat="46.69177" lon="-1.93193">
        <ele>4</ele>
        <time>2018-01-11T01:18:31Z</time>
      </trkpt>
      <trkpt lat="46.69179" lon="-1.9318">
        <ele>4</ele>
        <time>2018-01-11T01:19:31Z</time>
      </trkpt>
      <trkpt lat="46.69182" lon="-1.93159">
        <ele>4</ele>
        <time>2018-01-11T01:20:31Z</time>
      </trkpt>
      <trkpt lat="46.69183" lon="-1.9315">
        <ele>4</ele>
        <time>2018-01-11T01:21:31Z</time>
      </trkpt>
      <trkpt lat="46.69186" lon="-1.93138">
        <ele>4</ele>
        <time>2018-01-11T01:22:31Z</time>
      </trkpt>
      <trkpt lat="46.69187" lon="-1.93134">
        <ele>4</ele>
        <time>2018-01-11T01:23:31Z</time>
      </trkpt>
      <trkpt lat="46.6919" lon="-1.93125">
        <ele>4</ele>
        <time>2018-01-11T01:24:31Z</time>
      </trkpt>
      <trkpt lat="46.69194" lon="-1.93117">
        <ele>4</ele>
        <time>2018-01-11T01:25:31Z</time>
      </trkpt>
      <trkpt lat="46.69201" lon="-1.93103">
        <ele>4</ele>
        <time>2018-01-11T01:26:31Z</time>
      </trkpt>
      <trkpt lat="46.6921" lon="-1.93085">
        <ele>5</ele>
        <time>2018-01-11T01:27:31Z</time>
      </trkpt>
      <trkpt lat="46.69219" lon="-1.93065">
        <ele>5</ele>
        <time>2018-01-11T01:28:31Z</time>
      </trkpt>
      <trkpt lat="46.69224" lon="-1.93053">
        <ele>5</ele>
        <time>2018-01-11T01:29:31Z</time>
      </trkpt>
      <trkpt lat="46.69224" lon="-1.93053">
        <ele>5</ele>
        <time>2018-01-11T01:30:31Z</time>
      </trkpt>
      <trkpt lat="46.69217" lon="-1.93046">
        <ele>5</ele>
        <time>2018-01-11T01:31:31Z</time>
      </trkpt>
      <trkpt lat="46.69194" lon="-1.93026">
        <ele>5</ele>
        <time>2018-01-11T01:32:31Z</time>
      </trkpt>
      <trkpt lat="46.69175" lon="-1.93009">
        <ele>4</ele>
        <time>2018-01-11T01:33:31Z</time>
      </trkpt>
      <trkpt lat="46.6917" lon="-1.93005">
        <ele>4</ele>
        <time>2018-01-11T01:34:31Z</time>
      </trkpt>
      <trkpt lat="46.69154" lon="-1.92991">
        <ele>4</ele>
        <time>2018-01-11T01:35:31Z</time>
      </trkpt>
      <trkpt lat="46.69133" lon="-1.92971">
        <ele>4</ele>
        <time>2018-01-11T01:36:31Z</time>
      </trkpt>
      <trkpt lat="46.69107" lon="-1.92948">
        <ele>4</ele>
        <time>2018-01-11T01:37:31Z</time>
      </trkpt>
      <trkpt lat="46.69095" lon="-1.92938">
        <ele>4</ele>
        <time>2018-01-11T01:38:31Z</time>
      </trkpt>
      <trkpt lat="46.69068" lon="-1.92907">
        <ele>4</ele>
        <time>2018-01-11T01:39:31Z</time>
      </trkpt>
      <trkpt lat="46.69055" lon="-1.9289">
        <ele>4</ele>
        <time>2018-01-11T01:40:31Z</time>
      </trkpt>
      <trkpt lat="46.69038" lon="-1.92867">
        <ele>4</ele>
        <time>2018-01-11T01:41:31Z</time>
      </trkpt>
      <trkpt lat="46.69014" lon="-1.92836">
        <ele>4</ele>
        <time>2018-01-11T01:42:31Z</time>
      </trkpt>
      <trkpt lat="46.68993" lon="-1.92806">
        <ele>4</ele>
        <time>2018-01-11T01:43:31Z</time>
      </trkpt>
      <trkpt lat="46.68992" lon="-1.92805">
        <ele>4</ele>
        <time>2018-01-11T01:44:31Z</time>
      </trkpt>
      <trkpt lat="46.68977" lon="-1.92784">
        <ele>4</ele>
        <time>2018-01-11T01:45:31Z</time>
      </trkpt>
      <trkpt lat="46.68969" lon="-1.92774">
        <ele>4</ele>
        <time>2018-01-11T01:46:31Z</time>
      </trkpt>
      <trkpt lat="46.68965" lon="-1.92769">
        <ele>4</ele>
        <time>2018-01-11T01:47:31Z</time>
      </trkpt>
      <trkpt lat="46.68955" lon="-1.92755">
        <ele>4</ele>
        <time>2018-01-11T01:48:31Z</time>
      </trkpt>
      <trkpt lat="46.68947" lon="-1.92747">
        <ele>4</ele>
        <time>2018-01-11T01:49:31Z</time>
      </trkpt>
      <trkpt lat="46.68936" lon="-1.92737">
        <ele>4</ele>
        <time>2018-01-11T01:50:31Z</time>
      </trkpt>
      <trkpt lat="46.68926" lon="-1.9273">
        <ele>4</ele>
        <time>2018-01-11T01:51:31Z</time>
      </trkpt>
      <trkpt lat="46.68913" lon="-1.92723">
        <ele>4</ele>
        <time>2018-01-11T01:52:31Z</time>
      </trkpt>
      <trkpt lat="46.68897" lon="-1.92716">
        <ele>4</ele>
        <time>2018-01-11T01:53:31Z</time>
      </trkpt>
      <trkpt lat="46.68881" lon="-1.92711">
        <ele>5</ele>
        <time>2018-01-11T01:54:31Z</time>
      </trkpt>
      <trkpt lat="46.68869" lon="-1.92706">
        <ele>5</ele>
        <time>2018-01-11T01:55:31Z</time>
      </trkpt>
      <trkpt lat="46.6886" lon="-1.92704">
        <ele>6</ele>
        <time>2018-01-11T01:56:31Z</time>
      </trkpt>
      <trkpt lat="46.68859" lon="-1.92704">
        <ele>6</ele>
        <time>2018-01-11T01:57:31Z</time>
      </trkpt>
      <trkpt lat="46.68851" lon="-1.92698">
        <ele>6</ele>
        <time>2018-01-11T01:58:31Z</time>
      </trkpt>
      <trkpt lat="46.68851" lon="-1.92698">
        <ele>6</ele>
        <time>2018-01-11T01:59:31Z</time>
      </trkpt>
      <trkpt lat="46.68851" lon="-1.92699">
        <ele>6</ele>
        <time>2018-01-11T02:00:31Z</time>
      </trkpt>
      <trkpt lat="46.6885" lon="-1.92699">
        <ele>6</ele>
        <time>2018-01-11T02:01:31Z</time>
      </trkpt>
      <trkpt lat="46.68849" lon="-1.927">
        <ele>6</ele>
        <time>2018-01-11T02:02:31Z</time>
      </trkpt>
      <trkpt lat="46.68848" lon="-1.927">
        <ele>6</ele>
        <time>2018-01-11T02:03:31Z</time>
      </trkpt>
      <trkpt lat="46.68848" lon="-1.92701">
        <ele>6</ele>
        <time>2018-01-11T02:04:31Z</time>
      </trkpt>
      <trkpt lat="46.68847" lon="-1.92701">
        <ele>6</ele>
        <time>2018-01-11T02:05:31Z</time>
      </trkpt>
      <trkpt lat="46.68846" lon="-1.92701">
        <ele>6</ele>
        <time>2018-01-11T02:06:31Z</time>
      </trkpt>
      <trkpt lat="46.68845" lon="-1.92701">
        <ele>6</ele>
        <time>2018-01-11T02:07:31Z</time>
      </trkpt>
      <trkpt lat="46.68844" lon="-1.92701">
        <ele>7</ele>
        <time>2018-01-11T02:08:31Z</time>
      </trkpt>
      <trkpt lat="46.68844" lon="-1.927">
        <ele>7</ele>
        <time>2018-01-11T02:09:31Z</time>
      </trkpt>
      <trkpt lat="46.68843" lon="-1.927">
        <ele>7</ele>
        <time>2018-01-11T02:10:31Z</time>
      </trkpt>
      <trkpt lat="46.68842" lon="-1.92699">
        <ele>7</ele>
        <time>2018-01-11T02:11:31Z</time>
      </trkpt>
      <trkpt lat="46.68837" lon="-1.927">
        <ele>7</ele>
        <time>2018-01-11T02:12:31Z</time>
      </trkpt>
      <trkpt lat="46.68833" lon="-1.92701">
        <ele>7</ele>
        <time>2018-01-11T02:13:31Z</time>
      </trkpt>
      <trkpt lat="46.68828" lon="-1.927">
        <ele>7</ele>
        <time>2018-01-11T02:14:31Z</time>
      </trkpt>
      <trkpt lat="46.68827" lon="-1.927">
        <ele>7</ele>
        <time>2018-01-11T02:15:31Z</time>
      </trkpt>
      <trkpt lat="46.68827" lon="-1.92701">
        <ele>7</ele>
        <time>2018-01-11T02:16:31Z</time>
      </trkpt>
      <trkpt lat="46.68826" lon="-1.92701">
        <ele>7</ele>
        <time>2018-01-11T02:17:31Z</time>
      </trkpt>
      <trkpt lat="46.68826" lon="-1.92702">
        <ele>7</ele>
        <time>2018-01-11T02:18:31Z</time>
      </trkpt>
      <trkpt lat="46.68825" lon="-1.92702">
        <ele>7</ele>
        <time>2018-01-11T02:19:31Z</time>
      </trkpt>
      <trkpt lat="46.68825" lon="-1.92703">
        <ele>7</ele>
        <time>2018-01-11T02:20:31Z</time>
      </trkpt>
      <trkpt lat="46.68824" lon="-1.92703">
        <ele>7</ele>
        <time>2018-01-11T02:21:31Z</time>
      </trkpt>
      <trkpt lat="46.68823" lon="-1.92703">
        <ele>7</ele>
        <time>2018-01-11T02:22:31Z</time>
      </trkpt>
      <trkpt lat="46.68822" lon="-1.92703">
        <ele>7</ele>
        <time>2018-01-11T02:23:31Z</time>
      </trkpt>
      <trkpt lat="46.68821" lon="-1.92703">
        <ele>7</ele>
        <time>2018-01-11T02:24:31Z</time>
      </trkpt>
      <trkpt lat="46.68821" lon="-1.92702">
        <ele>7</ele>
        <time>2018-01-11T02:25:31Z</time>
      </trkpt>
      <trkpt lat="46.6882" lon="-1.92702">
        <ele>7</ele>
        <time>2018-01-11T02:26:31Z</time>
      </trkpt>
      <trkpt lat="46.6882" lon="-1.92701">
        <ele>7</ele>
        <time>2018-01-11T02:27:31Z</time>
      </trkpt>
      <trkpt lat="46.68819" lon="-1.92701">
        <ele>7</ele>
        <time>2018-01-11T02:28:31Z</time>
      </trkpt>
      <trkpt lat="46.68819" lon="-1.927">
        <ele>7</ele>
        <time>2018-01-11T02:29:31Z</time>
      </trkpt>
      <trkpt lat="46.68818" lon="-1.927">
        <ele>7</ele>
        <time>2018-01-11T02:30:31Z</time>
      </trkpt>
      <trkpt lat="46.68818" lon="-1.92699">
        <ele>7</ele>
        <time>2018-01-11T02:31:31Z</time>
      </trkpt>
      <trkpt lat="46.68818" lon="-1.92698">
        <ele>7</ele>
        <time>2018-01-11T02:32:31Z</time>
      </trkpt>
      <trkpt lat="46.68817" lon="-1.92698">
        <ele>7</ele>
        <time>2018-01-11T02:33:31Z</time>
      </trkpt>
      <trkpt lat="46.68817" lon="-1.92697">
        <ele>7</ele>
        <time>2018-01-11T02:34:31Z</time>
      </trkpt>
      <trkpt lat="46.68817" lon="-1.92696">
        <ele>7</ele>
        <time>2018-01-11T02:35:31Z</time>
      </trkpt>
      <trkpt lat="46.68817" lon="-1.92695">
        <ele>7</ele>
        <time>2018-01-11T02:36:31Z</time>
      </trkpt>
      <trkpt lat="46.68817" lon="-1.92694">
        <ele>7</ele>
        <time>2018-01-11T02:37:31Z</time>
      </trkpt>
      <trkpt lat="46.68817" lon="-1.92693">
        <ele>7</ele>
        <time>2018-01-11T02:38:31Z</time>
      </trkpt>
      <trkpt lat="46.68817" lon="-1.92692">
        <ele>7</ele>
        <time>2018-01-11T02:39:31Z</time>
      </trkpt>
      <trkpt lat="46.68817" lon="-1.92691">
        <ele>7</ele>
        <time>2018-01-11T02:40:31Z</time>
      </trkpt>
      <trkpt lat="46.68817" lon="-1.9269">
        <ele>7</ele>
        <time>2018-01-11T02:41:31Z</time>
      </trkpt>
      <trkpt lat="46.68804" lon="-1.92685">
        <ele>7</ele>
        <time>2018-01-11T02:42:31Z</time>
      </trkpt>
      <trkpt lat="46.68787" lon="-1.9268">
        <ele>8</ele>
        <time>2018-01-11T02:43:31Z</time>
      </trkpt>
      <trkpt lat="46.68776" lon="-1.92676">
        <ele>8</ele>
        <time>2018-01-11T02:44:31Z</time>
      </trkpt>
      <trkpt lat="46.6876" lon="-1.92669">
        <ele>8</ele>
        <time>2018-01-11T02:45:31Z</time>
      </trkpt>
      <trkpt lat="46.68759" lon="-1.92668">
        <ele>8</ele>
        <time>2018-01-11T02:46:31Z</time>
      </trkpt>
      <trkpt lat="46.68733" lon="-1.92654">
        <ele>8</ele>
        <time>2018-01-11T02:47:31Z</time>
      </trkpt>
      <trkpt lat="46.68732" lon="-1.92654">
        <ele>8</ele>
        <time>2018-01-11T02:48:31Z</time>
      </trkpt>
      <trkpt lat="46.68707" lon="-1.92638">
        <ele>9</ele>
        <time>2018-01-11T02:49:31Z</time>
      </trkpt>
      <trkpt lat="46.68669" lon="-1.92615">
        <ele>10</ele>
        <time>2018-01-11T02:50:31Z</time>
      </trkpt>
      <trkpt lat="46.68651" lon="-1.92602">
        <ele>10</ele>
        <time>2018-01-11T02:51:31Z</time>
      </trkpt>
      <trkpt lat="46.68644" lon="-1.92596">
        <ele>10</ele>
        <time>2018-01-11T02:52:31Z</time>
      </trkpt>
      <trkpt lat="46.68635" lon="-1.92588">
        <ele>10</ele>
        <time>2018-01-11T02:53:31Z</time>
      </trkpt>
      <trkpt lat="46.68634" lon="-1.92586">
        <ele>10</ele>
        <time>2018-01-11T02:54:31Z</time>
      </trkpt>
      <trkpt lat="46.68629" lon="-1.9258">
        <ele>10</ele>
        <time>2018-01-11T02:55:31Z</time>
      </trkpt>
      <trkpt lat="46.68625" lon="-1.92575">
        <ele>10</ele>
        <time>2018-01-11T02:56:31Z</time>
      </trkpt>
      <trkpt lat="46.68616" lon="-1.92563">
        <ele>10</ele>
        <time>2018-01-11T02:57:31Z</time>
      </trkpt>
      <trkpt lat="46.68605" lon="-1.92548">
        <ele>10</ele>
        <time>2018-01-11T02:58:31Z</time>
      </trkpt>
      <trkpt lat="46.68594" lon="-1.92534">
        <ele>10</ele>
        <time>2018-01-11T02:59:31Z</time>
      </trkpt>
      <trkpt lat="46.68589" lon="-1.92528">
        <ele>10</ele>
        <time>2018-01-11T03:00:31Z</time>
      </trkpt>
      <trkpt lat="46.68567" lon="-1.925">
        <ele>10</ele>
        <time>2018-01-11T03:01:31Z</time>
      </trkpt>
      <trkpt lat="46.68549" lon="-1.92476">
        <ele>10</ele>
        <time>2018-01-11T03:02:31Z</time>
      </trkpt>
      <trkpt lat="46.68538" lon="-1.92464">
        <ele>10</ele>
        <time>2018-01-11T03:03:31Z</time>
      </trkpt>
      <trkpt lat="46.68532" lon="-1.92456">
        <ele>10</ele>
        <time>2018-01-11T03:04:31Z</time>
      </trkpt>
      <trkpt lat="46.68528" lon="-1.9245">
        <ele>10</ele>
        <time>2018-01-11T03:05:31Z</time>
      </trkpt>
      <trkpt lat="46.68514" lon="-1.92436">
        <ele>10</ele>
        <time>2018-01-11T03:06:31Z</time>
      </trkpt>
      <trkpt lat="46.68505" lon="-1.92428">
        <ele>10</ele>
        <time>2018-01-11T03:07:31Z</time>
      </trkpt>
      <trkpt lat="46.68495" lon="-1.9242">
        <ele>10</ele>
        <time>2018-01-11T03:08:31Z</time>
      </trkpt>
      <trkpt lat="46.68487" lon="-1.92415">
        <ele>10</ele>
        <time>2018-01-11T03:09:31Z</time>
      </trkpt>
      <trkpt lat="46.68481" lon="-1.92411">
        <ele>10</ele>
        <time>2018-01-11T03:10:31Z</time>
      </trkpt>
      <trkpt lat="46.68472" lon="-1.92408">
        <ele>10</ele>
        <time>2018-01-11T03:11:31Z</time>
      </trkpt>
      <trkpt lat="46.68463" lon="-1.92406">
        <ele>10</ele>
        <time>2018-01-11T03:12:31Z</time>
      </trkpt>
      <trkpt lat="46.68454" lon="-1.92404">
        <ele>10</ele>
        <time>2018-01-11T03:13:31Z</time>
      </trkpt>
      <trkpt lat="46.68447" lon="-1.92403">
        <ele>10</ele>
        <time>2018-01-11T03:14:31Z</time>
      </trkpt>
      <trkpt lat="46.68435" lon="-1.924">
        <ele>10</ele>
        <time>2018-01-11T03:15:31Z</time>
      </trkpt>
      <trkpt lat="46.68426" lon="-1.92396">
        <ele>10</ele>
        <time>2018-01-11T03:16:31Z</time>
      </trkpt>
      <trkpt lat="46.68413" lon="-1.92388">
        <ele>10</ele>
        <time>2018-01-11T03:17:31Z</time>
      </trkpt>
      <trkpt lat="46.68403" lon="-1.9238">
        <ele>10</ele>
        <time>2018-01-11T03:18:31Z</time>
      </trkpt>
      <trkpt lat="46.68389" lon="-1.92363">
        <ele>10</ele>
        <time>2018-01-11T03:19:31Z</time>
      </trkpt>
      <trkpt lat="46.6838" lon="-1.92351">
        <ele>10</ele>
        <time>2018-01-11T03:20:31Z</time>
      </trkpt>
      <trkpt lat="46.68377" lon="-1.92346">
        <ele>10</ele>
        <time>2018-01-11T03:21:31Z</time>
      </trkpt>
      <trkpt lat="46.6837" lon="-1.92334">
        <ele>10</ele>
        <time>2018-01-11T03:22:31Z</time>
      </trkpt>
      <trkpt lat="46.68355" lon="-1.92305">
        <ele>10</ele>
        <time>2018-01-11T03:23:31Z</time>
      </trkpt>
      <trkpt lat="46.6833" lon="-1.92261">
        <ele>9</ele>
        <time>2018-01-11T03:24:31Z</time>
      </trkpt>
      <trkpt lat="46.6832" lon="-1.92245">
        <ele>9</ele>
        <time>2018-01-11T03:25:31Z</time>
      </trkpt>
      <trkpt lat="46.68306" lon="-1.92219">
        <ele>9</ele>
        <time>2018-01-11T03:26:31Z</time>
      </trkpt>
      <trkpt lat="46.68291" lon="-1.92193">
        <ele>8</ele>
        <time>2018-01-11T03:27:31Z</time>
      </trkpt>
      <trkpt lat="46.68286" lon="-1.92186">
        <ele>8</ele>
        <time>2018-01-11T03:28:31Z</time>
      </trkpt>
      <trkpt lat="46.68277" lon="-1.92172">
        <ele>8</ele>
        <time>2018-01-11T03:29:31Z</time>
      </trkpt>
      <trkpt lat="46.68267" lon="-1.92157">
        <ele>7</ele>
        <time>2018-01-11T03:30:31Z</time>
      </trkpt>
      <trkpt lat="46.68255" lon="-1.9214">
        <ele>7</ele>
        <time>2018-01-11T03:31:31Z</time>
      </trkpt>
      <trkpt lat="46.6823" lon="-1.92107">
        <ele>7</ele>
        <time>2018-01-11T03:32:31Z</time>
      </trkpt>
      <trkpt lat="46.68227" lon="-1.92103">
        <ele>7</ele>
        <time>2018-01-11T03:33:31Z</time>
      </trkpt>
      <trkpt lat="46.68224" lon="-1.92098">
        <ele>7</ele>
        <time>2018-01-11T03:34:31Z</time>
      </trkpt>
      <trkpt lat="46.68224" lon="-1.92097">
        <ele>7</ele>
        <time>2018-01-11T03:35:31Z</time>
      </trkpt>
      <trkpt lat="46.6822" lon="-1.92091">
        <ele>7</ele>
        <time>2018-01-11T03:36:31Z</time>
      </trkpt>
      <trkpt lat="46.68208" lon="-1.92073">
        <ele>7</ele>
        <time>2018-01-11T03:37:31Z</time>
      </trkpt>
      <trkpt lat="46.68198" lon="-1.92057">
        <ele>7</ele>
        <time>2018-01-11T03:38:31Z</time>
      </trkpt>
      <trkpt lat="46.68174" lon="-1.92025">
        <ele>8</ele>
        <time>2018-01-11T03:39:31Z</time>
      </trkpt>
      <trkpt lat="46.68158" lon="-1.92003">
        <ele>8</ele>
        <time>2018-01-11T03:40:31Z</time>
      </trkpt>
      <trkpt lat="46.68115" lon="-1.91941">
        <ele>8</ele>
        <time>2018-01-11T03:41:31Z</time>
      </trkpt>
      <trkpt lat="46.68083" lon="-1.91897">
        <ele>8</ele>
        <time>2018-01-11T03:42:31Z</time>
      </trkpt>
      <trkpt lat="46.68057" lon="-1.91858">
        <ele>8</ele>
        <time>2018-01-11T03:43:31Z</time>
      </trkpt>
      <trkpt lat="46.68041" lon="-1.91836">
        <ele>8</ele>
        <time>2018-01-11T03:44:31Z</time>
      </trkpt>
      <trkpt lat="46.68033" lon="-1.91825">
        <ele>8</ele>
        <time>2018-01-11T03:45:31Z</time>
      </trkpt>
      <trkpt lat="46.68022" lon="-1.91808">
        <ele>8</ele>
        <time>2018-01-11T03:46:31Z</time>
      </trkpt>
      <trkpt lat="46.68" lon="-1.91776">
        <ele>8</ele>
        <time>2018-01-11T03:47:31Z</time>
      </trkpt>
      <trkpt lat="46.67972" lon="-1.91737">
        <ele>7</ele>
        <time>2018-01-11T03:48:31Z</time>
      </trkpt>
      <trkpt lat="46.67947" lon="-1.91703">
        <ele>7</ele>
        <time>2018-01-11T03:49:31Z</time>
      </trkpt>
      <trkpt lat="46.67928" lon="-1.91675">
        <ele>7</ele>
        <time>2018-01-11T03:50:31Z</time>
      </trkpt>
      <trkpt lat="46.67898" lon="-1.91633">
        <ele>7</ele>
        <time>2018-01-11T03:51:31Z</time>
      </trkpt>
      <trkpt lat="46.67883" lon="-1.91611">
        <ele>6</ele>
        <time>2018-01-11T03:52:31Z</time>
      </trkpt>
      <trkpt lat="46.67864" lon="-1.91583">
        <ele>6</ele>
        <time>2018-01-11T03:53:31Z</time>
      </trkpt>
      <trkpt lat="46.6784" lon="-1.91552">
        <ele>6</ele>
        <time>2018-01-11T03:54:31Z</time>
      </trkpt>
      <trkpt lat="46.67831" lon="-1.91538">
        <ele>6</ele>
        <time>2018-01-11T03:55:31Z</time>
      </trkpt>
      <trkpt lat="46.67783" lon="-1.91471">
        <ele>6</ele>
        <time>2018-01-11T03:56:31Z</time>
      </trkpt>
      <trkpt lat="46.67747" lon="-1.9142">
        <ele>6</ele>
        <time>2018-01-11T03:57:31Z</time>
      </trkpt>
      <trkpt lat="46.67743" lon="-1.91414">
        <ele>6</ele>
        <time>2018-01-11T03:58:31Z</time>
      </trkpt>
      <trkpt lat="46.67704" lon="-1.91358">
        <ele>5</ele>
        <time>2018-01-11T03:59:31Z</time>
      </trkpt>
      <trkpt lat="46.67662" lon="-1.91298">
        <ele>5</ele>
        <time>2018-01-11T04:00:31Z</time>
      </trkpt>
      <trkpt lat="46.67634" lon="-1.91261">
        <ele>5</ele>
        <time>2018-01-11T04:01:31Z</time>
      </trkpt>
      <trkpt lat="46.67612" lon="-1.91228">
        <ele>5</ele>
        <time>2018-01-11T04:02:31Z</time>
      </trkpt>
      <trkpt lat="46.67587" lon="-1.91194">
        <ele>6</ele>
        <time>2018-01-11T04:03:31Z</time>
      </trkpt>
      <trkpt lat="46.67578" lon="-1.91181">
        <ele>6</ele>
        <time>2018-01-11T04:04:31Z</time>
      </trkpt>
      <trkpt lat="46.67546" lon="-1.91137">
        <ele>5</ele>
        <time>2018-01-11T04:05:31Z</time>
      </trkpt>
      <trkpt lat="46.67518" lon="-1.91097">
        <ele>5</ele>
        <time>2018-01-11T04:06:31Z</time>
      </trkpt>
      <trkpt lat="46.6749" lon="-1.9106">
        <ele>5</ele>
        <time>2018-01-11T04:07:31Z</time>
      </trkpt>
      <trkpt lat="46.67469" lon="-1.9103">
        <ele>4</ele>
        <time>2018-01-11T04:08:31Z</time>
      </trkpt>
      <trkpt lat="46.67456" lon="-1.9101">
        <ele>4</ele>
        <time>2018-01-11T04:09:31Z</time>
      </trkpt>
      <trkpt lat="46.67452" lon="-1.91005">
        <ele>4</ele>
        <time>2018-01-11T04:10:31Z</time>
      </trkpt>
      <trkpt lat="46.67446" lon="-1.90996">
        <ele>4</ele>
        <time>2018-01-11T04:11:31Z</time>
      </trkpt>
      <trkpt lat="46.6744" lon="-1.90984">
        <ele>4</ele>
        <time>2018-01-11T04:12:31Z</time>
      </trkpt>
      <trkpt lat="46.67435" lon="-1.90971">
        <ele>3</ele>
        <time>2018-01-11T04:13:31Z</time>
      </trkpt>
      <trkpt lat="46.67435" lon="-1.90971">
        <ele>3</ele>
        <time>2018-01-11T04:14:31Z</time>
      </trkpt>
      <trkpt lat="46.67432" lon="-1.90969">
        <ele>3</ele>
        <time>2018-01-11T04:15:31Z</time>
      </trkpt>
      <trkpt lat="46.6743" lon="-1.90968">
        <ele>3</ele>
        <time>2018-01-11T04:16:31Z</time>
      </trkpt>
      <trkpt lat="46.67429" lon="-1.90967">
        <ele>3</ele>
        <time>2018-01-11T04:17:31Z</time>
      </trkpt>
      <trkpt lat="46.67427" lon="-1.90965">
        <ele>3</ele>
        <time>2018-01-11T04:18:31Z</time>
      </trkpt>
      <trkpt lat="46.67426" lon="-1.90964">
        <ele>3</ele>
        <time>2018-01-11T04:19:31Z</time>
      </trkpt>
      <trkpt lat="46.67424" lon="-1.90962">
        <ele>3</ele>
        <time>2018-01-11T04:20:31Z</time>
      </trkpt>
      <trkpt lat="46.67423" lon="-1.9096">
        <ele>3</ele>
        <time>2018-01-11T04:21:31Z</time>
      </trkpt>
      <trkpt lat="46.67422" lon="-1.90958">
        <ele>3</ele>
        <time>2018-01-11T04:22:31Z</time>
      </trkpt>
      <trkpt lat="46.67421" lon="-1.90956">
        <ele>3</ele>
        <time>2018-01-11T04:23:31Z</time>
      </trkpt>
      <trkpt lat="46.6742" lon="-1.90953">
        <ele>3</ele>
        <time>2018-01-11T04:24:31Z</time>
      </trkpt>
      <trkpt lat="46.6742" lon="-1.90951">
        <ele>3</ele>
        <time>2018-01-11T04:25:31Z</time>
      </trkpt>
      <trkpt lat="46.6742" lon="-1.9095">
        <ele>3</ele>
        <time>2018-01-11T04:26:31Z</time>
      </trkpt>
      <trkpt lat="46.67419" lon="-1.9095">
        <ele>3</ele>
        <time>2018-01-11T04:27:31Z</time>
      </trkpt>
      <trkpt lat="46.67419" lon="-1.90949">
        <ele>3</ele>
        <time>2018-01-11T04:28:31Z</time>
      </trkpt>
      <trkpt lat="46.67419" lon="-1.90948">
        <ele>3</ele>
        <time>2018-01-11T04:29:31Z</time>
      </trkpt>
      <trkpt lat="46.67419" lon="-1.90947">
        <ele>3</ele>
        <time>2018-01-11T04:30:31Z</time>
      </trkpt>
      <trkpt lat="46.67419" lon="-1.90946">
        <ele>3</ele>
        <time>2018-01-11T04:31:31Z</time>
      </trkpt>
      <trkpt lat="46.67414" lon="-1.90938">
        <ele>3</ele>
        <time>2018-01-11T04:32:31Z</time>
      </trkpt>
      <trkpt lat="46.67409" lon="-1.90932">
        <ele>3</ele>
        <time>2018-01-11T04:33:31Z</time>
      </trkpt>
      <trkpt lat="46.67407" lon="-1.90929">
        <ele>3</ele>
        <time>2018-01-11T04:34:31Z</time>
      </trkpt>
      <trkpt lat="46.67405" lon="-1.90925">
        <ele>3</ele>
        <time>2018-01-11T04:35:31Z</time>
      </trkpt>
      <trkpt lat="46.67398" lon="-1.90917">
        <ele>3</ele>
        <time>2018-01-11T04:36:31Z</time>
      </trkpt>
      <trkpt lat="46.67384" lon="-1.90901">
        <ele>3</ele>
        <time>2018-01-11T04:37:31Z</time>
      </trkpt>
      <trkpt lat="46.67344" lon="-1.90854">
        <ele>2</ele>
        <time>2018-01-11T04:38:31Z</time>
      </trkpt>
      <trkpt lat="46.67339" lon="-1.90844">
        <ele>2</ele>
        <time>2018-01-11T04:39:31Z</time>
      </trkpt>
      <trkpt lat="46.67336" lon="-1.9084">
        <ele>2</ele>
        <time>2018-01-11T04:40:31Z</time>
      </trkpt>
      <trkpt lat="46.67333" lon="-1.90837">
        <ele>2</ele>
        <time>2018-01-11T04:41:31Z</time>
      </trkpt>
      <trkpt lat="46.6733" lon="-1.90833">
        <ele>2</ele>
        <time>2018-01-11T04:42:31Z</time>
      </trkpt>
      <trkpt lat="46.67327" lon="-1.90829">
        <ele>2</ele>
        <time>2018-01-11T04:43:31Z</time>
      </trkpt>
      <trkpt lat="46.67323" lon="-1.90824">
        <ele>2</ele>
        <time>2018-01-11T04:44:31Z</time>
      </trkpt>
      <trkpt lat="46.6732" lon="-1.90819">
        <ele>2</ele>
        <time>2018-01-11T04:45:31Z</time>
      </trkpt>
      <trkpt lat="46.67313" lon="-1.9081">
        <ele>2</ele>
        <time>2018-01-11T04:46:31Z</time>
      </trkpt>
      <trkpt lat="46.67301" lon="-1.90794">
        <ele>2</ele>
        <time>2018-01-11T04:47:31Z</time>
      </trkpt>
      <trkpt lat="46.67282" lon="-1.90767">
        <ele>3</ele>
        <time>2018-01-11T04:48:31Z</time>
      </trkpt>
      <trkpt lat="46.67255" lon="-1.90729">
        <ele>3</ele>
        <time>2018-01-11T04:49:31Z</time>
      </trkpt>
      <trkpt lat="46.67226" lon="-1.90688">
        <ele>4</ele>
        <time>2018-01-11T04:50:31Z</time>
      </trkpt>
      <trkpt lat="46.67205" lon="-1.90658">
        <ele>4</ele>
        <time>2018-01-11T04:51:31Z</time>
      </trkpt>
      <trkpt lat="46.67166" lon="-1.90604">
        <ele>5</ele>
        <time>2018-01-11T04:52:31Z</time>
      </trkpt>
      <trkpt lat="46.67105" lon="-1.90518">
        <ele>5</ele>
        <time>2018-01-11T04:53:31Z</time>
      </trkpt>
      <trkpt lat="46.67097" lon="-1.90511">
        <ele>5</ele>
        <time>2018-01-11T04:54:31Z</time>
      </trkpt>
      <trkpt lat="46.67055" lon="-1.90456">
        <ele>5</ele>
        <time>2018-01-11T04:55:31Z</time>
      </trkpt>
      <trkpt lat="46.67046" lon="-1.90444">
        <ele>5</ele>
        <time>2018-01-11T04:56:31Z</time>
      </trkpt>
      <trkpt lat="46.67037" lon="-1.9043">
        <ele>5</ele>
        <time>2018-01-11T04:57:31Z</time>
      </trkpt>
      <trkpt lat="46.67034" lon="-1.90427">
        <ele>5</ele>
        <time>2018-01-11T04:58:31Z</time>
      </trkpt>
      <trkpt lat="46.67019" lon="-1.90408">
        <ele>5</ele>
        <time>2018-01-11T04:59:31Z</time>
      </trkpt>
      <trkpt lat="46.67018" lon="-1.90407">
        <ele>5</ele>
        <time>2018-01-11T05:00:31Z</time>
      </trkpt>
      <trkpt lat="46.67017" lon="-1.90406">
        <ele>5</ele>
        <time>2018-01-11T05:01:31Z</time>
      </trkpt>
      <trkpt lat="46.67016" lon="-1.90404">
        <ele>5</ele>
        <time>2018-01-11T05:02:31Z</time>
      </trkpt>
      <trkpt lat="46.67014" lon="-1.90402">
        <ele>5</ele>
        <time>2018-01-11T05:03:31Z</time>
      </trkpt>
      <trkpt lat="46.67012" lon="-1.90399">
        <ele>5</ele>
        <time>2018-01-11T05:04:31Z</time>
      </trkpt>
      <trkpt lat="46.66999" lon="-1.9038">
        <ele>5</ele>
        <time>2018-01-11T05:05:31Z</time>
      </trkpt>
      <trkpt lat="46.66997" lon="-1.90377">
        <ele>5</ele>
        <time>2018-01-11T05:06:31Z</time>
      </trkpt>
      <trkpt lat="46.66995" lon="-1.90374">
        <ele>5</ele>
        <time>2018-01-11T05:07:31Z</time>
      </trkpt>
      <trkpt lat="46.66993" lon="-1.90372">
        <ele>5</ele>
        <time>2018-01-11T05:08:31Z</time>
      </trkpt>
      <trkpt lat="46.66982" lon="-1.90356">
        <ele>5</ele>
        <time>2018-01-11T05:09:31Z</time>
      </trkpt>
      <trkpt lat="46.66982" lon="-1.90356">
        <ele>5</ele>
        <time>2018-01-11T05:10:31Z</time>
      </trkpt>
      <trkpt lat="46.66981" lon="-1.90356">
        <ele>5</ele>
        <time>2018-01-11T05:11:31Z</time>
      </trkpt>
      <trkpt lat="46.66979" lon="-1.90355">
        <ele>5</ele>
        <time>2018-01-11T05:12:31Z</time>
      </trkpt>
      <trkpt lat="46.66978" lon="-1.90355">
        <ele>5</ele>
        <time>2018-01-11T05:13:31Z</time>
      </trkpt>
      <trkpt lat="46.66977" lon="-1.90354">
        <ele>5</ele>
        <time>2018-01-11T05:14:31Z</time>
      </trkpt>
      <trkpt lat="46.66976" lon="-1.90353">
        <ele>5</ele>
        <time>2018-01-11T05:15:31Z</time>
      </trkpt>
      <trkpt lat="46.66975" lon="-1.90352">
        <ele>5</ele>
        <time>2018-01-11T05:16:31Z</time>
      </trkpt>
      <trkpt lat="46.66974" lon="-1.90351">
        <ele>5</ele>
        <time>2018-01-11T05:17:31Z</time>
      </trkpt>
      <trkpt lat="46.66973" lon="-1.9035">
        <ele>5</ele>
        <time>2018-01-11T05:18:31Z</time>
      </trkpt>
      <trkpt lat="46.66972" lon="-1.90349">
        <ele>5</ele>
        <time>2018-01-11T05:19:31Z</time>
      </trkpt>
      <trkpt lat="46.66971" lon="-1.90348">
        <ele>5</ele>
        <time>2018-01-11T05:20:31Z</time>
      </trkpt>
      <trkpt lat="46.6697" lon="-1.90346">
        <ele>5</ele>
        <time>2018-01-11T05:21:31Z</time>
      </trkpt>
      <trkpt lat="46.66969" lon="-1.90345">
        <ele>5</ele>
        <time>2018-01-11T05:22:31Z</time>
      </trkpt>
      <trkpt lat="46.66969" lon="-1.90343">
        <ele>5</ele>
        <time>2018-01-11T05:23:31Z</time>
      </trkpt>
      <trkpt lat="46.66968" lon="-1.90341">
        <ele>5</ele>
        <time>2018-01-11T05:24:31Z</time>
      </trkpt>
      <trkpt lat="46.66968" lon="-1.9034">
        <ele>5</ele>
        <time>2018-01-11T05:25:31Z</time>
      </trkpt>
      <trkpt lat="46.66967" lon="-1.90338">
        <ele>5</ele>
        <time>2018-01-11T05:26:31Z</time>
      </trkpt>
      <trkpt lat="46.66967" lon="-1.90335">
        <ele>5</ele>
        <time>2018-01-11T05:27:31Z</time>
      </trkpt>
      <trkpt lat="46.66963" lon="-1.90329">
        <ele>5</ele>
        <time>2018-01-11T05:28:31Z</time>
      </trkpt>
      <trkpt lat="46.66956" lon="-1.90318">
        <ele>5</ele>
        <time>2018-01-11T05:29:31Z</time>
      </trkpt>
      <trkpt lat="46.66936" lon="-1.90291">
        <ele>5</ele>
        <time>2018-01-11T05:30:31Z</time>
      </trkpt>
      <trkpt lat="46.66926" lon="-1.90283">
        <ele>5</ele>
        <time>2018-01-11T05:31:31Z</time>
      </trkpt>
      <trkpt lat="46.66922" lon="-1.90279">
        <ele>5</ele>
        <time>2018-01-11T05:32:31Z</time>
      </trkpt>
      <trkpt lat="46.66917" lon="-1.90275">
        <ele>5</ele>
        <time>2018-01-11T05:33:31Z</time>
      </trkpt>
      <trkpt lat="46.66913" lon="-1.90272">
        <ele>5</ele>
        <time>2018-01-11T05:34:31Z</time>
      </trkpt>
      <trkpt lat="46.66908" lon="-1.90269">
        <ele>5</ele>
        <time>2018-01-11T05:35:31Z</time>
      </trkpt>
      <trkpt lat="46.66902" lon="-1.90265">
        <ele>5</ele>
        <time>2018-01-11T05:36:31Z</time>
      </trkpt>
      <trkpt lat="46.66895" lon="-1.90261">
        <ele>5</ele>
        <time>2018-01-11T05:37:31Z</time>
      </trkpt>
      <trkpt lat="46.66891" lon="-1.90258">
        <ele>5</ele>
        <time>2018-01-11T05:38:31Z</time>
      </trkpt>
      <trkpt lat="46.66887" lon="-1.90256">
        <ele>5</ele>
        <time>2018-01-11T05:39:31Z</time>
      </trkpt>
      <trkpt lat="46.66883" lon="-1.90253">
        <ele>5</ele>
        <time>2018-01-11T05:40:31Z</time>
      </trkpt>
      <trkpt lat="46.66878" lon="-1.90251">
        <ele>5</ele>
        <time>2018-01-11T05:41:31Z</time>
      </trkpt>
      <trkpt lat="46.66874" lon="-1.90248">
        <ele>5</ele>
        <time>2018-01-11T05:42:31Z</time>
      </trkpt>
      <trkpt lat="46.66868" lon="-1.90245">
        <ele>5</ele>
        <time>2018-01-11T05:43:31Z</time>
      </trkpt>
      <trkpt lat="46.66863" lon="-1.90243">
        <ele>5</ele>
        <time>2018-01-11T05:44:31Z</time>
      </trkpt>
      <trkpt lat="46.66848" lon="-1.90237">
        <ele>5</ele>
        <time>2018-01-11T05:45:31Z</time>
      </trkpt>
      <trkpt lat="46.66842" lon="-1.90237">
        <ele>5</ele>
        <time>2018-01-11T05:46:31Z</time>
      </trkpt>
      <trkpt lat="46.66834" lon="-1.90235">
        <ele>5</ele>
        <time>2018-01-11T05:47:31Z</time>
      </trkpt>
      <trkpt lat="46.66812" lon="-1.9023">
        <ele>5</ele>
        <time>2018-01-11T05:48:31Z</time>
      </trkpt>
      <trkpt lat="46.66774" lon="-1.90221">
        <ele>5</ele>
        <time>2018-01-11T05:49:31Z</time>
      </trkpt>
      <trkpt lat="46.66754" lon="-1.90216">
        <ele>5</ele>
        <time>2018-01-11T05:50:31Z</time>
      </trkpt>
      <trkpt lat="46.66747" lon="-1.90214">
        <ele>5</ele>
        <time>2018-01-11T05:51:31Z</time>
      </trkpt>
      <trkpt lat="46.66649" lon="-1.9019">
        <ele>5</ele>
        <time>2018-01-11T05:52:31Z</time>
      </trkpt>
      <trkpt lat="46.66644" lon="-1.90186">
        <ele>5</ele>
        <time>2018-01-11T05:53:31Z</time>
      </trkpt>
      <trkpt lat="46.66598" lon="-1.90175">
        <ele>4</ele>
        <time>2018-01-11T05:54:31Z</time>
      </trkpt>
      <trkpt lat="46.66556" lon="-1.90164">
        <ele>3</ele>
        <time>2018-01-11T05:55:31Z</time>
      </trkpt>
      <trkpt lat="46.66457" lon="-1.90141">
        <ele>3</ele>
        <time>2018-01-11T05:56:31Z</time>
      </trkpt>
      <trkpt lat="46.66365" lon="-1.90118">
        <ele>1</ele>
        <time>2018-01-11T05:57:31Z</time>
      </trkpt>
      <trkpt lat="46.6636" lon="-1.90117">
        <ele>1</ele>
        <time>2018-01-11T05:58:31Z</time>
      </trkpt>
      <trkpt lat="46.66354" lon="-1.90116">
        <ele>1</ele>
        <time>2018-01-11T05:59:31Z</time>
      </trkpt>
      <trkpt lat="46.66342" lon="-1.90113">
        <ele>1</ele>
        <time>2018-01-11T06:00:31Z</time>
      </trkpt>
      <trkpt lat="46.66335" lon="-1.90111">
        <ele>1</ele>
        <time>2018-01-11T06:01:31Z</time>
      </trkpt>
      <trkpt lat="46.66328" lon="-1.90109">
        <ele>1</ele>
        <time>2018-01-11T06:02:31Z</time>
      </trkpt>
      <trkpt lat="46.66301" lon="-1.90103">
        <ele>1</ele>
        <time>2018-01-11T06:03:31Z</time>
      </trkpt>
      <trkpt lat="46.66278" lon="-1.90097">
        <ele>2</ele>
        <time>2018-01-11T06:04:31Z</time>
      </trkpt>
      <trkpt lat="46.66265" lon="-1.90094">
        <ele>2</ele>
        <time>2018-01-11T06:05:31Z</time>
      </trkpt>
      <trkpt lat="46.66258" lon="-1.90092">
        <ele>2</ele>
        <time>2018-01-11T06:06:31Z</time>
      </trkpt>
      <trkpt lat="46.66254" lon="-1.90091">
        <ele>2</ele>
        <time>2018-01-11T06:07:31Z</time>
      </trkpt>
      <trkpt lat="46.66251" lon="-1.90089">
        <ele>2</ele>
        <time>2018-01-11T06:08:31Z</time>
      </trkpt>
      <trkpt lat="46.66244" lon="-1.90087">
        <ele>2</ele>
        <time>2018-01-11T06:09:31Z</time>
      </trkpt>
      <trkpt lat="46.66237" lon="-1.90084">
        <ele>2</ele>
        <time>2018-01-11T06:10:31Z</time>
      </trkpt>
      <trkpt lat="46.66229" lon="-1.9008">
        <ele>3</ele>
        <time>2018-01-11T06:11:31Z</time>
      </trkpt>
      <trkpt lat="46.66223" lon="-1.90077">
        <ele>3</ele>
        <time>2018-01-11T06:12:31Z</time>
      </trkpt>
      <trkpt lat="46.66216" lon="-1.90073">
        <ele>3</ele>
        <time>2018-01-11T06:13:31Z</time>
      </trkpt>
      <trkpt lat="46.66205" lon="-1.90067">
        <ele>3</ele>
        <time>2018-01-11T06:14:31Z</time>
      </trkpt>
      <trkpt lat="46.66183" lon="-1.90053">
        <ele>4</ele>
        <time>2018-01-11T06:15:31Z</time>
      </trkpt>
      <trkpt lat="46.6615" lon="-1.90033">
        <ele>5</ele>
        <time>2018-01-11T06:16:31Z</time>
      </trkpt>
      <trkpt lat="46.66116" lon="-1.90011">
        <ele>6</ele>
        <time>2018-01-11T06:17:31Z</time>
      </trkpt>
      <trkpt lat="46.6609" lon="-1.89996">
        <ele>7</ele>
        <time>2018-01-11T06:18:31Z</time>
      </trkpt>
      <trkpt lat="46.66074" lon="-1.89986">
        <ele>7</ele>
        <time>2018-01-11T06:19:31Z</time>
      </trkpt>
      <trkpt lat="46.66028" lon="-1.89956">
        <ele>8</ele>
        <time>2018-01-11T06:20:31Z</time>
      </trkpt>
      <trkpt lat="46.65975" lon="-1.89922">
        <ele>7</ele>
        <time>2018-01-11T06:21:31Z</time>
      </trkpt>
      <trkpt lat="46.65958" lon="-1.89911">
        <ele>6</ele>
        <time>2018-01-11T06:22:31Z</time>
      </trkpt>
      <trkpt lat="46.65944" lon="-1.89901">
        <ele>7</ele>
        <time>2018-01-11T06:23:31Z</time>
      </trkpt>
      <trkpt lat="46.65878" lon="-1.8986">
        <ele>7</ele>
        <time>2018-01-11T06:24:31Z</time>
      </trkpt>
      <trkpt lat="46.65759" lon="-1.89784">
        <ele>8</ele>
        <time>2018-01-11T06:25:31Z</time>
      </trkpt>
      <trkpt lat="46.65631" lon="-1.89698">
        <ele>8</ele>
        <time>2018-01-11T06:26:31Z</time>
      </trkpt>
      <trkpt lat="46.65546" lon="-1.89643">
        <ele>7</ele>
        <time>2018-01-11T06:27:31Z</time>
      </trkpt>
      <trkpt lat="46.65541" lon="-1.89641">
        <ele>7</ele>
        <time>2018-01-11T06:28:31Z</time>
      </trkpt>
      <trkpt lat="46.65489" lon="-1.89605">
        <ele>7</ele>
        <time>2018-01-11T06:29:31Z</time>
      </trkpt>
      <trkpt lat="46.65461" lon="-1.89586">
        <ele>8</ele>
        <time>2018-01-11T06:30:31Z</time>
      </trkpt>
      <trkpt lat="46.65438" lon="-1.89566">
        <ele>7</ele>
        <time>2018-01-11T06:31:31Z</time>
      </trkpt>
      <trkpt lat="46.65434" lon="-1.89563">
        <ele>7</ele>
        <time>2018-01-11T06:32:31Z</time>
      </trkpt>
      <trkpt lat="46.65366" lon="-1.89503">
        <ele>6</ele>
        <time>2018-01-11T06:33:31Z</time>
      </trkpt>
      <trkpt lat="46.65299" lon="-1.8943">
        <ele>6</ele>
        <time>2018-01-11T06:34:31Z</time>
      </trkpt>
      <trkpt lat="46.65293" lon="-1.8942">
        <ele>6</ele>
        <time>2018-01-11T06:35:31Z</time>
      </trkpt>
      <trkpt lat="46.65265" lon="-1.89391">
        <ele>6</ele>
        <time>2018-01-11T06:36:31Z</time>
      </trkpt>
      <trkpt lat="46.6525" lon="-1.89376">
        <ele>6</ele>
        <time>2018-01-11T06:37:31Z</time>
      </trkpt>
      <trkpt lat="46.65231" lon="-1.89359">
        <ele>7</ele>
        <time>2018-01-11T06:38:31Z</time>
      </trkpt>
      <trkpt lat="46.65215" lon="-1.89348">
        <ele>8</ele>
        <time>2018-01-11T06:39:31Z</time>
      </trkpt>
      <trkpt lat="46.65193" lon="-1.89334">
        <ele>9</ele>
        <time>2018-01-11T06:40:31Z</time>
      </trkpt>
      <trkpt lat="46.65156" lon="-1.89313">
        <ele>11</ele>
        <time>2018-01-11T06:41:31Z</time>
      </trkpt>
      <trkpt lat="46.65124" lon="-1.89296">
        <ele>12</ele>
        <time>2018-01-11T06:42:31Z</time>
      </trkpt>
      <trkpt lat="46.65045" lon="-1.89253">
        <ele>13</ele>
        <time>2018-01-11T06:43:31Z</time>
      </trkpt>
      <trkpt lat="46.65005" lon="-1.89232">
        <ele>14</ele>
        <time>2018-01-11T06:44:31Z</time>
      </trkpt>
      <trkpt lat="46.6496" lon="-1.89207">
        <ele>15</ele>
        <time>2018-01-11T06:45:31Z</time>
      </trkpt>
      <trkpt lat="46.6489" lon="-1.89171">
        <ele>16</ele>
        <time>2018-01-11T06:46:31Z</time>
      </trkpt>
      <trkpt lat="46.6486" lon="-1.89155">
        <ele>17</ele>
        <time>2018-01-11T06:47:31Z</time>
      </trkpt>
      <trkpt lat="46.64822" lon="-1.89134">
        <ele>17</ele>
        <time>2018-01-11T06:48:31Z</time>
      </trkpt>
      <trkpt lat="46.64788" lon="-1.89116">
        <ele>18</ele>
        <time>2018-01-11T06:49:31Z</time>
      </trkpt>
      <trkpt lat="46.64754" lon="-1.89098">
        <ele>18</ele>
        <time>2018-01-11T06:50:31Z</time>
      </trkpt>
      <trkpt lat="46.64722" lon="-1.8908">
        <ele>18</ele>
        <time>2018-01-11T06:51:31Z</time>
      </trkpt>
      <trkpt lat="46.64692" lon="-1.89065">
        <ele>17</ele>
        <time>2018-01-11T06:52:31Z</time>
      </trkpt>
      <trkpt lat="46.64673" lon="-1.89055">
        <ele>17</ele>
        <time>2018-01-11T06:53:31Z</time>
      </trkpt>
      <trkpt lat="46.64665" lon="-1.89053">
        <ele>17</ele>
        <time>2018-01-11T06:54:31Z</time>
      </trkpt>
      <trkpt lat="46.64655" lon="-1.89047">
        <ele>17</ele>
        <time>2018-01-11T06:55:31Z</time>
      </trkpt>
      <trkpt lat="46.64646" lon="-1.89042">
        <ele>16</ele>
        <time>2018-01-11T06:56:31Z</time>
      </trkpt>
      <trkpt lat="46.64639" lon="-1.89039">
        <ele>16</ele>
        <time>2018-01-11T06:57:31Z</time>
      </trkpt>
      <trkpt lat="46.64632" lon="-1.89035">
        <ele>16</ele>
        <time>2018-01-11T06:58:31Z</time>
      </trkpt>
      <trkpt lat="46.64623" lon="-1.8903">
        <ele>16</ele>
        <time>2018-01-11T06:59:31Z</time>
      </trkpt>
      <trkpt lat="46.64619" lon="-1.89028">
        <ele>16</ele>
        <time>2018-01-11T07:00:31Z</time>
      </trkpt>
      <trkpt lat="46.64616" lon="-1.89026">
        <ele>16</ele>
        <time>2018-01-11T07:01:31Z</time>
      </trkpt>
      <trkpt lat="46.64614" lon="-1.89025">
        <ele>16</ele>
        <time>2018-01-11T07:02:31Z</time>
      </trkpt>
      <trkpt lat="46.64604" lon="-1.8902">
        <ele>16</ele>
        <time>2018-01-11T07:03:31Z</time>
      </trkpt>
      <trkpt lat="46.64604" lon="-1.8902">
        <ele>16</ele>
        <time>2018-01-11T07:04:31Z</time>
      </trkpt>
      <trkpt lat="46.64603" lon="-1.8902">
        <ele>16</ele>
        <time>2018-01-11T07:05:31Z</time>
      </trkpt>
      <trkpt lat="46.64603" lon="-1.89021">
        <ele>16</ele>
        <time>2018-01-11T07:06:31Z</time>
      </trkpt>
      <trkpt lat="46.64602" lon="-1.89021">
        <ele>16</ele>
        <time>2018-01-11T07:07:31Z</time>
      </trkpt>
      <trkpt lat="46.64601" lon="-1.89021">
        <ele>16</ele>
        <time>2018-01-11T07:08:31Z</time>
      </trkpt>
      <trkpt lat="46.646" lon="-1.89021">
        <ele>16</ele>
        <time>2018-01-11T07:09:31Z</time>
      </trkpt>
      <trkpt lat="46.64599" lon="-1.89021">
        <ele>16</ele>
        <time>2018-01-11T07:10:31Z</time>
      </trkpt>
      <trkpt lat="46.64598" lon="-1.89021">
        <ele>16</ele>
        <time>2018-01-11T07:11:31Z</time>
      </trkpt>
      <trkpt lat="46.64597" lon="-1.8902">
        <ele>16</ele>
        <time>2018-01-11T07:12:31Z</time>
      </trkpt>
      <trkpt lat="46.64596" lon="-1.8902">
        <ele>16</ele>
        <time>2018-01-11T07:13:31Z</time>
      </trkpt>
      <trkpt lat="46.64587" lon="-1.89023">
        <ele>16</ele>
        <time>2018-01-11T07:14:31Z</time>
      </trkpt>
      <trkpt lat="46.64578" lon="-1.89025">
        <ele>16</ele>
        <time>2018-01-11T07:15:31Z</time>
      </trkpt>
      <trkpt lat="46.64578" lon="-1.89025">
        <ele>16</ele>
        <time>2018-01-11T07:16:31Z</time>
      </trkpt>
      <trkpt lat="46.64572" lon="-1.89028">
        <ele>16</ele>
        <time>2018-01-11T07:17:31Z</time>
      </trkpt>
      <trkpt lat="46.64567" lon="-1.89029">
        <ele>16</ele>
        <time>2018-01-11T07:18:31Z</time>
      </trkpt>
      <trkpt lat="46.6455" lon="-1.8903">
        <ele>16</ele>
        <time>2018-01-11T07:19:31Z</time>
      </trkpt>
      <trkpt lat="46.64538" lon="-1.89032">
        <ele>16</ele>
        <time>2018-01-11T07:20:31Z</time>
      </trkpt>
      <trkpt lat="46.64531" lon="-1.89032">
        <ele>16</ele>
        <time>2018-01-11T07:21:31Z</time>
      </trkpt>
      <trkpt lat="46.64521" lon="-1.89032">
        <ele>16</ele>
        <time>2018-01-11T07:22:31Z</time>
      </trkpt>
      <trkpt lat="46.64508" lon="-1.8903">
        <ele>16</ele>
        <time>2018-01-11T07:23:31Z</time>
      </trkpt>
      <trkpt lat="46.64492" lon="-1.89026">
        <ele>16</ele>
        <time>2018-01-11T07:24:31Z</time>
      </trkpt>
      <trkpt lat="46.64478" lon="-1.89024">
        <ele>16</ele>
        <time>2018-01-11T07:25:31Z</time>
      </trkpt>
      <trkpt lat="46.64476" lon="-1.89024">
        <ele>16</ele>
        <time>2018-01-11T07:26:31Z</time>
      </trkpt>
      <trkpt lat="46.64463" lon="-1.89023">
        <ele>16</ele>
        <time>2018-01-11T07:27:31Z</time>
      </trkpt>
      <trkpt lat="46.64446" lon="-1.89023">
        <ele>16</ele>
        <time>2018-01-11T07:28:31Z</time>
      </trkpt>
      <trkpt lat="46.64431" lon="-1.89023">
        <ele>16</ele>
        <time>2018-01-11T07:29:31Z</time>
      </trkpt>
      <trkpt lat="46.6442" lon="-1.89024">
        <ele>16</ele>
        <time>2018-01-11T07:30:31Z</time>
      </trkpt>
      <trkpt lat="46.64411" lon="-1.89025">
        <ele>16</ele>
        <time>2018-01-11T07:31:31Z</time>
      </trkpt>
      <trkpt lat="46.64389" lon="-1.89028">
        <ele>16</ele>
        <time>2018-01-11T07:32:31Z</time>
      </trkpt>
      <trkpt lat="46.64363" lon="-1.89032">
        <ele>15</ele>
        <time>2018-01-11T07:33:31Z</time>
      </trkpt>
      <trkpt lat="46.64346" lon="-1.89036">
        <ele>15</ele>
        <time>2018-01-11T07:34:31Z</time>
      </trkpt>
      <trkpt lat="46.64322" lon="-1.89039">
        <ele>15</ele>
        <time>2018-01-11T07:35:31Z</time>
      </trkpt>
      <trkpt lat="46.64302" lon="-1.89042">
        <ele>15</ele>
        <time>2018-01-11T07:36:31Z</time>
      </trkpt>
      <trkpt lat="46.64288" lon="-1.89044">
        <ele>15</ele>
        <time>2018-01-11T07:37:31Z</time>
      </trkpt>
      <trkpt lat="46.64272" lon="-1.89045">
        <ele>15</ele>
        <time>2018-01-11T07:38:31Z</time>
      </trkpt>
      <trkpt lat="46.64266" lon="-1.89045">
        <ele>15</ele>
        <time>2018-01-11T07:39:31Z</time>
      </trkpt>
      <trkpt lat="46.64254" lon="-1.89044">
        <ele>15</ele>
        <time>2018-01-11T07:40:31Z</time>
      </trkpt>
      <trkpt lat="46.64241" lon="-1.89043">
        <ele>15</ele>
        <time>2018-01-11T07:41:31Z</time>
      </trkpt>
      <trkpt lat="46.64238" lon="-1.89043">
        <ele>15</ele>
        <time>2018-01-11T07:42:31Z</time>
      </trkpt>
      <trkpt lat="46.64233" lon="-1.89042">
        <ele>15</ele>
        <time>2018-01-11T07:43:31Z</time>
      </trkpt>
      <trkpt lat="46.64228" lon="-1.89041">
        <ele>15</ele>
        <time>2018-01-11T07:44:31Z</time>
      </trkpt>
      <trkpt lat="46.64223" lon="-1.89041">
        <ele>15</ele>
        <time>2018-01-11T07:45:31Z</time>
      </trkpt>
      <trkpt lat="46.6422" lon="-1.89043">
        <ele>14</ele>
        <time>2018-01-11T07:46:31Z</time>
      </trkpt>
      <trkpt lat="46.6422" lon="-1.89043">
        <ele>14</ele>
        <time>2018-01-11T07:47:31Z</time>
      </trkpt>
      <trkpt lat="46.64217" lon="-1.8905">
        <ele>14</ele>
        <time>2018-01-11T07:48:31Z</time>
      </trkpt>
      <trkpt lat="46.64214" lon="-1.89064">
        <ele>14</ele>
        <time>2018-01-11T07:49:31Z</time>
      </trkpt>
      <trkpt lat="46.6421" lon="-1.89074">
        <ele>14</ele>
        <time>2018-01-11T07:50:31Z</time>
      </trkpt>
      <trkpt lat="46.64204" lon="-1.89084">
        <ele>14</ele>
        <time>2018-01-11T07:51:31Z</time>
      </trkpt>
      <trkpt lat="46.64198" lon="-1.89091">
        <ele>14</ele>
        <time>2018-01-11T07:52:31Z</time>
      </trkpt>
      <trkpt lat="46.64193" lon="-1.89095">
        <ele>14</ele>
        <time>2018-01-11T07:53:31Z</time>
      </trkpt>
      <trkpt lat="46.64188" lon="-1.89101">
        <ele>14</ele>
        <time>2018-01-11T07:54:31Z</time>
      </trkpt>
      <trkpt lat="46.64187" lon="-1.89101">
        <ele>13</ele>
        <time>2018-01-11T07:55:31Z</time>
      </trkpt>
      <trkpt lat="46.64175" lon="-1.8911">
        <ele>13</ele>
        <time>2018-01-11T07:56:31Z</time>
      </trkpt>
      <trkpt lat="46.64161" lon="-1.89123">
        <ele>13</ele>
        <time>2018-01-11T07:57:31Z</time>
      </trkpt>
      <trkpt lat="46.64147" lon="-1.89136">
        <ele>13</ele>
        <time>2018-01-11T07:58:31Z</time>
      </trkpt>
      <trkpt lat="46.64135" lon="-1.89148">
        <ele>13</ele>
        <time>2018-01-11T07:59:31Z</time>
      </trkpt>
      <trkpt lat="46.64133" lon="-1.89149">
        <ele>13</ele>
        <time>2018-01-11T08:00:31Z</time>
      </trkpt>
      <trkpt lat="46.64126" lon="-1.8916">
        <ele>13</ele>
        <time>2018-01-11T08:01:31Z</time>
      </trkpt>
      <trkpt lat="46.64121" lon="-1.8917">
        <ele>12</ele>
        <time>2018-01-11T08:02:31Z</time>
      </trkpt>
      <trkpt lat="46.64107" lon="-1.892">
        <ele>12</ele>
        <time>2018-01-11T08:03:31Z</time>
      </trkpt>
      <trkpt lat="46.64078" lon="-1.89253">
        <ele>11</ele>
        <time>2018-01-11T08:04:31Z</time>
      </trkpt>
      <trkpt lat="46.64061" lon="-1.89283">
        <ele>11</ele>
        <time>2018-01-11T08:05:31Z</time>
      </trkpt>
      <trkpt lat="46.64056" lon="-1.89296">
        <ele>10</ele>
        <time>2018-01-11T08:06:31Z</time>
      </trkpt>
      <trkpt lat="46.64043" lon="-1.89336">
        <ele>10</ele>
        <time>2018-01-11T08:07:31Z</time>
      </trkpt>
      <trkpt lat="46.64032" lon="-1.89371">
        <ele>9</ele>
        <time>2018-01-11T08:08:31Z</time>
      </trkpt>
      <trkpt lat="46.64014" lon="-1.89408">
        <ele>8</ele>
        <time>2018-01-11T08:09:31Z</time>
      </trkpt>
      <trkpt lat="46.64001" lon="-1.89419">
        <ele>7</ele>
        <time>2018-01-11T08:10:31Z</time>
      </trkpt>
      <trkpt lat="46.63993" lon="-1.8942">
        <ele>7</ele>
        <time>2018-01-11T08:11:31Z</time>
      </trkpt>
      <trkpt lat="46.6398" lon="-1.89421">
        <ele>6</ele>
        <time>2018-01-11T08:12:31Z</time>
      </trkpt>
      <trkpt lat="46.63967" lon="-1.89421">
        <ele>6</ele>
        <time>2018-01-11T08:13:31Z</time>
      </trkpt>
      <trkpt lat="46.63967" lon="-1.89421">
        <ele>6</ele>
        <time>2018-01-11T08:14:31Z</time>
      </trkpt>
      <trkpt lat="46.6395" lon="-1.89424">
        <ele>6</ele>
        <time>2018-01-11T08:15:31Z</time>
      </trkpt>
      <trkpt lat="46.63935" lon="-1.89424">
        <ele>5</ele>
        <time>2018-01-11T08:16:31Z</time>
      </trkpt>
      <trkpt lat="46.63925" lon="-1.89422">
        <ele>5</ele>
        <time>2018-01-11T08:17:31Z</time>
      </trkpt>
      <trkpt lat="46.63919" lon="-1.89416">
        <ele>5</ele>
        <time>2018-01-11T08:18:31Z</time>
      </trkpt>
      <trkpt lat="46.63915" lon="-1.89412">
        <ele>5</ele>
        <time>2018-01-11T08:19:31Z</time>
      </trkpt>
      <trkpt lat="46.6391" lon="-1.89405">
        <ele>5</ele>
        <time>2018-01-11T08:20:31Z</time>
      </trkpt>
      <trkpt lat="46.63888" lon="-1.89374">
        <ele>6</ele>
        <time>2018-01-11T08:21:31Z</time>
      </trkpt>
      <trkpt lat="46.63884" lon="-1.89368">
        <ele>6</ele>
        <time>2018-01-11T08:22:31Z</time>
      </trkpt>
      <trkpt lat="46.63865" lon="-1.89341">
        <ele>7</ele>
        <time>2018-01-11T08:23:31Z</time>
      </trkpt>
      <trkpt lat="46.63852" lon="-1.89324">
        <ele>7</ele>
        <time>2018-01-11T08:24:31Z</time>
      </trkpt>
      <trkpt lat="46.63847" lon="-1.89315">
        <ele>7</ele>
        <time>2018-01-11T08:25:31Z</time>
      </trkpt>
      <trkpt lat="46.63831" lon="-1.89294">
        <ele>7</ele>
        <time>2018-01-11T08:26:31Z</time>
      </trkpt>
      <trkpt lat="46.63817" lon="-1.89276">
        <ele>7</ele>
        <time>2018-01-11T08:27:31Z</time>
      </trkpt>
      <trkpt lat="46.63807" lon="-1.89261">
        <ele>7</ele>
        <time>2018-01-11T08:28:31Z</time>
      </trkpt>
      <trkpt lat="46.63802" lon="-1.89252">
        <ele>8</ele>
        <time>2018-01-11T08:29:31Z</time>
      </trkpt>
      <trkpt lat="46.63789" lon="-1.89237">
        <ele>8</ele>
        <time>2018-01-11T08:30:31Z</time>
      </trkpt>
      <trkpt lat="46.6374" lon="-1.892">
        <ele>9</ele>
        <time>2018-01-11T08:31:31Z</time>
      </trkpt>
      <trkpt lat="46.63718" lon="-1.89185">
        <ele>8</ele>
        <time>2018-01-11T08:32:31Z</time>
      </trkpt>
      <trkpt lat="46.63712" lon="-1.89179">
        <ele>9</ele>
        <time>2018-01-11T08:33:31Z</time>
      </trkpt>
      <trkpt lat="46.63686" lon="-1.89162">
        <ele>9</ele>
        <time>2018-01-11T08:34:31Z</time>
      </trkpt>
      <trkpt lat="46.63657" lon="-1.89143">
        <ele>9</ele>
        <time>2018-01-11T08:35:31Z</time>
      </trkpt>
      <trkpt lat="46.63632" lon="-1.89124">
        <ele>8</ele>
        <time>2018-01-11T08:36:31Z</time>
      </trkpt>
      <trkpt lat="46.6363" lon="-1.89123">
        <ele>8</ele>
        <time>2018-01-11T08:37:31Z</time>
      </trkpt>
      <trkpt lat="46.63629" lon="-1.89121">
        <ele>8</ele>
        <time>2018-01-11T08:38:31Z</time>
      </trkpt>
      <trkpt lat="46.63619" lon="-1.89114">
        <ele>8</ele>
        <time>2018-01-11T08:39:31Z</time>
      </trkpt>
      <trkpt lat="46.63543" lon="-1.89061">
        <ele>6</ele>
        <time>2018-01-11T08:40:31Z</time>
      </trkpt>
      <trkpt lat="46.63536" lon="-1.89053">
        <ele>6</ele>
        <time>2018-01-11T08:41:31Z</time>
      </trkpt>
      <trkpt lat="46.63534" lon="-1.89049">
        <ele>6</ele>
        <time>2018-01-11T08:42:31Z</time>
      </trkpt>
      <trkpt lat="46.6353" lon="-1.89043">
        <ele>6</ele>
        <time>2018-01-11T08:43:31Z</time>
      </trkpt>
      <trkpt lat="46.63524" lon="-1.89032">
        <ele>6</ele>
        <time>2018-01-11T08:44:31Z</time>
      </trkpt>
      <trkpt lat="46.6352" lon="-1.89022">
        <ele>6</ele>
        <time>2018-01-11T08:45:31Z</time>
      </trkpt>
      <trkpt lat="46.63518" lon="-1.89017">
        <ele>6</ele>
        <time>2018-01-11T08:46:31Z</time>
      </trkpt>
      <trkpt lat="46.63504" lon="-1.88984">
        <ele>7</ele>
        <time>2018-01-11T08:47:31Z</time>
      </trkpt>
      <trkpt lat="46.63494" lon="-1.88958">
        <ele>8</ele>
        <time>2018-01-11T08:48:31Z</time>
      </trkpt>
      <trkpt lat="46.63479" lon="-1.88922">
        <ele>8</ele>
        <time>2018-01-11T08:49:31Z</time>
      </trkpt>
      <trkpt lat="46.63465" lon="-1.88888">
        <ele>8</ele>
        <time>2018-01-11T08:50:31Z</time>
      </trkpt>
      <trkpt lat="46.63453" lon="-1.88859">
        <ele>8</ele>
        <time>2018-01-11T08:51:31Z</time>
      </trkpt>
      <trkpt lat="46.63442" lon="-1.88833">
        <ele>8</ele>
        <time>2018-01-11T08:52:31Z</time>
      </trkpt>
      <trkpt lat="46.63433" lon="-1.88811">
        <ele>7</ele>
        <time>2018-01-11T08:53:31Z</time>
      </trkpt>
      <trkpt lat="46.63423" lon="-1.88789">
        <ele>7</ele>
        <time>2018-01-11T08:54:31Z</time>
      </trkpt>
      <trkpt lat="46.6342" lon="-1.88781">
        <ele>7</ele>
        <time>2018-01-11T08:55:31Z</time>
      </trkpt>
      <trkpt lat="46.63413" lon="-1.88765">
        <ele>7</ele>
        <time>2018-01-11T08:56:31Z</time>
      </trkpt>
      <trkpt lat="46.63406" lon="-1.88754">
        <ele>7</ele>
        <time>2018-01-11T08:57:31Z</time>
      </trkpt>
      <trkpt lat="46.63396" lon="-1.88741">
        <ele>7</ele>
        <time>2018-01-11T08:58:31Z</time>
      </trkpt>
      <trkpt lat="46.63385" lon="-1.8873">
        <ele>7</ele>
        <time>2018-01-11T08:59:31Z</time>
      </trkpt>
      <trkpt lat="46.63368" lon="-1.88714">
        <ele>7</ele>
        <time>2018-01-11T09:00:31Z</time>
      </trkpt>
      <trkpt lat="46.63344" lon="-1.88693">
        <ele>7</ele>
        <time>2018-01-11T09:01:31Z</time>
      </trkpt>
      <trkpt lat="46.63322" lon="-1.8867">
        <ele>7</ele>
        <time>2018-01-11T09:02:31Z</time>
      </trkpt>
      <trkpt lat="46.63312" lon="-1.88658">
        <ele>6</ele>
        <time>2018-01-11T09:03:31Z</time>
      </trkpt>
      <trkpt lat="46.63303" lon="-1.88642">
        <ele>6</ele>
        <time>2018-01-11T09:04:31Z</time>
      </trkpt>
      <trkpt lat="46.63292" lon="-1.88623">
        <ele>6</ele>
        <time>2018-01-11T09:05:31Z</time>
      </trkpt>
      <trkpt lat="46.63289" lon="-1.88618">
        <ele>6</ele>
        <time>2018-01-11T09:06:31Z</time>
      </trkpt>
      <trkpt lat="46.6328" lon="-1.88599">
        <ele>6</ele>
        <time>2018-01-11T09:07:31Z</time>
      </trkpt>
      <trkpt lat="46.63273" lon="-1.88585">
        <ele>6</ele>
        <time>2018-01-11T09:08:31Z</time>
      </trkpt>
      <trkpt lat="46.63268" lon="-1.88575">
        <ele>6</ele>
        <time>2018-01-11T09:09:31Z</time>
      </trkpt>
      <trkpt lat="46.63263" lon="-1.88567">
        <ele>6</ele>
        <time>2018-01-11T09:10:31Z</time>
      </trkpt>
      <trkpt lat="46.63252" lon="-1.88548">
        <ele>6</ele>
        <time>2018-01-11T09:11:31Z</time>
      </trkpt>
      <trkpt lat="46.63234" lon="-1.88515">
        <ele>6</ele>
        <time>2018-01-11T09:12:31Z</time>
      </trkpt>
      <trkpt lat="46.6322" lon="-1.88488">
        <ele>6</ele>
        <time>2018-01-11T09:13:31Z</time>
      </trkpt>
      <trkpt lat="46.63208" lon="-1.88464">
        <ele>5</ele>
        <time>2018-01-11T09:14:31Z</time>
      </trkpt>
      <trkpt lat="46.632" lon="-1.88448">
        <ele>5</ele>
        <time>2018-01-11T09:15:31Z</time>
      </trkpt>
      <trkpt lat="46.63195" lon="-1.88434">
        <ele>6</ele>
        <time>2018-01-11T09:16:31Z</time>
      </trkpt>
      <trkpt lat="46.6319" lon="-1.88402">
        <ele>6</ele>
        <time>2018-01-11T09:17:31Z</time>
      </trkpt>
      <trkpt lat="46.63183" lon="-1.88351">
        <ele>6</ele>
        <time>2018-01-11T09:18:31Z</time>
      </trkpt>
      <trkpt lat="46.63176" lon="-1.88306">
        <ele>6</ele>
        <time>2018-01-11T09:19:31Z</time>
      </trkpt>
      <trkpt lat="46.63173" lon="-1.88287">
        <ele>6</ele>
        <time>2018-01-11T09:20:31Z</time>
      </trkpt>
      <trkpt lat="46.63168" lon="-1.88249">
        <ele>7</ele>
        <time>2018-01-11T09:21:31Z</time>
      </trkpt>
      <trkpt lat="46.63164" lon="-1.8822">
        <ele>6</ele>
        <time>2018-01-11T09:22:31Z</time>
      </trkpt>
      <trkpt lat="46.63161" lon="-1.88202">
        <ele>6</ele>
        <time>2018-01-11T09:23:31Z</time>
      </trkpt>
      <trkpt lat="46.63157" lon="-1.8817">
        <ele>6</ele>
        <time>2018-01-11T09:24:31Z</time>
      </trkpt>
      <trkpt lat="46.63154" lon="-1.88152">
        <ele>9</ele>
        <time>2018-01-11T09:25:31Z</time>
      </trkpt>
      <trkpt lat="46.63151" lon="-1.88138">
        <ele>9</ele>
        <time>2018-01-11T09:26:31Z</time>
      </trkpt>
      <trkpt lat="46.63146" lon="-1.88123">
        <ele>9</ele>
        <time>2018-01-11T09:27:31Z</time>
      </trkpt>
      <trkpt lat="46.63146" lon="-1.88123">
        <ele>9</ele>
        <time>2018-01-11T09:28:31Z</time>
      </trkpt>
      <trkpt lat="46.63139" lon="-1.8811">
        <ele>9</ele>
        <time>2018-01-11T09:29:31Z</time>
      </trkpt>
      <trkpt lat="46.63126" lon="-1.88085">
        <ele>9</ele>
        <time>2018-01-11T09:30:31Z</time>
      </trkpt>
      <trkpt lat="46.63118" lon="-1.88071">
        <ele>9</ele>
        <time>2018-01-11T09:31:31Z</time>
      </trkpt>
      <trkpt lat="46.63104" lon="-1.88049">
        <ele>10</ele>
        <time>2018-01-11T09:32:31Z</time>
      </trkpt>
      <trkpt lat="46.63085" lon="-1.88018">
        <ele>12</ele>
        <time>2018-01-11T09:33:31Z</time>
      </trkpt>
      <trkpt lat="46.63075" lon="-1.88003">
        <ele>12</ele>
        <time>2018-01-11T09:34:31Z</time>
      </trkpt>
      <trkpt lat="46.63066" lon="-1.87991">
        <ele>11</ele>
        <time>2018-01-11T09:35:31Z</time>
      </trkpt>
      <trkpt lat="46.63059" lon="-1.8798">
        <ele>11</ele>
        <time>2018-01-11T09:36:31Z</time>
      </trkpt>
      <trkpt lat="46.6305" lon="-1.87961">
        <ele>10</ele>
        <time>2018-01-11T09:37:31Z</time>
      </trkpt>
      <trkpt lat="46.63043" lon="-1.87942">
        <ele>10</ele>
        <time>2018-01-11T09:38:31Z</time>
      </trkpt>
      <trkpt lat="46.63032" lon="-1.87907">
        <ele>10</ele>
        <time>2018-01-11T09:39:31Z</time>
      </trkpt>
      <trkpt lat="46.63022" lon="-1.87871">
        <ele>10</ele>
        <time>2018-01-11T09:40:31Z</time>
      </trkpt>
      <trkpt lat="46.63022" lon="-1.87869">
        <ele>10</ele>
        <time>2018-01-11T09:41:31Z</time>
      </trkpt>
      <trkpt lat="46.63013" lon="-1.87838">
        <ele>10</ele>
        <time>2018-01-11T09:42:31Z</time>
      </trkpt>
      <trkpt lat="46.63001" lon="-1.87801">
        <ele>10</ele>
        <time>2018-01-11T09:43:31Z</time>
      </trkpt>
      <trkpt lat="46.62994" lon="-1.87775">
        <ele>10</ele>
        <time>2018-01-11T09:44:31Z</time>
      </trkpt>
      <trkpt lat="46.62989" lon="-1.87763">
        <ele>10</ele>
        <time>2018-01-11T09:45:31Z</time>
      </trkpt>
      <trkpt lat="46.62988" lon="-1.87761">
        <ele>10</ele>
        <time>2018-01-11T09:46:31Z</time>
      </trkpt>
      <trkpt lat="46.62984" lon="-1.87753">
        <ele>9</ele>
        <time>2018-01-11T09:47:31Z</time>
      </trkpt>
      <trkpt lat="46.62975" lon="-1.87736">
        <ele>9</ele>
        <time>2018-01-11T09:48:31Z</time>
      </trkpt>
      <trkpt lat="46.62969" lon="-1.87725">
        <ele>9</ele>
        <time>2018-01-11T09:49:31Z</time>
      </trkpt>
      <trkpt lat="46.62955" lon="-1.87701">
        <ele>9</ele>
        <time>2018-01-11T09:50:31Z</time>
      </trkpt>
      <trkpt lat="46.62903" lon="-1.87611">
        <ele>8</ele>
        <time>2018-01-11T09:51:31Z</time>
      </trkpt>
      <trkpt lat="46.62898" lon="-1.87599">
        <ele>8</ele>
        <time>2018-01-11T09:52:31Z</time>
      </trkpt>
      <trkpt lat="46.62897" lon="-1.87596">
        <ele>8</ele>
        <time>2018-01-11T09:53:31Z</time>
      </trkpt>
      <trkpt lat="46.62886" lon="-1.87578">
        <ele>8</ele>
        <time>2018-01-11T09:54:31Z</time>
      </trkpt>
      <trkpt lat="46.62875" lon="-1.87559">
        <ele>8</ele>
        <time>2018-01-11T09:55:31Z</time>
      </trkpt>
      <trkpt lat="46.62872" lon="-1.87553">
        <ele>8</ele>
        <time>2018-01-11T09:56:31Z</time>
      </trkpt>
      <trkpt lat="46.62856" lon="-1.87526">
        <ele>8</ele>
        <time>2018-01-11T09:57:31Z</time>
      </trkpt>
      <trkpt lat="46.62846" lon="-1.87513">
        <ele>9</ele>
        <time>2018-01-11T09:58:31Z</time>
      </trkpt>
      <trkpt lat="46.62837" lon="-1.87501">
        <ele>9</ele>
        <time>2018-01-11T09:59:31Z</time>
      </trkpt>
      <trkpt lat="46.62821" lon="-1.87488">
        <ele>9</ele>
        <time>2018-01-11T10:00:31Z</time>
      </trkpt>
      <trkpt lat="46.62802" lon="-1.87477">
        <ele>9</ele>
        <time>2018-01-11T10:01:31Z</time>
      </trkpt>
      <trkpt lat="46.62783" lon="-1.87467">
        <ele>9</ele>
        <time>2018-01-11T10:02:31Z</time>
      </trkpt>
      <trkpt lat="46.62763" lon="-1.87455">
        <ele>9</ele>
        <time>2018-01-11T10:03:31Z</time>
      </trkpt>
      <trkpt lat="46.62744" lon="-1.87442">
        <ele>9</ele>
        <time>2018-01-11T10:04:31Z</time>
      </trkpt>
      <trkpt lat="46.62725" lon="-1.87429">
        <ele>8</ele>
        <time>2018-01-11T10:05:31Z</time>
      </trkpt>
      <trkpt lat="46.62713" lon="-1.87419">
        <ele>8</ele>
        <time>2018-01-11T10:06:31Z</time>
      </trkpt>
      <trkpt lat="46.62711" lon="-1.87416">
        <ele>8</ele>
        <time>2018-01-11T10:07:31Z</time>
      </trkpt>
      <trkpt lat="46.62691" lon="-1.87387">
        <ele>7</ele>
        <time>2018-01-11T10:08:31Z</time>
      </trkpt>
      <trkpt lat="46.62679" lon="-1.87374">
        <ele>7</ele>
        <time>2018-01-11T10:09:31Z</time>
      </trkpt>
      <trkpt lat="46.62668" lon="-1.87368">
        <ele>6</ele>
        <time>2018-01-11T10:10:31Z</time>
      </trkpt>
      <trkpt lat="46.62665" lon="-1.87367">
        <ele>6</ele>
        <time>2018-01-11T10:11:31Z</time>
      </trkpt>
      <trkpt lat="46.62658" lon="-1.87364">
        <ele>6</ele>
        <time>2018-01-11T10:12:31Z</time>
      </trkpt>
      <trkpt lat="46.62646" lon="-1.87362">
        <ele>7</ele>
        <time>2018-01-11T10:13:31Z</time>
      </trkpt>
      <trkpt lat="46.62635" lon="-1.87358">
        <ele>7</ele>
        <time>2018-01-11T10:14:31Z</time>
      </trkpt>
      <trkpt lat="46.62626" lon="-1.87354">
        <ele>7</ele>
        <time>2018-01-11T10:15:31Z</time>
      </trkpt>
      <trkpt lat="46.62626" lon="-1.87354">
        <ele>7</ele>
        <time>2018-01-11T10:16:31Z</time>
      </trkpt>
      <trkpt lat="46.62626" lon="-1.87355">
        <ele>7</ele>
        <time>2018-01-11T10:17:31Z</time>
      </trkpt>
      <trkpt lat="46.62625" lon="-1.87355">
        <ele>7</ele>
        <time>2018-01-11T10:18:31Z</time>
      </trkpt>
      <trkpt lat="46.62625" lon="-1.87356">
        <ele>7</ele>
        <time>2018-01-11T10:19:31Z</time>
      </trkpt>
      <trkpt lat="46.62624" lon="-1.87356">
        <ele>7</ele>
        <time>2018-01-11T10:20:31Z</time>
      </trkpt>
      <trkpt lat="46.62624" lon="-1.87357">
        <ele>7</ele>
        <time>2018-01-11T10:21:31Z</time>
      </trkpt>
      <trkpt lat="46.62623" lon="-1.87357">
        <ele>7</ele>
        <time>2018-01-11T10:22:31Z</time>
      </trkpt>
      <trkpt lat="46.62622" lon="-1.87357">
        <ele>7</ele>
        <time>2018-01-11T10:23:31Z</time>
      </trkpt>
      <trkpt lat="46.62621" lon="-1.87357">
        <ele>7</ele>
        <time>2018-01-11T10:24:31Z</time>
      </trkpt>
      <trkpt lat="46.6262" lon="-1.87357">
        <ele>7</ele>
        <time>2018-01-11T10:25:31Z</time>
      </trkpt>
      <trkpt lat="46.6262" lon="-1.87356">
        <ele>7</ele>
        <time>2018-01-11T10:26:31Z</time>
      </trkpt>
      <trkpt lat="46.62619" lon="-1.87356">
        <ele>7</ele>
        <time>2018-01-11T10:27:31Z</time>
      </trkpt>
      <trkpt lat="46.62619" lon="-1.87355">
        <ele>7</ele>
        <time>2018-01-11T10:28:31Z</time>
      </trkpt>
      <trkpt lat="46.62618" lon="-1.87355">
        <ele>7</ele>
        <time>2018-01-11T10:29:31Z</time>
      </trkpt>
      <trkpt lat="46.62618" lon="-1.87354">
        <ele>7</ele>
        <time>2018-01-11T10:30:31Z</time>
      </trkpt>
      <trkpt lat="46.62618" lon="-1.87353">
        <ele>7</ele>
        <time>2018-01-11T10:31:31Z</time>
      </trkpt>
      <trkpt lat="46.62606" lon="-1.87359">
        <ele>7</ele>
        <time>2018-01-11T10:32:31Z</time>
      </trkpt>
      <trkpt lat="46.62599" lon="-1.87362">
        <ele>7</ele>
        <time>2018-01-11T10:33:31Z</time>
      </trkpt>
      <trkpt lat="46.62586" lon="-1.87364">
        <ele>8</ele>
        <time>2018-01-11T10:34:31Z</time>
      </trkpt>
      <trkpt lat="46.62579" lon="-1.87365">
        <ele>8</ele>
        <time>2018-01-11T10:35:31Z</time>
      </trkpt>
      <trkpt lat="46.62579" lon="-1.87365">
        <ele>8</ele>
        <time>2018-01-11T10:36:31Z</time>
      </trkpt>
      <trkpt lat="46.62568" lon="-1.87368">
        <ele>7</ele>
        <time>2018-01-11T10:37:31Z</time>
      </trkpt>
      <trkpt lat="46.62552" lon="-1.87366">
        <ele>7</ele>
        <time>2018-01-11T10:38:31Z</time>
      </trkpt>
      <trkpt lat="46.62533" lon="-1.87363">
        <ele>7</ele>
        <time>2018-01-11T10:39:31Z</time>
      </trkpt>
      <trkpt lat="46.62515" lon="-1.87359">
        <ele>7</ele>
        <time>2018-01-11T10:40:31Z</time>
      </trkpt>
      <trkpt lat="46.62506" lon="-1.87357">
        <ele>7</ele>
        <time>2018-01-11T10:41:31Z</time>
      </trkpt>
      <trkpt lat="46.62483" lon="-1.87359">
        <ele>7</ele>
        <time>2018-01-11T10:42:31Z</time>
      </trkpt>
      <trkpt lat="46.6247" lon="-1.87361">
        <ele>7</ele>
        <time>2018-01-11T10:43:31Z</time>
      </trkpt>
      <trkpt lat="46.6246" lon="-1.87361">
        <ele>7</ele>
        <time>2018-01-11T10:44:31Z</time>
      </trkpt>
      <trkpt lat="46.62451" lon="-1.87362">
        <ele>7</ele>
        <time>2018-01-11T10:45:31Z</time>
      </trkpt>
      <trkpt lat="46.62443" lon="-1.87362">
        <ele>7</ele>
        <time>2018-01-11T10:46:31Z</time>
      </trkpt>
      <trkpt lat="46.62428" lon="-1.87358">
        <ele>7</ele>
        <time>2018-01-11T10:47:31Z</time>
      </trkpt>
      <trkpt lat="46.62422" lon="-1.87356">
        <ele>7</ele>
        <time>2018-01-11T10:48:31Z</time>
      </trkpt>
      <trkpt lat="46.62416" lon="-1.87355">
        <ele>7</ele>
        <time>2018-01-11T10:49:31Z</time>
      </trkpt>
      <trkpt lat="46.62411" lon="-1.87353">
        <ele>7</ele>
        <time>2018-01-11T10:50:31Z</time>
      </trkpt>
      <trkpt lat="46.62406" lon="-1.87352">
        <ele>7</ele>
        <time>2018-01-11T10:51:31Z</time>
      </trkpt>
      <trkpt lat="46.62404" lon="-1.87351">
        <ele>7</ele>
        <time>2018-01-11T10:52:31Z</time>
      </trkpt>
      <trkpt lat="46.624" lon="-1.87352">
        <ele>7</ele>
        <time>2018-01-11T10:53:31Z</time>
      </trkpt>
      <trkpt lat="46.62398" lon="-1.87352">
        <ele>7</ele>
        <time>2018-01-11T10:54:31Z</time>
      </trkpt>
      <trkpt lat="46.62397" lon="-1.87352">
        <ele>7</ele>
        <time>2018-01-11T10:55:31Z</time>
      </trkpt>
      <trkpt lat="46.62391" lon="-1.8735">
        <ele>7</ele>
        <time>2018-01-11T10:56:31Z</time>
      </trkpt>
      <trkpt lat="46.62379" lon="-1.87345">
        <ele>7</ele>
        <time>2018-01-11T10:57:31Z</time>
      </trkpt>
      <trkpt lat="46.62375" lon="-1.87344">
        <ele>7</ele>
        <time>2018-01-11T10:58:31Z</time>
      </trkpt>
      <trkpt lat="46.62329" lon="-1.87324">
        <ele>8</ele>
        <time>2018-01-11T10:59:31Z</time>
      </trkpt>
      <trkpt lat="46.62309" lon="-1.87316">
        <ele>6</ele>
        <time>2018-01-11T11:00:31Z</time>
      </trkpt>
      <trkpt lat="46.62295" lon="-1.87309">
        <ele>6</ele>
        <time>2018-01-11T11:01:31Z</time>
      </trkpt>
      <trkpt lat="46.62279" lon="-1.87297">
        <ele>5</ele>
        <time>2018-01-11T11:02:31Z</time>
      </trkpt>
      <trkpt lat="46.62267" lon="-1.8729">
        <ele>5</ele>
        <time>2018-01-11T11:03:31Z</time>
      </trkpt>
      <trkpt lat="46.62237" lon="-1.87268">
        <ele>6</ele>
        <time>2018-01-11T11:04:31Z</time>
      </trkpt>
      <trkpt lat="46.62209" lon="-1.87249">
        <ele>8</ele>
        <time>2018-01-11T11:05:31Z</time>
      </trkpt>
      <trkpt lat="46.62191" lon="-1.87236">
        <ele>8</ele>
        <time>2018-01-11T11:06:31Z</time>
      </trkpt>
      <trkpt lat="46.62178" lon="-1.87228">
        <ele>8</ele>
        <time>2018-01-11T11:07:31Z</time>
      </trkpt>
      <trkpt lat="46.62178" lon="-1.87228">
        <ele>8</ele>
        <time>2018-01-11T11:08:31Z</time>
      </trkpt>
      <trkpt lat="46.62171" lon="-1.87222">
        <ele>8</ele>
        <time>2018-01-11T11:09:31Z</time>
      </trkpt>
      <trkpt lat="46.62156" lon="-1.87213">
        <ele>8</ele>
        <time>2018-01-11T11:10:31Z</time>
      </trkpt>
      <trkpt lat="46.62144" lon="-1.87208">
        <ele>8</ele>
        <time>2018-01-11T11:11:31Z</time>
      </trkpt>
      <trkpt lat="46.62133" lon="-1.87206">
        <ele>8</ele>
        <time>2018-01-11T11:12:31Z</time>
      </trkpt>
      <trkpt lat="46.62126" lon="-1.87206">
        <ele>8</ele>
        <time>2018-01-11T11:13:31Z</time>
      </trkpt>
      <trkpt lat="46.62111" lon="-1.87211">
        <ele>7</ele>
        <time>2018-01-11T11:14:31Z</time>
      </trkpt>
      <trkpt lat="46.62098" lon="-1.87217">
        <ele>7</ele>
        <time>2018-01-11T11:15:31Z</time>
      </trkpt>
      <trkpt lat="46.62091" lon="-1.8722">
        <ele>7</ele>
        <time>2018-01-11T11:16:31Z</time>
      </trkpt>
      <trkpt lat="46.62087" lon="-1.87223">
        <ele>6</ele>
        <time>2018-01-11T11:17:31Z</time>
      </trkpt>
      <trkpt lat="46.6207" lon="-1.87232">
        <ele>6</ele>
        <time>2018-01-11T11:18:31Z</time>
      </trkpt>
      <trkpt lat="46.62061" lon="-1.87235">
        <ele>6</ele>
        <time>2018-01-11T11:19:31Z</time>
      </trkpt>
      <trkpt lat="46.62053" lon="-1.87238">
        <ele>6</ele>
        <time>2018-01-11T11:20:31Z</time>
      </trkpt>
      <trkpt lat="46.62043" lon="-1.87238">
        <ele>6</ele>
        <time>2018-01-11T11:21:31Z</time>
      </trkpt>
      <trkpt lat="46.62032" lon="-1.87236">
        <ele>6</ele>
        <time>2018-01-11T11:22:31Z</time>
      </trkpt>
      <trkpt lat="46.62022" lon="-1.8723">
        <ele>6</ele>
        <time>2018-01-11T11:23:31Z</time>
      </trkpt>
      <trkpt lat="46.6201" lon="-1.87223">
        <ele>6</ele>
        <time>2018-01-11T11:24:31Z</time>
      </trkpt>
      <trkpt lat="46.61985" lon="-1.87208">
        <ele>6</ele>
        <time>2018-01-11T11:25:31Z</time>
      </trkpt>
      <trkpt lat="46.61973" lon="-1.87201">
        <ele>6</ele>
        <time>2018-01-11T11:26:31Z</time>
      </trkpt>
      <trkpt lat="46.61957" lon="-1.87192">
        <ele>6</ele>
        <time>2018-01-11T11:27:31Z</time>
      </trkpt>
      <trkpt lat="46.61936" lon="-1.87179">
        <ele>7</ele>
        <time>2018-01-11T11:28:31Z</time>
      </trkpt>
      <trkpt lat="46.61925" lon="-1.87172">
        <ele>7</ele>
        <time>2018-01-11T11:29:31Z</time>
      </trkpt>
      <trkpt lat="46.61923" lon="-1.8717">
        <ele>7</ele>
        <time>2018-01-11T11:30:31Z</time>
      </trkpt>
      <trkpt lat="46.61919" lon="-1.87168">
        <ele>7</ele>
        <time>2018-01-11T11:31:31Z</time>
      </trkpt>
      <trkpt lat="46.61915" lon="-1.87165">
        <ele>7</ele>
        <time>2018-01-11T11:32:31Z</time>
      </trkpt>
      <trkpt lat="46.61912" lon="-1.87162">
        <ele>7</ele>
        <time>2018-01-11T11:33:31Z</time>
      </trkpt>
      <trkpt lat="46.61912" lon="-1.87162">
        <ele>7</ele>
        <time>2018-01-11T11:34:31Z</time>
      </trkpt>
      <trkpt lat="46.61911" lon="-1.87162">
        <ele>7</ele>
        <time>2018-01-11T11:35:31Z</time>
      </trkpt>
      <trkpt lat="46.61911" lon="-1.87163">
        <ele>7</ele>
        <time>2018-01-11T11:36:31Z</time>
      </trkpt>
      <trkpt lat="46.6191" lon="-1.87163">
        <ele>7</ele>
        <time>2018-01-11T11:37:31Z</time>
      </trkpt>
      <trkpt lat="46.61909" lon="-1.87163">
        <ele>7</ele>
        <time>2018-01-11T11:38:31Z</time>
      </trkpt>
      <trkpt lat="46.61908" lon="-1.87163">
        <ele>7</ele>
        <time>2018-01-11T11:39:31Z</time>
      </trkpt>
      <trkpt lat="46.61907" lon="-1.87162">
        <ele>7</ele>
        <time>2018-01-11T11:40:31Z</time>
      </trkpt>
      <trkpt lat="46.61906" lon="-1.87162">
        <ele>7</ele>
        <time>2018-01-11T11:41:31Z</time>
      </trkpt>
      <trkpt lat="46.61905" lon="-1.87161">
        <ele>7</ele>
        <time>2018-01-11T11:42:31Z</time>
      </trkpt>
      <trkpt lat="46.61904" lon="-1.87161">
        <ele>6</ele>
        <time>2018-01-11T11:43:31Z</time>
      </trkpt>
      <trkpt lat="46.61904" lon="-1.8716">
        <ele>7</ele>
        <time>2018-01-11T11:44:31Z</time>
      </trkpt>
      <trkpt lat="46.61903" lon="-1.87159">
        <ele>6</ele>
        <time>2018-01-11T11:45:31Z</time>
      </trkpt>
      <trkpt lat="46.61903" lon="-1.87158">
        <ele>6</ele>
        <time>2018-01-11T11:46:31Z</time>
      </trkpt>
      <trkpt lat="46.61902" lon="-1.87158">
        <ele>6</ele>
        <time>2018-01-11T11:47:31Z</time>
      </trkpt>
      <trkpt lat="46.61902" lon="-1.87157">
        <ele>6</ele>
        <time>2018-01-11T11:48:31Z</time>
      </trkpt>
      <trkpt lat="46.61902" lon="-1.87156">
        <ele>6</ele>
        <time>2018-01-11T11:49:31Z</time>
      </trkpt>
      <trkpt lat="46.61901" lon="-1.87156">
        <ele>6</ele>
        <time>2018-01-11T11:50:31Z</time>
      </trkpt>
      <trkpt lat="46.61901" lon="-1.87155">
        <ele>6</ele>
        <time>2018-01-11T11:51:31Z</time>
      </trkpt>
      <trkpt lat="46.61901" lon="-1.87154">
        <ele>6</ele>
        <time>2018-01-11T11:52:31Z</time>
      </trkpt>
      <trkpt lat="46.61901" lon="-1.87153">
        <ele>7</ele>
        <time>2018-01-11T11:53:31Z</time>
      </trkpt>
      <trkpt lat="46.61901" lon="-1.87152">
        <ele>7</ele>
        <time>2018-01-11T11:54:31Z</time>
      </trkpt>
      <trkpt lat="46.619" lon="-1.87152">
        <ele>6</ele>
        <time>2018-01-11T11:55:31Z</time>
      </trkpt>
      <trkpt lat="46.619" lon="-1.87151">
        <ele>7</ele>
        <time>2018-01-11T11:56:31Z</time>
      </trkpt>
      <trkpt lat="46.619" lon="-1.8715">
        <ele>7</ele>
        <time>2018-01-11T11:57:31Z</time>
      </trkpt>
      <trkpt lat="46.619" lon="-1.87149">
        <ele>7</ele>
        <time>2018-01-11T11:58:31Z</time>
      </trkpt>
      <trkpt lat="46.61861" lon="-1.87113">
        <ele>6</ele>
        <time>2018-01-11T11:59:31Z</time>
      </trkpt>
      <trkpt lat="46.61842" lon="-1.87096">
        <ele>7</ele>
        <time>2018-01-11T12:00:31Z</time>
      </trkpt>
      <trkpt lat="46.61833" lon="-1.87088">
        <ele>7</ele>
        <time>2018-01-11T12:01:31Z</time>
      </trkpt>
      <trkpt lat="46.6183" lon="-1.87085">
        <ele>7</ele>
        <time>2018-01-11T12:02:31Z</time>
      </trkpt>
      <trkpt lat="46.61819" lon="-1.87074">
        <ele>7</ele>
        <time>2018-01-11T12:03:31Z</time>
      </trkpt>
      <trkpt lat="46.61805" lon="-1.87061">
        <ele>7</ele>
        <time>2018-01-11T12:04:31Z</time>
      </trkpt>
      <trkpt lat="46.61785" lon="-1.87042">
        <ele>7</ele>
        <time>2018-01-11T12:05:31Z</time>
      </trkpt>
      <trkpt lat="46.61766" lon="-1.87024">
        <ele>7</ele>
        <time>2018-01-11T12:06:31Z</time>
      </trkpt>
      <trkpt lat="46.61759" lon="-1.87018">
        <ele>7</ele>
        <time>2018-01-11T12:07:31Z</time>
      </trkpt>
      <trkpt lat="46.61745" lon="-1.87005">
        <ele>4</ele>
        <time>2018-01-11T12:08:31Z</time>
      </trkpt>
      <trkpt lat="46.61736" lon="-1.86996">
        <ele>7</ele>
        <time>2018-01-11T12:09:31Z</time>
      </trkpt>
      <trkpt lat="46.61729" lon="-1.86988">
        <ele>6</ele>
        <time>2018-01-11T12:10:31Z</time>
      </trkpt>
      <trkpt lat="46.61696" lon="-1.86948">
        <ele>5</ele>
        <time>2018-01-11T12:11:31Z</time>
      </trkpt>
      <trkpt lat="46.61688" lon="-1.86935">
        <ele>5</ele>
        <time>2018-01-11T12:12:31Z</time>
      </trkpt>
      <trkpt lat="46.61677" lon="-1.8691">
        <ele>5</ele>
        <time>2018-01-11T12:13:31Z</time>
      </trkpt>
      <trkpt lat="46.61669" lon="-1.86889">
        <ele>4</ele>
        <time>2018-01-11T12:14:31Z</time>
      </trkpt>
      <trkpt lat="46.61662" lon="-1.86867">
        <ele>3</ele>
        <time>2018-01-11T12:15:31Z</time>
      </trkpt>
      <trkpt lat="46.61654" lon="-1.86833">
        <ele>4</ele>
        <time>2018-01-11T12:16:31Z</time>
      </trkpt>
      <trkpt lat="46.61647" lon="-1.86798">
        <ele>4</ele>
        <time>2018-01-11T12:17:31Z</time>
      </trkpt>
      <trkpt lat="46.61641" lon="-1.86767">
        <ele>4</ele>
        <time>2018-01-11T12:18:31Z</time>
      </trkpt>
      <trkpt lat="46.61636" lon="-1.86737">
        <ele>4</ele>
        <time>2018-01-11T12:19:31Z</time>
      </trkpt>
      <trkpt lat="46.6163" lon="-1.8671">
        <ele>4</ele>
        <time>2018-01-11T12:20:31Z</time>
      </trkpt>
      <trkpt lat="46.61627" lon="-1.86689">
        <ele>4</ele>
        <time>2018-01-11T12:21:31Z</time>
      </trkpt>
      <trkpt lat="46.61625" lon="-1.86671">
        <ele>3</ele>
        <time>2018-01-11T12:22:31Z</time>
      </trkpt>
      <trkpt lat="46.61624" lon="-1.86662">
        <ele>4</ele>
        <time>2018-01-11T12:23:31Z</time>
      </trkpt>
      <trkpt lat="46.61625" lon="-1.86645">
        <ele>4</ele>
        <time>2018-01-11T12:24:31Z</time>
      </trkpt>
      <trkpt lat="46.61625" lon="-1.86643">
        <ele>4</ele>
        <time>2018-01-11T12:25:31Z</time>
      </trkpt>
      <trkpt lat="46.61626" lon="-1.8662">
        <ele>4</ele>
        <time>2018-01-11T12:26:31Z</time>
      </trkpt>
      <trkpt lat="46.6163" lon="-1.86577">
        <ele>5</ele>
        <time>2018-01-11T12:27:31Z</time>
      </trkpt>
      <trkpt lat="46.61631" lon="-1.86562">
        <ele>6</ele>
        <time>2018-01-11T12:28:31Z</time>
      </trkpt>
      <trkpt lat="46.61632" lon="-1.86547">
        <ele>6</ele>
        <time>2018-01-11T12:29:31Z</time>
      </trkpt>
      <trkpt lat="46.61632" lon="-1.86541">
        <ele>6</ele>
        <time>2018-01-11T12:30:31Z</time>
      </trkpt>
      <trkpt lat="46.61632" lon="-1.86529">
        <ele>6</ele>
        <time>2018-01-11T12:31:31Z</time>
      </trkpt>
      <trkpt lat="46.61635" lon="-1.86494">
        <ele>7</ele>
        <time>2018-01-11T12:32:31Z</time>
      </trkpt>
      <trkpt lat="46.61637" lon="-1.86463">
        <ele>7</ele>
        <time>2018-01-11T12:33:31Z</time>
      </trkpt>
      <trkpt lat="46.61638" lon="-1.86454">
        <ele>7</ele>
        <time>2018-01-11T12:34:31Z</time>
      </trkpt>
      <trkpt lat="46.61638" lon="-1.86452">
        <ele>7</ele>
        <time>2018-01-11T12:35:31Z</time>
      </trkpt>
      <trkpt lat="46.6164" lon="-1.86447">
        <ele>7</ele>
        <time>2018-01-11T12:36:31Z</time>
      </trkpt>
      <trkpt lat="46.61641" lon="-1.86444">
        <ele>8</ele>
        <time>2018-01-11T12:37:31Z</time>
      </trkpt>
      <trkpt lat="46.61646" lon="-1.86434">
        <ele>8</ele>
        <time>2018-01-11T12:38:31Z</time>
      </trkpt>
      <trkpt lat="46.61653" lon="-1.86424">
        <ele>8</ele>
        <time>2018-01-11T12:39:31Z</time>
      </trkpt>
      <trkpt lat="46.61664" lon="-1.86415">
        <ele>9</ele>
        <time>2018-01-11T12:40:31Z</time>
      </trkpt>
      <trkpt lat="46.61677" lon="-1.86407">
        <ele>9</ele>
        <time>2018-01-11T12:41:31Z</time>
      </trkpt>
      <trkpt lat="46.61677" lon="-1.86407">
        <ele>9</ele>
        <time>2018-01-11T12:42:31Z</time>
      </trkpt>
      <trkpt lat="46.61691" lon="-1.86396">
        <ele>9</ele>
        <time>2018-01-11T12:43:31Z</time>
      </trkpt>
      <trkpt lat="46.61703" lon="-1.86388">
        <ele>9</ele>
        <time>2018-01-11T12:44:31Z</time>
      </trkpt>
      <trkpt lat="46.61723" lon="-1.86374">
        <ele>8</ele>
        <time>2018-01-11T12:45:31Z</time>
      </trkpt>
      <trkpt lat="46.61725" lon="-1.86373">
        <ele>8</ele>
        <time>2018-01-11T12:46:31Z</time>
      </trkpt>
      <trkpt lat="46.61739" lon="-1.86363">
        <ele>8</ele>
        <time>2018-01-11T12:47:31Z</time>
      </trkpt>
      <trkpt lat="46.61747" lon="-1.86358">
        <ele>8</ele>
        <time>2018-01-11T12:48:31Z</time>
      </trkpt>
      <trkpt lat="46.61754" lon="-1.86353">
        <ele>8</ele>
        <time>2018-01-11T12:49:31Z</time>
      </trkpt>
      <trkpt lat="46.61754" lon="-1.86353">
        <ele>8</ele>
        <time>2018-01-11T12:50:31Z</time>
      </trkpt>
      <trkpt lat="46.6176" lon="-1.86343">
        <ele>8</ele>
        <time>2018-01-11T12:51:31Z</time>
      </trkpt>
      <trkpt lat="46.61763" lon="-1.86334">
        <ele>8</ele>
        <time>2018-01-11T12:52:31Z</time>
      </trkpt>
      <trkpt lat="46.61764" lon="-1.8633">
        <ele>8</ele>
        <time>2018-01-11T12:53:31Z</time>
      </trkpt>
      <trkpt lat="46.61765" lon="-1.86325">
        <ele>8</ele>
        <time>2018-01-11T12:54:31Z</time>
      </trkpt>
      <trkpt lat="46.61765" lon="-1.8632">
        <ele>8</ele>
        <time>2018-01-11T12:55:31Z</time>
      </trkpt>
      <trkpt lat="46.61766" lon="-1.86307">
        <ele>8</ele>
        <time>2018-01-11T12:56:31Z</time>
      </trkpt>
      <trkpt lat="46.61766" lon="-1.86296">
        <ele>8</ele>
        <time>2018-01-11T12:57:31Z</time>
      </trkpt>
      <trkpt lat="46.61764" lon="-1.86258">
        <ele>8</ele>
        <time>2018-01-11T12:58:31Z</time>
      </trkpt>
      <trkpt lat="46.61764" lon="-1.86243">
        <ele>8</ele>
        <time>2018-01-11T12:59:31Z</time>
      </trkpt>
      <trkpt lat="46.61763" lon="-1.86228">
        <ele>8</ele>
        <time>2018-01-11T13:00:31Z</time>
      </trkpt>
      <trkpt lat="46.61761" lon="-1.86215">
        <ele>8</ele>
        <time>2018-01-11T13:01:31Z</time>
      </trkpt>
      <trkpt lat="46.6176" lon="-1.86208">
        <ele>8</ele>
        <time>2018-01-11T13:02:31Z</time>
      </trkpt>
      <trkpt lat="46.61756" lon="-1.86197">
        <ele>8</ele>
        <time>2018-01-11T13:03:31Z</time>
      </trkpt>
      <trkpt lat="46.61752" lon="-1.86188">
        <ele>8</ele>
        <time>2018-01-11T13:04:31Z</time>
      </trkpt>
      <trkpt lat="46.61744" lon="-1.86173">
        <ele>8</ele>
        <time>2018-01-11T13:05:31Z</time>
      </trkpt>
      <trkpt lat="46.61736" lon="-1.86158">
        <ele>8</ele>
        <time>2018-01-11T13:06:31Z</time>
      </trkpt>
      <trkpt lat="46.61722" lon="-1.86132">
        <ele>8</ele>
        <time>2018-01-11T13:07:31Z</time>
      </trkpt>
      <trkpt lat="46.61707" lon="-1.86101">
        <ele>8</ele>
        <time>2018-01-11T13:08:31Z</time>
      </trkpt>
      <trkpt lat="46.61695" lon="-1.86079">
        <ele>8</ele>
        <time>2018-01-11T13:09:31Z</time>
      </trkpt>
      <trkpt lat="46.61685" lon="-1.86063">
        <ele>8</ele>
        <time>2018-01-11T13:10:31Z</time>
      </trkpt>
      <trkpt lat="46.6168" lon="-1.86054">
        <ele>8</ele>
        <time>2018-01-11T13:11:31Z</time>
      </trkpt>
      <trkpt lat="46.61672" lon="-1.86042">
        <ele>8</ele>
        <time>2018-01-11T13:12:31Z</time>
      </trkpt>
      <trkpt lat="46.61669" lon="-1.86038">
        <ele>8</ele>
        <time>2018-01-11T13:13:31Z</time>
      </trkpt>
      <trkpt lat="46.61653" lon="-1.86016">
        <ele>8</ele>
        <time>2018-01-11T13:14:31Z</time>
      </trkpt>
      <trkpt lat="46.61643" lon="-1.86003">
        <ele>7</ele>
        <time>2018-01-11T13:15:31Z</time>
      </trkpt>
      <trkpt lat="46.61642" lon="-1.86002">
        <ele>7</ele>
        <time>2018-01-11T13:16:31Z</time>
      </trkpt>
      <trkpt lat="46.61624" lon="-1.85975">
        <ele>7</ele>
        <time>2018-01-11T13:17:31Z</time>
      </trkpt>
      <trkpt lat="46.61617" lon="-1.85966">
        <ele>7</ele>
        <time>2018-01-11T13:18:31Z</time>
      </trkpt>
      <trkpt lat="46.61601" lon="-1.85945">
        <ele>7</ele>
        <time>2018-01-11T13:19:31Z</time>
      </trkpt>
      <trkpt lat="46.61588" lon="-1.85926">
        <ele>7</ele>
        <time>2018-01-11T13:20:31Z</time>
      </trkpt>
      <trkpt lat="46.61577" lon="-1.8591">
        <ele>7</ele>
        <time>2018-01-11T13:21:31Z</time>
      </trkpt>
      <trkpt lat="46.61565" lon="-1.85887">
        <ele>7</ele>
        <time>2018-01-11T13:22:31Z</time>
      </trkpt>
      <trkpt lat="46.61554" lon="-1.85862">
        <ele>7</ele>
        <time>2018-01-11T13:23:31Z</time>
      </trkpt>
      <trkpt lat="46.61552" lon="-1.85855">
        <ele>7</ele>
        <time>2018-01-11T13:24:31Z</time>
      </trkpt>
      <trkpt lat="46.61549" lon="-1.85849">
        <ele>7</ele>
        <time>2018-01-11T13:25:31Z</time>
      </trkpt>
      <trkpt lat="46.61546" lon="-1.85843">
        <ele>7</ele>
        <time>2018-01-11T13:26:31Z</time>
      </trkpt>
      <trkpt lat="46.61543" lon="-1.85837">
        <ele>7</ele>
        <time>2018-01-11T13:27:31Z</time>
      </trkpt>
      <trkpt lat="46.61539" lon="-1.8583">
        <ele>7</ele>
        <time>2018-01-11T13:28:31Z</time>
      </trkpt>
      <trkpt lat="46.61535" lon="-1.85823">
        <ele>7</ele>
        <time>2018-01-11T13:29:31Z</time>
      </trkpt>
      <trkpt lat="46.61529" lon="-1.85815">
        <ele>7</ele>
        <time>2018-01-11T13:30:31Z</time>
      </trkpt>
      <trkpt lat="46.6152" lon="-1.85809">
        <ele>7</ele>
        <time>2018-01-11T13:31:31Z</time>
      </trkpt>
      <trkpt lat="46.61518" lon="-1.85808">
        <ele>7</ele>
        <time>2018-01-11T13:32:31Z</time>
      </trkpt>
      <trkpt lat="46.61514" lon="-1.85807">
        <ele>7</ele>
        <time>2018-01-11T13:33:31Z</time>
      </trkpt>
      <trkpt lat="46.61506" lon="-1.85805">
        <ele>7</ele>
        <time>2018-01-11T13:34:31Z</time>
      </trkpt>
      <trkpt lat="46.61506" lon="-1.85805">
        <ele>7</ele>
        <time>2018-01-11T13:35:31Z</time>
      </trkpt>
      <trkpt lat="46.61503" lon="-1.85806">
        <ele>7</ele>
        <time>2018-01-11T13:36:31Z</time>
      </trkpt>
      <trkpt lat="46.61502" lon="-1.85807">
        <ele>7</ele>
        <time>2018-01-11T13:37:31Z</time>
      </trkpt>
      <trkpt lat="46.61499" lon="-1.85807">
        <ele>7</ele>
        <time>2018-01-11T13:38:31Z</time>
      </trkpt>
      <trkpt lat="46.61497" lon="-1.85807">
        <ele>7</ele>
        <time>2018-01-11T13:39:31Z</time>
      </trkpt>
      <trkpt lat="46.61496" lon="-1.85807">
        <ele>7</ele>
        <time>2018-01-11T13:40:31Z</time>
      </trkpt>
      <trkpt lat="46.61493" lon="-1.85805">
        <ele>7</ele>
        <time>2018-01-11T13:41:31Z</time>
      </trkpt>
      <trkpt lat="46.61492" lon="-1.85804">
        <ele>7</ele>
        <time>2018-01-11T13:42:31Z</time>
      </trkpt>
      <trkpt lat="46.6149" lon="-1.85802">
        <ele>7</ele>
        <time>2018-01-11T13:43:31Z</time>
      </trkpt>
      <trkpt lat="46.61489" lon="-1.858">
        <ele>8</ele>
        <time>2018-01-11T13:44:31Z</time>
      </trkpt>
      <trkpt lat="46.61488" lon="-1.85798">
        <ele>8</ele>
        <time>2018-01-11T13:45:31Z</time>
      </trkpt>
      <trkpt lat="46.61487" lon="-1.85796">
        <ele>8</ele>
        <time>2018-01-11T13:46:31Z</time>
      </trkpt>
      <trkpt lat="46.61486" lon="-1.85792">
        <ele>8</ele>
        <time>2018-01-11T13:47:31Z</time>
      </trkpt>
      <trkpt lat="46.61485" lon="-1.85788">
        <ele>8</ele>
        <time>2018-01-11T13:48:31Z</time>
      </trkpt>
      <trkpt lat="46.61486" lon="-1.85783">
        <ele>8</ele>
        <time>2018-01-11T13:49:31Z</time>
      </trkpt>
      <trkpt lat="46.61486" lon="-1.85781">
        <ele>8</ele>
        <time>2018-01-11T13:50:31Z</time>
      </trkpt>
      <trkpt lat="46.61486" lon="-1.85779">
        <ele>8</ele>
        <time>2018-01-11T13:51:31Z</time>
      </trkpt>
      <trkpt lat="46.61487" lon="-1.85778">
        <ele>8</ele>
        <time>2018-01-11T13:52:31Z</time>
      </trkpt>
      <trkpt lat="46.61488" lon="-1.85775">
        <ele>8</ele>
        <time>2018-01-11T13:53:31Z</time>
      </trkpt>
      <trkpt lat="46.6149" lon="-1.85772">
        <ele>8</ele>
        <time>2018-01-11T13:54:31Z</time>
      </trkpt>
      <trkpt lat="46.61493" lon="-1.85769">
        <ele>8</ele>
        <time>2018-01-11T13:55:31Z</time>
      </trkpt>
      <trkpt lat="46.61493" lon="-1.8575">
        <ele>8</ele>
        <time>2018-01-11T13:56:31Z</time>
      </trkpt>
      <trkpt lat="46.61494" lon="-1.85729">
        <ele>8</ele>
        <time>2018-01-11T13:57:31Z</time>
      </trkpt>
      <trkpt lat="46.61492" lon="-1.85716">
        <ele>9</ele>
        <time>2018-01-11T13:58:31Z</time>
      </trkpt>
      <trkpt lat="46.61489" lon="-1.85696">
        <ele>9</ele>
        <time>2018-01-11T13:59:31Z</time>
      </trkpt>
      <trkpt lat="46.61486" lon="-1.8568">
        <ele>9</ele>
        <time>2018-01-11T14:00:31Z</time>
      </trkpt>
      <trkpt lat="46.61483" lon="-1.85661">
        <ele>9</ele>
        <time>2018-01-11T14:01:31Z</time>
      </trkpt>
      <trkpt lat="46.61476" lon="-1.85631">
        <ele>10</ele>
        <time>2018-01-11T14:02:31Z</time>
      </trkpt>
      <trkpt lat="46.61469" lon="-1.85604">
        <ele>10</ele>
        <time>2018-01-11T14:03:31Z</time>
      </trkpt>
      <trkpt lat="46.61462" lon="-1.85579">
        <ele>10</ele>
        <time>2018-01-11T14:04:31Z</time>
      </trkpt>
      <trkpt lat="46.61453" lon="-1.85553">
        <ele>10</ele>
        <time>2018-01-11T14:05:31Z</time>
      </trkpt>
      <trkpt lat="46.61445" lon="-1.85531">
        <ele>11</ele>
        <time>2018-01-11T14:06:31Z</time>
      </trkpt>
      <trkpt lat="46.61438" lon="-1.85514">
        <ele>11</ele>
        <time>2018-01-11T14:07:31Z</time>
      </trkpt>
      <trkpt lat="46.61427" lon="-1.85492">
        <ele>12</ele>
        <time>2018-01-11T14:08:31Z</time>
      </trkpt>
      <trkpt lat="46.61418" lon="-1.85467">
        <ele>13</ele>
        <time>2018-01-11T14:09:31Z</time>
      </trkpt>
      <trkpt lat="46.6141" lon="-1.8544">
        <ele>13</ele>
        <time>2018-01-11T14:10:31Z</time>
      </trkpt>
      <trkpt lat="46.61401" lon="-1.85409">
        <ele>14</ele>
        <time>2018-01-11T14:11:31Z</time>
      </trkpt>
      <trkpt lat="46.61392" lon="-1.85372">
        <ele>14</ele>
        <time>2018-01-11T14:12:31Z</time>
      </trkpt>
      <trkpt lat="46.61384" lon="-1.8534">
        <ele>15</ele>
        <time>2018-01-11T14:13:31Z</time>
      </trkpt>
      <trkpt lat="46.61376" lon="-1.85305">
        <ele>15</ele>
        <time>2018-01-11T14:14:31Z</time>
      </trkpt>
      <trkpt lat="46.61369" lon="-1.85279">
        <ele>15</ele>
        <time>2018-01-11T14:15:31Z</time>
      </trkpt>
      <trkpt lat="46.61362" lon="-1.8526">
        <ele>15</ele>
        <time>2018-01-11T14:16:31Z</time>
      </trkpt>
      <trkpt lat="46.61353" lon="-1.85242">
        <ele>15</ele>
        <time>2018-01-11T14:17:31Z</time>
      </trkpt>
      <trkpt lat="46.61348" lon="-1.85235">
        <ele>16</ele>
        <time>2018-01-11T14:18:31Z</time>
      </trkpt>
      <trkpt lat="46.61332" lon="-1.85213">
        <ele>16</ele>
        <time>2018-01-11T14:19:31Z</time>
      </trkpt>
      <trkpt lat="46.61313" lon="-1.85197">
        <ele>16</ele>
        <time>2018-01-11T14:20:31Z</time>
      </trkpt>
      <trkpt lat="46.61294" lon="-1.85178">
        <ele>16</ele>
        <time>2018-01-11T14:21:31Z</time>
      </trkpt>
      <trkpt lat="46.61273" lon="-1.85149">
        <ele>17</ele>
        <time>2018-01-11T14:22:31Z</time>
      </trkpt>
      <trkpt lat="46.61258" lon="-1.85125">
        <ele>17</ele>
        <time>2018-01-11T14:23:31Z</time>
      </trkpt>
      <trkpt lat="46.61247" lon="-1.85103">
        <ele>18</ele>
        <time>2018-01-11T14:24:31Z</time>
      </trkpt>
      <trkpt lat="46.61236" lon="-1.85081">
        <ele>18</ele>
        <time>2018-01-11T14:25:31Z</time>
      </trkpt>
      <trkpt lat="46.61222" lon="-1.85059">
        <ele>18</ele>
        <time>2018-01-11T14:26:31Z</time>
      </trkpt>
      <trkpt lat="46.61204" lon="-1.85035">
        <ele>19</ele>
        <time>2018-01-11T14:27:31Z</time>
      </trkpt>
      <trkpt lat="46.61188" lon="-1.85018">
        <ele>19</ele>
        <time>2018-01-11T14:28:31Z</time>
      </trkpt>
      <trkpt lat="46.61167" lon="-1.84994">
        <ele>19</ele>
        <time>2018-01-11T14:29:31Z</time>
      </trkpt>
      <trkpt lat="46.61152" lon="-1.84973">
        <ele>20</ele>
        <time>2018-01-11T14:30:31Z</time>
      </trkpt>
      <trkpt lat="46.61149" lon="-1.84967">
        <ele>21</ele>
        <time>2018-01-11T14:31:31Z</time>
      </trkpt>
      <trkpt lat="46.61144" lon="-1.84955">
        <ele>21</ele>
        <time>2018-01-11T14:32:31Z</time>
      </trkpt>
      <trkpt lat="46.61139" lon="-1.84937">
        <ele>21</ele>
        <time>2018-01-11T14:33:31Z</time>
      </trkpt>
      <trkpt lat="46.61138" lon="-1.84922">
        <ele>22</ele>
        <time>2018-01-11T14:34:31Z</time>
      </trkpt>
      <trkpt lat="46.61136" lon="-1.84903">
        <ele>22</ele>
        <time>2018-01-11T14:35:31Z</time>
      </trkpt>
      <trkpt lat="46.61135" lon="-1.8487">
        <ele>21</ele>
        <time>2018-01-11T14:36:31Z</time>
      </trkpt>
      <trkpt lat="46.61134" lon="-1.84843">
        <ele>20</ele>
        <time>2018-01-11T14:37:31Z</time>
      </trkpt>
      <trkpt lat="46.61135" lon="-1.84824">
        <ele>20</ele>
        <time>2018-01-11T14:38:31Z</time>
      </trkpt>
      <trkpt lat="46.61131" lon="-1.84811">
        <ele>20</ele>
        <time>2018-01-11T14:39:31Z</time>
      </trkpt>
      <trkpt lat="46.61128" lon="-1.84805">
        <ele>20</ele>
        <time>2018-01-11T14:40:31Z</time>
      </trkpt>
      <trkpt lat="46.61128" lon="-1.84805">
        <ele>20</ele>
        <time>2018-01-11T14:41:31Z</time>
      </trkpt>
      <trkpt lat="46.61126" lon="-1.84805">
        <ele>20</ele>
        <time>2018-01-11T14:42:31Z</time>
      </trkpt>
      <trkpt lat="46.61124" lon="-1.84805">
        <ele>20</ele>
        <time>2018-01-11T14:43:31Z</time>
      </trkpt>
      <trkpt lat="46.61122" lon="-1.84805">
        <ele>20</ele>
        <time>2018-01-11T14:44:31Z</time>
      </trkpt>
      <trkpt lat="46.6112" lon="-1.84804">
        <ele>20</ele>
        <time>2018-01-11T14:45:31Z</time>
      </trkpt>
      <trkpt lat="46.61118" lon="-1.84803">
        <ele>20</ele>
        <time>2018-01-11T14:46:31Z</time>
      </trkpt>
      <trkpt lat="46.61117" lon="-1.84802">
        <ele>20</ele>
        <time>2018-01-11T14:47:31Z</time>
      </trkpt>
      <trkpt lat="46.61115" lon="-1.84801">
        <ele>20</ele>
        <time>2018-01-11T14:48:31Z</time>
      </trkpt>
      <trkpt lat="46.61113" lon="-1.848">
        <ele>20</ele>
        <time>2018-01-11T14:49:31Z</time>
      </trkpt>
      <trkpt lat="46.61113" lon="-1.84799">
        <ele>20</ele>
        <time>2018-01-11T14:50:31Z</time>
      </trkpt>
      <trkpt lat="46.61112" lon="-1.84798">
        <ele>20</ele>
        <time>2018-01-11T14:51:31Z</time>
      </trkpt>
      <trkpt lat="46.61111" lon="-1.84797">
        <ele>20</ele>
        <time>2018-01-11T14:52:31Z</time>
      </trkpt>
      <trkpt lat="46.6111" lon="-1.84796">
        <ele>20</ele>
        <time>2018-01-11T14:53:31Z</time>
      </trkpt>
      <trkpt lat="46.6111" lon="-1.84795">
        <ele>20</ele>
        <time>2018-01-11T14:54:31Z</time>
      </trkpt>
      <trkpt lat="46.61109" lon="-1.84794">
        <ele>20</ele>
        <time>2018-01-11T14:55:31Z</time>
      </trkpt>
      <trkpt lat="46.61108" lon="-1.84793">
        <ele>20</ele>
        <time>2018-01-11T14:56:31Z</time>
      </trkpt>
      <trkpt lat="46.61108" lon="-1.84792">
        <ele>20</ele>
        <time>2018-01-11T14:57:31Z</time>
      </trkpt>
      <trkpt lat="46.61107" lon="-1.84789">
        <ele>20</ele>
        <time>2018-01-11T14:58:31Z</time>
      </trkpt>
      <trkpt lat="46.61106" lon="-1.84787">
        <ele>20</ele>
        <time>2018-01-11T14:59:31Z</time>
      </trkpt>
      <trkpt lat="46.61105" lon="-1.84784">
        <ele>20</ele>
        <time>2018-01-11T15:00:31Z</time>
      </trkpt>
      <trkpt lat="46.61104" lon="-1.84781">
        <ele>20</ele>
        <time>2018-01-11T15:01:31Z</time>
      </trkpt>
      <trkpt lat="46.61104" lon="-1.84778">
        <ele>20</ele>
        <time>2018-01-11T15:02:31Z</time>
      </trkpt>
      <trkpt lat="46.61104" lon="-1.84775">
        <ele>20</ele>
        <time>2018-01-11T15:03:31Z</time>
      </trkpt>
      <trkpt lat="46.61104" lon="-1.84772">
        <ele>20</ele>
        <time>2018-01-11T15:04:31Z</time>
      </trkpt>
      <trkpt lat="46.61104" lon="-1.84769">
        <ele>20</ele>
        <time>2018-01-11T15:05:31Z</time>
      </trkpt>
      <trkpt lat="46.61104" lon="-1.84766">
        <ele>20</ele>
        <time>2018-01-11T15:06:31Z</time>
      </trkpt>
      <trkpt lat="46.61105" lon="-1.84763">
        <ele>20</ele>
        <time>2018-01-11T15:07:31Z</time>
      </trkpt>
      <trkpt lat="46.61106" lon="-1.8476">
        <ele>20</ele>
        <time>2018-01-11T15:08:31Z</time>
      </trkpt>
      <trkpt lat="46.61107" lon="-1.84758">
        <ele>20</ele>
        <time>2018-01-11T15:09:31Z</time>
      </trkpt>
      <trkpt lat="46.61108" lon="-1.84754">
        <ele>20</ele>
        <time>2018-01-11T15:10:31Z</time>
      </trkpt>
      <trkpt lat="46.61106" lon="-1.84746">
        <ele>20</ele>
        <time>2018-01-11T15:11:31Z</time>
      </trkpt>
      <trkpt lat="46.61105" lon="-1.8474">
        <ele>20</ele>
        <time>2018-01-11T15:12:31Z</time>
      </trkpt>
      <trkpt lat="46.611" lon="-1.84726">
        <ele>19</ele>
        <time>2018-01-11T15:13:31Z</time>
      </trkpt>
      <trkpt lat="46.61089" lon="-1.84707">
        <ele>19</ele>
        <time>2018-01-11T15:14:31Z</time>
      </trkpt>
      <trkpt lat="46.61083" lon="-1.84699">
        <ele>19</ele>
        <time>2018-01-11T15:15:31Z</time>
      </trkpt>
      <trkpt lat="46.61077" lon="-1.84693">
        <ele>19</ele>
        <time>2018-01-11T15:16:31Z</time>
      </trkpt>
      <trkpt lat="46.61072" lon="-1.84688">
        <ele>19</ele>
        <time>2018-01-11T15:17:31Z</time>
      </trkpt>
      <trkpt lat="46.61062" lon="-1.84679">
        <ele>19</ele>
        <time>2018-01-11T15:18:31Z</time>
      </trkpt>
      <trkpt lat="46.6105" lon="-1.8467">
        <ele>19</ele>
        <time>2018-01-11T15:19:31Z</time>
      </trkpt>
      <trkpt lat="46.61021" lon="-1.84645">
        <ele>19</ele>
        <time>2018-01-11T15:20:31Z</time>
      </trkpt>
      <trkpt lat="46.60999" lon="-1.84627">
        <ele>19</ele>
        <time>2018-01-11T15:21:31Z</time>
      </trkpt>
      <trkpt lat="46.60984" lon="-1.84615">
        <ele>18</ele>
        <time>2018-01-11T15:22:31Z</time>
      </trkpt>
      <trkpt lat="46.60963" lon="-1.84597">
        <ele>18</ele>
        <time>2018-01-11T15:23:31Z</time>
      </trkpt>
      <trkpt lat="46.60943" lon="-1.8458">
        <ele>16</ele>
        <time>2018-01-11T15:24:31Z</time>
      </trkpt>
      <trkpt lat="46.60936" lon="-1.84575">
        <ele>16</ele>
        <time>2018-01-11T15:25:31Z</time>
      </trkpt>
      <trkpt lat="46.60929" lon="-1.84568">
        <ele>16</ele>
        <time>2018-01-11T15:26:31Z</time>
      </trkpt>
      <trkpt lat="46.60922" lon="-1.84564">
        <ele>15</ele>
        <time>2018-01-11T15:27:31Z</time>
      </trkpt>
      <trkpt lat="46.60916" lon="-1.84559">
        <ele>15</ele>
        <time>2018-01-11T15:28:31Z</time>
      </trkpt>
      <trkpt lat="46.6091" lon="-1.84554">
        <ele>15</ele>
        <time>2018-01-11T15:29:31Z</time>
      </trkpt>
      <trkpt lat="46.60904" lon="-1.84548">
        <ele>14</ele>
        <time>2018-01-11T15:30:31Z</time>
      </trkpt>
      <trkpt lat="46.60883" lon="-1.84524">
        <ele>13</ele>
        <time>2018-01-11T15:31:31Z</time>
      </trkpt>
      <trkpt lat="46.60873" lon="-1.84511">
        <ele>13</ele>
        <time>2018-01-11T15:32:31Z</time>
      </trkpt>
      <trkpt lat="46.60862" lon="-1.84495">
        <ele>12</ele>
        <time>2018-01-11T15:33:31Z</time>
      </trkpt>
      <trkpt lat="46.60854" lon="-1.84485">
        <ele>12</ele>
        <time>2018-01-11T15:34:31Z</time>
      </trkpt>
      <trkpt lat="46.6084" lon="-1.84461">
        <ele>11</ele>
        <time>2018-01-11T15:35:31Z</time>
      </trkpt>
      <trkpt lat="46.60831" lon="-1.84444">
        <ele>11</ele>
        <time>2018-01-11T15:36:31Z</time>
      </trkpt>
      <trkpt lat="46.60824" lon="-1.84429">
        <ele>10</ele>
        <time>2018-01-11T15:37:31Z</time>
      </trkpt>
      <trkpt lat="46.60819" lon="-1.84416">
        <ele>9</ele>
        <time>2018-01-11T15:38:31Z</time>
      </trkpt>
      <trkpt lat="46.60817" lon="-1.84408">
        <ele>9</ele>
        <time>2018-01-11T15:39:31Z</time>
      </trkpt>
      <trkpt lat="46.60816" lon="-1.84403">
        <ele>9</ele>
        <time>2018-01-11T15:40:31Z</time>
      </trkpt>
      <trkpt lat="46.60813" lon="-1.84385">
        <ele>9</ele>
        <time>2018-01-11T15:41:31Z</time>
      </trkpt>
      <trkpt lat="46.60786" lon="-1.84277">
        <ele>7</ele>
        <time>2018-01-11T15:42:31Z</time>
      </trkpt>
      <trkpt lat="46.60743" lon="-1.84111">
        <ele>4</ele>
        <time>2018-01-11T15:43:31Z</time>
      </trkpt>
      <trkpt lat="46.60738" lon="-1.84102">
        <ele>4</ele>
        <time>2018-01-11T15:44:31Z</time>
      </trkpt>
      <trkpt lat="46.60723" lon="-1.84051">
        <ele>8</ele>
        <time>2018-01-11T15:45:31Z</time>
      </trkpt>
      <trkpt lat="46.60718" lon="-1.84029">
        <ele>8</ele>
        <time>2018-01-11T15:46:31Z</time>
      </trkpt>
      <trkpt lat="46.60718" lon="-1.84027">
        <ele>8</ele>
        <time>2018-01-11T15:47:31Z</time>
      </trkpt>
      <trkpt lat="46.60707" lon="-1.83989">
        <ele>11</ele>
        <time>2018-01-11T15:48:31Z</time>
      </trkpt>
      <trkpt lat="46.60701" lon="-1.83966">
        <ele>13</ele>
        <time>2018-01-11T15:49:31Z</time>
      </trkpt>
      <trkpt lat="46.60695" lon="-1.8394">
        <ele>15</ele>
        <time>2018-01-11T15:50:31Z</time>
      </trkpt>
      <trkpt lat="46.60685" lon="-1.83895">
        <ele>18</ele>
        <time>2018-01-11T15:51:31Z</time>
      </trkpt>
      <trkpt lat="46.60685" lon="-1.83884">
        <ele>18</ele>
        <time>2018-01-11T15:52:31Z</time>
      </trkpt>
      <trkpt lat="46.60681" lon="-1.83865">
        <ele>18</ele>
        <time>2018-01-11T15:53:31Z</time>
      </trkpt>
      <trkpt lat="46.60674" lon="-1.83841">
        <ele>18</ele>
        <time>2018-01-11T15:54:31Z</time>
      </trkpt>
      <trkpt lat="46.60669" lon="-1.83823">
        <ele>18</ele>
        <time>2018-01-11T15:55:31Z</time>
      </trkpt>
      <trkpt lat="46.60664" lon="-1.83802">
        <ele>18</ele>
        <time>2018-01-11T15:56:31Z</time>
      </trkpt>
      <trkpt lat="46.60655" lon="-1.83766">
        <ele>17</ele>
        <time>2018-01-11T15:57:31Z</time>
      </trkpt>
      <trkpt lat="46.60651" lon="-1.83748">
        <ele>17</ele>
        <time>2018-01-11T15:58:31Z</time>
      </trkpt>
      <trkpt lat="46.60646" lon="-1.83728">
        <ele>17</ele>
        <time>2018-01-11T15:59:31Z</time>
      </trkpt>
      <trkpt lat="46.6064" lon="-1.83701">
        <ele>17</ele>
        <time>2018-01-11T16:00:31Z</time>
      </trkpt>
      <trkpt lat="46.60631" lon="-1.83667">
        <ele>18</ele>
        <time>2018-01-11T16:01:31Z</time>
      </trkpt>
      <trkpt lat="46.60624" lon="-1.83638">
        <ele>18</ele>
        <time>2018-01-11T16:02:31Z</time>
      </trkpt>
      <trkpt lat="46.60617" lon="-1.8361">
        <ele>18</ele>
        <time>2018-01-11T16:03:31Z</time>
      </trkpt>
      <trkpt lat="46.60612" lon="-1.83592">
        <ele>18</ele>
        <time>2018-01-11T16:04:31Z</time>
      </trkpt>
      <trkpt lat="46.6061" lon="-1.83585">
        <ele>18</ele>
        <time>2018-01-11T16:05:31Z</time>
      </trkpt>
      <trkpt lat="46.60609" lon="-1.83583">
        <ele>18</ele>
        <time>2018-01-11T16:06:31Z</time>
      </trkpt>
      <trkpt lat="46.60606" lon="-1.83575">
        <ele>18</ele>
        <time>2018-01-11T16:07:31Z</time>
      </trkpt>
      <trkpt lat="46.60601" lon="-1.8355">
        <ele>19</ele>
        <time>2018-01-11T16:08:31Z</time>
      </trkpt>
      <trkpt lat="46.606" lon="-1.83549">
        <ele>19</ele>
        <time>2018-01-11T16:09:31Z</time>
      </trkpt>
      <trkpt lat="46.60599" lon="-1.83548">
        <ele>19</ele>
        <time>2018-01-11T16:10:31Z</time>
      </trkpt>
      <trkpt lat="46.60598" lon="-1.83547">
        <ele>19</ele>
        <time>2018-01-11T16:11:31Z</time>
      </trkpt>
      <trkpt lat="46.60597" lon="-1.83546">
        <ele>19</ele>
        <time>2018-01-11T16:12:31Z</time>
      </trkpt>
      <trkpt lat="46.60597" lon="-1.83545">
        <ele>19</ele>
        <time>2018-01-11T16:13:31Z</time>
      </trkpt>
      <trkpt lat="46.60596" lon="-1.83545">
        <ele>19</ele>
        <time>2018-01-11T16:14:31Z</time>
      </trkpt>
      <trkpt lat="46.60596" lon="-1.83544">
        <ele>19</ele>
        <time>2018-01-11T16:15:31Z</time>
      </trkpt>
      <trkpt lat="46.60596" lon="-1.83543">
        <ele>19</ele>
        <time>2018-01-11T16:16:31Z</time>
      </trkpt>
      <trkpt lat="46.60595" lon="-1.83542">
        <ele>19</ele>
        <time>2018-01-11T16:17:31Z</time>
      </trkpt>
      <trkpt lat="46.60595" lon="-1.83541">
        <ele>19</ele>
        <time>2018-01-11T16:18:31Z</time>
      </trkpt>
      <trkpt lat="46.60595" lon="-1.8354">
        <ele>19</ele>
        <time>2018-01-11T16:19:31Z</time>
      </trkpt>
      <trkpt lat="46.60594" lon="-1.8354">
        <ele>19</ele>
        <time>2018-01-11T16:20:31Z</time>
      </trkpt>
      <trkpt lat="46.60594" lon="-1.83539">
        <ele>19</ele>
        <time>2018-01-11T16:21:31Z</time>
      </trkpt>
      <trkpt lat="46.60594" lon="-1.83538">
        <ele>19</ele>
        <time>2018-01-11T16:22:31Z</time>
      </trkpt>
      <trkpt lat="46.60594" lon="-1.83537">
        <ele>19</ele>
        <time>2018-01-11T16:23:31Z</time>
      </trkpt>
      <trkpt lat="46.60594" lon="-1.83536">
        <ele>19</ele>
        <time>2018-01-11T16:24:31Z</time>
      </trkpt>
      <trkpt lat="46.60594" lon="-1.83535">
        <ele>19</ele>
        <time>2018-01-11T16:25:31Z</time>
      </trkpt>
      <trkpt lat="46.60594" lon="-1.83534">
        <ele>19</ele>
        <time>2018-01-11T16:26:31Z</time>
      </trkpt>
      <trkpt lat="46.60594" lon="-1.83533">
        <ele>19</ele>
        <time>2018-01-11T16:27:31Z</time>
      </trkpt>
      <trkpt lat="46.60594" lon="-1.83532">
        <ele>19</ele>
        <time>2018-01-11T16:28:31Z</time>
      </trkpt>
      <trkpt lat="46.60594" lon="-1.83531">
        <ele>19</ele>
        <time>2018-01-11T16:29:31Z</time>
      </trkpt>
      <trkpt lat="46.60595" lon="-1.8353">
        <ele>19</ele>
        <time>2018-01-11T16:30:31Z</time>
      </trkpt>
      <trkpt lat="46.60595" lon="-1.83529">
        <ele>19</ele>
        <time>2018-01-11T16:31:31Z</time>
      </trkpt>
      <trkpt lat="46.60595" lon="-1.83528">
        <ele>19</ele>
        <time>2018-01-11T16:32:31Z</time>
      </trkpt>
      <trkpt lat="46.60596" lon="-1.83527">
        <ele>19</ele>
        <time>2018-01-11T16:33:31Z</time>
      </trkpt>
      <trkpt lat="46.60596" lon="-1.83526">
        <ele>19</ele>
        <time>2018-01-11T16:34:31Z</time>
      </trkpt>
      <trkpt lat="46.60597" lon="-1.83525">
        <ele>20</ele>
        <time>2018-01-11T16:35:31Z</time>
      </trkpt>
      <trkpt lat="46.60597" lon="-1.83524">
        <ele>20</ele>
        <time>2018-01-11T16:36:31Z</time>
      </trkpt>
      <trkpt lat="46.60592" lon="-1.83501">
        <ele>20</ele>
        <time>2018-01-11T16:37:31Z</time>
      </trkpt>
      <trkpt lat="46.60591" lon="-1.83491">
        <ele>20</ele>
        <time>2018-01-11T16:38:31Z</time>
      </trkpt>
      <trkpt lat="46.6059" lon="-1.83484">
        <ele>20</ele>
        <time>2018-01-11T16:39:31Z</time>
      </trkpt>
      <trkpt lat="46.60583" lon="-1.83452">
        <ele>20</ele>
        <time>2018-01-11T16:40:31Z</time>
      </trkpt>
      <trkpt lat="46.60575" lon="-1.83408">
        <ele>20</ele>
        <time>2018-01-11T16:41:31Z</time>
      </trkpt>
      <trkpt lat="46.60568" lon="-1.83373">
        <ele>20</ele>
        <time>2018-01-11T16:42:31Z</time>
      </trkpt>
      <trkpt lat="46.60567" lon="-1.83367">
        <ele>20</ele>
        <time>2018-01-11T16:43:31Z</time>
      </trkpt>
      <trkpt lat="46.60564" lon="-1.83348">
        <ele>20</ele>
        <time>2018-01-11T16:44:31Z</time>
      </trkpt>
      <trkpt lat="46.60561" lon="-1.83337">
        <ele>21</ele>
        <time>2018-01-11T16:45:31Z</time>
      </trkpt>
      <trkpt lat="46.60561" lon="-1.83337">
        <ele>21</ele>
        <time>2018-01-11T16:46:31Z</time>
      </trkpt>
      <trkpt lat="46.60553" lon="-1.83325">
        <ele>20</ele>
        <time>2018-01-11T16:47:31Z</time>
      </trkpt>
      <trkpt lat="46.60541" lon="-1.83305">
        <ele>20</ele>
        <time>2018-01-11T16:48:31Z</time>
      </trkpt>
      <trkpt lat="46.60537" lon="-1.83298">
        <ele>19</ele>
        <time>2018-01-11T16:49:31Z</time>
      </trkpt>
      <trkpt lat="46.60534" lon="-1.83295">
        <ele>19</ele>
        <time>2018-01-11T16:50:31Z</time>
      </trkpt>
      <trkpt lat="46.60531" lon="-1.83291">
        <ele>19</ele>
        <time>2018-01-11T16:51:31Z</time>
      </trkpt>
      <trkpt lat="46.60524" lon="-1.83284">
        <ele>19</ele>
        <time>2018-01-11T16:52:31Z</time>
      </trkpt>
      <trkpt lat="46.60516" lon="-1.83278">
        <ele>18</ele>
        <time>2018-01-11T16:53:31Z</time>
      </trkpt>
      <trkpt lat="46.60506" lon="-1.83271">
        <ele>18</ele>
        <time>2018-01-11T16:54:31Z</time>
      </trkpt>
      <trkpt lat="46.60488" lon="-1.83261">
        <ele>17</ele>
        <time>2018-01-11T16:55:31Z</time>
      </trkpt>
      <trkpt lat="46.60463" lon="-1.83245">
        <ele>17</ele>
        <time>2018-01-11T16:56:31Z</time>
      </trkpt>
      <trkpt lat="46.60447" lon="-1.83233">
        <ele>16</ele>
        <time>2018-01-11T16:57:31Z</time>
      </trkpt>
      <trkpt lat="46.60435" lon="-1.83222">
        <ele>16</ele>
        <time>2018-01-11T16:58:31Z</time>
      </trkpt>
      <trkpt lat="46.60429" lon="-1.83214">
        <ele>16</ele>
        <time>2018-01-11T16:59:31Z</time>
      </trkpt>
      <trkpt lat="46.60424" lon="-1.83207">
        <ele>16</ele>
        <time>2018-01-11T17:00:31Z</time>
      </trkpt>
      <trkpt lat="46.60419" lon="-1.83197">
        <ele>16</ele>
        <time>2018-01-11T17:01:31Z</time>
      </trkpt>
      <trkpt lat="46.60413" lon="-1.83185">
        <ele>16</ele>
        <time>2018-01-11T17:02:31Z</time>
      </trkpt>
      <trkpt lat="46.60406" lon="-1.83164">
        <ele>16</ele>
        <time>2018-01-11T17:03:31Z</time>
      </trkpt>
      <trkpt lat="46.60399" lon="-1.8314">
        <ele>16</ele>
        <time>2018-01-11T17:04:31Z</time>
      </trkpt>
      <trkpt lat="46.60394" lon="-1.83125">
        <ele>17</ele>
        <time>2018-01-11T17:05:31Z</time>
      </trkpt>
      <trkpt lat="46.6039" lon="-1.83111">
        <ele>17</ele>
        <time>2018-01-11T17:06:31Z</time>
      </trkpt>
      <trkpt lat="46.60376" lon="-1.8307">
        <ele>18</ele>
        <time>2018-01-11T17:07:31Z</time>
      </trkpt>
      <trkpt lat="46.6037" lon="-1.83056">
        <ele>18</ele>
        <time>2018-01-11T17:08:31Z</time>
      </trkpt>
      <trkpt lat="46.60366" lon="-1.83044">
        <ele>18</ele>
        <time>2018-01-11T17:09:31Z</time>
      </trkpt>
      <trkpt lat="46.60362" lon="-1.83033">
        <ele>19</ele>
        <time>2018-01-11T17:10:31Z</time>
      </trkpt>
      <trkpt lat="46.6036" lon="-1.8302">
        <ele>19</ele>
        <time>2018-01-11T17:11:31Z</time>
      </trkpt>
      <trkpt lat="46.60359" lon="-1.83012">
        <ele>19</ele>
        <time>2018-01-11T17:12:31Z</time>
      </trkpt>
      <trkpt lat="46.60358" lon="-1.83006">
        <ele>19</ele>
        <time>2018-01-11T17:13:31Z</time>
      </trkpt>
      <trkpt lat="46.60358" lon="-1.83006">
        <ele>19</ele>
        <time>2018-01-11T17:14:31Z</time>
      </trkpt>
      <trkpt lat="46.60357" lon="-1.83006">
        <ele>19</ele>
        <time>2018-01-11T17:15:31Z</time>
      </trkpt>
      <trkpt lat="46.60357" lon="-1.83007">
        <ele>19</ele>
        <time>2018-01-11T17:16:31Z</time>
      </trkpt>
      <trkpt lat="46.60356" lon="-1.83007">
        <ele>19</ele>
        <time>2018-01-11T17:17:31Z</time>
      </trkpt>
      <trkpt lat="46.60355" lon="-1.83007">
        <ele>19</ele>
        <time>2018-01-11T17:18:31Z</time>
      </trkpt>
      <trkpt lat="46.60354" lon="-1.83006">
        <ele>19</ele>
        <time>2018-01-11T17:19:31Z</time>
      </trkpt>
      <trkpt lat="46.60353" lon="-1.83006">
        <ele>19</ele>
        <time>2018-01-11T17:20:31Z</time>
      </trkpt>
      <trkpt lat="46.60352" lon="-1.83006">
        <ele>19</ele>
        <time>2018-01-11T17:21:31Z</time>
      </trkpt>
      <trkpt lat="46.60352" lon="-1.83005">
        <ele>19</ele>
        <time>2018-01-11T17:22:31Z</time>
      </trkpt>
      <trkpt lat="46.60351" lon="-1.83005">
        <ele>19</ele>
        <time>2018-01-11T17:23:31Z</time>
      </trkpt>
      <trkpt lat="46.60351" lon="-1.83004">
        <ele>19</ele>
        <time>2018-01-11T17:24:31Z</time>
      </trkpt>
      <trkpt lat="46.6035" lon="-1.83004">
        <ele>19</ele>
        <time>2018-01-11T17:25:31Z</time>
      </trkpt>
      <trkpt lat="46.6035" lon="-1.83003">
        <ele>19</ele>
        <time>2018-01-11T17:26:31Z</time>
      </trkpt>
      <trkpt lat="46.60349" lon="-1.83003">
        <ele>19</ele>
        <time>2018-01-11T17:27:31Z</time>
      </trkpt>
      <trkpt lat="46.60349" lon="-1.83002">
        <ele>19</ele>
        <time>2018-01-11T17:28:31Z</time>
      </trkpt>
      <trkpt lat="46.60344" lon="-1.83001">
        <ele>19</ele>
        <time>2018-01-11T17:29:31Z</time>
      </trkpt>
      <trkpt lat="46.6034" lon="-1.83">
        <ele>19</ele>
        <time>2018-01-11T17:30:31Z</time>
      </trkpt>
      <trkpt lat="46.60335" lon="-1.82998">
        <ele>19</ele>
        <time>2018-01-11T17:31:31Z</time>
      </trkpt>
      <trkpt lat="46.60322" lon="-1.82995">
        <ele>19</ele>
        <time>2018-01-11T17:32:31Z</time>
      </trkpt>
      <trkpt lat="46.60319" lon="-1.82994">
        <ele>19</ele>
        <time>2018-01-11T17:33:31Z</time>
      </trkpt>
      <trkpt lat="46.60312" lon="-1.82994">
        <ele>18</ele>
        <time>2018-01-11T17:34:31Z</time>
      </trkpt>
      <trkpt lat="46.60303" lon="-1.82995">
        <ele>18</ele>
        <time>2018-01-11T17:35:31Z</time>
      </trkpt>
      <trkpt lat="46.6029" lon="-1.82997">
        <ele>18</ele>
        <time>2018-01-11T17:36:31Z</time>
      </trkpt>
      <trkpt lat="46.60268" lon="-1.83001">
        <ele>17</ele>
        <time>2018-01-11T17:37:31Z</time>
      </trkpt>
      <trkpt lat="46.60261" lon="-1.83003">
        <ele>17</ele>
        <time>2018-01-11T17:38:31Z</time>
      </trkpt>
      <trkpt lat="46.60251" lon="-1.83007">
        <ele>17</ele>
        <time>2018-01-11T17:39:31Z</time>
      </trkpt>
      <trkpt lat="46.6024" lon="-1.83014">
        <ele>17</ele>
        <time>2018-01-11T17:40:31Z</time>
      </trkpt>
      <trkpt lat="46.60213" lon="-1.83031">
        <ele>17</ele>
        <time>2018-01-11T17:41:31Z</time>
      </trkpt>
      <trkpt lat="46.60188" lon="-1.83048">
        <ele>17</ele>
        <time>2018-01-11T17:42:31Z</time>
      </trkpt>
      <trkpt lat="46.60164" lon="-1.83065">
        <ele>16</ele>
        <time>2018-01-11T17:43:31Z</time>
      </trkpt>
      <trkpt lat="46.60151" lon="-1.83073">
        <ele>16</ele>
        <time>2018-01-11T17:44:31Z</time>
      </trkpt>
      <trkpt lat="46.60137" lon="-1.83081">
        <ele>15</ele>
        <time>2018-01-11T17:45:31Z</time>
      </trkpt>
      <trkpt lat="46.60123" lon="-1.83087">
        <ele>15</ele>
        <time>2018-01-11T17:46:31Z</time>
      </trkpt>
      <trkpt lat="46.60116" lon="-1.83089">
        <ele>15</ele>
        <time>2018-01-11T17:47:31Z</time>
      </trkpt>
      <trkpt lat="46.60098" lon="-1.83094">
        <ele>14</ele>
        <time>2018-01-11T17:48:31Z</time>
      </trkpt>
      <trkpt lat="46.60078" lon="-1.83094">
        <ele>14</ele>
        <time>2018-01-11T17:49:31Z</time>
      </trkpt>
      <trkpt lat="46.60045" lon="-1.83092">
        <ele>12</ele>
        <time>2018-01-11T17:50:31Z</time>
      </trkpt>
      <trkpt lat="46.60038" lon="-1.83091">
        <ele>12</ele>
        <time>2018-01-11T17:51:31Z</time>
      </trkpt>
      <trkpt lat="46.60027" lon="-1.8309">
        <ele>12</ele>
        <time>2018-01-11T17:52:31Z</time>
      </trkpt>
      <trkpt lat="46.60002" lon="-1.83088">
        <ele>11</ele>
        <time>2018-01-11T17:53:31Z</time>
      </trkpt>
      <trkpt lat="46.59975" lon="-1.83086">
        <ele>10</ele>
        <time>2018-01-11T17:54:31Z</time>
      </trkpt>
      <trkpt lat="46.59961" lon="-1.83087">
        <ele>10</ele>
        <time>2018-01-11T17:55:31Z</time>
      </trkpt>
      <trkpt lat="46.59937" lon="-1.8309">
        <ele>9</ele>
        <time>2018-01-11T17:56:31Z</time>
      </trkpt>
      <trkpt lat="46.59914" lon="-1.83098">
        <ele>9</ele>
        <time>2018-01-11T17:57:31Z</time>
      </trkpt>
      <trkpt lat="46.59891" lon="-1.83106">
        <ele>8</ele>
        <time>2018-01-11T17:58:31Z</time>
      </trkpt>
      <trkpt lat="46.59864" lon="-1.83116">
        <ele>7</ele>
        <time>2018-01-11T17:59:31Z</time>
      </trkpt>
      <trkpt lat="46.59836" lon="-1.83129">
        <ele>6</ele>
        <time>2018-01-11T18:00:31Z</time>
      </trkpt>
      <trkpt lat="46.59806" lon="-1.83144">
        <ele>5</ele>
        <time>2018-01-11T18:01:31Z</time>
      </trkpt>
      <trkpt lat="46.59792" lon="-1.83152">
        <ele>5</ele>
        <time>2018-01-11T18:02:31Z</time>
      </trkpt>
      <trkpt lat="46.59777" lon="-1.83161">
        <ele>5</ele>
        <time>2018-01-11T18:03:31Z</time>
      </trkpt>
      <trkpt lat="46.59774" lon="-1.83162">
        <ele>5</ele>
        <time>2018-01-11T18:04:31Z</time>
      </trkpt>
      <trkpt lat="46.59759" lon="-1.83171">
        <ele>5</ele>
        <time>2018-01-11T18:05:31Z</time>
      </trkpt>
      <trkpt lat="46.59742" lon="-1.83179">
        <ele>5</ele>
        <time>2018-01-11T18:06:31Z</time>
      </trkpt>
      <trkpt lat="46.59733" lon="-1.83185">
        <ele>5</ele>
        <time>2018-01-11T18:07:31Z</time>
      </trkpt>
      <trkpt lat="46.59719" lon="-1.83192">
        <ele>4</ele>
        <time>2018-01-11T18:08:31Z</time>
      </trkpt>
      <trkpt lat="46.59696" lon="-1.83207">
        <ele>4</ele>
        <time>2018-01-11T18:09:31Z</time>
      </trkpt>
      <trkpt lat="46.59667" lon="-1.83226">
        <ele>4</ele>
        <time>2018-01-11T18:10:31Z</time>
      </trkpt>
      <trkpt lat="46.59628" lon="-1.83252">
        <ele>4</ele>
        <time>2018-01-11T18:11:31Z</time>
      </trkpt>
      <trkpt lat="46.59574" lon="-1.83287">
        <ele>4</ele>
        <time>2018-01-11T18:12:31Z</time>
      </trkpt>
      <trkpt lat="46.59573" lon="-1.83288">
        <ele>4</ele>
        <time>2018-01-11T18:13:31Z</time>
      </trkpt>
      <trkpt lat="46.59539" lon="-1.83311">
        <ele>4</ele>
        <time>2018-01-11T18:14:31Z</time>
      </trkpt>
      <trkpt lat="46.59527" lon="-1.83316">
        <ele>3</ele>
        <time>2018-01-11T18:15:31Z</time>
      </trkpt>
      <trkpt lat="46.59525" lon="-1.83318">
        <ele>3</ele>
        <time>2018-01-11T18:16:31Z</time>
      </trkpt>
      <trkpt lat="46.59518" lon="-1.83322">
        <ele>3</ele>
        <time>2018-01-11T18:17:31Z</time>
      </trkpt>
      <trkpt lat="46.59518" lon="-1.83322">
        <ele>3</ele>
        <time>2018-01-11T18:18:31Z</time>
      </trkpt>
      <trkpt lat="46.59489" lon="-1.83342">
        <ele>3</ele>
        <time>2018-01-11T18:19:31Z</time>
      </trkpt>
      <trkpt lat="46.59483" lon="-1.83345">
        <ele>3</ele>
        <time>2018-01-11T18:20:31Z</time>
      </trkpt>
      <trkpt lat="46.59481" lon="-1.83347">
        <ele>2</ele>
        <time>2018-01-11T18:21:31Z</time>
      </trkpt>
      <trkpt lat="46.5946" lon="-1.8336">
        <ele>2</ele>
        <time>2018-01-11T18:22:31Z</time>
      </trkpt>
      <trkpt lat="46.59444" lon="-1.8337">
        <ele>2</ele>
        <time>2018-01-11T18:23:31Z</time>
      </trkpt>
      <trkpt lat="46.59444" lon="-1.83371">
        <ele>2</ele>
        <time>2018-01-11T18:24:31Z</time>
      </trkpt>
      <trkpt lat="46.59439" lon="-1.83374">
        <ele>2</ele>
        <time>2018-01-11T18:25:31Z</time>
      </trkpt>
      <trkpt lat="46.59433" lon="-1.83375">
        <ele>2</ele>
        <time>2018-01-11T18:26:31Z</time>
      </trkpt>
      <trkpt lat="46.59425" lon="-1.83376">
        <ele>2</ele>
        <time>2018-01-11T18:27:31Z</time>
      </trkpt>
      <trkpt lat="46.59415" lon="-1.83374">
        <ele>2</ele>
        <time>2018-01-11T18:28:31Z</time>
      </trkpt>
      <trkpt lat="46.59404" lon="-1.83368">
        <ele>2</ele>
        <time>2018-01-11T18:29:31Z</time>
      </trkpt>
      <trkpt lat="46.59394" lon="-1.83361">
        <ele>2</ele>
        <time>2018-01-11T18:30:31Z</time>
      </trkpt>
      <trkpt lat="46.59382" lon="-1.83355">
        <ele>2</ele>
        <time>2018-01-11T18:31:31Z</time>
      </trkpt>
      <trkpt lat="46.59373" lon="-1.8335">
        <ele>2</ele>
        <time>2018-01-11T18:32:31Z</time>
      </trkpt>
      <trkpt lat="46.59357" lon="-1.83342">
        <ele>2</ele>
        <time>2018-01-11T18:33:31Z</time>
      </trkpt>
      <trkpt lat="46.59343" lon="-1.83336">
        <ele>2</ele>
        <time>2018-01-11T18:34:31Z</time>
      </trkpt>
      <trkpt lat="46.59325" lon="-1.8333">
        <ele>2</ele>
        <time>2018-01-11T18:35:31Z</time>
      </trkpt>
      <trkpt lat="46.59305" lon="-1.83323">
        <ele>2</ele>
        <time>2018-01-11T18:36:31Z</time>
      </trkpt>
      <trkpt lat="46.59287" lon="-1.83319">
        <ele>2</ele>
        <time>2018-01-11T18:37:31Z</time>
      </trkpt>
      <trkpt lat="46.59273" lon="-1.83318">
        <ele>2</ele>
        <time>2018-01-11T18:38:31Z</time>
      </trkpt>
      <trkpt lat="46.5926" lon="-1.83318">
        <ele>2</ele>
        <time>2018-01-11T18:39:31Z</time>
      </trkpt>
      <trkpt lat="46.5925" lon="-1.83319">
        <ele>2</ele>
        <time>2018-01-11T18:40:31Z</time>
      </trkpt>
      <trkpt lat="46.59239" lon="-1.83321">
        <ele>2</ele>
        <time>2018-01-11T18:41:31Z</time>
      </trkpt>
      <trkpt lat="46.59227" lon="-1.83323">
        <ele>2</ele>
        <time>2018-01-11T18:42:31Z</time>
      </trkpt>
      <trkpt lat="46.59218" lon="-1.83322">
        <ele>2</ele>
        <time>2018-01-11T18:43:31Z</time>
      </trkpt>
      <trkpt lat="46.59208" lon="-1.83322">
        <ele>3</ele>
        <time>2018-01-11T18:44:31Z</time>
      </trkpt>
      <trkpt lat="46.592" lon="-1.8332">
        <ele>3</ele>
        <time>2018-01-11T18:45:31Z</time>
      </trkpt>
      <trkpt lat="46.59197" lon="-1.8332">
        <ele>3</ele>
        <time>2018-01-11T18:46:31Z</time>
      </trkpt>
      <trkpt lat="46.59183" lon="-1.83316">
        <ele>3</ele>
        <time>2018-01-11T18:47:31Z</time>
      </trkpt>
      <trkpt lat="46.5918" lon="-1.83315">
        <ele>3</ele>
        <time>2018-01-11T18:48:31Z</time>
      </trkpt>
      <trkpt lat="46.59167" lon="-1.8331">
        <ele>4</ele>
        <time>2018-01-11T18:49:31Z</time>
      </trkpt>
      <trkpt lat="46.59152" lon="-1.83305">
        <ele>4</ele>
        <time>2018-01-11T18:50:31Z</time>
      </trkpt>
      <trkpt lat="46.59104" lon="-1.83289">
        <ele>6</ele>
        <time>2018-01-11T18:51:31Z</time>
      </trkpt>
      <trkpt lat="46.59038" lon="-1.83265">
        <ele>8</ele>
        <time>2018-01-11T18:52:31Z</time>
      </trkpt>
      <trkpt lat="46.59026" lon="-1.83261">
        <ele>9</ele>
        <time>2018-01-11T18:53:31Z</time>
      </trkpt>
      <trkpt lat="46.58982" lon="-1.83247">
        <ele>9</ele>
        <time>2018-01-11T18:54:31Z</time>
      </trkpt>
      <trkpt lat="46.58924" lon="-1.83227">
        <ele>10</ele>
        <time>2018-01-11T18:55:31Z</time>
      </trkpt>
      <trkpt lat="46.58882" lon="-1.83213">
        <ele>10</ele>
        <time>2018-01-11T18:56:31Z</time>
      </trkpt>
      <trkpt lat="46.58877" lon="-1.83211">
        <ele>9</ele>
        <time>2018-01-11T18:57:31Z</time>
      </trkpt>
      <trkpt lat="46.58849" lon="-1.83199">
        <ele>8</ele>
        <time>2018-01-11T18:58:31Z</time>
      </trkpt>
      <trkpt lat="46.58838" lon="-1.83193">
        <ele>8</ele>
        <time>2018-01-11T18:59:31Z</time>
      </trkpt>
      <trkpt lat="46.58829" lon="-1.83184">
        <ele>7</ele>
        <time>2018-01-11T19:00:31Z</time>
      </trkpt>
      <trkpt lat="46.58817" lon="-1.83173">
        <ele>7</ele>
        <time>2018-01-11T19:01:31Z</time>
      </trkpt>
      <trkpt lat="46.58808" lon="-1.83158">
        <ele>7</ele>
        <time>2018-01-11T19:02:31Z</time>
      </trkpt>
      <trkpt lat="46.58802" lon="-1.83149">
        <ele>7</ele>
        <time>2018-01-11T19:03:31Z</time>
      </trkpt>
      <trkpt lat="46.58793" lon="-1.83129">
        <ele>7</ele>
        <time>2018-01-11T19:04:31Z</time>
      </trkpt>
      <trkpt lat="46.58783" lon="-1.83109">
        <ele>6</ele>
        <time>2018-01-11T19:05:31Z</time>
      </trkpt>
      <trkpt lat="46.58772" lon="-1.83083">
        <ele>6</ele>
        <time>2018-01-11T19:06:31Z</time>
      </trkpt>
      <trkpt lat="46.58759" lon="-1.83057">
        <ele>7</ele>
        <time>2018-01-11T19:07:31Z</time>
      </trkpt>
      <trkpt lat="46.58742" lon="-1.83022">
        <ele>8</ele>
        <time>2018-01-11T19:08:31Z</time>
      </trkpt>
      <trkpt lat="46.58725" lon="-1.8299">
        <ele>9</ele>
        <time>2018-01-11T19:09:31Z</time>
      </trkpt>
      <trkpt lat="46.5871" lon="-1.82964">
        <ele>10</ele>
        <time>2018-01-11T19:10:31Z</time>
      </trkpt>
      <trkpt lat="46.58701" lon="-1.8295">
        <ele>11</ele>
        <time>2018-01-11T19:11:31Z</time>
      </trkpt>
      <trkpt lat="46.58694" lon="-1.82943">
        <ele>11</ele>
        <time>2018-01-11T19:12:31Z</time>
      </trkpt>
      <trkpt lat="46.58685" lon="-1.82933">
        <ele>12</ele>
        <time>2018-01-11T19:13:31Z</time>
      </trkpt>
      <trkpt lat="46.5868" lon="-1.82928">
        <ele>12</ele>
        <time>2018-01-11T19:14:31Z</time>
      </trkpt>
      <trkpt lat="46.58673" lon="-1.82918">
        <ele>12</ele>
        <time>2018-01-11T19:15:31Z</time>
      </trkpt>
      <trkpt lat="46.58667" lon="-1.82912">
        <ele>13</ele>
        <time>2018-01-11T19:16:31Z</time>
      </trkpt>
      <trkpt lat="46.58661" lon="-1.82906">
        <ele>13</ele>
        <time>2018-01-11T19:17:31Z</time>
      </trkpt>
      <trkpt lat="46.5865" lon="-1.82895">
        <ele>13</ele>
        <time>2018-01-11T19:18:31Z</time>
      </trkpt>
      <trkpt lat="46.58638" lon="-1.82883">
        <ele>12</ele>
        <time>2018-01-11T19:19:31Z</time>
      </trkpt>
      <trkpt lat="46.58624" lon="-1.8287">
        <ele>12</ele>
        <time>2018-01-11T19:20:31Z</time>
      </trkpt>
      <trkpt lat="46.58597" lon="-1.82858">
        <ele>12</ele>
        <time>2018-01-11T19:21:31Z</time>
      </trkpt>
      <trkpt lat="46.58572" lon="-1.82846">
        <ele>12</ele>
        <time>2018-01-11T19:22:31Z</time>
      </trkpt>
      <trkpt lat="46.58558" lon="-1.82838">
        <ele>12</ele>
        <time>2018-01-11T19:23:31Z</time>
      </trkpt>
      <trkpt lat="46.58558" lon="-1.82838">
        <ele>12</ele>
        <time>2018-01-11T19:24:31Z</time>
      </trkpt>
      <trkpt lat="46.58541" lon="-1.82827">
        <ele>11</ele>
        <time>2018-01-11T19:25:31Z</time>
      </trkpt>
      <trkpt lat="46.58531" lon="-1.82818">
        <ele>11</ele>
        <time>2018-01-11T19:26:31Z</time>
      </trkpt>
      <trkpt lat="46.58514" lon="-1.82801">
        <ele>10</ele>
        <time>2018-01-11T19:27:31Z</time>
      </trkpt>
      <trkpt lat="46.58497" lon="-1.82781">
        <ele>9</ele>
        <time>2018-01-11T19:28:31Z</time>
      </trkpt>
      <trkpt lat="46.58479" lon="-1.8276">
        <ele>8</ele>
        <time>2018-01-11T19:29:31Z</time>
      </trkpt>
      <trkpt lat="46.58472" lon="-1.82752">
        <ele>7</ele>
        <time>2018-01-11T19:30:31Z</time>
      </trkpt>
      <trkpt lat="46.58468" lon="-1.82747">
        <ele>7</ele>
        <time>2018-01-11T19:31:31Z</time>
      </trkpt>
      <trkpt lat="46.58452" lon="-1.82728">
        <ele>7</ele>
        <time>2018-01-11T19:32:31Z</time>
      </trkpt>
      <trkpt lat="46.58434" lon="-1.82707">
        <ele>6</ele>
        <time>2018-01-11T19:33:31Z</time>
      </trkpt>
      <trkpt lat="46.58412" lon="-1.82682">
        <ele>6</ele>
        <time>2018-01-11T19:34:31Z</time>
      </trkpt>
      <trkpt lat="46.58409" lon="-1.82678">
        <ele>6</ele>
        <time>2018-01-11T19:35:31Z</time>
      </trkpt>
      <trkpt lat="46.584" lon="-1.8267">
        <ele>6</ele>
        <time>2018-01-11T19:36:31Z</time>
      </trkpt>
      <trkpt lat="46.58393" lon="-1.8266">
        <ele>6</ele>
        <time>2018-01-11T19:37:31Z</time>
      </trkpt>
      <trkpt lat="46.58374" lon="-1.82637">
        <ele>7</ele>
        <time>2018-01-11T19:38:31Z</time>
      </trkpt>
      <trkpt lat="46.58352" lon="-1.82614">
        <ele>7</ele>
        <time>2018-01-11T19:39:31Z</time>
      </trkpt>
      <trkpt lat="46.58323" lon="-1.82579">
        <ele>8</ele>
        <time>2018-01-11T19:40:31Z</time>
      </trkpt>
      <trkpt lat="46.5829" lon="-1.82541">
        <ele>8</ele>
        <time>2018-01-11T19:41:31Z</time>
      </trkpt>
      <trkpt lat="46.58249" lon="-1.82493">
        <ele>9</ele>
        <time>2018-01-11T19:42:31Z</time>
      </trkpt>
      <trkpt lat="46.58232" lon="-1.82473">
        <ele>9</ele>
        <time>2018-01-11T19:43:31Z</time>
      </trkpt>
      <trkpt lat="46.58206" lon="-1.82442">
        <ele>10</ele>
        <time>2018-01-11T19:44:31Z</time>
      </trkpt>
      <trkpt lat="46.58189" lon="-1.82426">
        <ele>11</ele>
        <time>2018-01-11T19:45:31Z</time>
      </trkpt>
      <trkpt lat="46.58176" lon="-1.82414">
        <ele>11</ele>
        <time>2018-01-11T19:46:31Z</time>
      </trkpt>
      <trkpt lat="46.58164" lon="-1.82406">
        <ele>12</ele>
        <time>2018-01-11T19:47:31Z</time>
      </trkpt>
      <trkpt lat="46.58154" lon="-1.824">
        <ele>12</ele>
        <time>2018-01-11T19:48:31Z</time>
      </trkpt>
      <trkpt lat="46.58144" lon="-1.82394">
        <ele>12</ele>
        <time>2018-01-11T19:49:31Z</time>
      </trkpt>
      <trkpt lat="46.5813" lon="-1.8239">
        <ele>12</ele>
        <time>2018-01-11T19:50:31Z</time>
      </trkpt>
      <trkpt lat="46.58114" lon="-1.82384">
        <ele>12</ele>
        <time>2018-01-11T19:51:31Z</time>
      </trkpt>
      <trkpt lat="46.58096" lon="-1.82377">
        <ele>12</ele>
        <time>2018-01-11T19:52:31Z</time>
      </trkpt>
      <trkpt lat="46.58066" lon="-1.82367">
        <ele>11</ele>
        <time>2018-01-11T19:53:31Z</time>
      </trkpt>
      <trkpt lat="46.58021" lon="-1.82352">
        <ele>10</ele>
        <time>2018-01-11T19:54:31Z</time>
      </trkpt>
      <trkpt lat="46.57969" lon="-1.82334">
        <ele>10</ele>
        <time>2018-01-11T19:55:31Z</time>
      </trkpt>
      <trkpt lat="46.57932" lon="-1.82322">
        <ele>11</ele>
        <time>2018-01-11T19:56:31Z</time>
      </trkpt>
      <trkpt lat="46.57913" lon="-1.82317">
        <ele>11</ele>
        <time>2018-01-11T19:57:31Z</time>
      </trkpt>
      <trkpt lat="46.57889" lon="-1.82311">
        <ele>11</ele>
        <time>2018-01-11T19:58:31Z</time>
      </trkpt>
      <trkpt lat="46.57868" lon="-1.82304">
        <ele>11</ele>
        <time>2018-01-11T19:59:31Z</time>
      </trkpt>
      <trkpt lat="46.57846" lon="-1.82299">
        <ele>10</ele>
        <time>2018-01-11T20:00:31Z</time>
      </trkpt>
      <trkpt lat="46.57825" lon="-1.82295">
        <ele>10</ele>
        <time>2018-01-11T20:01:31Z</time>
      </trkpt>
      <trkpt lat="46.57807" lon="-1.82293">
        <ele>10</ele>
        <time>2018-01-11T20:02:31Z</time>
      </trkpt>
      <trkpt lat="46.57793" lon="-1.82291">
        <ele>10</ele>
        <time>2018-01-11T20:03:31Z</time>
      </trkpt>
      <trkpt lat="46.57776" lon="-1.8229">
        <ele>10</ele>
        <time>2018-01-11T20:04:31Z</time>
      </trkpt>
      <trkpt lat="46.57752" lon="-1.8229">
        <ele>10</ele>
        <time>2018-01-11T20:05:31Z</time>
      </trkpt>
      <trkpt lat="46.57736" lon="-1.8229">
        <ele>10</ele>
        <time>2018-01-11T20:06:31Z</time>
      </trkpt>
      <trkpt lat="46.57726" lon="-1.82291">
        <ele>10</ele>
        <time>2018-01-11T20:07:31Z</time>
      </trkpt>
      <trkpt lat="46.57687" lon="-1.82294">
        <ele>11</ele>
        <time>2018-01-11T20:08:31Z</time>
      </trkpt>
      <trkpt lat="46.57636" lon="-1.82299">
        <ele>12</ele>
        <time>2018-01-11T20:09:31Z</time>
      </trkpt>
      <trkpt lat="46.57631" lon="-1.823">
        <ele>12</ele>
        <time>2018-01-11T20:10:31Z</time>
      </trkpt>
      <trkpt lat="46.5763" lon="-1.823">
        <ele>12</ele>
        <time>2018-01-11T20:11:31Z</time>
      </trkpt>
      <trkpt lat="46.57625" lon="-1.82301">
        <ele>12</ele>
        <time>2018-01-11T20:12:31Z</time>
      </trkpt>
      <trkpt lat="46.57618" lon="-1.82301">
        <ele>12</ele>
        <time>2018-01-11T20:13:31Z</time>
      </trkpt>
      <trkpt lat="46.57582" lon="-1.82304">
        <ele>13</ele>
        <time>2018-01-11T20:14:31Z</time>
      </trkpt>
      <trkpt lat="46.5756" lon="-1.82306">
        <ele>13</ele>
        <time>2018-01-11T20:15:31Z</time>
      </trkpt>
      <trkpt lat="46.57491" lon="-1.82313">
        <ele>13</ele>
        <time>2018-01-11T20:16:31Z</time>
      </trkpt>
      <trkpt lat="46.57416" lon="-1.8232">
        <ele>13</ele>
        <time>2018-01-11T20:17:31Z</time>
      </trkpt>
      <trkpt lat="46.57385" lon="-1.82323">
        <ele>13</ele>
        <time>2018-01-11T20:18:31Z</time>
      </trkpt>
      <trkpt lat="46.57364" lon="-1.82325">
        <ele>13</ele>
        <time>2018-01-11T20:19:31Z</time>
      </trkpt>
      <trkpt lat="46.57347" lon="-1.82326">
        <ele>13</ele>
        <time>2018-01-11T20:20:31Z</time>
      </trkpt>
      <trkpt lat="46.5733" lon="-1.82327">
        <ele>13</ele>
        <time>2018-01-11T20:21:31Z</time>
      </trkpt>
      <trkpt lat="46.57315" lon="-1.82327">
        <ele>13</ele>
        <time>2018-01-11T20:22:31Z</time>
      </trkpt>
      <trkpt lat="46.57301" lon="-1.82325">
        <ele>12</ele>
        <time>2018-01-11T20:23:31Z</time>
      </trkpt>
      <trkpt lat="46.57284" lon="-1.82322">
        <ele>12</ele>
        <time>2018-01-11T20:24:31Z</time>
      </trkpt>
      <trkpt lat="46.5727" lon="-1.82318">
        <ele>12</ele>
        <time>2018-01-11T20:25:31Z</time>
      </trkpt>
      <trkpt lat="46.57256" lon="-1.82312">
        <ele>12</ele>
        <time>2018-01-11T20:26:31Z</time>
      </trkpt>
      <trkpt lat="46.57254" lon="-1.82311">
        <ele>12</ele>
        <time>2018-01-11T20:27:31Z</time>
      </trkpt>
      <trkpt lat="46.57242" lon="-1.82306">
        <ele>12</ele>
        <time>2018-01-11T20:28:31Z</time>
      </trkpt>
      <trkpt lat="46.57224" lon="-1.82297">
        <ele>12</ele>
        <time>2018-01-11T20:29:31Z</time>
      </trkpt>
      <trkpt lat="46.57207" lon="-1.82284">
        <ele>12</ele>
        <time>2018-01-11T20:30:31Z</time>
      </trkpt>
      <trkpt lat="46.57182" lon="-1.82265">
        <ele>12</ele>
        <time>2018-01-11T20:31:31Z</time>
      </trkpt>
      <trkpt lat="46.57167" lon="-1.82252">
        <ele>12</ele>
        <time>2018-01-11T20:32:31Z</time>
      </trkpt>
      <trkpt lat="46.57145" lon="-1.82234">
        <ele>12</ele>
        <time>2018-01-11T20:33:31Z</time>
      </trkpt>
      <trkpt lat="46.57145" lon="-1.82234">
        <ele>12</ele>
        <time>2018-01-11T20:34:31Z</time>
      </trkpt>
      <trkpt lat="46.57116" lon="-1.82209">
        <ele>11</ele>
        <time>2018-01-11T20:35:31Z</time>
      </trkpt>
      <trkpt lat="46.57081" lon="-1.82179">
        <ele>9</ele>
        <time>2018-01-11T20:36:31Z</time>
      </trkpt>
      <trkpt lat="46.57032" lon="-1.82138">
        <ele>10</ele>
        <time>2018-01-11T20:37:31Z</time>
      </trkpt>
      <trkpt lat="46.5701" lon="-1.82118">
        <ele>10</ele>
        <time>2018-01-11T20:38:31Z</time>
      </trkpt>
      <trkpt lat="46.56995" lon="-1.82105">
        <ele>10</ele>
        <time>2018-01-11T20:39:31Z</time>
      </trkpt>
      <trkpt lat="46.56918" lon="-1.82046">
        <ele>12</ele>
        <time>2018-01-11T20:40:31Z</time>
      </trkpt>
      <trkpt lat="46.56833" lon="-1.81994">
        <ele>13</ele>
        <time>2018-01-11T20:41:31Z</time>
      </trkpt>
      <trkpt lat="46.5681" lon="-1.81976">
        <ele>12</ele>
        <time>2018-01-11T20:42:31Z</time>
      </trkpt>
      <trkpt lat="46.56783" lon="-1.81952">
        <ele>11</ele>
        <time>2018-01-11T20:43:31Z</time>
      </trkpt>
      <trkpt lat="46.56761" lon="-1.81932">
        <ele>11</ele>
        <time>2018-01-11T20:44:31Z</time>
      </trkpt>
      <trkpt lat="46.56741" lon="-1.81914">
        <ele>12</ele>
        <time>2018-01-11T20:45:31Z</time>
      </trkpt>
      <trkpt lat="46.56685" lon="-1.81861">
        <ele>15</ele>
        <time>2018-01-11T20:46:31Z</time>
      </trkpt>
      <trkpt lat="46.56651" lon="-1.8183">
        <ele>16</ele>
        <time>2018-01-11T20:47:31Z</time>
      </trkpt>
      <trkpt lat="46.5663" lon="-1.8181">
        <ele>16</ele>
        <time>2018-01-11T20:48:31Z</time>
      </trkpt>
      <trkpt lat="46.5658" lon="-1.8176">
        <ele>13</ele>
        <time>2018-01-11T20:49:31Z</time>
      </trkpt>
      <trkpt lat="46.56516" lon="-1.81693">
        <ele>14</ele>
        <time>2018-01-11T20:50:31Z</time>
      </trkpt>
      <trkpt lat="46.56475" lon="-1.8165">
        <ele>13</ele>
        <time>2018-01-11T20:51:31Z</time>
      </trkpt>
      <trkpt lat="46.56457" lon="-1.81632">
        <ele>13</ele>
        <time>2018-01-11T20:52:31Z</time>
      </trkpt>
      <trkpt lat="46.56436" lon="-1.81612">
        <ele>13</ele>
        <time>2018-01-11T20:53:31Z</time>
      </trkpt>
      <trkpt lat="46.56421" lon="-1.81598">
        <ele>13</ele>
        <time>2018-01-11T20:54:31Z</time>
      </trkpt>
      <trkpt lat="46.56384" lon="-1.8156">
        <ele>14</ele>
        <time>2018-01-11T20:55:31Z</time>
      </trkpt>
      <trkpt lat="46.56339" lon="-1.81516">
        <ele>14</ele>
        <time>2018-01-11T20:56:31Z</time>
      </trkpt>
      <trkpt lat="46.56287" lon="-1.81463">
        <ele>17</ele>
        <time>2018-01-11T20:57:31Z</time>
      </trkpt>
      <trkpt lat="46.56276" lon="-1.8145">
        <ele>17</ele>
        <time>2018-01-11T20:58:31Z</time>
      </trkpt>
      <trkpt lat="46.56267" lon="-1.81441">
        <ele>18</ele>
        <time>2018-01-11T20:59:31Z</time>
      </trkpt>
      <trkpt lat="46.56258" lon="-1.81431">
        <ele>18</ele>
        <time>2018-01-11T21:00:31Z</time>
      </trkpt>
      <trkpt lat="46.56247" lon="-1.81417">
        <ele>18</ele>
        <time>2018-01-11T21:01:31Z</time>
      </trkpt>
      <trkpt lat="46.56238" lon="-1.81405">
        <ele>19</ele>
        <time>2018-01-11T21:02:31Z</time>
      </trkpt>
      <trkpt lat="46.56228" lon="-1.81392">
        <ele>19</ele>
        <time>2018-01-11T21:03:31Z</time>
      </trkpt>
      <trkpt lat="46.56218" lon="-1.81378">
        <ele>19</ele>
        <time>2018-01-11T21:04:31Z</time>
      </trkpt>
      <trkpt lat="46.56197" lon="-1.8135">
        <ele>20</ele>
        <time>2018-01-11T21:05:31Z</time>
      </trkpt>
      <trkpt lat="46.56163" lon="-1.81304">
        <ele>20</ele>
        <time>2018-01-11T21:06:31Z</time>
      </trkpt>
      <trkpt lat="46.56142" lon="-1.81277">
        <ele>19</ele>
        <time>2018-01-11T21:07:31Z</time>
      </trkpt>
      <trkpt lat="46.56073" lon="-1.81192">
        <ele>14</ele>
        <time>2018-01-11T21:08:31Z</time>
      </trkpt>
      <trkpt lat="46.56052" lon="-1.81165">
        <ele>14</ele>
        <time>2018-01-11T21:09:31Z</time>
      </trkpt>
      <trkpt lat="46.55959" lon="-1.81063">
        <ele>13</ele>
        <time>2018-01-11T21:10:31Z</time>
      </trkpt>
      <trkpt lat="46.55932" lon="-1.81034">
        <ele>12</ele>
        <time>2018-01-11T21:11:31Z</time>
      </trkpt>
      <trkpt lat="46.55915" lon="-1.81015">
        <ele>11</ele>
        <time>2018-01-11T21:12:31Z</time>
      </trkpt>
      <trkpt lat="46.55903" lon="-1.81003">
        <ele>11</ele>
        <time>2018-01-11T21:13:31Z</time>
      </trkpt>
      <trkpt lat="46.55898" lon="-1.80999">
        <ele>10</ele>
        <time>2018-01-11T21:14:31Z</time>
      </trkpt>
      <trkpt lat="46.55891" lon="-1.80997">
        <ele>10</ele>
        <time>2018-01-11T21:15:31Z</time>
      </trkpt>
      <trkpt lat="46.55883" lon="-1.80996">
        <ele>11</ele>
        <time>2018-01-11T21:16:31Z</time>
      </trkpt>
      <trkpt lat="46.55875" lon="-1.80995">
        <ele>11</ele>
        <time>2018-01-11T21:17:31Z</time>
      </trkpt>
      <trkpt lat="46.55868" lon="-1.80996">
        <ele>11</ele>
        <time>2018-01-11T21:18:31Z</time>
      </trkpt>
      <trkpt lat="46.5586" lon="-1.80999">
        <ele>11</ele>
        <time>2018-01-11T21:19:31Z</time>
      </trkpt>
      <trkpt lat="46.55853" lon="-1.81002">
        <ele>12</ele>
        <time>2018-01-11T21:20:31Z</time>
      </trkpt>
      <trkpt lat="46.55847" lon="-1.81005">
        <ele>12</ele>
        <time>2018-01-11T21:21:31Z</time>
      </trkpt>
      <trkpt lat="46.55842" lon="-1.81011">
        <ele>12</ele>
        <time>2018-01-11T21:22:31Z</time>
      </trkpt>
      <trkpt lat="46.55826" lon="-1.81029">
        <ele>12</ele>
        <time>2018-01-11T21:23:31Z</time>
      </trkpt>
      <trkpt lat="46.55803" lon="-1.81067">
        <ele>13</ele>
        <time>2018-01-11T21:24:31Z</time>
      </trkpt>
      <trkpt lat="46.55785" lon="-1.81096">
        <ele>13</ele>
        <time>2018-01-11T21:25:31Z</time>
      </trkpt>
      <trkpt lat="46.55767" lon="-1.81124">
        <ele>13</ele>
        <time>2018-01-11T21:26:31Z</time>
      </trkpt>
      <trkpt lat="46.55762" lon="-1.81132">
        <ele>13</ele>
        <time>2018-01-11T21:27:31Z</time>
      </trkpt>
      <trkpt lat="46.55757" lon="-1.81139">
        <ele>13</ele>
        <time>2018-01-11T21:28:31Z</time>
      </trkpt>
      <trkpt lat="46.55751" lon="-1.81145">
        <ele>13</ele>
        <time>2018-01-11T21:29:31Z</time>
      </trkpt>
      <trkpt lat="46.55746" lon="-1.8115">
        <ele>12</ele>
        <time>2018-01-11T21:30:31Z</time>
      </trkpt>
      <trkpt lat="46.55742" lon="-1.81153">
        <ele>12</ele>
        <time>2018-01-11T21:31:31Z</time>
      </trkpt>
      <trkpt lat="46.55738" lon="-1.81155">
        <ele>12</ele>
        <time>2018-01-11T21:32:31Z</time>
      </trkpt>
      <trkpt lat="46.55734" lon="-1.81156">
        <ele>12</ele>
        <time>2018-01-11T21:33:31Z</time>
      </trkpt>
      <trkpt lat="46.55731" lon="-1.81156">
        <ele>12</ele>
        <time>2018-01-11T21:34:31Z</time>
      </trkpt>
      <trkpt lat="46.55727" lon="-1.81156">
        <ele>12</ele>
        <time>2018-01-11T21:35:31Z</time>
      </trkpt>
      <trkpt lat="46.55722" lon="-1.81154">
        <ele>12</ele>
        <time>2018-01-11T21:36:31Z</time>
      </trkpt>
      <trkpt lat="46.55707" lon="-1.81147">
        <ele>11</ele>
        <time>2018-01-11T21:37:31Z</time>
      </trkpt>
      <trkpt lat="46.55688" lon="-1.81138">
        <ele>10</ele>
        <time>2018-01-11T21:38:31Z</time>
      </trkpt>
      <trkpt lat="46.55684" lon="-1.81138">
        <ele>10</ele>
        <time>2018-01-11T21:39:31Z</time>
      </trkpt>
      <trkpt lat="46.55681" lon="-1.81138">
        <ele>10</ele>
        <time>2018-01-11T21:40:31Z</time>
      </trkpt>
      <trkpt lat="46.55674" lon="-1.81135">
        <ele>10</ele>
        <time>2018-01-11T21:41:31Z</time>
      </trkpt>
      <trkpt lat="46.55664" lon="-1.81131">
        <ele>9</ele>
        <time>2018-01-11T21:42:31Z</time>
      </trkpt>
      <trkpt lat="46.55659" lon="-1.81129">
        <ele>9</ele>
        <time>2018-01-11T21:43:31Z</time>
      </trkpt>
      <trkpt lat="46.5565" lon="-1.81125">
        <ele>8</ele>
        <time>2018-01-11T21:44:31Z</time>
      </trkpt>
      <trkpt lat="46.55635" lon="-1.81118">
        <ele>8</ele>
        <time>2018-01-11T21:45:31Z</time>
      </trkpt>
      <trkpt lat="46.55633" lon="-1.81118">
        <ele>7</ele>
        <time>2018-01-11T21:46:31Z</time>
      </trkpt>
      <trkpt lat="46.55606" lon="-1.81104">
        <ele>6</ele>
        <time>2018-01-11T21:47:31Z</time>
      </trkpt>
      <trkpt lat="46.55596" lon="-1.811">
        <ele>6</ele>
        <time>2018-01-11T21:48:31Z</time>
      </trkpt>
      <trkpt lat="46.55589" lon="-1.81095">
        <ele>5</ele>
        <time>2018-01-11T21:49:31Z</time>
      </trkpt>
      <trkpt lat="46.55573" lon="-1.81088">
        <ele>5</ele>
        <time>2018-01-11T21:50:31Z</time>
      </trkpt>
      <trkpt lat="46.55543" lon="-1.81075">
        <ele>6</ele>
        <time>2018-01-11T21:51:31Z</time>
      </trkpt>
      <trkpt lat="46.55527" lon="-1.81068">
        <ele>6</ele>
        <time>2018-01-11T21:52:31Z</time>
      </trkpt>
      <trkpt lat="46.55515" lon="-1.81062">
        <ele>6</ele>
        <time>2018-01-11T21:53:31Z</time>
      </trkpt>
      <trkpt lat="46.55496" lon="-1.81054">
        <ele>6</ele>
        <time>2018-01-11T21:54:31Z</time>
      </trkpt>
      <trkpt lat="46.55474" lon="-1.81043">
        <ele>6</ele>
        <time>2018-01-11T21:55:31Z</time>
      </trkpt>
      <trkpt lat="46.55467" lon="-1.81039">
        <ele>6</ele>
        <time>2018-01-11T21:56:31Z</time>
      </trkpt>
      <trkpt lat="46.55459" lon="-1.81033">
        <ele>6</ele>
        <time>2018-01-11T21:57:31Z</time>
      </trkpt>
      <trkpt lat="46.55452" lon="-1.81026">
        <ele>6</ele>
        <time>2018-01-11T21:58:31Z</time>
      </trkpt>
      <trkpt lat="46.55441" lon="-1.81013">
        <ele>6</ele>
        <time>2018-01-11T21:59:31Z</time>
      </trkpt>
      <trkpt lat="46.55434" lon="-1.81003">
        <ele>6</ele>
        <time>2018-01-11T22:00:31Z</time>
      </trkpt>
      <trkpt lat="46.55432" lon="-1.80998">
        <ele>6</ele>
        <time>2018-01-11T22:01:31Z</time>
      </trkpt>
      <trkpt lat="46.55428" lon="-1.80992">
        <ele>6</ele>
        <time>2018-01-11T22:02:31Z</time>
      </trkpt>
      <trkpt lat="46.55425" lon="-1.80985">
        <ele>6</ele>
        <time>2018-01-11T22:03:31Z</time>
      </trkpt>
      <trkpt lat="46.5542" lon="-1.80974">
        <ele>6</ele>
        <time>2018-01-11T22:04:31Z</time>
      </trkpt>
      <trkpt lat="46.55416" lon="-1.80962">
        <ele>6</ele>
        <time>2018-01-11T22:05:31Z</time>
      </trkpt>
      <trkpt lat="46.5541" lon="-1.80942">
        <ele>5</ele>
        <time>2018-01-11T22:06:31Z</time>
      </trkpt>
      <trkpt lat="46.55404" lon="-1.80923">
        <ele>5</ele>
        <time>2018-01-11T22:07:31Z</time>
      </trkpt>
      <trkpt lat="46.554" lon="-1.80911">
        <ele>5</ele>
        <time>2018-01-11T22:08:31Z</time>
      </trkpt>
      <trkpt lat="46.55399" lon="-1.80908">
        <ele>5</ele>
        <time>2018-01-11T22:09:31Z</time>
      </trkpt>
      <trkpt lat="46.5539" lon="-1.80885">
        <ele>5</ele>
        <time>2018-01-11T22:10:31Z</time>
      </trkpt>
      <trkpt lat="46.55387" lon="-1.80877">
        <ele>5</ele>
        <time>2018-01-11T22:11:31Z</time>
      </trkpt>
      <trkpt lat="46.55382" lon="-1.80865">
        <ele>5</ele>
        <time>2018-01-11T22:12:31Z</time>
      </trkpt>
      <trkpt lat="46.55376" lon="-1.80853">
        <ele>5</ele>
        <time>2018-01-11T22:13:31Z</time>
      </trkpt>
      <trkpt lat="46.55371" lon="-1.80844">
        <ele>4</ele>
        <time>2018-01-11T22:14:31Z</time>
      </trkpt>
      <trkpt lat="46.55362" lon="-1.80828">
        <ele>4</ele>
        <time>2018-01-11T22:15:31Z</time>
      </trkpt>
      <trkpt lat="46.55352" lon="-1.80813">
        <ele>4</ele>
        <time>2018-01-11T22:16:31Z</time>
      </trkpt>
      <trkpt lat="46.55338" lon="-1.80794">
        <ele>5</ele>
        <time>2018-01-11T22:17:31Z</time>
      </trkpt>
      <trkpt lat="46.55335" lon="-1.80791">
        <ele>5</ele>
        <time>2018-01-11T22:18:31Z</time>
      </trkpt>
      <trkpt lat="46.55326" lon="-1.8078">
        <ele>5</ele>
        <time>2018-01-11T22:19:31Z</time>
      </trkpt>
      <trkpt lat="46.55317" lon="-1.80771">
        <ele>5</ele>
        <time>2018-01-11T22:20:31Z</time>
      </trkpt>
      <trkpt lat="46.55307" lon="-1.8076">
        <ele>5</ele>
        <time>2018-01-11T22:21:31Z</time>
      </trkpt>
      <trkpt lat="46.55285" lon="-1.80738">
        <ele>4</ele>
        <time>2018-01-11T22:22:31Z</time>
      </trkpt>
      <trkpt lat="46.55267" lon="-1.80721">
        <ele>4</ele>
        <time>2018-01-11T22:23:31Z</time>
      </trkpt>
      <trkpt lat="46.55245" lon="-1.807">
        <ele>4</ele>
        <time>2018-01-11T22:24:31Z</time>
      </trkpt>
      <trkpt lat="46.55232" lon="-1.80688">
        <ele>4</ele>
        <time>2018-01-11T22:25:31Z</time>
      </trkpt>
      <trkpt lat="46.55219" lon="-1.80677">
        <ele>4</ele>
        <time>2018-01-11T22:26:31Z</time>
      </trkpt>
      <trkpt lat="46.55209" lon="-1.80669">
        <ele>4</ele>
        <time>2018-01-11T22:27:31Z</time>
      </trkpt>
      <trkpt lat="46.55201" lon="-1.80664">
        <ele>4</ele>
        <time>2018-01-11T22:28:31Z</time>
      </trkpt>
      <trkpt lat="46.55194" lon="-1.8066">
        <ele>4</ele>
        <time>2018-01-11T22:29:31Z</time>
      </trkpt>
      <trkpt lat="46.55187" lon="-1.80657">
        <ele>4</ele>
        <time>2018-01-11T22:30:31Z</time>
      </trkpt>
      <trkpt lat="46.55178" lon="-1.80654">
        <ele>4</ele>
        <time>2018-01-11T22:31:31Z</time>
      </trkpt>
      <trkpt lat="46.55169" lon="-1.80651">
        <ele>4</ele>
        <time>2018-01-11T22:32:31Z</time>
      </trkpt>
      <trkpt lat="46.55158" lon="-1.80647">
        <ele>5</ele>
        <time>2018-01-11T22:33:31Z</time>
      </trkpt>
      <trkpt lat="46.55152" lon="-1.80647">
        <ele>5</ele>
        <time>2018-01-11T22:34:31Z</time>
      </trkpt>
      <trkpt lat="46.55134" lon="-1.80645">
        <ele>5</ele>
        <time>2018-01-11T22:35:31Z</time>
      </trkpt>
      <trkpt lat="46.55123" lon="-1.80644">
        <ele>5</ele>
        <time>2018-01-11T22:36:31Z</time>
      </trkpt>
      <trkpt lat="46.55112" lon="-1.80644">
        <ele>5</ele>
        <time>2018-01-11T22:37:31Z</time>
      </trkpt>
      <trkpt lat="46.55096" lon="-1.80645">
        <ele>5</ele>
        <time>2018-01-11T22:38:31Z</time>
      </trkpt>
      <trkpt lat="46.55073" lon="-1.80649">
        <ele>5</ele>
        <time>2018-01-11T22:39:31Z</time>
      </trkpt>
      <trkpt lat="46.55071" lon="-1.8065">
        <ele>5</ele>
        <time>2018-01-11T22:40:31Z</time>
      </trkpt>
      <trkpt lat="46.55051" lon="-1.80654">
        <ele>6</ele>
        <time>2018-01-11T22:41:31Z</time>
      </trkpt>
      <trkpt lat="46.55037" lon="-1.80656">
        <ele>6</ele>
        <time>2018-01-11T22:42:31Z</time>
      </trkpt>
      <trkpt lat="46.55019" lon="-1.80656">
        <ele>6</ele>
        <time>2018-01-11T22:43:31Z</time>
      </trkpt>
      <trkpt lat="46.55003" lon="-1.80656">
        <ele>6</ele>
        <time>2018-01-11T22:44:31Z</time>
      </trkpt>
      <trkpt lat="46.54987" lon="-1.80654">
        <ele>6</ele>
        <time>2018-01-11T22:45:31Z</time>
      </trkpt>
      <trkpt lat="46.54974" lon="-1.80651">
        <ele>6</ele>
        <time>2018-01-11T22:46:31Z</time>
      </trkpt>
      <trkpt lat="46.54957" lon="-1.80644">
        <ele>6</ele>
        <time>2018-01-11T22:47:31Z</time>
      </trkpt>
      <trkpt lat="46.54946" lon="-1.80638">
        <ele>6</ele>
        <time>2018-01-11T22:48:31Z</time>
      </trkpt>
      <trkpt lat="46.54939" lon="-1.80635">
        <ele>6</ele>
        <time>2018-01-11T22:49:31Z</time>
      </trkpt>
      <trkpt lat="46.54931" lon="-1.80631">
        <ele>6</ele>
        <time>2018-01-11T22:50:31Z</time>
      </trkpt>
      <trkpt lat="46.54913" lon="-1.80622">
        <ele>6</ele>
        <time>2018-01-11T22:51:31Z</time>
      </trkpt>
      <trkpt lat="46.54903" lon="-1.80616">
        <ele>6</ele>
        <time>2018-01-11T22:52:31Z</time>
      </trkpt>
      <trkpt lat="46.54887" lon="-1.80604">
        <ele>5</ele>
        <time>2018-01-11T22:53:31Z</time>
      </trkpt>
      <trkpt lat="46.54886" lon="-1.80603">
        <ele>5</ele>
        <time>2018-01-11T22:54:31Z</time>
      </trkpt>
      <trkpt lat="46.54865" lon="-1.80585">
        <ele>5</ele>
        <time>2018-01-11T22:55:31Z</time>
      </trkpt>
      <trkpt lat="46.54847" lon="-1.80572">
        <ele>5</ele>
        <time>2018-01-11T22:56:31Z</time>
      </trkpt>
      <trkpt lat="46.54828" lon="-1.80554">
        <ele>5</ele>
        <time>2018-01-11T22:57:31Z</time>
      </trkpt>
      <trkpt lat="46.54812" lon="-1.80541">
        <ele>6</ele>
        <time>2018-01-11T22:58:31Z</time>
      </trkpt>
      <trkpt lat="46.54798" lon="-1.80528">
        <ele>6</ele>
        <time>2018-01-11T22:59:31Z</time>
      </trkpt>
      <trkpt lat="46.54786" lon="-1.80518">
        <ele>5</ele>
        <time>2018-01-11T23:00:31Z</time>
      </trkpt>
      <trkpt lat="46.54767" lon="-1.80503">
        <ele>5</ele>
        <time>2018-01-11T23:01:31Z</time>
      </trkpt>
      <trkpt lat="46.54754" lon="-1.80493">
        <ele>5</ele>
        <time>2018-01-11T23:02:31Z</time>
      </trkpt>
      <trkpt lat="46.54748" lon="-1.80489">
        <ele>5</ele>
        <time>2018-01-11T23:03:31Z</time>
      </trkpt>
      <trkpt lat="46.54722" lon="-1.8047">
        <ele>6</ele>
        <time>2018-01-11T23:04:31Z</time>
      </trkpt>
      <trkpt lat="46.54718" lon="-1.80469">
        <ele>6</ele>
        <time>2018-01-11T23:05:31Z</time>
      </trkpt>
      <trkpt lat="46.54716" lon="-1.80468">
        <ele>6</ele>
        <time>2018-01-11T23:06:31Z</time>
      </trkpt>
      <trkpt lat="46.54707" lon="-1.80463">
        <ele>6</ele>
        <time>2018-01-11T23:07:31Z</time>
      </trkpt>
      <trkpt lat="46.54696" lon="-1.80457">
        <ele>6</ele>
        <time>2018-01-11T23:08:31Z</time>
      </trkpt>
      <trkpt lat="46.5469" lon="-1.80455">
        <ele>6</ele>
        <time>2018-01-11T23:09:31Z</time>
      </trkpt>
      <trkpt lat="46.54685" lon="-1.80454">
        <ele>6</ele>
        <time>2018-01-11T23:10:31Z</time>
      </trkpt>
      <trkpt lat="46.54685" lon="-1.80454">
        <ele>6</ele>
        <time>2018-01-11T23:11:31Z</time>
      </trkpt>
      <trkpt lat="46.54685" lon="-1.80455">
        <ele>6</ele>
        <time>2018-01-11T23:12:31Z</time>
      </trkpt>
      <trkpt lat="46.54684" lon="-1.80456">
        <ele>6</ele>
        <time>2018-01-11T23:13:31Z</time>
      </trkpt>
      <trkpt lat="46.54684" lon="-1.80457">
        <ele>6</ele>
        <time>2018-01-11T23:14:31Z</time>
      </trkpt>
      <trkpt lat="46.54683" lon="-1.80457">
        <ele>6</ele>
        <time>2018-01-11T23:15:31Z</time>
      </trkpt>
      <trkpt lat="46.54683" lon="-1.80458">
        <ele>6</ele>
        <time>2018-01-11T23:16:31Z</time>
      </trkpt>
      <trkpt lat="46.54682" lon="-1.80459">
        <ele>6</ele>
        <time>2018-01-11T23:17:31Z</time>
      </trkpt>
      <trkpt lat="46.54681" lon="-1.8046">
        <ele>6</ele>
        <time>2018-01-11T23:18:31Z</time>
      </trkpt>
      <trkpt lat="46.5468" lon="-1.8046">
        <ele>6</ele>
        <time>2018-01-11T23:19:31Z</time>
      </trkpt>
      <trkpt lat="46.54679" lon="-1.8046">
        <ele>6</ele>
        <time>2018-01-11T23:20:31Z</time>
      </trkpt>
      <trkpt lat="46.54678" lon="-1.8046">
        <ele>6</ele>
        <time>2018-01-11T23:21:31Z</time>
      </trkpt>
      <trkpt lat="46.54677" lon="-1.8046">
        <ele>6</ele>
        <time>2018-01-11T23:22:31Z</time>
      </trkpt>
      <trkpt lat="46.54677" lon="-1.80459">
        <ele>6</ele>
        <time>2018-01-11T23:23:31Z</time>
      </trkpt>
      <trkpt lat="46.54676" lon="-1.80459">
        <ele>6</ele>
        <time>2018-01-11T23:24:31Z</time>
      </trkpt>
      <trkpt lat="46.54675" lon="-1.80459">
        <ele>6</ele>
        <time>2018-01-11T23:25:31Z</time>
      </trkpt>
      <trkpt lat="46.54675" lon="-1.80458">
        <ele>6</ele>
        <time>2018-01-11T23:26:31Z</time>
      </trkpt>
      <trkpt lat="46.54674" lon="-1.80457">
        <ele>6</ele>
        <time>2018-01-11T23:27:31Z</time>
      </trkpt>
      <trkpt lat="46.54673" lon="-1.80456">
        <ele>6</ele>
        <time>2018-01-11T23:28:31Z</time>
      </trkpt>
      <trkpt lat="46.54672" lon="-1.80455">
        <ele>6</ele>
        <time>2018-01-11T23:29:31Z</time>
      </trkpt>
      <trkpt lat="46.54672" lon="-1.80454">
        <ele>6</ele>
        <time>2018-01-11T23:30:31Z</time>
      </trkpt>
      <trkpt lat="46.54671" lon="-1.80453">
        <ele>6</ele>
        <time>2018-01-11T23:31:31Z</time>
      </trkpt>
      <trkpt lat="46.54671" lon="-1.80452">
        <ele>6</ele>
        <time>2018-01-11T23:32:31Z</time>
      </trkpt>
      <trkpt lat="46.54671" lon="-1.80451">
        <ele>6</ele>
        <time>2018-01-11T23:33:31Z</time>
      </trkpt>
      <trkpt lat="46.5467" lon="-1.8045">
        <ele>6</ele>
        <time>2018-01-11T23:34:31Z</time>
      </trkpt>
      <trkpt lat="46.5467" lon="-1.80449">
        <ele>6</ele>
        <time>2018-01-11T23:35:31Z</time>
      </trkpt>
      <trkpt lat="46.5467" lon="-1.80448">
        <ele>6</ele>
        <time>2018-01-11T23:36:31Z</time>
      </trkpt>
      <trkpt lat="46.5467" lon="-1.80447">
        <ele>6</ele>
        <time>2018-01-11T23:37:31Z</time>
      </trkpt>
      <trkpt lat="46.5467" lon="-1.80446">
        <ele>6</ele>
        <time>2018-01-11T23:38:31Z</time>
      </trkpt>
      <trkpt lat="46.5467" lon="-1.80445">
        <ele>6</ele>
        <time>2018-01-11T23:39:31Z</time>
      </trkpt>
      <trkpt lat="46.5467" lon="-1.80444">
        <ele>6</ele>
        <time>2018-01-11T23:40:31Z</time>
      </trkpt>
      <trkpt lat="46.5467" lon="-1.80443">
        <ele>6</ele>
        <time>2018-01-11T23:41:31Z</time>
      </trkpt>
      <trkpt lat="46.5467" lon="-1.80442">
        <ele>6</ele>
        <time>2018-01-11T23:42:31Z</time>
      </trkpt>
      <trkpt lat="46.54671" lon="-1.80442">
        <ele>6</ele>
        <time>2018-01-11T23:43:31Z</time>
      </trkpt>
      <trkpt lat="46.54671" lon="-1.80441">
        <ele>6</ele>
        <time>2018-01-11T23:44:31Z</time>
      </trkpt>
      <trkpt lat="46.54671" lon="-1.8044">
        <ele>6</ele>
        <time>2018-01-11T23:45:31Z</time>
      </trkpt>
      <trkpt lat="46.54664" lon="-1.80424">
        <ele>6</ele>
        <time>2018-01-11T23:46:31Z</time>
      </trkpt>
      <trkpt lat="46.5466" lon="-1.80419">
        <ele>6</ele>
        <time>2018-01-11T23:47:31Z</time>
      </trkpt>
      <trkpt lat="46.54657" lon="-1.80416">
        <ele>6</ele>
        <time>2018-01-11T23:48:31Z</time>
      </trkpt>
      <trkpt lat="46.54652" lon="-1.80411">
        <ele>6</ele>
        <time>2018-01-11T23:49:31Z</time>
      </trkpt>
      <trkpt lat="46.54646" lon="-1.80408">
        <ele>6</ele>
        <time>2018-01-11T23:50:31Z</time>
      </trkpt>
      <trkpt lat="46.54636" lon="-1.804">
        <ele>6</ele>
        <time>2018-01-11T23:51:31Z</time>
      </trkpt>
      <trkpt lat="46.54636" lon="-1.804">
        <ele>6</ele>
        <time>2018-01-11T23:52:31Z</time>
      </trkpt>
      <trkpt lat="46.54635" lon="-1.80401">
        <ele>6</ele>
        <time>2018-01-11T23:53:31Z</time>
      </trkpt>
      <trkpt lat="46.54634" lon="-1.80401">
        <ele>6</ele>
        <time>2018-01-11T23:54:31Z</time>
      </trkpt>
      <trkpt lat="46.54634" lon="-1.80402">
        <ele>6</ele>
        <time>2018-01-11T23:55:31Z</time>
      </trkpt>
      <trkpt lat="46.54633" lon="-1.80402">
        <ele>6</ele>
        <time>2018-01-11T23:56:31Z</time>
      </trkpt>
      <trkpt lat="46.54632" lon="-1.80402">
        <ele>6</ele>
        <time>2018-01-11T23:57:31Z</time>
      </trkpt>
      <trkpt lat="46.54631" lon="-1.80402">
        <ele>6</ele>
        <time>2018-01-11T23:58:31Z</time>
      </trkpt>
      <trkpt lat="46.5463" lon="-1.80402">
        <ele>6</ele>
        <time>2018-01-11T23:59:31Z</time>
      </trkpt>
      <trkpt lat="46.54629" lon="-1.80402">
        <ele>6</ele>
        <time>2018-01-12T00:00:31Z</time>
      </trkpt>
      <trkpt lat="46.54629" lon="-1.80401">
        <ele>6</ele>
        <time>2018-01-12T00:01:31Z</time>
      </trkpt>
      <trkpt lat="46.54628" lon="-1.80401">
        <ele>6</ele>
        <time>2018-01-12T00:02:31Z</time>
      </trkpt>
      <trkpt lat="46.54628" lon="-1.804">
        <ele>6</ele>
        <time>2018-01-12T00:03:31Z</time>
      </trkpt>
      <trkpt lat="46.54627" lon="-1.804">
        <ele>6</ele>
        <time>2018-01-12T00:04:31Z</time>
      </trkpt>
      <trkpt lat="46.54627" lon="-1.80399">
        <ele>6</ele>
        <time>2018-01-12T00:05:31Z</time>
      </trkpt>
      <trkpt lat="46.54626" lon="-1.80398">
        <ele>6</ele>
        <time>2018-01-12T00:06:31Z</time>
      </trkpt>
      <trkpt lat="46.54626" lon="-1.80397">
        <ele>6</ele>
        <time>2018-01-12T00:07:31Z</time>
      </trkpt>
      <trkpt lat="46.54626" lon="-1.80396">
        <ele>6</ele>
        <time>2018-01-12T00:08:31Z</time>
      </trkpt>
      <trkpt lat="46.54625" lon="-1.80396">
        <ele>6</ele>
        <time>2018-01-12T00:09:31Z</time>
      </trkpt>
      <trkpt lat="46.54625" lon="-1.80395">
        <ele>6</ele>
        <time>2018-01-12T00:10:31Z</time>
      </trkpt>
      <trkpt lat="46.54625" lon="-1.80394">
        <ele>6</ele>
        <time>2018-01-12T00:11:31Z</time>
      </trkpt>
      <trkpt lat="46.54625" lon="-1.80393">
        <ele>6</ele>
        <time>2018-01-12T00:12:31Z</time>
      </trkpt>
      <trkpt lat="46.54625" lon="-1.80392">
        <ele>6</ele>
        <time>2018-01-12T00:13:31Z</time>
      </trkpt>
      <trkpt lat="46.54625" lon="-1.80391">
        <ele>6</ele>
        <time>2018-01-12T00:14:31Z</time>
      </trkpt>
      <trkpt lat="46.54626" lon="-1.80389">
        <ele>6</ele>
        <time>2018-01-12T00:15:31Z</time>
      </trkpt>
      <trkpt lat="46.54627" lon="-1.80386">
        <ele>6</ele>
        <time>2018-01-12T00:16:31Z</time>
      </trkpt>
      <trkpt lat="46.54628" lon="-1.80385">
        <ele>6</ele>
        <time>2018-01-12T00:17:31Z</time>
      </trkpt>
      <trkpt lat="46.54629" lon="-1.80384">
        <ele>6</ele>
        <time>2018-01-12T00:18:31Z</time>
      </trkpt>
      <trkpt lat="46.54631" lon="-1.80383">
        <ele>6</ele>
        <time>2018-01-12T00:19:31Z</time>
      </trkpt>
      <trkpt lat="46.54633" lon="-1.80383">
        <ele>6</ele>
        <time>2018-01-12T00:20:31Z</time>
      </trkpt>
      <trkpt lat="46.54634" lon="-1.80383">
        <ele>6</ele>
        <time>2018-01-12T00:21:31Z</time>
      </trkpt>
      <trkpt lat="46.54636" lon="-1.80384">
        <ele>6</ele>
        <time>2018-01-12T00:22:31Z</time>
      </trkpt>
      <trkpt lat="46.54643" lon="-1.80364">
        <ele>6</ele>
        <time>2018-01-12T00:23:31Z</time>
      </trkpt>
      <trkpt lat="46.54655" lon="-1.80339">
        <ele>7</ele>
        <time>2018-01-12T00:24:31Z</time>
      </trkpt>
      <trkpt lat="46.54663" lon="-1.80318">
        <ele>7</ele>
        <time>2018-01-12T00:25:31Z</time>
      </trkpt>
      <trkpt lat="46.54666" lon="-1.80311">
        <ele>8</ele>
        <time>2018-01-12T00:26:31Z</time>
      </trkpt>
      <trkpt lat="46.54666" lon="-1.80311">
        <ele>8</ele>
        <time>2018-01-12T00:27:31Z</time>
      </trkpt>
      <trkpt lat="46.54681" lon="-1.80274">
        <ele>8</ele>
        <time>2018-01-12T00:28:31Z</time>
      </trkpt>
      <trkpt lat="46.54689" lon="-1.80253">
        <ele>9</ele>
        <time>2018-01-12T00:29:31Z</time>
      </trkpt>
      <trkpt lat="46.54697" lon="-1.80236">
        <ele>9</ele>
        <time>2018-01-12T00:30:31Z</time>
      </trkpt>
      <trkpt lat="46.54704" lon="-1.8022">
        <ele>8</ele>
        <time>2018-01-12T00:31:31Z</time>
      </trkpt>
      <trkpt lat="46.54711" lon="-1.80203">
        <ele>8</ele>
        <time>2018-01-12T00:32:31Z</time>
      </trkpt>
      <trkpt lat="46.54718" lon="-1.80186">
        <ele>8</ele>
        <time>2018-01-12T00:33:31Z</time>
      </trkpt>
      <trkpt lat="46.54723" lon="-1.80177">
        <ele>8</ele>
        <time>2018-01-12T00:34:31Z</time>
      </trkpt>
      <trkpt lat="46.54734" lon="-1.80153">
        <ele>8</ele>
        <time>2018-01-12T00:35:31Z</time>
      </trkpt>
      <trkpt lat="46.54746" lon="-1.80129">
        <ele>7</ele>
        <time>2018-01-12T00:36:31Z</time>
      </trkpt>
      <trkpt lat="46.54746" lon="-1.80128">
        <ele>7</ele>
        <time>2018-01-12T00:37:31Z</time>
      </trkpt>
      <trkpt lat="46.54762" lon="-1.80099">
        <ele>6</ele>
        <time>2018-01-12T00:38:31Z</time>
      </trkpt>
      <trkpt lat="46.5477" lon="-1.80086">
        <ele>6</ele>
        <time>2018-01-12T00:39:31Z</time>
      </trkpt>
      <trkpt lat="46.54783" lon="-1.80066">
        <ele>5</ele>
        <time>2018-01-12T00:40:31Z</time>
      </trkpt>
      <trkpt lat="46.54796" lon="-1.80049">
        <ele>5</ele>
        <time>2018-01-12T00:41:31Z</time>
      </trkpt>
      <trkpt lat="46.54814" lon="-1.80025">
        <ele>4</ele>
        <time>2018-01-12T00:42:31Z</time>
      </trkpt>
      <trkpt lat="46.54828" lon="-1.80007">
        <ele>3</ele>
        <time>2018-01-12T00:43:31Z</time>
      </trkpt>
      <trkpt lat="46.54839" lon="-1.79994">
        <ele>3</ele>
        <time>2018-01-12T00:44:31Z</time>
      </trkpt>
      <trkpt lat="46.54852" lon="-1.7998">
        <ele>3</ele>
        <time>2018-01-12T00:45:31Z</time>
      </trkpt>
      <trkpt lat="46.54857" lon="-1.79973">
        <ele>3</ele>
        <time>2018-01-12T00:46:31Z</time>
      </trkpt>
      <trkpt lat="46.54872" lon="-1.7995">
        <ele>3</ele>
        <time>2018-01-12T00:47:31Z</time>
      </trkpt>
      <trkpt lat="46.54883" lon="-1.79923">
        <ele>3</ele>
        <time>2018-01-12T00:48:31Z</time>
      </trkpt>
      <trkpt lat="46.54891" lon="-1.79891">
        <ele>3</ele>
        <time>2018-01-12T00:49:31Z</time>
      </trkpt>
      <trkpt lat="46.54897" lon="-1.79867">
        <ele>3</ele>
        <time>2018-01-12T00:50:31Z</time>
      </trkpt>
      <trkpt lat="46.54901" lon="-1.7985">
        <ele>3</ele>
        <time>2018-01-12T00:51:31Z</time>
      </trkpt>
      <trkpt lat="46.54904" lon="-1.79838">
        <ele>3</ele>
        <time>2018-01-12T00:52:31Z</time>
      </trkpt>
      <trkpt lat="46.54908" lon="-1.79828">
        <ele>3</ele>
        <time>2018-01-12T00:53:31Z</time>
      </trkpt>
      <trkpt lat="46.54912" lon="-1.79817">
        <ele>3</ele>
        <time>2018-01-12T00:54:31Z</time>
      </trkpt>
      <trkpt lat="46.54915" lon="-1.79812">
        <ele>3</ele>
        <time>2018-01-12T00:55:31Z</time>
      </trkpt>
      <trkpt lat="46.5492" lon="-1.798">
        <ele>3</ele>
        <time>2018-01-12T00:56:31Z</time>
      </trkpt>
      <trkpt lat="46.54926" lon="-1.7979">
        <ele>3</ele>
        <time>2018-01-12T00:57:31Z</time>
      </trkpt>
      <trkpt lat="46.54937" lon="-1.79773">
        <ele>3</ele>
        <time>2018-01-12T00:58:31Z</time>
      </trkpt>
      <trkpt lat="46.54949" lon="-1.79756">
        <ele>3</ele>
        <time>2018-01-12T00:59:31Z</time>
      </trkpt>
      <trkpt lat="46.54962" lon="-1.79737">
        <ele>3</ele>
        <time>2018-01-12T01:00:31Z</time>
      </trkpt>
      <trkpt lat="46.54982" lon="-1.79708">
        <ele>3</ele>
        <time>2018-01-12T01:01:31Z</time>
      </trkpt>
      <trkpt lat="46.55003" lon="-1.79675">
        <ele>3</ele>
        <time>2018-01-12T01:02:31Z</time>
      </trkpt>
      <trkpt lat="46.55023" lon="-1.79646">
        <ele>3</ele>
        <time>2018-01-12T01:03:31Z</time>
      </trkpt>
      <trkpt lat="46.55037" lon="-1.79624">
        <ele>2</ele>
        <time>2018-01-12T01:04:31Z</time>
      </trkpt>
      <trkpt lat="46.55047" lon="-1.79608">
        <ele>3</ele>
        <time>2018-01-12T01:05:31Z</time>
      </trkpt>
      <trkpt lat="46.55051" lon="-1.79602">
        <ele>3</ele>
        <time>2018-01-12T01:06:31Z</time>
      </trkpt>
      <trkpt lat="46.55059" lon="-1.79586">
        <ele>3</ele>
        <time>2018-01-12T01:07:31Z</time>
      </trkpt>
      <trkpt lat="46.55066" lon="-1.79575">
        <ele>3</ele>
        <time>2018-01-12T01:08:31Z</time>
      </trkpt>
      <trkpt lat="46.55072" lon="-1.7956">
        <ele>4</ele>
        <time>2018-01-12T01:09:31Z</time>
      </trkpt>
      <trkpt lat="46.55078" lon="-1.79546">
        <ele>4</ele>
        <time>2018-01-12T01:10:31Z</time>
      </trkpt>
      <trkpt lat="46.55083" lon="-1.79537">
        <ele>4</ele>
        <time>2018-01-12T01:11:31Z</time>
      </trkpt>
      <trkpt lat="46.55084" lon="-1.79532">
        <ele>4</ele>
        <time>2018-01-12T01:12:31Z</time>
      </trkpt>
      <trkpt lat="46.55095" lon="-1.795">
        <ele>4</ele>
        <time>2018-01-12T01:13:31Z</time>
      </trkpt>
      <trkpt lat="46.55105" lon="-1.79474">
        <ele>4</ele>
        <time>2018-01-12T01:14:31Z</time>
      </trkpt>
      <trkpt lat="46.55115" lon="-1.79446">
        <ele>4</ele>
        <time>2018-01-12T01:15:31Z</time>
      </trkpt>
      <trkpt lat="46.55123" lon="-1.79424">
        <ele>4</ele>
        <time>2018-01-12T01:16:31Z</time>
      </trkpt>
      <trkpt lat="46.55131" lon="-1.79404">
        <ele>3</ele>
        <time>2018-01-12T01:17:31Z</time>
      </trkpt>
      <trkpt lat="46.55139" lon="-1.79386">
        <ele>3</ele>
        <time>2018-01-12T01:18:31Z</time>
      </trkpt>
      <trkpt lat="46.55146" lon="-1.79373">
        <ele>3</ele>
        <time>2018-01-12T01:19:31Z</time>
      </trkpt>
      <trkpt lat="46.55155" lon="-1.79357">
        <ele>3</ele>
        <time>2018-01-12T01:20:31Z</time>
      </trkpt>
      <trkpt lat="46.55167" lon="-1.79339">
        <ele>2</ele>
        <time>2018-01-12T01:21:31Z</time>
      </trkpt>
      <trkpt lat="46.55181" lon="-1.79326">
        <ele>1</ele>
        <time>2018-01-12T01:22:31Z</time>
      </trkpt>
      <trkpt lat="46.55201" lon="-1.79309">
        <ele>1</ele>
        <time>2018-01-12T01:23:31Z</time>
      </trkpt>
      <trkpt lat="46.55229" lon="-1.7929">
        <ele>1</ele>
        <time>2018-01-12T01:24:31Z</time>
      </trkpt>
      <trkpt lat="46.55259" lon="-1.79269">
        <ele>2</ele>
        <time>2018-01-12T01:25:31Z</time>
      </trkpt>
      <trkpt lat="46.55295" lon="-1.79243">
        <ele>2</ele>
        <time>2018-01-12T01:26:31Z</time>
      </trkpt>
      <trkpt lat="46.55341" lon="-1.79211">
        <ele>2</ele>
        <time>2018-01-12T01:27:31Z</time>
      </trkpt>
      <trkpt lat="46.55378" lon="-1.79185">
        <ele>2</ele>
        <time>2018-01-12T01:28:31Z</time>
      </trkpt>
      <trkpt lat="46.55404" lon="-1.79165">
        <ele>2</ele>
        <time>2018-01-12T01:29:31Z</time>
      </trkpt>
      <trkpt lat="46.55427" lon="-1.79147">
        <ele>1</ele>
        <time>2018-01-12T01:30:31Z</time>
      </trkpt>
      <trkpt lat="46.55443" lon="-1.79134">
        <ele>2</ele>
        <time>2018-01-12T01:31:31Z</time>
      </trkpt>
      <trkpt lat="46.55453" lon="-1.79125">
        <ele>2</ele>
        <time>2018-01-12T01:32:31Z</time>
      </trkpt>
      <trkpt lat="46.5546" lon="-1.7912">
        <ele>2</ele>
        <time>2018-01-12T01:33:31Z</time>
      </trkpt>
      <trkpt lat="46.55463" lon="-1.79115">
        <ele>2</ele>
        <time>2018-01-12T01:34:31Z</time>
      </trkpt>
      <trkpt lat="46.5547" lon="-1.79106">
        <ele>2</ele>
        <time>2018-01-12T01:35:31Z</time>
      </trkpt>
      <trkpt lat="46.55476" lon="-1.79097">
        <ele>2</ele>
        <time>2018-01-12T01:36:31Z</time>
      </trkpt>
      <trkpt lat="46.55484" lon="-1.79082">
        <ele>3</ele>
        <time>2018-01-12T01:37:31Z</time>
      </trkpt>
      <trkpt lat="46.55494" lon="-1.79058">
        <ele>3</ele>
        <time>2018-01-12T01:38:31Z</time>
      </trkpt>
      <trkpt lat="46.55501" lon="-1.79037">
        <ele>2</ele>
        <time>2018-01-12T01:39:31Z</time>
      </trkpt>
      <trkpt lat="46.5551" lon="-1.79009">
        <ele>2</ele>
        <time>2018-01-12T01:40:31Z</time>
      </trkpt>
      <trkpt lat="46.55518" lon="-1.78985">
        <ele>2</ele>
        <time>2018-01-12T01:41:31Z</time>
      </trkpt>
      <trkpt lat="46.55527" lon="-1.78966">
        <ele>2</ele>
        <time>2018-01-12T01:42:31Z</time>
      </trkpt>
      <trkpt lat="46.55533" lon="-1.78955">
        <ele>2</ele>
        <time>2018-01-12T01:43:31Z</time>
      </trkpt>
      <trkpt lat="46.55537" lon="-1.7895">
        <ele>2</ele>
        <time>2018-01-12T01:44:31Z</time>
      </trkpt>
      <trkpt lat="46.55543" lon="-1.78942">
        <ele>2</ele>
        <time>2018-01-12T01:45:31Z</time>
      </trkpt>
      <trkpt lat="46.55549" lon="-1.78936">
        <ele>2</ele>
        <time>2018-01-12T01:46:31Z</time>
      </trkpt>
      <trkpt lat="46.55557" lon="-1.7893">
        <ele>2</ele>
        <time>2018-01-12T01:47:31Z</time>
      </trkpt>
      <trkpt lat="46.55566" lon="-1.78924">
        <ele>2</ele>
        <time>2018-01-12T01:48:31Z</time>
      </trkpt>
      <trkpt lat="46.55575" lon="-1.78919">
        <ele>2</ele>
        <time>2018-01-12T01:49:31Z</time>
      </trkpt>
      <trkpt lat="46.55583" lon="-1.78915">
        <ele>2</ele>
        <time>2018-01-12T01:50:31Z</time>
      </trkpt>
      <trkpt lat="46.55591" lon="-1.78912">
        <ele>2</ele>
        <time>2018-01-12T01:51:31Z</time>
      </trkpt>
      <trkpt lat="46.5562" lon="-1.78901">
        <ele>1</ele>
        <time>2018-01-12T01:52:31Z</time>
      </trkpt>
      <trkpt lat="46.55663" lon="-1.78885">
        <ele>1</ele>
        <time>2018-01-12T01:53:31Z</time>
      </trkpt>
      <trkpt lat="46.55703" lon="-1.78869">
        <ele>1</ele>
        <time>2018-01-12T01:54:31Z</time>
      </trkpt>
      <trkpt lat="46.55746" lon="-1.78853">
        <ele>1</ele>
        <time>2018-01-12T01:55:31Z</time>
      </trkpt>
      <trkpt lat="46.55784" lon="-1.78838">
        <ele>1</ele>
        <time>2018-01-12T01:56:31Z</time>
      </trkpt>
      <trkpt lat="46.55818" lon="-1.78824">
        <ele>1</ele>
        <time>2018-01-12T01:57:31Z</time>
      </trkpt>
      <trkpt lat="46.55839" lon="-1.78813">
        <ele>1</ele>
        <time>2018-01-12T01:58:31Z</time>
      </trkpt>
      <trkpt lat="46.55846" lon="-1.78808">
        <ele>1</ele>
        <time>2018-01-12T01:59:31Z</time>
      </trkpt>
      <trkpt lat="46.55849" lon="-1.78806">
        <ele>1</ele>
        <time>2018-01-12T02:00:31Z</time>
      </trkpt>
      <trkpt lat="46.55856" lon="-1.78801">
        <ele>1</ele>
        <time>2018-01-12T02:01:31Z</time>
      </trkpt>
      <trkpt lat="46.55864" lon="-1.78793">
        <ele>1</ele>
        <time>2018-01-12T02:02:31Z</time>
      </trkpt>
      <trkpt lat="46.55875" lon="-1.78781">
        <ele>1</ele>
        <time>2018-01-12T02:03:31Z</time>
      </trkpt>
      <trkpt lat="46.55888" lon="-1.78766">
        <ele>1</ele>
        <time>2018-01-12T02:04:31Z</time>
      </trkpt>
      <trkpt lat="46.55897" lon="-1.78751">
        <ele>1</ele>
        <time>2018-01-12T02:05:31Z</time>
      </trkpt>
      <trkpt lat="46.55903" lon="-1.78742">
        <ele>1</ele>
        <time>2018-01-12T02:06:31Z</time>
      </trkpt>
      <trkpt lat="46.55909" lon="-1.78731">
        <ele>1</ele>
        <time>2018-01-12T02:07:31Z</time>
      </trkpt>
      <trkpt lat="46.55927" lon="-1.78694">
        <ele>1</ele>
        <time>2018-01-12T02:08:31Z</time>
      </trkpt>
      <trkpt lat="46.55948" lon="-1.7865">
        <ele>1</ele>
        <time>2018-01-12T02:09:31Z</time>
      </trkpt>
      <trkpt lat="46.55969" lon="-1.78602">
        <ele>1</ele>
        <time>2018-01-12T02:10:31Z</time>
      </trkpt>
      <trkpt lat="46.55991" lon="-1.78553">
        <ele>1</ele>
        <time>2018-01-12T02:11:31Z</time>
      </trkpt>
      <trkpt lat="46.56009" lon="-1.78512">
        <ele>1</ele>
        <time>2018-01-12T02:12:31Z</time>
      </trkpt>
      <trkpt lat="46.56024" lon="-1.7847">
        <ele>1</ele>
        <time>2018-01-12T02:13:31Z</time>
      </trkpt>
      <trkpt lat="46.56031" lon="-1.78449">
        <ele>1</ele>
        <time>2018-01-12T02:14:31Z</time>
      </trkpt>
      <trkpt lat="46.56034" lon="-1.78437">
        <ele>1</ele>
        <time>2018-01-12T02:15:31Z</time>
      </trkpt>
      <trkpt lat="46.56038" lon="-1.78429">
        <ele>1</ele>
        <time>2018-01-12T02:16:31Z</time>
      </trkpt>
      <trkpt lat="46.5604" lon="-1.78425">
        <ele>1</ele>
        <time>2018-01-12T02:17:31Z</time>
      </trkpt>
      <trkpt lat="46.56045" lon="-1.78419">
        <ele>2</ele>
        <time>2018-01-12T02:18:31Z</time>
      </trkpt>
      <trkpt lat="46.56047" lon="-1.78415">
        <ele>2</ele>
        <time>2018-01-12T02:19:31Z</time>
      </trkpt>
      <trkpt lat="46.56052" lon="-1.78412">
        <ele>2</ele>
        <time>2018-01-12T02:20:31Z</time>
      </trkpt>
      <trkpt lat="46.56052" lon="-1.78412">
        <ele>2</ele>
        <time>2018-01-12T02:21:31Z</time>
      </trkpt>
      <trkpt lat="46.5605" lon="-1.78407">
        <ele>2</ele>
        <time>2018-01-12T02:22:31Z</time>
      </trkpt>
      <trkpt lat="46.5605" lon="-1.78406">
        <ele>2</ele>
        <time>2018-01-12T02:23:31Z</time>
      </trkpt>
      <trkpt lat="46.5605" lon="-1.78404">
        <ele>2</ele>
        <time>2018-01-12T02:24:31Z</time>
      </trkpt>
      <trkpt lat="46.5605" lon="-1.78403">
        <ele>2</ele>
        <time>2018-01-12T02:25:31Z</time>
      </trkpt>
      <trkpt lat="46.5605" lon="-1.78401">
        <ele>2</ele>
        <time>2018-01-12T02:26:31Z</time>
      </trkpt>
      <trkpt lat="46.5605" lon="-1.78395">
        <ele>2</ele>
        <time>2018-01-12T02:27:31Z</time>
      </trkpt>
      <trkpt lat="46.56051" lon="-1.78386">
        <ele>2</ele>
        <time>2018-01-12T02:28:31Z</time>
      </trkpt>
      <trkpt lat="46.56053" lon="-1.78377">
        <ele>2</ele>
        <time>2018-01-12T02:29:31Z</time>
      </trkpt>
      <trkpt lat="46.56056" lon="-1.7836">
        <ele>3</ele>
        <time>2018-01-12T02:30:31Z</time>
      </trkpt>
      <trkpt lat="46.56059" lon="-1.7835">
        <ele>3</ele>
        <time>2018-01-12T02:31:31Z</time>
      </trkpt>
      <trkpt lat="46.56062" lon="-1.78343">
        <ele>3</ele>
        <time>2018-01-12T02:32:31Z</time>
      </trkpt>
      <trkpt lat="46.56066" lon="-1.78333">
        <ele>3</ele>
        <time>2018-01-12T02:33:31Z</time>
      </trkpt>
      <trkpt lat="46.56078" lon="-1.78309">
        <ele>4</ele>
        <time>2018-01-12T02:34:31Z</time>
      </trkpt>
      <trkpt lat="46.56078" lon="-1.78308">
        <ele>4</ele>
        <time>2018-01-12T02:35:31Z</time>
      </trkpt>
      <trkpt lat="46.56092" lon="-1.78283">
        <ele>4</ele>
        <time>2018-01-12T02:36:31Z</time>
      </trkpt>
      <trkpt lat="46.56108" lon="-1.78259">
        <ele>5</ele>
        <time>2018-01-12T02:37:31Z</time>
      </trkpt>
      <trkpt lat="46.56108" lon="-1.78258">
        <ele>5</ele>
        <time>2018-01-12T02:38:31Z</time>
      </trkpt>
      <trkpt lat="46.56116" lon="-1.78246">
        <ele>5</ele>
        <time>2018-01-12T02:39:31Z</time>
      </trkpt>
      <trkpt lat="46.5612" lon="-1.7824">
        <ele>5</ele>
        <time>2018-01-12T02:40:31Z</time>
      </trkpt>
      <trkpt lat="46.56123" lon="-1.78235">
        <ele>5</ele>
        <time>2018-01-12T02:41:31Z</time>
      </trkpt>
      <trkpt lat="46.56127" lon="-1.78226">
        <ele>5</ele>
        <time>2018-01-12T02:42:31Z</time>
      </trkpt>
      <trkpt lat="46.56128" lon="-1.78224">
        <ele>5</ele>
        <time>2018-01-12T02:43:31Z</time>
      </trkpt>
      <trkpt lat="46.56135" lon="-1.78212">
        <ele>5</ele>
        <time>2018-01-12T02:44:31Z</time>
      </trkpt>
      <trkpt lat="46.56139" lon="-1.78206">
        <ele>5</ele>
        <time>2018-01-12T02:45:31Z</time>
      </trkpt>
      <trkpt lat="46.56151" lon="-1.78184">
        <ele>5</ele>
        <time>2018-01-12T02:46:31Z</time>
      </trkpt>
      <trkpt lat="46.56157" lon="-1.78175">
        <ele>5</ele>
        <time>2018-01-12T02:47:31Z</time>
      </trkpt>
      <trkpt lat="46.56163" lon="-1.78167">
        <ele>5</ele>
        <time>2018-01-12T02:48:31Z</time>
      </trkpt>
      <trkpt lat="46.56167" lon="-1.78162">
        <ele>5</ele>
        <time>2018-01-12T02:49:31Z</time>
      </trkpt>
      <trkpt lat="46.56171" lon="-1.78158">
        <ele>5</ele>
        <time>2018-01-12T02:50:31Z</time>
      </trkpt>
      <trkpt lat="46.56171" lon="-1.78158">
        <ele>5</ele>
        <time>2018-01-12T02:51:31Z</time>
      </trkpt>
      <trkpt lat="46.5617" lon="-1.78154">
        <ele>5</ele>
        <time>2018-01-12T02:52:31Z</time>
      </trkpt>
      <trkpt lat="46.56169" lon="-1.78151">
        <ele>5</ele>
        <time>2018-01-12T02:53:31Z</time>
      </trkpt>
      <trkpt lat="46.56169" lon="-1.78149">
        <ele>5</ele>
        <time>2018-01-12T02:54:31Z</time>
      </trkpt>
      <trkpt lat="46.56168" lon="-1.78147">
        <ele>5</ele>
        <time>2018-01-12T02:55:31Z</time>
      </trkpt>
      <trkpt lat="46.56168" lon="-1.78145">
        <ele>5</ele>
        <time>2018-01-12T02:56:31Z</time>
      </trkpt>
      <trkpt lat="46.56167" lon="-1.78129">
        <ele>5</ele>
        <time>2018-01-12T02:57:31Z</time>
      </trkpt>
      <trkpt lat="46.56165" lon="-1.78113">
        <ele>4</ele>
        <time>2018-01-12T02:58:31Z</time>
      </trkpt>
      <trkpt lat="46.56165" lon="-1.78105">
        <ele>4</ele>
        <time>2018-01-12T02:59:31Z</time>
      </trkpt>
      <trkpt lat="46.56171" lon="-1.78093">
        <ele>4</ele>
        <time>2018-01-12T03:00:31Z</time>
      </trkpt>
      <trkpt lat="46.56177" lon="-1.78079">
        <ele>4</ele>
        <time>2018-01-12T03:01:31Z</time>
      </trkpt>
      <trkpt lat="46.56182" lon="-1.78065">
        <ele>4</ele>
        <time>2018-01-12T03:02:31Z</time>
      </trkpt>
      <trkpt lat="46.56189" lon="-1.78053">
        <ele>4</ele>
        <time>2018-01-12T03:03:31Z</time>
      </trkpt>
      <trkpt lat="46.56194" lon="-1.78045">
        <ele>4</ele>
        <time>2018-01-12T03:04:31Z</time>
      </trkpt>
      <trkpt lat="46.56197" lon="-1.78042">
        <ele>4</ele>
        <time>2018-01-12T03:05:31Z</time>
      </trkpt>
      <trkpt lat="46.56199" lon="-1.78039">
        <ele>3</ele>
        <time>2018-01-12T03:06:31Z</time>
      </trkpt>
      <trkpt lat="46.56202" lon="-1.78036">
        <ele>3</ele>
        <time>2018-01-12T03:07:31Z</time>
      </trkpt>
      <trkpt lat="46.56203" lon="-1.78034">
        <ele>3</ele>
        <time>2018-01-12T03:08:31Z</time>
      </trkpt>
      <trkpt lat="46.56205" lon="-1.78032">
        <ele>3</ele>
        <time>2018-01-12T03:09:31Z</time>
      </trkpt>
      <trkpt lat="46.56205" lon="-1.78032">
        <ele>3</ele>
        <time>2018-01-12T03:10:31Z</time>
      </trkpt>
      <trkpt lat="46.56203" lon="-1.78002">
        <ele>3</ele>
        <time>2018-01-12T03:11:31Z</time>
      </trkpt>
      <trkpt lat="46.56201" lon="-1.77985">
        <ele>4</ele>
        <time>2018-01-12T03:12:31Z</time>
      </trkpt>
      <trkpt lat="46.56205" lon="-1.7795">
        <ele>4</ele>
        <time>2018-01-12T03:13:31Z</time>
      </trkpt>
      <trkpt lat="46.56206" lon="-1.77931">
        <ele>4</ele>
        <time>2018-01-12T03:14:31Z</time>
      </trkpt>
      <trkpt lat="46.56206" lon="-1.77922">
        <ele>4</ele>
        <time>2018-01-12T03:15:31Z</time>
      </trkpt>
      <trkpt lat="46.56208" lon="-1.77914">
        <ele>4</ele>
        <time>2018-01-12T03:16:31Z</time>
      </trkpt>
      <trkpt lat="46.56208" lon="-1.77914">
        <ele>4</ele>
        <time>2018-01-12T03:17:31Z</time>
      </trkpt>
      <trkpt lat="46.56208" lon="-1.77913">
        <ele>4</ele>
        <time>2018-01-12T03:18:31Z</time>
      </trkpt>
      <trkpt lat="46.56208" lon="-1.77912">
        <ele>4</ele>
        <time>2018-01-12T03:19:31Z</time>
      </trkpt>
      <trkpt lat="46.56207" lon="-1.77911">
        <ele>4</ele>
        <time>2018-01-12T03:20:31Z</time>
      </trkpt>
      <trkpt lat="46.56207" lon="-1.7791">
        <ele>4</ele>
        <time>2018-01-12T03:21:31Z</time>
      </trkpt>
      <trkpt lat="46.56207" lon="-1.77909">
        <ele>4</ele>
        <time>2018-01-12T03:22:31Z</time>
      </trkpt>
      <trkpt lat="46.56207" lon="-1.77908">
        <ele>4</ele>
        <time>2018-01-12T03:23:31Z</time>
      </trkpt>
      <trkpt lat="46.56207" lon="-1.77907">
        <ele>4</ele>
        <time>2018-01-12T03:24:31Z</time>
      </trkpt>
      <trkpt lat="46.56206" lon="-1.77906">
        <ele>4</ele>
        <time>2018-01-12T03:25:31Z</time>
      </trkpt>
      <trkpt lat="46.56206" lon="-1.77905">
        <ele>4</ele>
        <time>2018-01-12T03:26:31Z</time>
      </trkpt>
      <trkpt lat="46.56206" lon="-1.77904">
        <ele>4</ele>
        <time>2018-01-12T03:27:31Z</time>
      </trkpt>
      <trkpt lat="46.56206" lon="-1.77903">
        <ele>4</ele>
        <time>2018-01-12T03:28:31Z</time>
      </trkpt>
      <trkpt lat="46.56207" lon="-1.77902">
        <ele>4</ele>
        <time>2018-01-12T03:29:31Z</time>
      </trkpt>
      <trkpt lat="46.56207" lon="-1.77901">
        <ele>4</ele>
        <time>2018-01-12T03:30:31Z</time>
      </trkpt>
      <trkpt lat="46.56207" lon="-1.779">
        <ele>4</ele>
        <time>2018-01-12T03:31:31Z</time>
      </trkpt>
      <trkpt lat="46.56207" lon="-1.77899">
        <ele>4</ele>
        <time>2018-01-12T03:32:31Z</time>
      </trkpt>
      <trkpt lat="46.56207" lon="-1.77898">
        <ele>4</ele>
        <time>2018-01-12T03:33:31Z</time>
      </trkpt>
      <trkpt lat="46.56208" lon="-1.77897">
        <ele>4</ele>
        <time>2018-01-12T03:34:31Z</time>
      </trkpt>
      <trkpt lat="46.56208" lon="-1.77896">
        <ele>4</ele>
        <time>2018-01-12T03:35:31Z</time>
      </trkpt>
      <trkpt lat="46.56209" lon="-1.77895">
        <ele>4</ele>
        <time>2018-01-12T03:36:31Z</time>
      </trkpt>
      <trkpt lat="46.56209" lon="-1.77894">
        <ele>4</ele>
        <time>2018-01-12T03:37:31Z</time>
      </trkpt>
      <trkpt lat="46.5621" lon="-1.77893">
        <ele>4</ele>
        <time>2018-01-12T03:38:31Z</time>
      </trkpt>
      <trkpt lat="46.5621" lon="-1.77892">
        <ele>4</ele>
        <time>2018-01-12T03:39:31Z</time>
      </trkpt>
      <trkpt lat="46.56211" lon="-1.77892">
        <ele>4</ele>
        <time>2018-01-12T03:40:31Z</time>
      </trkpt>
      <trkpt lat="46.56211" lon="-1.77891">
        <ele>4</ele>
        <time>2018-01-12T03:41:31Z</time>
      </trkpt>
      <trkpt lat="46.56212" lon="-1.77891">
        <ele>4</ele>
        <time>2018-01-12T03:42:31Z</time>
      </trkpt>
      <trkpt lat="46.56213" lon="-1.7789">
        <ele>4</ele>
        <time>2018-01-12T03:43:31Z</time>
      </trkpt>
      <trkpt lat="46.56212" lon="-1.77876">
        <ele>4</ele>
        <time>2018-01-12T03:44:31Z</time>
      </trkpt>
      <trkpt lat="46.56212" lon="-1.77874">
        <ele>4</ele>
        <time>2018-01-12T03:45:31Z</time>
      </trkpt>
      <trkpt lat="46.56213" lon="-1.77861">
        <ele>4</ele>
        <time>2018-01-12T03:46:31Z</time>
      </trkpt>
      <trkpt lat="46.56214" lon="-1.7785">
        <ele>4</ele>
        <time>2018-01-12T03:47:31Z</time>
      </trkpt>
      <trkpt lat="46.56214" lon="-1.77843">
        <ele>3</ele>
        <time>2018-01-12T03:48:31Z</time>
      </trkpt>
      <trkpt lat="46.56215" lon="-1.77839">
        <ele>3</ele>
        <time>2018-01-12T03:49:31Z</time>
      </trkpt>
      <trkpt lat="46.56216" lon="-1.77836">
        <ele>3</ele>
        <time>2018-01-12T03:50:31Z</time>
      </trkpt>
      <trkpt lat="46.56217" lon="-1.77832">
        <ele>3</ele>
        <time>2018-01-12T03:51:31Z</time>
      </trkpt>
      <trkpt lat="46.56219" lon="-1.77815">
        <ele>4</ele>
        <time>2018-01-12T03:52:31Z</time>
      </trkpt>
      <trkpt lat="46.56223" lon="-1.77793">
        <ele>4</ele>
        <time>2018-01-12T03:53:31Z</time>
      </trkpt>
      <trkpt lat="46.5623" lon="-1.77748">
        <ele>5</ele>
        <time>2018-01-12T03:54:31Z</time>
      </trkpt>
      <trkpt lat="46.5623" lon="-1.77747">
        <ele>5</ele>
        <time>2018-01-12T03:55:31Z</time>
      </trkpt>
      <trkpt lat="46.56234" lon="-1.77721">
        <ele>5</ele>
        <time>2018-01-12T03:56:31Z</time>
      </trkpt>
      <trkpt lat="46.56236" lon="-1.77703">
        <ele>5</ele>
        <time>2018-01-12T03:57:31Z</time>
      </trkpt>
      <trkpt lat="46.56238" lon="-1.77688">
        <ele>6</ele>
        <time>2018-01-12T03:58:31Z</time>
      </trkpt>
      <trkpt lat="46.56241" lon="-1.77678">
        <ele>6</ele>
        <time>2018-01-12T03:59:31Z</time>
      </trkpt>
      <trkpt lat="46.56244" lon="-1.77667">
        <ele>6</ele>
        <time>2018-01-12T04:00:31Z</time>
      </trkpt>
      <trkpt lat="46.56247" lon="-1.77658">
        <ele>6</ele>
        <time>2018-01-12T04:01:31Z</time>
      </trkpt>
      <trkpt lat="46.56251" lon="-1.7765">
        <ele>6</ele>
        <time>2018-01-12T04:02:31Z</time>
      </trkpt>
      <trkpt lat="46.56257" lon="-1.77637">
        <ele>6</ele>
        <time>2018-01-12T04:03:31Z</time>
      </trkpt>
      <trkpt lat="46.56261" lon="-1.77629">
        <ele>6</ele>
        <time>2018-01-12T04:04:31Z</time>
      </trkpt>
      <trkpt lat="46.56283" lon="-1.7759">
        <ele>6</ele>
        <time>2018-01-12T04:05:31Z</time>
      </trkpt>
      <trkpt lat="46.56298" lon="-1.77564">
        <ele>6</ele>
        <time>2018-01-12T04:06:31Z</time>
      </trkpt>
      <trkpt lat="46.56303" lon="-1.77554">
        <ele>6</ele>
        <time>2018-01-12T04:07:31Z</time>
      </trkpt>
      <trkpt lat="46.56313" lon="-1.7754">
        <ele>6</ele>
        <time>2018-01-12T04:08:31Z</time>
      </trkpt>
      <trkpt lat="46.56318" lon="-1.77533">
        <ele>6</ele>
        <time>2018-01-12T04:09:31Z</time>
      </trkpt>
      <trkpt lat="46.56325" lon="-1.77524">
        <ele>6</ele>
        <time>2018-01-12T04:10:31Z</time>
      </trkpt>
      <trkpt lat="46.56332" lon="-1.77515">
        <ele>6</ele>
        <time>2018-01-12T04:11:31Z</time>
      </trkpt>
      <trkpt lat="46.56354" lon="-1.77492">
        <ele>7</ele>
        <time>2018-01-12T04:12:31Z</time>
      </trkpt>
      <trkpt lat="46.56375" lon="-1.77469">
        <ele>7</ele>
        <time>2018-01-12T04:13:31Z</time>
      </trkpt>
      <trkpt lat="46.56386" lon="-1.77455">
        <ele>7</ele>
        <time>2018-01-12T04:14:31Z</time>
      </trkpt>
      <trkpt lat="46.56392" lon="-1.77446">
        <ele>8</ele>
        <time>2018-01-12T04:15:31Z</time>
      </trkpt>
      <trkpt lat="46.56398" lon="-1.77434">
        <ele>8</ele>
        <time>2018-01-12T04:16:31Z</time>
      </trkpt>
      <trkpt lat="46.56403" lon="-1.77424">
        <ele>8</ele>
        <time>2018-01-12T04:17:31Z</time>
      </trkpt>
      <trkpt lat="46.56409" lon="-1.7741">
        <ele>8</ele>
        <time>2018-01-12T04:18:31Z</time>
      </trkpt>
      <trkpt lat="46.56415" lon="-1.77397">
        <ele>8</ele>
        <time>2018-01-12T04:19:31Z</time>
      </trkpt>
      <trkpt lat="46.56425" lon="-1.77371">
        <ele>9</ele>
        <time>2018-01-12T04:20:31Z</time>
      </trkpt>
      <trkpt lat="46.56432" lon="-1.77345">
        <ele>10</ele>
        <time>2018-01-12T04:21:31Z</time>
      </trkpt>
      <trkpt lat="46.56436" lon="-1.77327">
        <ele>10</ele>
        <time>2018-01-12T04:22:31Z</time>
      </trkpt>
      <trkpt lat="46.56441" lon="-1.77309">
        <ele>11</ele>
        <time>2018-01-12T04:23:31Z</time>
      </trkpt>
      <trkpt lat="46.56451" lon="-1.77259">
        <ele>12</ele>
        <time>2018-01-12T04:24:31Z</time>
      </trkpt>
      <trkpt lat="46.56457" lon="-1.77235">
        <ele>12</ele>
        <time>2018-01-12T04:25:31Z</time>
      </trkpt>
      <trkpt lat="46.56461" lon="-1.77216">
        <ele>12</ele>
        <time>2018-01-12T04:26:31Z</time>
      </trkpt>
      <trkpt lat="46.56467" lon="-1.772">
        <ele>13</ele>
        <time>2018-01-12T04:27:31Z</time>
      </trkpt>
      <trkpt lat="46.56472" lon="-1.7719">
        <ele>13</ele>
        <time>2018-01-12T04:28:31Z</time>
      </trkpt>
      <trkpt lat="46.56479" lon="-1.77174">
        <ele>13</ele>
        <time>2018-01-12T04:29:31Z</time>
      </trkpt>
      <trkpt lat="46.56501" lon="-1.77129">
        <ele>13</ele>
        <time>2018-01-12T04:30:31Z</time>
      </trkpt>
      <trkpt lat="46.56526" lon="-1.77086">
        <ele>14</ele>
        <time>2018-01-12T04:31:31Z</time>
      </trkpt>
      <trkpt lat="46.56559" lon="-1.7704">
        <ele>15</ele>
        <time>2018-01-12T04:32:31Z</time>
      </trkpt>
      <trkpt lat="46.56581" lon="-1.77008">
        <ele>16</ele>
        <time>2018-01-12T04:33:31Z</time>
      </trkpt>
      <trkpt lat="46.56618" lon="-1.7696">
        <ele>17</ele>
        <time>2018-01-12T04:34:31Z</time>
      </trkpt>
      <trkpt lat="46.56646" lon="-1.76924">
        <ele>18</ele>
        <time>2018-01-12T04:35:31Z</time>
      </trkpt>
      <trkpt lat="46.56661" lon="-1.76904">
        <ele>18</ele>
        <time>2018-01-12T04:36:31Z</time>
      </trkpt>
      <trkpt lat="46.56681" lon="-1.76872">
        <ele>19</ele>
        <time>2018-01-12T04:37:31Z</time>
      </trkpt>
      <trkpt lat="46.56699" lon="-1.76841">
        <ele>19</ele>
        <time>2018-01-12T04:38:31Z</time>
      </trkpt>
      <trkpt lat="46.56705" lon="-1.7683">
        <ele>20</ele>
        <time>2018-01-12T04:39:31Z</time>
      </trkpt>
      <trkpt lat="46.5672" lon="-1.76802">
        <ele>20</ele>
        <time>2018-01-12T04:40:31Z</time>
      </trkpt>
      <trkpt lat="46.56745" lon="-1.76756">
        <ele>22</ele>
        <time>2018-01-12T04:41:31Z</time>
      </trkpt>
      <trkpt lat="46.56765" lon="-1.76722">
        <ele>22</ele>
        <time>2018-01-12T04:42:31Z</time>
      </trkpt>
      <trkpt lat="46.56788" lon="-1.76677">
        <ele>22</ele>
        <time>2018-01-12T04:43:31Z</time>
      </trkpt>
      <trkpt lat="46.56797" lon="-1.76662">
        <ele>22</ele>
        <time>2018-01-12T04:44:31Z</time>
      </trkpt>
      <trkpt lat="46.56811" lon="-1.76639">
        <ele>22</ele>
        <time>2018-01-12T04:45:31Z</time>
      </trkpt>
      <trkpt lat="46.56829" lon="-1.76614">
        <ele>21</ele>
        <time>2018-01-12T04:46:31Z</time>
      </trkpt>
      <trkpt lat="46.56836" lon="-1.76605">
        <ele>21</ele>
        <time>2018-01-12T04:47:31Z</time>
      </trkpt>
      <trkpt lat="46.56838" lon="-1.76596">
        <ele>21</ele>
        <time>2018-01-12T04:48:31Z</time>
      </trkpt>
      <trkpt lat="46.56838" lon="-1.76589">
        <ele>21</ele>
        <time>2018-01-12T04:49:31Z</time>
      </trkpt>
      <trkpt lat="46.56837" lon="-1.76581">
        <ele>21</ele>
        <time>2018-01-12T04:50:31Z</time>
      </trkpt>
      <trkpt lat="46.56836" lon="-1.76573">
        <ele>21</ele>
        <time>2018-01-12T04:51:31Z</time>
      </trkpt>
      <trkpt lat="46.56836" lon="-1.76569">
        <ele>21</ele>
        <time>2018-01-12T04:52:31Z</time>
      </trkpt>
      <trkpt lat="46.56836" lon="-1.76569">
        <ele>21</ele>
        <time>2018-01-12T04:53:31Z</time>
      </trkpt>
      <trkpt lat="46.56839" lon="-1.76564">
        <ele>21</ele>
        <time>2018-01-12T04:54:31Z</time>
      </trkpt>
      <trkpt lat="46.56842" lon="-1.76559">
        <ele>21</ele>
        <time>2018-01-12T04:55:31Z</time>
      </trkpt>
      <trkpt lat="46.56855" lon="-1.76539">
        <ele>21</ele>
        <time>2018-01-12T04:56:31Z</time>
      </trkpt>
      <trkpt lat="46.56857" lon="-1.76536">
        <ele>21</ele>
        <time>2018-01-12T04:57:31Z</time>
      </trkpt>
      <trkpt lat="46.56875" lon="-1.76522">
        <ele>21</ele>
        <time>2018-01-12T04:58:31Z</time>
      </trkpt>
      <trkpt lat="46.56899" lon="-1.76491">
        <ele>20</ele>
        <time>2018-01-12T04:59:31Z</time>
      </trkpt>
      <trkpt lat="46.5692" lon="-1.76457">
        <ele>20</ele>
        <time>2018-01-12T05:00:31Z</time>
      </trkpt>
      <trkpt lat="46.56937" lon="-1.76424">
        <ele>19</ele>
        <time>2018-01-12T05:01:31Z</time>
      </trkpt>
      <trkpt lat="46.56957" lon="-1.76379">
        <ele>16</ele>
        <time>2018-01-12T05:02:31Z</time>
      </trkpt>
      <trkpt lat="46.56976" lon="-1.76329">
        <ele>14</ele>
        <time>2018-01-12T05:03:31Z</time>
      </trkpt>
      <trkpt lat="46.56991" lon="-1.76272">
        <ele>13</ele>
        <time>2018-01-12T05:04:31Z</time>
      </trkpt>
      <trkpt lat="46.56999" lon="-1.76227">
        <ele>13</ele>
        <time>2018-01-12T05:05:31Z</time>
      </trkpt>
      <trkpt lat="46.57008" lon="-1.76162">
        <ele>12</ele>
        <time>2018-01-12T05:06:31Z</time>
      </trkpt>
      <trkpt lat="46.57014" lon="-1.76104">
        <ele>11</ele>
        <time>2018-01-12T05:07:31Z</time>
      </trkpt>
      <trkpt lat="46.57017" lon="-1.76054">
        <ele>10</ele>
        <time>2018-01-12T05:08:31Z</time>
      </trkpt>
      <trkpt lat="46.5702" lon="-1.76011">
        <ele>10</ele>
        <time>2018-01-12T05:09:31Z</time>
      </trkpt>
      <trkpt lat="46.57024" lon="-1.75964">
        <ele>10</ele>
        <time>2018-01-12T05:10:31Z</time>
      </trkpt>
      <trkpt lat="46.57029" lon="-1.75931">
        <ele>10</ele>
        <time>2018-01-12T05:11:31Z</time>
      </trkpt>
      <trkpt lat="46.57031" lon="-1.7591">
        <ele>10</ele>
        <time>2018-01-12T05:12:31Z</time>
      </trkpt>
      <trkpt lat="46.57033" lon="-1.75894">
        <ele>11</ele>
        <time>2018-01-12T05:13:31Z</time>
      </trkpt>
      <trkpt lat="46.57035" lon="-1.75847">
        <ele>12</ele>
        <time>2018-01-12T05:14:31Z</time>
      </trkpt>
      <trkpt lat="46.57035" lon="-1.75782">
        <ele>12</ele>
        <time>2018-01-12T05:15:31Z</time>
      </trkpt>
      <trkpt lat="46.57033" lon="-1.7573">
        <ele>12</ele>
        <time>2018-01-12T05:16:31Z</time>
      </trkpt>
      <trkpt lat="46.57027" lon="-1.75674">
        <ele>12</ele>
        <time>2018-01-12T05:17:31Z</time>
      </trkpt>
      <trkpt lat="46.57019" lon="-1.75631">
        <ele>12</ele>
        <time>2018-01-12T05:18:31Z</time>
      </trkpt>
      <trkpt lat="46.57009" lon="-1.75581">
        <ele>13</ele>
        <time>2018-01-12T05:19:31Z</time>
      </trkpt>
      <trkpt lat="46.57005" lon="-1.75561">
        <ele>13</ele>
        <time>2018-01-12T05:20:31Z</time>
      </trkpt>
      <trkpt lat="46.56997" lon="-1.7553">
        <ele>13</ele>
        <time>2018-01-12T05:21:31Z</time>
      </trkpt>
      <trkpt lat="46.56987" lon="-1.75498">
        <ele>13</ele>
        <time>2018-01-12T05:22:31Z</time>
      </trkpt>
      <trkpt lat="46.56977" lon="-1.75466">
        <ele>14</ele>
        <time>2018-01-12T05:23:31Z</time>
      </trkpt>
      <trkpt lat="46.56956" lon="-1.754">
        <ele>14</ele>
        <time>2018-01-12T05:24:31Z</time>
      </trkpt>
      <trkpt lat="46.56938" lon="-1.75334">
        <ele>15</ele>
        <time>2018-01-12T05:25:31Z</time>
      </trkpt>
      <trkpt lat="46.56923" lon="-1.7527">
        <ele>17</ele>
        <time>2018-01-12T05:26:31Z</time>
      </trkpt>
      <trkpt lat="46.56916" lon="-1.75231">
        <ele>17</ele>
        <time>2018-01-12T05:27:31Z</time>
      </trkpt>
      <trkpt lat="46.56911" lon="-1.75198">
        <ele>18</ele>
        <time>2018-01-12T05:28:31Z</time>
      </trkpt>
      <trkpt lat="46.56909" lon="-1.75176">
        <ele>19</ele>
        <time>2018-01-12T05:29:31Z</time>
      </trkpt>
      <trkpt lat="46.56908" lon="-1.75156">
        <ele>19</ele>
        <time>2018-01-12T05:30:31Z</time>
      </trkpt>
      <trkpt lat="46.56909" lon="-1.75111">
        <ele>19</ele>
        <time>2018-01-12T05:31:31Z</time>
      </trkpt>
      <trkpt lat="46.5691" lon="-1.75062">
        <ele>18</ele>
        <time>2018-01-12T05:32:31Z</time>
      </trkpt>
      <trkpt lat="46.56914" lon="-1.75011">
        <ele>16</ele>
        <time>2018-01-12T05:33:31Z</time>
      </trkpt>
      <trkpt lat="46.56918" lon="-1.7497">
        <ele>16</ele>
        <time>2018-01-12T05:34:31Z</time>
      </trkpt>
      <trkpt lat="46.56925" lon="-1.74933">
        <ele>17</ele>
        <time>2018-01-12T05:35:31Z</time>
      </trkpt>
      <trkpt lat="46.56936" lon="-1.74886">
        <ele>16</ele>
        <time>2018-01-12T05:36:31Z</time>
      </trkpt>
      <trkpt lat="46.56949" lon="-1.74832">
        <ele>16</ele>
        <time>2018-01-12T05:37:31Z</time>
      </trkpt>
      <trkpt lat="46.56954" lon="-1.74803">
        <ele>17</ele>
        <time>2018-01-12T05:38:31Z</time>
      </trkpt>
      <trkpt lat="46.56957" lon="-1.7477">
        <ele>17</ele>
        <time>2018-01-12T05:39:31Z</time>
      </trkpt>
      <trkpt lat="46.56956" lon="-1.74736">
        <ele>18</ele>
        <time>2018-01-12T05:40:31Z</time>
      </trkpt>
      <trkpt lat="46.56956" lon="-1.74709">
        <ele>18</ele>
        <time>2018-01-12T05:41:31Z</time>
      </trkpt>
      <trkpt lat="46.56954" lon="-1.74677">
        <ele>18</ele>
        <time>2018-01-12T05:42:31Z</time>
      </trkpt>
      <trkpt lat="46.56953" lon="-1.74653">
        <ele>18</ele>
        <time>2018-01-12T05:43:31Z</time>
      </trkpt>
      <trkpt lat="46.56952" lon="-1.74645">
        <ele>18</ele>
        <time>2018-01-12T05:44:31Z</time>
      </trkpt>
      <trkpt lat="46.56951" lon="-1.74634">
        <ele>18</ele>
        <time>2018-01-12T05:45:31Z</time>
      </trkpt>
      <trkpt lat="46.56948" lon="-1.74563">
        <ele>19</ele>
        <time>2018-01-12T05:46:31Z</time>
      </trkpt>
      <trkpt lat="46.56943" lon="-1.74453">
        <ele>20</ele>
        <time>2018-01-12T05:47:31Z</time>
      </trkpt>
      <trkpt lat="46.56939" lon="-1.74368">
        <ele>21</ele>
        <time>2018-01-12T05:48:31Z</time>
      </trkpt>
      <trkpt lat="46.56936" lon="-1.74298">
        <ele>23</ele>
        <time>2018-01-12T05:49:31Z</time>
      </trkpt>
      <trkpt lat="46.56934" lon="-1.7424">
        <ele>24</ele>
        <time>2018-01-12T05:50:31Z</time>
      </trkpt>
      <trkpt lat="46.5693" lon="-1.74223">
        <ele>24</ele>
        <time>2018-01-12T05:51:31Z</time>
      </trkpt>
      <trkpt lat="46.56927" lon="-1.74215">
        <ele>24</ele>
        <time>2018-01-12T05:52:31Z</time>
      </trkpt>
      <trkpt lat="46.56919" lon="-1.74194">
        <ele>24</ele>
        <time>2018-01-12T05:53:31Z</time>
      </trkpt>
      <trkpt lat="46.56905" lon="-1.74162">
        <ele>24</ele>
        <time>2018-01-12T05:54:31Z</time>
      </trkpt>
      <trkpt lat="46.56887" lon="-1.74122">
        <ele>24</ele>
        <time>2018-01-12T05:55:31Z</time>
      </trkpt>
      <trkpt lat="46.56879" lon="-1.74099">
        <ele>24</ele>
        <time>2018-01-12T05:56:31Z</time>
      </trkpt>
      <trkpt lat="46.56876" lon="-1.74086">
        <ele>24</ele>
        <time>2018-01-12T05:57:31Z</time>
      </trkpt>
      <trkpt lat="46.56872" lon="-1.7406">
        <ele>24</ele>
        <time>2018-01-12T05:58:31Z</time>
      </trkpt>
      <trkpt lat="46.56864" lon="-1.73985">
        <ele>25</ele>
        <time>2018-01-12T05:59:31Z</time>
      </trkpt>
      <trkpt lat="46.56859" lon="-1.73929">
        <ele>27</ele>
        <time>2018-01-12T06:00:31Z</time>
      </trkpt>
      <trkpt lat="46.56851" lon="-1.73863">
        <ele>28</ele>
        <time>2018-01-12T06:01:31Z</time>
      </trkpt>
      <trkpt lat="46.56843" lon="-1.73788">
        <ele>28</ele>
        <time>2018-01-12T06:02:31Z</time>
      </trkpt>
      <trkpt lat="46.56837" lon="-1.73724">
        <ele>28</ele>
        <time>2018-01-12T06:03:31Z</time>
      </trkpt>
      <trkpt lat="46.56832" lon="-1.73671">
        <ele>28</ele>
        <time>2018-01-12T06:04:31Z</time>
      </trkpt>
      <trkpt lat="46.56826" lon="-1.7362">
        <ele>27</ele>
        <time>2018-01-12T06:05:31Z</time>
      </trkpt>
      <trkpt lat="46.56823" lon="-1.73581">
        <ele>27</ele>
        <time>2018-01-12T06:06:31Z</time>
      </trkpt>
      <trkpt lat="46.56815" lon="-1.73532">
        <ele>27</ele>
        <time>2018-01-12T06:07:31Z</time>
      </trkpt>
      <trkpt lat="46.56808" lon="-1.73502">
        <ele>27</ele>
        <time>2018-01-12T06:08:31Z</time>
      </trkpt>
      <trkpt lat="46.56797" lon="-1.73472">
        <ele>27</ele>
        <time>2018-01-12T06:09:31Z</time>
      </trkpt>
      <trkpt lat="46.56785" lon="-1.73441">
        <ele>27</ele>
        <time>2018-01-12T06:10:31Z</time>
      </trkpt>
      <trkpt lat="46.56766" lon="-1.73397">
        <ele>27</ele>
        <time>2018-01-12T06:11:31Z</time>
      </trkpt>
      <trkpt lat="46.56751" lon="-1.73369">
        <ele>28</ele>
        <time>2018-01-12T06:12:31Z</time>
      </trkpt>
      <trkpt lat="46.56736" lon="-1.7335">
        <ele>28</ele>
        <time>2018-01-12T06:13:31Z</time>
      </trkpt>
      <trkpt lat="46.56722" lon="-1.73333">
        <ele>28</ele>
        <time>2018-01-12T06:14:31Z</time>
      </trkpt>
      <trkpt lat="46.56705" lon="-1.73305">
        <ele>28</ele>
        <time>2018-01-12T06:15:31Z</time>
      </trkpt>
      <trkpt lat="46.56696" lon="-1.73288">
        <ele>28</ele>
        <time>2018-01-12T06:16:31Z</time>
      </trkpt>
      <trkpt lat="46.56681" lon="-1.73254">
        <ele>28</ele>
        <time>2018-01-12T06:17:31Z</time>
      </trkpt>
      <trkpt lat="46.56661" lon="-1.7321">
        <ele>29</ele>
        <time>2018-01-12T06:18:31Z</time>
      </trkpt>
      <trkpt lat="46.5664" lon="-1.73165">
        <ele>29</ele>
        <time>2018-01-12T06:19:31Z</time>
      </trkpt>
      <trkpt lat="46.56626" lon="-1.73135">
        <ele>29</ele>
        <time>2018-01-12T06:20:31Z</time>
      </trkpt>
      <trkpt lat="46.56614" lon="-1.73105">
        <ele>29</ele>
        <time>2018-01-12T06:21:31Z</time>
      </trkpt>
      <trkpt lat="46.56602" lon="-1.7307">
        <ele>29</ele>
        <time>2018-01-12T06:22:31Z</time>
      </trkpt>
      <trkpt lat="46.56589" lon="-1.73028">
        <ele>28</ele>
        <time>2018-01-12T06:23:31Z</time>
      </trkpt>
      <trkpt lat="46.56582" lon="-1.72993">
        <ele>28</ele>
        <time>2018-01-12T06:24:31Z</time>
      </trkpt>
      <trkpt lat="46.56578" lon="-1.72961">
        <ele>27</ele>
        <time>2018-01-12T06:25:31Z</time>
      </trkpt>
      <trkpt lat="46.56574" lon="-1.72934">
        <ele>27</ele>
        <time>2018-01-12T06:26:31Z</time>
      </trkpt>
      <trkpt lat="46.56571" lon="-1.72913">
        <ele>26</ele>
        <time>2018-01-12T06:27:31Z</time>
      </trkpt>
      <trkpt lat="46.56561" lon="-1.7285">
        <ele>27</ele>
        <time>2018-01-12T06:28:31Z</time>
      </trkpt>
      <trkpt lat="46.56554" lon="-1.72814">
        <ele>26</ele>
        <time>2018-01-12T06:29:31Z</time>
      </trkpt>
      <trkpt lat="46.56544" lon="-1.72771">
        <ele>25</ele>
        <time>2018-01-12T06:30:31Z</time>
      </trkpt>
      <trkpt lat="46.56491" lon="-1.72562">
        <ele>26</ele>
        <time>2018-01-12T06:31:31Z</time>
      </trkpt>
      <trkpt lat="46.56486" lon="-1.72535">
        <ele>26</ele>
        <time>2018-01-12T06:32:31Z</time>
      </trkpt>
      <trkpt lat="46.56484" lon="-1.72516">
        <ele>26</ele>
        <time>2018-01-12T06:33:31Z</time>
      </trkpt>
      <trkpt lat="46.56483" lon="-1.72502">
        <ele>26</ele>
        <time>2018-01-12T06:34:31Z</time>
      </trkpt>
      <trkpt lat="46.56483" lon="-1.72497">
        <ele>26</ele>
        <time>2018-01-12T06:35:31Z</time>
      </trkpt>
      <trkpt lat="46.56483" lon="-1.72465">
        <ele>26</ele>
        <time>2018-01-12T06:36:31Z</time>
      </trkpt>
      <trkpt lat="46.56486" lon="-1.72426">
        <ele>26</ele>
        <time>2018-01-12T06:37:31Z</time>
      </trkpt>
      <trkpt lat="46.5649" lon="-1.72386">
        <ele>26</ele>
        <time>2018-01-12T06:38:31Z</time>
      </trkpt>
      <trkpt lat="46.56493" lon="-1.72355">
        <ele>26</ele>
        <time>2018-01-12T06:39:31Z</time>
      </trkpt>
      <trkpt lat="46.56497" lon="-1.72322">
        <ele>26</ele>
        <time>2018-01-12T06:40:31Z</time>
      </trkpt>
      <trkpt lat="46.565" lon="-1.72299">
        <ele>27</ele>
        <time>2018-01-12T06:41:31Z</time>
      </trkpt>
      <trkpt lat="46.56501" lon="-1.72278">
        <ele>27</ele>
        <time>2018-01-12T06:42:31Z</time>
      </trkpt>
      <trkpt lat="46.56501" lon="-1.72245">
        <ele>28</ele>
        <time>2018-01-12T06:43:31Z</time>
      </trkpt>
      <trkpt lat="46.565" lon="-1.7222">
        <ele>28</ele>
        <time>2018-01-12T06:44:31Z</time>
      </trkpt>
      <trkpt lat="46.56496" lon="-1.72192">
        <ele>29</ele>
        <time>2018-01-12T06:45:31Z</time>
      </trkpt>
      <trkpt lat="46.5647" lon="-1.72028">
        <ele>32</ele>
        <time>2018-01-12T06:46:31Z</time>
      </trkpt>
      <trkpt lat="46.56461" lon="-1.71964">
        <ele>33</ele>
        <time>2018-01-12T06:47:31Z</time>
      </trkpt>
      <trkpt lat="46.56446" lon="-1.71847">
        <ele>33</ele>
        <time>2018-01-12T06:48:31Z</time>
      </trkpt>
      <trkpt lat="46.56443" lon="-1.71833">
        <ele>33</ele>
        <time>2018-01-12T06:49:31Z</time>
      </trkpt>
      <trkpt lat="46.56435" lon="-1.71786">
        <ele>33</ele>
        <time>2018-01-12T06:50:31Z</time>
      </trkpt>
      <trkpt lat="46.56426" lon="-1.71729">
        <ele>33</ele>
        <time>2018-01-12T06:51:31Z</time>
      </trkpt>
      <trkpt lat="46.56422" lon="-1.71695">
        <ele>34</ele>
        <time>2018-01-12T06:52:31Z</time>
      </trkpt>
      <trkpt lat="46.5642" lon="-1.71672">
        <ele>35</ele>
        <time>2018-01-12T06:53:31Z</time>
      </trkpt>
      <trkpt lat="46.56419" lon="-1.71667">
        <ele>35</ele>
        <time>2018-01-12T06:54:31Z</time>
      </trkpt>
      <trkpt lat="46.56418" lon="-1.71653">
        <ele>35</ele>
        <time>2018-01-12T06:55:31Z</time>
      </trkpt>
      <trkpt lat="46.56417" lon="-1.71633">
        <ele>35</ele>
        <time>2018-01-12T06:56:31Z</time>
      </trkpt>
      <trkpt lat="46.56417" lon="-1.7156">
        <ele>34</ele>
        <time>2018-01-12T06:57:31Z</time>
      </trkpt>
      <trkpt lat="46.56418" lon="-1.71521">
        <ele>33</ele>
        <time>2018-01-12T06:58:31Z</time>
      </trkpt>
      <trkpt lat="46.56417" lon="-1.71513">
        <ele>33</ele>
        <time>2018-01-12T06:59:31Z</time>
      </trkpt>
      <trkpt lat="46.56414" lon="-1.71501">
        <ele>33</ele>
        <time>2018-01-12T07:00:31Z</time>
      </trkpt>
      <trkpt lat="46.56414" lon="-1.71501">
        <ele>33</ele>
        <time>2018-01-12T07:01:31Z</time>
      </trkpt>
      <trkpt lat="46.56425" lon="-1.71492">
        <ele>33</ele>
        <time>2018-01-12T07:02:31Z</time>
      </trkpt>
      <trkpt lat="46.56425" lon="-1.71492">
        <ele>33</ele>
        <time>2018-01-12T07:03:31Z</time>
      </trkpt>
      <trkpt lat="46.56421" lon="-1.71484">
        <ele>33</ele>
        <time>2018-01-12T07:04:31Z</time>
      </trkpt>
      <trkpt lat="46.56421" lon="-1.7148">
        <ele>33</ele>
        <time>2018-01-12T07:05:31Z</time>
      </trkpt>
      <trkpt lat="46.5642" lon="-1.71466">
        <ele>33</ele>
        <time>2018-01-12T07:06:31Z</time>
      </trkpt>
      <trkpt lat="46.56422" lon="-1.71419">
        <ele>33</ele>
        <time>2018-01-12T07:07:31Z</time>
      </trkpt>
      <trkpt lat="46.56431" lon="-1.71338">
        <ele>33</ele>
        <time>2018-01-12T07:08:31Z</time>
      </trkpt>
      <trkpt lat="46.56431" lon="-1.71336">
        <ele>33</ele>
        <time>2018-01-12T07:09:31Z</time>
      </trkpt>
      <trkpt lat="46.56432" lon="-1.71321">
        <ele>33</ele>
        <time>2018-01-12T07:10:31Z</time>
      </trkpt>
      <trkpt lat="46.56434" lon="-1.71308">
        <ele>33</ele>
        <time>2018-01-12T07:11:31Z</time>
      </trkpt>
      <trkpt lat="46.56435" lon="-1.71284">
        <ele>33</ele>
        <time>2018-01-12T07:12:31Z</time>
      </trkpt>
      <trkpt lat="46.56435" lon="-1.7126">
        <ele>33</ele>
        <time>2018-01-12T07:13:31Z</time>
      </trkpt>
      <trkpt lat="46.56434" lon="-1.71244">
        <ele>33</ele>
        <time>2018-01-12T07:14:31Z</time>
      </trkpt>
      <trkpt lat="46.56433" lon="-1.712">
        <ele>33</ele>
        <time>2018-01-12T07:15:31Z</time>
      </trkpt>
      <trkpt lat="46.56432" lon="-1.71197">
        <ele>34</ele>
        <time>2018-01-12T07:16:31Z</time>
      </trkpt>
      <trkpt lat="46.56429" lon="-1.71119">
        <ele>33</ele>
        <time>2018-01-12T07:17:31Z</time>
      </trkpt>
      <trkpt lat="46.56426" lon="-1.71059">
        <ele>33</ele>
        <time>2018-01-12T07:18:31Z</time>
      </trkpt>
      <trkpt lat="46.56423" lon="-1.70984">
        <ele>33</ele>
        <time>2018-01-12T07:19:31Z</time>
      </trkpt>
      <trkpt lat="46.56422" lon="-1.70957">
        <ele>33</ele>
        <time>2018-01-12T07:20:31Z</time>
      </trkpt>
      <trkpt lat="46.56423" lon="-1.70943">
        <ele>34</ele>
        <time>2018-01-12T07:21:31Z</time>
      </trkpt>
      <trkpt lat="46.56416" lon="-1.70892">
        <ele>34</ele>
        <time>2018-01-12T07:22:31Z</time>
      </trkpt>
      <trkpt lat="46.56413" lon="-1.70873">
        <ele>33</ele>
        <time>2018-01-12T07:23:31Z</time>
      </trkpt>
      <trkpt lat="46.56399" lon="-1.70804">
        <ele>32</ele>
        <time>2018-01-12T07:24:31Z</time>
      </trkpt>
      <trkpt lat="46.56376" lon="-1.70658">
        <ele>30</ele>
        <time>2018-01-12T07:25:31Z</time>
      </trkpt>
      <trkpt lat="46.56374" lon="-1.70647">
        <ele>30</ele>
        <time>2018-01-12T07:26:31Z</time>
      </trkpt>
      <trkpt lat="46.56373" lon="-1.7064">
        <ele>30</ele>
        <time>2018-01-12T07:27:31Z</time>
      </trkpt>
      <trkpt lat="46.56371" lon="-1.70632">
        <ele>30</ele>
        <time>2018-01-12T07:28:31Z</time>
      </trkpt>
      <trkpt lat="46.5637" lon="-1.70622">
        <ele>29</ele>
        <time>2018-01-12T07:29:31Z</time>
      </trkpt>
      <trkpt lat="46.56333" lon="-1.70405">
        <ele>31</ele>
        <time>2018-01-12T07:30:31Z</time>
      </trkpt>
      <trkpt lat="46.56328" lon="-1.70368">
        <ele>30</ele>
        <time>2018-01-12T07:31:31Z</time>
      </trkpt>
      <trkpt lat="46.56326" lon="-1.70344">
        <ele>29</ele>
        <time>2018-01-12T07:32:31Z</time>
      </trkpt>
      <trkpt lat="46.56326" lon="-1.7034">
        <ele>29</ele>
        <time>2018-01-12T07:33:31Z</time>
      </trkpt>
      <trkpt lat="46.56325" lon="-1.7033">
        <ele>29</ele>
        <time>2018-01-12T07:34:31Z</time>
      </trkpt>
      <trkpt lat="46.56325" lon="-1.70311">
        <ele>29</ele>
        <time>2018-01-12T07:35:31Z</time>
      </trkpt>
      <trkpt lat="46.56324" lon="-1.70295">
        <ele>29</ele>
        <time>2018-01-12T07:36:31Z</time>
      </trkpt>
      <trkpt lat="46.56325" lon="-1.70271">
        <ele>29</ele>
        <time>2018-01-12T07:37:31Z</time>
      </trkpt>
      <trkpt lat="46.56326" lon="-1.70246">
        <ele>29</ele>
        <time>2018-01-12T07:38:31Z</time>
      </trkpt>
      <trkpt lat="46.56329" lon="-1.70207">
        <ele>30</ele>
        <time>2018-01-12T07:39:31Z</time>
      </trkpt>
      <trkpt lat="46.56331" lon="-1.70175">
        <ele>31</ele>
        <time>2018-01-12T07:40:31Z</time>
      </trkpt>
      <trkpt lat="46.56334" lon="-1.70141">
        <ele>32</ele>
        <time>2018-01-12T07:41:31Z</time>
      </trkpt>
      <trkpt lat="46.56337" lon="-1.70099">
        <ele>33</ele>
        <time>2018-01-12T07:42:31Z</time>
      </trkpt>
      <trkpt lat="46.56339" lon="-1.70073">
        <ele>33</ele>
        <time>2018-01-12T07:43:31Z</time>
      </trkpt>
      <trkpt lat="46.56343" lon="-1.70035">
        <ele>33</ele>
        <time>2018-01-12T07:44:31Z</time>
      </trkpt>
      <trkpt lat="46.56346" lon="-1.70009">
        <ele>32</ele>
        <time>2018-01-12T07:45:31Z</time>
      </trkpt>
      <trkpt lat="46.56351" lon="-1.69962">
        <ele>33</ele>
        <time>2018-01-12T07:46:31Z</time>
      </trkpt>
      <trkpt lat="46.56357" lon="-1.69923">
        <ele>33</ele>
        <time>2018-01-12T07:47:31Z</time>
      </trkpt>
      <trkpt lat="46.56363" lon="-1.6987">
        <ele>34</ele>
        <time>2018-01-12T07:48:31Z</time>
      </trkpt>
      <trkpt lat="46.56369" lon="-1.6983">
        <ele>34</ele>
        <time>2018-01-12T07:49:31Z</time>
      </trkpt>
      <trkpt lat="46.56371" lon="-1.69811">
        <ele>34</ele>
        <time>2018-01-12T07:50:31Z</time>
      </trkpt>
      <trkpt lat="46.56372" lon="-1.69794">
        <ele>34</ele>
        <time>2018-01-12T07:51:31Z</time>
      </trkpt>
      <trkpt lat="46.56373" lon="-1.69768">
        <ele>34</ele>
        <time>2018-01-12T07:52:31Z</time>
      </trkpt>
      <trkpt lat="46.56373" lon="-1.69735">
        <ele>34</ele>
        <time>2018-01-12T07:53:31Z</time>
      </trkpt>
      <trkpt lat="46.56372" lon="-1.69199">
        <ele>37</ele>
        <time>2018-01-12T07:54:31Z</time>
      </trkpt>
      <trkpt lat="46.56372" lon="-1.69136">
        <ele>37</ele>
        <time>2018-01-12T07:55:31Z</time>
      </trkpt>
      <trkpt lat="46.56373" lon="-1.69101">
        <ele>37</ele>
        <time>2018-01-12T07:56:31Z</time>
      </trkpt>
      <trkpt lat="46.56375" lon="-1.69059">
        <ele>37</ele>
        <time>2018-01-12T07:57:31Z</time>
      </trkpt>
      <trkpt lat="46.56379" lon="-1.69023">
        <ele>37</ele>
        <time>2018-01-12T07:58:31Z</time>
      </trkpt>
      <trkpt lat="46.56384" lon="-1.6898">
        <ele>36</ele>
        <time>2018-01-12T07:59:31Z</time>
      </trkpt>
      <trkpt lat="46.56393" lon="-1.68913">
        <ele>35</ele>
        <time>2018-01-12T08:00:31Z</time>
      </trkpt>
      <trkpt lat="46.56403" lon="-1.6883">
        <ele>37</ele>
        <time>2018-01-12T08:01:31Z</time>
      </trkpt>
      <trkpt lat="46.56415" lon="-1.6874">
        <ele>36</ele>
        <time>2018-01-12T08:02:31Z</time>
      </trkpt>
      <trkpt lat="46.56424" lon="-1.68667">
        <ele>35</ele>
        <time>2018-01-12T08:03:31Z</time>
      </trkpt>
      <trkpt lat="46.56433" lon="-1.68603">
        <ele>35</ele>
        <time>2018-01-12T08:04:31Z</time>
      </trkpt>
      <trkpt lat="46.56439" lon="-1.6855">
        <ele>35</ele>
        <time>2018-01-12T08:05:31Z</time>
      </trkpt>
      <trkpt lat="46.56445" lon="-1.68506">
        <ele>35</ele>
        <time>2018-01-12T08:06:31Z</time>
      </trkpt>
      <trkpt lat="46.56447" lon="-1.68488">
        <ele>35</ele>
        <time>2018-01-12T08:07:31Z</time>
      </trkpt>
      <trkpt lat="46.56451" lon="-1.68464">
        <ele>35</ele>
        <time>2018-01-12T08:08:31Z</time>
      </trkpt>
      <trkpt lat="46.56455" lon="-1.68445">
        <ele>35</ele>
        <time>2018-01-12T08:09:31Z</time>
      </trkpt>
      <trkpt lat="46.5646" lon="-1.68426">
        <ele>35</ele>
        <time>2018-01-12T08:10:31Z</time>
      </trkpt>
      <trkpt lat="46.56467" lon="-1.68404">
        <ele>35</ele>
        <time>2018-01-12T08:11:31Z</time>
      </trkpt>
      <trkpt lat="46.56475" lon="-1.68383">
        <ele>35</ele>
        <time>2018-01-12T08:12:31Z</time>
      </trkpt>
      <trkpt lat="46.56489" lon="-1.68347">
        <ele>35</ele>
        <time>2018-01-12T08:13:31Z</time>
      </trkpt>
      <trkpt lat="46.5651" lon="-1.68298">
        <ele>35</ele>
        <time>2018-01-12T08:14:31Z</time>
      </trkpt>
      <trkpt lat="46.56526" lon="-1.68262">
        <ele>34</ele>
        <time>2018-01-12T08:15:31Z</time>
      </trkpt>
      <trkpt lat="46.56546" lon="-1.68215">
        <ele>33</ele>
        <time>2018-01-12T08:16:31Z</time>
      </trkpt>
      <trkpt lat="46.56561" lon="-1.68178">
        <ele>33</ele>
        <time>2018-01-12T08:17:31Z</time>
      </trkpt>
      <trkpt lat="46.56573" lon="-1.68139">
        <ele>33</ele>
        <time>2018-01-12T08:18:31Z</time>
      </trkpt>
      <trkpt lat="46.56584" lon="-1.68094">
        <ele>33</ele>
        <time>2018-01-12T08:19:31Z</time>
      </trkpt>
      <trkpt lat="46.56594" lon="-1.68039">
        <ele>33</ele>
        <time>2018-01-12T08:20:31Z</time>
      </trkpt>
      <trkpt lat="46.56602" lon="-1.67982">
        <ele>33</ele>
        <time>2018-01-12T08:21:31Z</time>
      </trkpt>
      <trkpt lat="46.56605" lon="-1.67938">
        <ele>34</ele>
        <time>2018-01-12T08:22:31Z</time>
      </trkpt>
      <trkpt lat="46.56606" lon="-1.67887">
        <ele>33</ele>
        <time>2018-01-12T08:23:31Z</time>
      </trkpt>
      <trkpt lat="46.56606" lon="-1.67805">
        <ele>33</ele>
        <time>2018-01-12T08:24:31Z</time>
      </trkpt>
      <trkpt lat="46.56607" lon="-1.67731">
        <ele>34</ele>
        <time>2018-01-12T08:25:31Z</time>
      </trkpt>
      <trkpt lat="46.56606" lon="-1.67657">
        <ele>33</ele>
        <time>2018-01-12T08:26:31Z</time>
      </trkpt>
      <trkpt lat="46.56606" lon="-1.67604">
        <ele>33</ele>
        <time>2018-01-12T08:27:31Z</time>
      </trkpt>
      <trkpt lat="46.56607" lon="-1.67593">
        <ele>34</ele>
        <time>2018-01-12T08:28:31Z</time>
      </trkpt>
      <trkpt lat="46.56609" lon="-1.67569">
        <ele>34</ele>
        <time>2018-01-12T08:29:31Z</time>
      </trkpt>
      <trkpt lat="46.56615" lon="-1.67544">
        <ele>34</ele>
        <time>2018-01-12T08:30:31Z</time>
      </trkpt>
      <trkpt lat="46.56619" lon="-1.67528">
        <ele>35</ele>
        <time>2018-01-12T08:31:31Z</time>
      </trkpt>
      <trkpt lat="46.56625" lon="-1.6751">
        <ele>35</ele>
        <time>2018-01-12T08:32:31Z</time>
      </trkpt>
      <trkpt lat="46.5664" lon="-1.67476">
        <ele>35</ele>
        <time>2018-01-12T08:33:31Z</time>
      </trkpt>
      <trkpt lat="46.56657" lon="-1.67449">
        <ele>36</ele>
        <time>2018-01-12T08:34:31Z</time>
      </trkpt>
      <trkpt lat="46.56687" lon="-1.67407">
        <ele>36</ele>
        <time>2018-01-12T08:35:31Z</time>
      </trkpt>
      <trkpt lat="46.5672" lon="-1.67362">
        <ele>36</ele>
        <time>2018-01-12T08:36:31Z</time>
      </trkpt>
      <trkpt lat="46.56751" lon="-1.67318">
        <ele>37</ele>
        <time>2018-01-12T08:37:31Z</time>
      </trkpt>
      <trkpt lat="46.56769" lon="-1.67294">
        <ele>36</ele>
        <time>2018-01-12T08:38:31Z</time>
      </trkpt>
      <trkpt lat="46.56777" lon="-1.67286">
        <ele>36</ele>
        <time>2018-01-12T08:39:31Z</time>
      </trkpt>
      <trkpt lat="46.56781" lon="-1.67282">
        <ele>36</ele>
        <time>2018-01-12T08:40:31Z</time>
      </trkpt>
      <trkpt lat="46.56793" lon="-1.67273">
        <ele>35</ele>
        <time>2018-01-12T08:41:31Z</time>
      </trkpt>
      <trkpt lat="46.56817" lon="-1.67263">
        <ele>35</ele>
        <time>2018-01-12T08:42:31Z</time>
      </trkpt>
      <trkpt lat="46.56846" lon="-1.67255">
        <ele>34</ele>
        <time>2018-01-12T08:43:31Z</time>
      </trkpt>
      <trkpt lat="46.56878" lon="-1.67249">
        <ele>33</ele>
        <time>2018-01-12T08:44:31Z</time>
      </trkpt>
      <trkpt lat="46.56922" lon="-1.6724">
        <ele>32</ele>
        <time>2018-01-12T08:45:31Z</time>
      </trkpt>
      <trkpt lat="46.56954" lon="-1.67233">
        <ele>31</ele>
        <time>2018-01-12T08:46:31Z</time>
      </trkpt>
      <trkpt lat="46.56961" lon="-1.67232">
        <ele>31</ele>
        <time>2018-01-12T08:47:31Z</time>
      </trkpt>
      <trkpt lat="46.56992" lon="-1.67224">
        <ele>30</ele>
        <time>2018-01-12T08:48:31Z</time>
      </trkpt>
      <trkpt lat="46.57013" lon="-1.67216">
        <ele>29</ele>
        <time>2018-01-12T08:49:31Z</time>
      </trkpt>
      <trkpt lat="46.57031" lon="-1.67207">
        <ele>29</ele>
        <time>2018-01-12T08:50:31Z</time>
      </trkpt>
      <trkpt lat="46.5705" lon="-1.67194">
        <ele>27</ele>
        <time>2018-01-12T08:51:31Z</time>
      </trkpt>
      <trkpt lat="46.57067" lon="-1.67179">
        <ele>26</ele>
        <time>2018-01-12T08:52:31Z</time>
      </trkpt>
      <trkpt lat="46.57088" lon="-1.67154">
        <ele>25</ele>
        <time>2018-01-12T08:53:31Z</time>
      </trkpt>
      <trkpt lat="46.57115" lon="-1.67121">
        <ele>24</ele>
        <time>2018-01-12T08:54:31Z</time>
      </trkpt>
      <trkpt lat="46.5713" lon="-1.67103">
        <ele>24</ele>
        <time>2018-01-12T08:55:31Z</time>
      </trkpt>
      <trkpt lat="46.57139" lon="-1.67094">
        <ele>23</ele>
        <time>2018-01-12T08:56:31Z</time>
      </trkpt>
      <trkpt lat="46.5715" lon="-1.67081">
        <ele>23</ele>
        <time>2018-01-12T08:57:31Z</time>
      </trkpt>
      <trkpt lat="46.57166" lon="-1.67063">
        <ele>24</ele>
        <time>2018-01-12T08:58:31Z</time>
      </trkpt>
      <trkpt lat="46.57181" lon="-1.67049">
        <ele>24</ele>
        <time>2018-01-12T08:59:31Z</time>
      </trkpt>
      <trkpt lat="46.57193" lon="-1.67038">
        <ele>25</ele>
        <time>2018-01-12T09:00:31Z</time>
      </trkpt>
      <trkpt lat="46.57195" lon="-1.67036">
        <ele>25</ele>
        <time>2018-01-12T09:01:31Z</time>
      </trkpt>
      <trkpt lat="46.57197" lon="-1.67034">
        <ele>25</ele>
        <time>2018-01-12T09:02:31Z</time>
      </trkpt>
      <trkpt lat="46.57214" lon="-1.67021">
        <ele>25</ele>
        <time>2018-01-12T09:03:31Z</time>
      </trkpt>
      <trkpt lat="46.57226" lon="-1.67012">
        <ele>26</ele>
        <time>2018-01-12T09:04:31Z</time>
      </trkpt>
      <trkpt lat="46.57241" lon="-1.67002">
        <ele>26</ele>
        <time>2018-01-12T09:05:31Z</time>
      </trkpt>
      <trkpt lat="46.57245" lon="-1.66999">
        <ele>26</ele>
        <time>2018-01-12T09:06:31Z</time>
      </trkpt>
      <trkpt lat="46.57249" lon="-1.66995">
        <ele>26</ele>
        <time>2018-01-12T09:07:31Z</time>
      </trkpt>
      <trkpt lat="46.57254" lon="-1.66992">
        <ele>26</ele>
        <time>2018-01-12T09:08:31Z</time>
      </trkpt>
      <trkpt lat="46.57255" lon="-1.6699">
        <ele>26</ele>
        <time>2018-01-12T09:09:31Z</time>
      </trkpt>
      <trkpt lat="46.57276" lon="-1.66974">
        <ele>26</ele>
        <time>2018-01-12T09:10:31Z</time>
      </trkpt>
      <trkpt lat="46.57321" lon="-1.66938">
        <ele>25</ele>
        <time>2018-01-12T09:11:31Z</time>
      </trkpt>
      <trkpt lat="46.57364" lon="-1.66903">
        <ele>24</ele>
        <time>2018-01-12T09:12:31Z</time>
      </trkpt>
      <trkpt lat="46.574" lon="-1.66873">
        <ele>22</ele>
        <time>2018-01-12T09:13:31Z</time>
      </trkpt>
      <trkpt lat="46.57426" lon="-1.66852">
        <ele>20</ele>
        <time>2018-01-12T09:14:31Z</time>
      </trkpt>
      <trkpt lat="46.57452" lon="-1.66832">
        <ele>18</ele>
        <time>2018-01-12T09:15:31Z</time>
      </trkpt>
      <trkpt lat="46.57475" lon="-1.66813">
        <ele>16</ele>
        <time>2018-01-12T09:16:31Z</time>
      </trkpt>
      <trkpt lat="46.57485" lon="-1.668">
        <ele>16</ele>
        <time>2018-01-12T09:17:31Z</time>
      </trkpt>
      <trkpt lat="46.57496" lon="-1.66781">
        <ele>15</ele>
        <time>2018-01-12T09:18:31Z</time>
      </trkpt>
      <trkpt lat="46.57508" lon="-1.66756">
        <ele>16</ele>
        <time>2018-01-12T09:19:31Z</time>
      </trkpt>
      <trkpt lat="46.57515" lon="-1.66734">
        <ele>15</ele>
        <time>2018-01-12T09:20:31Z</time>
      </trkpt>
      <trkpt lat="46.5752" lon="-1.66716">
        <ele>14</ele>
        <time>2018-01-12T09:21:31Z</time>
      </trkpt>
      <trkpt lat="46.57523" lon="-1.66704">
        <ele>14</ele>
        <time>2018-01-12T09:22:31Z</time>
      </trkpt>
      <trkpt lat="46.57525" lon="-1.66694">
        <ele>13</ele>
        <time>2018-01-12T09:23:31Z</time>
      </trkpt>
      <trkpt lat="46.57527" lon="-1.66685">
        <ele>13</ele>
        <time>2018-01-12T09:24:31Z</time>
      </trkpt>
      <trkpt lat="46.5753" lon="-1.66671">
        <ele>12</ele>
        <time>2018-01-12T09:25:31Z</time>
      </trkpt>
      <trkpt lat="46.57538" lon="-1.66637">
        <ele>12</ele>
        <time>2018-01-12T09:26:31Z</time>
      </trkpt>
      <trkpt lat="46.57547" lon="-1.66605">
        <ele>12</ele>
        <time>2018-01-12T09:27:31Z</time>
      </trkpt>
      <trkpt lat="46.57553" lon="-1.66587">
        <ele>13</ele>
        <time>2018-01-12T09:28:31Z</time>
      </trkpt>
      <trkpt lat="46.57561" lon="-1.6657">
        <ele>14</ele>
        <time>2018-01-12T09:29:31Z</time>
      </trkpt>
      <trkpt lat="46.57571" lon="-1.66555">
        <ele>15</ele>
        <time>2018-01-12T09:30:31Z</time>
      </trkpt>
      <trkpt lat="46.57576" lon="-1.6655">
        <ele>15</ele>
        <time>2018-01-12T09:31:31Z</time>
      </trkpt>
      <trkpt lat="46.57586" lon="-1.66538">
        <ele>16</ele>
        <time>2018-01-12T09:32:31Z</time>
      </trkpt>
      <trkpt lat="46.57601" lon="-1.66521">
        <ele>16</ele>
        <time>2018-01-12T09:33:31Z</time>
      </trkpt>
      <trkpt lat="46.57617" lon="-1.66504">
        <ele>16</ele>
        <time>2018-01-12T09:34:31Z</time>
      </trkpt>
      <trkpt lat="46.57634" lon="-1.66486">
        <ele>16</ele>
        <time>2018-01-12T09:35:31Z</time>
      </trkpt>
      <trkpt lat="46.57651" lon="-1.66465">
        <ele>17</ele>
        <time>2018-01-12T09:36:31Z</time>
      </trkpt>
      <trkpt lat="46.57664" lon="-1.66442">
        <ele>18</ele>
        <time>2018-01-12T09:37:31Z</time>
      </trkpt>
      <trkpt lat="46.57678" lon="-1.66417">
        <ele>20</ele>
        <time>2018-01-12T09:38:31Z</time>
      </trkpt>
      <trkpt lat="46.5769" lon="-1.66392">
        <ele>21</ele>
        <time>2018-01-12T09:39:31Z</time>
      </trkpt>
      <trkpt lat="46.57699" lon="-1.66367">
        <ele>21</ele>
        <time>2018-01-12T09:40:31Z</time>
      </trkpt>
      <trkpt lat="46.57705" lon="-1.66346">
        <ele>22</ele>
        <time>2018-01-12T09:41:31Z</time>
      </trkpt>
      <trkpt lat="46.57709" lon="-1.66334">
        <ele>22</ele>
        <time>2018-01-12T09:42:31Z</time>
      </trkpt>
      <trkpt lat="46.57712" lon="-1.66319">
        <ele>23</ele>
        <time>2018-01-12T09:43:31Z</time>
      </trkpt>
      <trkpt lat="46.5772" lon="-1.66273">
        <ele>26</ele>
        <time>2018-01-12T09:44:31Z</time>
      </trkpt>
      <trkpt lat="46.57737" lon="-1.66167">
        <ele>33</ele>
        <time>2018-01-12T09:45:31Z</time>
      </trkpt>
      <trkpt lat="46.57747" lon="-1.66112">
        <ele>34</ele>
        <time>2018-01-12T09:46:31Z</time>
      </trkpt>
      <trkpt lat="46.5776" lon="-1.66027">
        <ele>36</ele>
        <time>2018-01-12T09:47:31Z</time>
      </trkpt>
      <trkpt lat="46.57778" lon="-1.65925">
        <ele>35</ele>
        <time>2018-01-12T09:48:31Z</time>
      </trkpt>
      <trkpt lat="46.57797" lon="-1.65812">
        <ele>35</ele>
        <time>2018-01-12T09:49:31Z</time>
      </trkpt>
      <trkpt lat="46.57798" lon="-1.65804">
        <ele>36</ele>
        <time>2018-01-12T09:50:31Z</time>
      </trkpt>
      <trkpt lat="46.57803" lon="-1.65773">
        <ele>36</ele>
        <time>2018-01-12T09:51:31Z</time>
      </trkpt>
      <trkpt lat="46.57812" lon="-1.65726">
        <ele>37</ele>
        <time>2018-01-12T09:52:31Z</time>
      </trkpt>
      <trkpt lat="46.5782" lon="-1.65694">
        <ele>38</ele>
        <time>2018-01-12T09:53:31Z</time>
      </trkpt>
      <trkpt lat="46.57826" lon="-1.65674">
        <ele>39</ele>
        <time>2018-01-12T09:54:31Z</time>
      </trkpt>
      <trkpt lat="46.57835" lon="-1.65649">
        <ele>39</ele>
        <time>2018-01-12T09:55:31Z</time>
      </trkpt>
      <trkpt lat="46.57851" lon="-1.65611">
        <ele>39</ele>
        <time>2018-01-12T09:56:31Z</time>
      </trkpt>
      <trkpt lat="46.5787" lon="-1.65563">
        <ele>39</ele>
        <time>2018-01-12T09:57:31Z</time>
      </trkpt>
      <trkpt lat="46.5788" lon="-1.65538">
        <ele>39</ele>
        <time>2018-01-12T09:58:31Z</time>
      </trkpt>
      <trkpt lat="46.57901" lon="-1.65487">
        <ele>40</ele>
        <time>2018-01-12T09:59:31Z</time>
      </trkpt>
      <trkpt lat="46.57915" lon="-1.65448">
        <ele>39</ele>
        <time>2018-01-12T10:00:31Z</time>
      </trkpt>
      <trkpt lat="46.57931" lon="-1.65406">
        <ele>39</ele>
        <time>2018-01-12T10:01:31Z</time>
      </trkpt>
      <trkpt lat="46.57938" lon="-1.65387">
        <ele>39</ele>
        <time>2018-01-12T10:02:31Z</time>
      </trkpt>
      <trkpt lat="46.57942" lon="-1.65372">
        <ele>39</ele>
        <time>2018-01-12T10:03:31Z</time>
      </trkpt>
      <trkpt lat="46.57947" lon="-1.65349">
        <ele>40</ele>
        <time>2018-01-12T10:04:31Z</time>
      </trkpt>
      <trkpt lat="46.57953" lon="-1.65317">
        <ele>40</ele>
        <time>2018-01-12T10:05:31Z</time>
      </trkpt>
      <trkpt lat="46.57954" lon="-1.65305">
        <ele>40</ele>
        <time>2018-01-12T10:06:31Z</time>
      </trkpt>
      <trkpt lat="46.57958" lon="-1.65279">
        <ele>41</ele>
        <time>2018-01-12T10:07:31Z</time>
      </trkpt>
      <trkpt lat="46.57964" lon="-1.65242">
        <ele>41</ele>
        <time>2018-01-12T10:08:31Z</time>
      </trkpt>
      <trkpt lat="46.57969" lon="-1.65219">
        <ele>41</ele>
        <time>2018-01-12T10:09:31Z</time>
      </trkpt>
      <trkpt lat="46.57971" lon="-1.65212">
        <ele>41</ele>
        <time>2018-01-12T10:10:31Z</time>
      </trkpt>
      <trkpt lat="46.57978" lon="-1.6519">
        <ele>41</ele>
        <time>2018-01-12T10:11:31Z</time>
      </trkpt>
      <trkpt lat="46.57985" lon="-1.65172">
        <ele>41</ele>
        <time>2018-01-12T10:12:31Z</time>
      </trkpt>
      <trkpt lat="46.57996" lon="-1.65149">
        <ele>41</ele>
        <time>2018-01-12T10:13:31Z</time>
      </trkpt>
      <trkpt lat="46.58012" lon="-1.65126">
        <ele>40</ele>
        <time>2018-01-12T10:14:31Z</time>
      </trkpt>
      <trkpt lat="46.58035" lon="-1.65094">
        <ele>40</ele>
        <time>2018-01-12T10:15:31Z</time>
      </trkpt>
      <trkpt lat="46.58051" lon="-1.65074">
        <ele>39</ele>
        <time>2018-01-12T10:16:31Z</time>
      </trkpt>
      <trkpt lat="46.58073" lon="-1.65046">
        <ele>39</ele>
        <time>2018-01-12T10:17:31Z</time>
      </trkpt>
      <trkpt lat="46.58114" lon="-1.64994">
        <ele>38</ele>
        <time>2018-01-12T10:18:31Z</time>
      </trkpt>
      <trkpt lat="46.58149" lon="-1.64949">
        <ele>39</ele>
        <time>2018-01-12T10:19:31Z</time>
      </trkpt>
      <trkpt lat="46.58158" lon="-1.64938">
        <ele>39</ele>
        <time>2018-01-12T10:20:31Z</time>
      </trkpt>
      <trkpt lat="46.5817" lon="-1.64923">
        <ele>40</ele>
        <time>2018-01-12T10:21:31Z</time>
      </trkpt>
      <trkpt lat="46.58185" lon="-1.64908">
        <ele>40</ele>
        <time>2018-01-12T10:22:31Z</time>
      </trkpt>
      <trkpt lat="46.582" lon="-1.64895">
        <ele>40</ele>
        <time>2018-01-12T10:23:31Z</time>
      </trkpt>
      <trkpt lat="46.58215" lon="-1.64886">
        <ele>39</ele>
        <time>2018-01-12T10:24:31Z</time>
      </trkpt>
      <trkpt lat="46.58231" lon="-1.64877">
        <ele>39</ele>
        <time>2018-01-12T10:25:31Z</time>
      </trkpt>
      <trkpt lat="46.58248" lon="-1.64871">
        <ele>39</ele>
        <time>2018-01-12T10:26:31Z</time>
      </trkpt>
      <trkpt lat="46.58265" lon="-1.64865">
        <ele>39</ele>
        <time>2018-01-12T10:27:31Z</time>
      </trkpt>
      <trkpt lat="46.5829" lon="-1.64857">
        <ele>39</ele>
        <time>2018-01-12T10:28:31Z</time>
      </trkpt>
      <trkpt lat="46.5832" lon="-1.64847">
        <ele>39</ele>
        <time>2018-01-12T10:29:31Z</time>
      </trkpt>
      <trkpt lat="46.5837" lon="-1.64831">
        <ele>40</ele>
        <time>2018-01-12T10:30:31Z</time>
      </trkpt>
      <trkpt lat="46.58373" lon="-1.6483">
        <ele>40</ele>
        <time>2018-01-12T10:31:31Z</time>
      </trkpt>
      <trkpt lat="46.58434" lon="-1.64811">
        <ele>41</ele>
        <time>2018-01-12T10:32:31Z</time>
      </trkpt>
      <trkpt lat="46.58478" lon="-1.64798">
        <ele>41</ele>
        <time>2018-01-12T10:33:31Z</time>
      </trkpt>
      <trkpt lat="46.58489" lon="-1.64795">
        <ele>41</ele>
        <time>2018-01-12T10:34:31Z</time>
      </trkpt>
      <trkpt lat="46.58531" lon="-1.64782">
        <ele>40</ele>
        <time>2018-01-12T10:35:31Z</time>
      </trkpt>
      <trkpt lat="46.58557" lon="-1.64773">
        <ele>39</ele>
        <time>2018-01-12T10:36:31Z</time>
      </trkpt>
      <trkpt lat="46.58588" lon="-1.64763">
        <ele>38</ele>
        <time>2018-01-12T10:37:31Z</time>
      </trkpt>
      <trkpt lat="46.58612" lon="-1.64757">
        <ele>38</ele>
        <time>2018-01-12T10:38:31Z</time>
      </trkpt>
      <trkpt lat="46.58631" lon="-1.64751">
        <ele>37</ele>
        <time>2018-01-12T10:39:31Z</time>
      </trkpt>
      <trkpt lat="46.58659" lon="-1.64742">
        <ele>36</ele>
        <time>2018-01-12T10:40:31Z</time>
      </trkpt>
      <trkpt lat="46.58677" lon="-1.64735">
        <ele>36</ele>
        <time>2018-01-12T10:41:31Z</time>
      </trkpt>
      <trkpt lat="46.58691" lon="-1.64729">
        <ele>36</ele>
        <time>2018-01-12T10:42:31Z</time>
      </trkpt>
      <trkpt lat="46.58705" lon="-1.6472">
        <ele>36</ele>
        <time>2018-01-12T10:43:31Z</time>
      </trkpt>
      <trkpt lat="46.58705" lon="-1.6472">
        <ele>36</ele>
        <time>2018-01-12T10:44:31Z</time>
      </trkpt>
      <trkpt lat="46.58721" lon="-1.64743">
        <ele>36</ele>
        <time>2018-01-12T10:45:31Z</time>
      </trkpt>
      <trkpt lat="46.58734" lon="-1.64761">
        <ele>35</ele>
        <time>2018-01-12T10:46:31Z</time>
      </trkpt>
      <trkpt lat="46.58744" lon="-1.64773">
        <ele>34</ele>
        <time>2018-01-12T10:47:31Z</time>
      </trkpt>
      <trkpt lat="46.58751" lon="-1.64783">
        <ele>34</ele>
        <time>2018-01-12T10:48:31Z</time>
      </trkpt>
      <trkpt lat="46.58755" lon="-1.64786">
        <ele>34</ele>
        <time>2018-01-12T10:49:31Z</time>
      </trkpt>
      <trkpt lat="46.58765" lon="-1.64795">
        <ele>34</ele>
        <time>2018-01-12T10:50:31Z</time>
      </trkpt>
      <trkpt lat="46.58777" lon="-1.64803">
        <ele>34</ele>
        <time>2018-01-12T10:51:31Z</time>
      </trkpt>
      <trkpt lat="46.58786" lon="-1.64808">
        <ele>35</ele>
        <time>2018-01-12T10:52:31Z</time>
      </trkpt>
      <trkpt lat="46.58796" lon="-1.64812">
        <ele>35</ele>
        <time>2018-01-12T10:53:31Z</time>
      </trkpt>
      <trkpt lat="46.58808" lon="-1.64814">
        <ele>35</ele>
        <time>2018-01-12T10:54:31Z</time>
      </trkpt>
      <trkpt lat="46.5882" lon="-1.64815">
        <ele>36</ele>
        <time>2018-01-12T10:55:31Z</time>
      </trkpt>
      <trkpt lat="46.5885" lon="-1.64811">
        <ele>37</ele>
        <time>2018-01-12T10:56:31Z</time>
      </trkpt>
      <trkpt lat="46.5886" lon="-1.6481">
        <ele>37</ele>
        <time>2018-01-12T10:57:31Z</time>
      </trkpt>
      <trkpt lat="46.58883" lon="-1.64805">
        <ele>37</ele>
        <time>2018-01-12T10:58:31Z</time>
      </trkpt>
      <trkpt lat="46.58911" lon="-1.648">
        <ele>37</ele>
        <time>2018-01-12T10:59:31Z</time>
      </trkpt>
      <trkpt lat="46.58926" lon="-1.64798">
        <ele>37</ele>
        <time>2018-01-12T11:00:31Z</time>
      </trkpt>
      <trkpt lat="46.58965" lon="-1.64791">
        <ele>38</ele>
        <time>2018-01-12T11:01:31Z</time>
      </trkpt>
      <trkpt lat="46.58988" lon="-1.6479">
        <ele>39</ele>
        <time>2018-01-12T11:02:31Z</time>
      </trkpt>
      <trkpt lat="46.59001" lon="-1.64788">
        <ele>39</ele>
        <time>2018-01-12T11:03:31Z</time>
      </trkpt>
      <trkpt lat="46.59001" lon="-1.64787">
        <ele>39</ele>
        <time>2018-01-12T11:04:31Z</time>
      </trkpt>
      <trkpt lat="46.59001" lon="-1.64786">
        <ele>39</ele>
        <time>2018-01-12T11:05:31Z</time>
      </trkpt>
      <trkpt lat="46.59002" lon="-1.64786">
        <ele>39</ele>
        <time>2018-01-12T11:06:31Z</time>
      </trkpt>
      <trkpt lat="46.59002" lon="-1.64785">
        <ele>39</ele>
        <time>2018-01-12T11:07:31Z</time>
      </trkpt>
      <trkpt lat="46.59002" lon="-1.64784">
        <ele>39</ele>
        <time>2018-01-12T11:08:31Z</time>
      </trkpt>
      <trkpt lat="46.59002" lon="-1.64783">
        <ele>39</ele>
        <time>2018-01-12T11:09:31Z</time>
      </trkpt>
      <trkpt lat="46.59003" lon="-1.64783">
        <ele>39</ele>
        <time>2018-01-12T11:10:31Z</time>
      </trkpt>
      <trkpt lat="46.59003" lon="-1.64782">
        <ele>39</ele>
        <time>2018-01-12T11:11:31Z</time>
      </trkpt>
      <trkpt lat="46.59004" lon="-1.64782">
        <ele>39</ele>
        <time>2018-01-12T11:12:31Z</time>
      </trkpt>
      <trkpt lat="46.59004" lon="-1.64781">
        <ele>39</ele>
        <time>2018-01-12T11:13:31Z</time>
      </trkpt>
      <trkpt lat="46.59005" lon="-1.64781">
        <ele>39</ele>
        <time>2018-01-12T11:14:31Z</time>
      </trkpt>
      <trkpt lat="46.59006" lon="-1.64781">
        <ele>39</ele>
        <time>2018-01-12T11:15:31Z</time>
      </trkpt>
      <trkpt lat="46.59007" lon="-1.64781">
        <ele>39</ele>
        <time>2018-01-12T11:16:31Z</time>
      </trkpt>
      <trkpt lat="46.59008" lon="-1.64781">
        <ele>39</ele>
        <time>2018-01-12T11:17:31Z</time>
      </trkpt>
      <trkpt lat="46.59009" lon="-1.64781">
        <ele>39</ele>
        <time>2018-01-12T11:18:31Z</time>
      </trkpt>
      <trkpt lat="46.59009" lon="-1.64782">
        <ele>39</ele>
        <time>2018-01-12T11:19:31Z</time>
      </trkpt>
      <trkpt lat="46.5901" lon="-1.64782">
        <ele>39</ele>
        <time>2018-01-12T11:20:31Z</time>
      </trkpt>
      <trkpt lat="46.5901" lon="-1.64783">
        <ele>39</ele>
        <time>2018-01-12T11:21:31Z</time>
      </trkpt>
      <trkpt lat="46.5901" lon="-1.64784">
        <ele>39</ele>
        <time>2018-01-12T11:22:31Z</time>
      </trkpt>
      <trkpt lat="46.59011" lon="-1.64784">
        <ele>39</ele>
        <time>2018-01-12T11:23:31Z</time>
      </trkpt>
      <trkpt lat="46.59011" lon="-1.64785">
        <ele>39</ele>
        <time>2018-01-12T11:24:31Z</time>
      </trkpt>
      <trkpt lat="46.59011" lon="-1.64786">
        <ele>39</ele>
        <time>2018-01-12T11:25:31Z</time>
      </trkpt>
      <trkpt lat="46.59012" lon="-1.64786">
        <ele>39</ele>
        <time>2018-01-12T11:26:31Z</time>
      </trkpt>
      <trkpt lat="46.59029" lon="-1.64784">
        <ele>39</ele>
        <time>2018-01-12T11:27:31Z</time>
      </trkpt>
      <trkpt lat="46.59042" lon="-1.64783">
        <ele>39</ele>
        <time>2018-01-12T11:28:31Z</time>
      </trkpt>
      <trkpt lat="46.59053" lon="-1.64783">
        <ele>39</ele>
        <time>2018-01-12T11:29:31Z</time>
      </trkpt>
      <trkpt lat="46.59077" lon="-1.64785">
        <ele>38</ele>
        <time>2018-01-12T11:30:31Z</time>
      </trkpt>
      <trkpt lat="46.59091" lon="-1.64786">
        <ele>38</ele>
        <time>2018-01-12T11:31:31Z</time>
      </trkpt>
      <trkpt lat="46.5911" lon="-1.64789">
        <ele>38</ele>
        <time>2018-01-12T11:32:31Z</time>
      </trkpt>
      <trkpt lat="46.59114" lon="-1.6479">
        <ele>38</ele>
        <time>2018-01-12T11:33:31Z</time>
      </trkpt>
      <trkpt lat="46.59119" lon="-1.64792">
        <ele>38</ele>
        <time>2018-01-12T11:34:31Z</time>
      </trkpt>
      <trkpt lat="46.59121" lon="-1.64792">
        <ele>38</ele>
        <time>2018-01-12T11:35:31Z</time>
      </trkpt>
      <trkpt lat="46.59124" lon="-1.64793">
        <ele>38</ele>
        <time>2018-01-12T11:36:31Z</time>
      </trkpt>
      <trkpt lat="46.59129" lon="-1.64794">
        <ele>38</ele>
        <time>2018-01-12T11:37:31Z</time>
      </trkpt>
      <trkpt lat="46.59139" lon="-1.64797">
        <ele>38</ele>
        <time>2018-01-12T11:38:31Z</time>
      </trkpt>
      <trkpt lat="46.59152" lon="-1.64803">
        <ele>38</ele>
        <time>2018-01-12T11:39:31Z</time>
      </trkpt>
      <trkpt lat="46.59176" lon="-1.64811">
        <ele>38</ele>
        <time>2018-01-12T11:40:31Z</time>
      </trkpt>
      <trkpt lat="46.592" lon="-1.64827">
        <ele>39</ele>
        <time>2018-01-12T11:41:31Z</time>
      </trkpt>
      <trkpt lat="46.59208" lon="-1.64832">
        <ele>39</ele>
        <time>2018-01-12T11:42:31Z</time>
      </trkpt>
      <trkpt lat="46.59216" lon="-1.64836">
        <ele>40</ele>
        <time>2018-01-12T11:43:31Z</time>
      </trkpt>
      <trkpt lat="46.59247" lon="-1.64847">
        <ele>41</ele>
        <time>2018-01-12T11:44:31Z</time>
      </trkpt>
      <trkpt lat="46.59275" lon="-1.64857">
        <ele>43</ele>
        <time>2018-01-12T11:45:31Z</time>
      </trkpt>
      <trkpt lat="46.59332" lon="-1.64879">
        <ele>46</ele>
        <time>2018-01-12T11:46:31Z</time>
      </trkpt>
      <trkpt lat="46.59343" lon="-1.64883">
        <ele>47</ele>
        <time>2018-01-12T11:47:31Z</time>
      </trkpt>
      <trkpt lat="46.59363" lon="-1.64895">
        <ele>47</ele>
        <time>2018-01-12T11:48:31Z</time>
      </trkpt>
      <trkpt lat="46.59396" lon="-1.64917">
        <ele>48</ele>
        <time>2018-01-12T11:49:31Z</time>
      </trkpt>
      <trkpt lat="46.59402" lon="-1.6492">
        <ele>48</ele>
        <time>2018-01-12T11:50:31Z</time>
      </trkpt>
      <trkpt lat="46.59413" lon="-1.64927">
        <ele>48</ele>
        <time>2018-01-12T11:51:31Z</time>
      </trkpt>
      <trkpt lat="46.59443" lon="-1.64944">
        <ele>48</ele>
        <time>2018-01-12T11:52:31Z</time>
      </trkpt>
      <trkpt lat="46.59467" lon="-1.64958">
        <ele>49</ele>
        <time>2018-01-12T11:53:31Z</time>
      </trkpt>
      <trkpt lat="46.59473" lon="-1.64963">
        <ele>49</ele>
        <time>2018-01-12T11:54:31Z</time>
      </trkpt>
      <trkpt lat="46.59495" lon="-1.64977">
        <ele>49</ele>
        <time>2018-01-12T11:55:31Z</time>
      </trkpt>
      <trkpt lat="46.59507" lon="-1.64983">
        <ele>49</ele>
        <time>2018-01-12T11:56:31Z</time>
      </trkpt>
      <trkpt lat="46.59536" lon="-1.65001">
        <ele>49</ele>
        <time>2018-01-12T11:57:31Z</time>
      </trkpt>
      <trkpt lat="46.59552" lon="-1.65011">
        <ele>49</ele>
        <time>2018-01-12T11:58:31Z</time>
      </trkpt>
      <trkpt lat="46.5959" lon="-1.65034">
        <ele>49</ele>
        <time>2018-01-12T11:59:31Z</time>
      </trkpt>
      <trkpt lat="46.59628" lon="-1.65059">
        <ele>48</ele>
        <time>2018-01-12T12:00:31Z</time>
      </trkpt>
      <trkpt lat="46.59645" lon="-1.65069">
        <ele>47</ele>
        <time>2018-01-12T12:01:31Z</time>
      </trkpt>
      <trkpt lat="46.59665" lon="-1.65084">
        <ele>46</ele>
        <time>2018-01-12T12:02:31Z</time>
      </trkpt>
      <trkpt lat="46.59667" lon="-1.65085">
        <ele>46</ele>
        <time>2018-01-12T12:03:31Z</time>
      </trkpt>
      <trkpt lat="46.5971" lon="-1.65111">
        <ele>45</ele>
        <time>2018-01-12T12:04:31Z</time>
      </trkpt>
      <trkpt lat="46.59737" lon="-1.65129">
        <ele>45</ele>
        <time>2018-01-12T12:05:31Z</time>
      </trkpt>
      <trkpt lat="46.59777" lon="-1.65154">
        <ele>44</ele>
        <time>2018-01-12T12:06:31Z</time>
      </trkpt>
      <trkpt lat="46.59811" lon="-1.65176">
        <ele>44</ele>
        <time>2018-01-12T12:07:31Z</time>
      </trkpt>
      <trkpt lat="46.59855" lon="-1.65204">
        <ele>45</ele>
        <time>2018-01-12T12:08:31Z</time>
      </trkpt>
      <trkpt lat="46.59904" lon="-1.65234">
        <ele>47</ele>
        <time>2018-01-12T12:09:31Z</time>
      </trkpt>
      <trkpt lat="46.59907" lon="-1.65237">
        <ele>47</ele>
        <time>2018-01-12T12:10:31Z</time>
      </trkpt>
      <trkpt lat="46.59953" lon="-1.65265">
        <ele>48</ele>
        <time>2018-01-12T12:11:31Z</time>
      </trkpt>
      <trkpt lat="46.60005" lon="-1.65298">
        <ele>49</ele>
        <time>2018-01-12T12:12:31Z</time>
      </trkpt>
      <trkpt lat="46.60017" lon="-1.65306">
        <ele>49</ele>
        <time>2018-01-12T12:13:31Z</time>
      </trkpt>
      <trkpt lat="46.60036" lon="-1.65318">
        <ele>49</ele>
        <time>2018-01-12T12:14:31Z</time>
      </trkpt>
      <trkpt lat="46.60041" lon="-1.65321">
        <ele>49</ele>
        <time>2018-01-12T12:15:31Z</time>
      </trkpt>
      <trkpt lat="46.60098" lon="-1.65358">
        <ele>49</ele>
        <time>2018-01-12T12:16:31Z</time>
      </trkpt>
      <trkpt lat="46.6011" lon="-1.65366">
        <ele>49</ele>
        <time>2018-01-12T12:17:31Z</time>
      </trkpt>
      <trkpt lat="46.60119" lon="-1.65373">
        <ele>49</ele>
        <time>2018-01-12T12:18:31Z</time>
      </trkpt>
      <trkpt lat="46.60128" lon="-1.65381">
        <ele>49</ele>
        <time>2018-01-12T12:19:31Z</time>
      </trkpt>
      <trkpt lat="46.60137" lon="-1.6539">
        <ele>49</ele>
        <time>2018-01-12T12:20:31Z</time>
      </trkpt>
      <trkpt lat="46.60146" lon="-1.654">
        <ele>49</ele>
        <time>2018-01-12T12:21:31Z</time>
      </trkpt>
      <trkpt lat="46.60149" lon="-1.65403">
        <ele>48</ele>
        <time>2018-01-12T12:22:31Z</time>
      </trkpt>
      <trkpt lat="46.60156" lon="-1.65411">
        <ele>48</ele>
        <time>2018-01-12T12:23:31Z</time>
      </trkpt>
      <trkpt lat="46.60157" lon="-1.65412">
        <ele>48</ele>
        <time>2018-01-12T12:24:31Z</time>
      </trkpt>
      <trkpt lat="46.60166" lon="-1.65426">
        <ele>48</ele>
        <time>2018-01-12T12:25:31Z</time>
      </trkpt>
      <trkpt lat="46.60178" lon="-1.65435">
        <ele>48</ele>
        <time>2018-01-12T12:26:31Z</time>
      </trkpt>
      <trkpt lat="46.60183" lon="-1.65439">
        <ele>48</ele>
        <time>2018-01-12T12:27:31Z</time>
      </trkpt>
      <trkpt lat="46.60186" lon="-1.65441">
        <ele>48</ele>
        <time>2018-01-12T12:28:31Z</time>
      </trkpt>
      <trkpt lat="46.60196" lon="-1.65444">
        <ele>48</ele>
        <time>2018-01-12T12:29:31Z</time>
      </trkpt>
      <trkpt lat="46.60196" lon="-1.65444">
        <ele>48</ele>
        <time>2018-01-12T12:30:31Z</time>
      </trkpt>
      <trkpt lat="46.60198" lon="-1.65443">
        <ele>48</ele>
        <time>2018-01-12T12:31:31Z</time>
      </trkpt>
      <trkpt lat="46.602" lon="-1.65442">
        <ele>48</ele>
        <time>2018-01-12T12:32:31Z</time>
      </trkpt>
      <trkpt lat="46.60202" lon="-1.65441">
        <ele>49</ele>
        <time>2018-01-12T12:33:31Z</time>
      </trkpt>
      <trkpt lat="46.60203" lon="-1.6544">
        <ele>49</ele>
        <time>2018-01-12T12:34:31Z</time>
      </trkpt>
      <trkpt lat="46.60205" lon="-1.6544">
        <ele>49</ele>
        <time>2018-01-12T12:35:31Z</time>
      </trkpt>
      <trkpt lat="46.60207" lon="-1.65439">
        <ele>49</ele>
        <time>2018-01-12T12:36:31Z</time>
      </trkpt>
      <trkpt lat="46.60209" lon="-1.65439">
        <ele>49</ele>
        <time>2018-01-12T12:37:31Z</time>
      </trkpt>
      <trkpt lat="46.6021" lon="-1.65439">
        <ele>49</ele>
        <time>2018-01-12T12:38:31Z</time>
      </trkpt>
      <trkpt lat="46.60212" lon="-1.65439">
        <ele>49</ele>
        <time>2018-01-12T12:39:31Z</time>
      </trkpt>
      <trkpt lat="46.60213" lon="-1.65439">
        <ele>49</ele>
        <time>2018-01-12T12:40:31Z</time>
      </trkpt>
      <trkpt lat="46.60215" lon="-1.65439">
        <ele>49</ele>
        <time>2018-01-12T12:41:31Z</time>
      </trkpt>
      <trkpt lat="46.60216" lon="-1.65439">
        <ele>49</ele>
        <time>2018-01-12T12:42:31Z</time>
      </trkpt>
      <trkpt lat="46.60218" lon="-1.6544">
        <ele>49</ele>
        <time>2018-01-12T12:43:31Z</time>
      </trkpt>
      <trkpt lat="46.60219" lon="-1.6544">
        <ele>49</ele>
        <time>2018-01-12T12:44:31Z</time>
      </trkpt>
      <trkpt lat="46.60221" lon="-1.65441">
        <ele>49</ele>
        <time>2018-01-12T12:45:31Z</time>
      </trkpt>
      <trkpt lat="46.60222" lon="-1.65442">
        <ele>49</ele>
        <time>2018-01-12T12:46:31Z</time>
      </trkpt>
      <trkpt lat="46.60223" lon="-1.65442">
        <ele>49</ele>
        <time>2018-01-12T12:47:31Z</time>
      </trkpt>
      <trkpt lat="46.60223" lon="-1.65443">
        <ele>49</ele>
        <time>2018-01-12T12:48:31Z</time>
      </trkpt>
      <trkpt lat="46.60224" lon="-1.65444">
        <ele>49</ele>
        <time>2018-01-12T12:49:31Z</time>
      </trkpt>
      <trkpt lat="46.60225" lon="-1.65444">
        <ele>49</ele>
        <time>2018-01-12T12:50:31Z</time>
      </trkpt>
      <trkpt lat="46.60225" lon="-1.65445">
        <ele>49</ele>
        <time>2018-01-12T12:51:31Z</time>
      </trkpt>
      <trkpt lat="46.60226" lon="-1.65446">
        <ele>49</ele>
        <time>2018-01-12T12:52:31Z</time>
      </trkpt>
      <trkpt lat="46.60227" lon="-1.65447">
        <ele>49</ele>
        <time>2018-01-12T12:53:31Z</time>
      </trkpt>
      <trkpt lat="46.60229" lon="-1.65451">
        <ele>49</ele>
        <time>2018-01-12T12:54:31Z</time>
      </trkpt>
      <trkpt lat="46.60231" lon="-1.65455">
        <ele>49</ele>
        <time>2018-01-12T12:55:31Z</time>
      </trkpt>
      <trkpt lat="46.60232" lon="-1.6546">
        <ele>49</ele>
        <time>2018-01-12T12:56:31Z</time>
      </trkpt>
      <trkpt lat="46.60234" lon="-1.65465">
        <ele>49</ele>
        <time>2018-01-12T12:57:31Z</time>
      </trkpt>
      <trkpt lat="46.60234" lon="-1.6547">
        <ele>49</ele>
        <time>2018-01-12T12:58:31Z</time>
      </trkpt>
      <trkpt lat="46.60235" lon="-1.65475">
        <ele>49</ele>
        <time>2018-01-12T12:59:31Z</time>
      </trkpt>
      <trkpt lat="46.60234" lon="-1.6548">
        <ele>49</ele>
        <time>2018-01-12T13:00:31Z</time>
      </trkpt>
      <trkpt lat="46.60234" lon="-1.65485">
        <ele>49</ele>
        <time>2018-01-12T13:01:31Z</time>
      </trkpt>
      <trkpt lat="46.60236" lon="-1.65495">
        <ele>49</ele>
        <time>2018-01-12T13:02:31Z</time>
      </trkpt>
      <trkpt lat="46.60237" lon="-1.655">
        <ele>49</ele>
        <time>2018-01-12T13:03:31Z</time>
      </trkpt>
      <trkpt lat="46.60239" lon="-1.65507">
        <ele>49</ele>
        <time>2018-01-12T13:04:31Z</time>
      </trkpt>
      <trkpt lat="46.60241" lon="-1.65513">
        <ele>48</ele>
        <time>2018-01-12T13:05:31Z</time>
      </trkpt>
      <trkpt lat="46.60246" lon="-1.65518">
        <ele>48</ele>
        <time>2018-01-12T13:06:31Z</time>
      </trkpt>
      <trkpt lat="46.60255" lon="-1.6553">
        <ele>48</ele>
        <time>2018-01-12T13:07:31Z</time>
      </trkpt>
      <trkpt lat="46.60256" lon="-1.65531">
        <ele>48</ele>
        <time>2018-01-12T13:08:31Z</time>
      </trkpt>
      <trkpt lat="46.60257" lon="-1.65532">
        <ele>48</ele>
        <time>2018-01-12T13:09:31Z</time>
      </trkpt>
      <trkpt lat="46.60264" lon="-1.6554">
        <ele>48</ele>
        <time>2018-01-12T13:10:31Z</time>
      </trkpt>
      <trkpt lat="46.60266" lon="-1.65542">
        <ele>48</ele>
        <time>2018-01-12T13:11:31Z</time>
      </trkpt>
      <trkpt lat="46.60269" lon="-1.65546">
        <ele>48</ele>
        <time>2018-01-12T13:12:31Z</time>
      </trkpt>
      <trkpt lat="46.6027" lon="-1.65548">
        <ele>48</ele>
        <time>2018-01-12T13:13:31Z</time>
      </trkpt>
      <trkpt lat="46.60274" lon="-1.65552">
        <ele>47</ele>
        <time>2018-01-12T13:14:31Z</time>
      </trkpt>
      <trkpt lat="46.60276" lon="-1.65554">
        <ele>47</ele>
        <time>2018-01-12T13:15:31Z</time>
      </trkpt>
      <trkpt lat="46.60278" lon="-1.65556">
        <ele>47</ele>
        <time>2018-01-12T13:16:31Z</time>
      </trkpt>
      <trkpt lat="46.60284" lon="-1.65562">
        <ele>47</ele>
        <time>2018-01-12T13:17:31Z</time>
      </trkpt>
      <trkpt lat="46.60289" lon="-1.65568">
        <ele>47</ele>
        <time>2018-01-12T13:18:31Z</time>
      </trkpt>
      <trkpt lat="46.60296" lon="-1.65577">
        <ele>47</ele>
        <time>2018-01-12T13:19:31Z</time>
      </trkpt>
      <trkpt lat="46.603" lon="-1.65584">
        <ele>47</ele>
        <time>2018-01-12T13:20:31Z</time>
      </trkpt>
      <trkpt lat="46.60305" lon="-1.65592">
        <ele>47</ele>
        <time>2018-01-12T13:21:31Z</time>
      </trkpt>
      <trkpt lat="46.6031" lon="-1.65601">
        <ele>47</ele>
        <time>2018-01-12T13:22:31Z</time>
      </trkpt>
      <trkpt lat="46.60313" lon="-1.65607">
        <ele>47</ele>
        <time>2018-01-12T13:23:31Z</time>
      </trkpt>
      <trkpt lat="46.60315" lon="-1.65613">
        <ele>47</ele>
        <time>2018-01-12T13:24:31Z</time>
      </trkpt>
      <trkpt lat="46.60322" lon="-1.6562">
        <ele>47</ele>
        <time>2018-01-12T13:25:31Z</time>
      </trkpt>
      <trkpt lat="46.60328" lon="-1.65634">
        <ele>47</ele>
        <time>2018-01-12T13:26:31Z</time>
      </trkpt>
      <trkpt lat="46.60333" lon="-1.65641">
        <ele>47</ele>
        <time>2018-01-12T13:27:31Z</time>
      </trkpt>
      <trkpt lat="46.6034" lon="-1.65647">
        <ele>47</ele>
        <time>2018-01-12T13:28:31Z</time>
      </trkpt>
      <trkpt lat="46.6034" lon="-1.65647">
        <ele>47</ele>
        <time>2018-01-12T13:29:31Z</time>
      </trkpt>
      <trkpt lat="46.60341" lon="-1.65647">
        <ele>47</ele>
        <time>2018-01-12T13:30:31Z</time>
      </trkpt>
      <trkpt lat="46.60342" lon="-1.65646">
        <ele>47</ele>
        <time>2018-01-12T13:31:31Z</time>
      </trkpt>
      <trkpt lat="46.60343" lon="-1.65646">
        <ele>47</ele>
        <time>2018-01-12T13:32:31Z</time>
      </trkpt>
      <trkpt lat="46.60344" lon="-1.65646">
        <ele>47</ele>
        <time>2018-01-12T13:33:31Z</time>
      </trkpt>
      <trkpt lat="46.60345" lon="-1.65645">
        <ele>47</ele>
        <time>2018-01-12T13:34:31Z</time>
      </trkpt>
      <trkpt lat="46.60346" lon="-1.65645">
        <ele>47</ele>
        <time>2018-01-12T13:35:31Z</time>
      </trkpt>
      <trkpt lat="46.60347" lon="-1.65645">
        <ele>47</ele>
        <time>2018-01-12T13:36:31Z</time>
      </trkpt>
      <trkpt lat="46.6035" lon="-1.65645">
        <ele>47</ele>
        <time>2018-01-12T13:37:31Z</time>
      </trkpt>
      <trkpt lat="46.60351" lon="-1.65646">
        <ele>47</ele>
        <time>2018-01-12T13:38:31Z</time>
      </trkpt>
      <trkpt lat="46.60353" lon="-1.65646">
        <ele>47</ele>
        <time>2018-01-12T13:39:31Z</time>
      </trkpt>
      <trkpt lat="46.60354" lon="-1.65647">
        <ele>47</ele>
        <time>2018-01-12T13:40:31Z</time>
      </trkpt>
      <trkpt lat="46.60356" lon="-1.65648">
        <ele>47</ele>
        <time>2018-01-12T13:41:31Z</time>
      </trkpt>
      <trkpt lat="46.60357" lon="-1.65649">
        <ele>47</ele>
        <time>2018-01-12T13:42:31Z</time>
      </trkpt>
      <trkpt lat="46.60359" lon="-1.6565">
        <ele>47</ele>
        <time>2018-01-12T13:43:31Z</time>
      </trkpt>
      <trkpt lat="46.6036" lon="-1.65652">
        <ele>47</ele>
        <time>2018-01-12T13:44:31Z</time>
      </trkpt>
      <trkpt lat="46.60361" lon="-1.65653">
        <ele>47</ele>
        <time>2018-01-12T13:45:31Z</time>
      </trkpt>
      <trkpt lat="46.60362" lon="-1.65655">
        <ele>47</ele>
        <time>2018-01-12T13:46:31Z</time>
      </trkpt>
      <trkpt lat="46.60363" lon="-1.65657">
        <ele>47</ele>
        <time>2018-01-12T13:47:31Z</time>
      </trkpt>
      <trkpt lat="46.60364" lon="-1.65659">
        <ele>47</ele>
        <time>2018-01-12T13:48:31Z</time>
      </trkpt>
      <trkpt lat="46.60365" lon="-1.65661">
        <ele>47</ele>
        <time>2018-01-12T13:49:31Z</time>
      </trkpt>
      <trkpt lat="46.60365" lon="-1.65663">
        <ele>47</ele>
        <time>2018-01-12T13:50:31Z</time>
      </trkpt>
      <trkpt lat="46.60366" lon="-1.65665">
        <ele>47</ele>
        <time>2018-01-12T13:51:31Z</time>
      </trkpt>
      <trkpt lat="46.60366" lon="-1.65667">
        <ele>47</ele>
        <time>2018-01-12T13:52:31Z</time>
      </trkpt>
      <trkpt lat="46.60376" lon="-1.65674">
        <ele>47</ele>
        <time>2018-01-12T13:53:31Z</time>
      </trkpt>
      <trkpt lat="46.60384" lon="-1.65678">
        <ele>48</ele>
        <time>2018-01-12T13:54:31Z</time>
      </trkpt>
      <trkpt lat="46.60405" lon="-1.65689">
        <ele>48</ele>
        <time>2018-01-12T13:55:31Z</time>
      </trkpt>
      <trkpt lat="46.60417" lon="-1.65698">
        <ele>48</ele>
        <time>2018-01-12T13:56:31Z</time>
      </trkpt>
      <trkpt lat="46.60431" lon="-1.65709">
        <ele>48</ele>
        <time>2018-01-12T13:57:31Z</time>
      </trkpt>
      <trkpt lat="46.60435" lon="-1.65712">
        <ele>48</ele>
        <time>2018-01-12T13:58:31Z</time>
      </trkpt>
      <trkpt lat="46.60439" lon="-1.65715">
        <ele>48</ele>
        <time>2018-01-12T13:59:31Z</time>
      </trkpt>
      <trkpt lat="46.60466" lon="-1.65736">
        <ele>48</ele>
        <time>2018-01-12T14:00:31Z</time>
      </trkpt>
      <trkpt lat="46.60472" lon="-1.6574">
        <ele>48</ele>
        <time>2018-01-12T14:01:31Z</time>
      </trkpt>
      <trkpt lat="46.60509" lon="-1.65764">
        <ele>48</ele>
        <time>2018-01-12T14:02:31Z</time>
      </trkpt>
      <trkpt lat="46.6051" lon="-1.65766">
        <ele>48</ele>
        <time>2018-01-12T14:03:31Z</time>
      </trkpt>
      <trkpt lat="46.60516" lon="-1.65774">
        <ele>48</ele>
        <time>2018-01-12T14:04:31Z</time>
      </trkpt>
      <trkpt lat="46.6052" lon="-1.65783">
        <ele>48</ele>
        <time>2018-01-12T14:05:31Z</time>
      </trkpt>
      <trkpt lat="46.60523" lon="-1.6579">
        <ele>48</ele>
        <time>2018-01-12T14:06:31Z</time>
      </trkpt>
      <trkpt lat="46.60523" lon="-1.65794">
        <ele>48</ele>
        <time>2018-01-12T14:07:31Z</time>
      </trkpt>
      <trkpt lat="46.60524" lon="-1.65805">
        <ele>48</ele>
        <time>2018-01-12T14:08:31Z</time>
      </trkpt>
      <trkpt lat="46.60524" lon="-1.65812">
        <ele>48</ele>
        <time>2018-01-12T14:09:31Z</time>
      </trkpt>
      <trkpt lat="46.60523" lon="-1.65815">
        <ele>47</ele>
        <time>2018-01-12T14:10:31Z</time>
      </trkpt>
      <trkpt lat="46.60523" lon="-1.65817">
        <ele>47</ele>
        <time>2018-01-12T14:11:31Z</time>
      </trkpt>
      <trkpt lat="46.60522" lon="-1.6582">
        <ele>47</ele>
        <time>2018-01-12T14:12:31Z</time>
      </trkpt>
      <trkpt lat="46.60519" lon="-1.6583">
        <ele>47</ele>
        <time>2018-01-12T14:13:31Z</time>
      </trkpt>
      <trkpt lat="46.60518" lon="-1.65832">
        <ele>47</ele>
        <time>2018-01-12T14:14:31Z</time>
      </trkpt>
      <trkpt lat="46.60518" lon="-1.65834">
        <ele>47</ele>
        <time>2018-01-12T14:15:31Z</time>
      </trkpt>
      <trkpt lat="46.60511" lon="-1.65857">
        <ele>47</ele>
        <time>2018-01-12T14:16:31Z</time>
      </trkpt>
      <trkpt lat="46.60508" lon="-1.65868">
        <ele>47</ele>
        <time>2018-01-12T14:17:31Z</time>
      </trkpt>
      <trkpt lat="46.60502" lon="-1.65888">
        <ele>47</ele>
        <time>2018-01-12T14:18:31Z</time>
      </trkpt>
      <trkpt lat="46.605" lon="-1.65894">
        <ele>47</ele>
        <time>2018-01-12T14:19:31Z</time>
      </trkpt>
      <trkpt lat="46.60488" lon="-1.6594">
        <ele>47</ele>
        <time>2018-01-12T14:20:31Z</time>
      </trkpt>
      <trkpt lat="46.60486" lon="-1.65951">
        <ele>47</ele>
        <time>2018-01-12T14:21:31Z</time>
      </trkpt>
      <trkpt lat="46.60482" lon="-1.65966">
        <ele>47</ele>
        <time>2018-01-12T14:22:31Z</time>
      </trkpt>
      <trkpt lat="46.6048" lon="-1.65975">
        <ele>47</ele>
        <time>2018-01-12T14:23:31Z</time>
      </trkpt>
      <trkpt lat="46.60472" lon="-1.66006">
        <ele>46</ele>
        <time>2018-01-12T14:24:31Z</time>
      </trkpt>
      <trkpt lat="46.60466" lon="-1.66029">
        <ele>46</ele>
        <time>2018-01-12T14:25:31Z</time>
      </trkpt>
      <trkpt lat="46.60457" lon="-1.66064">
        <ele>46</ele>
        <time>2018-01-12T14:26:31Z</time>
      </trkpt>
      <trkpt lat="46.6046" lon="-1.66066">
        <ele>46</ele>
        <time>2018-01-12T14:27:31Z</time>
      </trkpt>
      <trkpt lat="46.60462" lon="-1.66069">
        <ele>46</ele>
        <time>2018-01-12T14:28:31Z</time>
      </trkpt>
      <trkpt lat="46.60464" lon="-1.66072">
        <ele>46</ele>
        <time>2018-01-12T14:29:31Z</time>
      </trkpt>
      <trkpt lat="46.60465" lon="-1.66074">
        <ele>46</ele>
        <time>2018-01-12T14:30:31Z</time>
      </trkpt>
      <trkpt lat="46.60465" lon="-1.66081">
        <ele>46</ele>
        <time>2018-01-12T14:31:31Z</time>
      </trkpt>
      <trkpt lat="46.60465" lon="-1.66088">
        <ele>46</ele>
        <time>2018-01-12T14:32:31Z</time>
      </trkpt>
      <trkpt lat="46.60464" lon="-1.66091">
        <ele>46</ele>
        <time>2018-01-12T14:33:31Z</time>
      </trkpt>
      <trkpt lat="46.60463" lon="-1.66094">
        <ele>46</ele>
        <time>2018-01-12T14:34:31Z</time>
      </trkpt>
      <trkpt lat="46.60462" lon="-1.66097">
        <ele>46</ele>
        <time>2018-01-12T14:35:31Z</time>
      </trkpt>
      <trkpt lat="46.6046" lon="-1.66099">
        <ele>46</ele>
        <time>2018-01-12T14:36:31Z</time>
      </trkpt>
      <trkpt lat="46.60458" lon="-1.66102">
        <ele>46</ele>
        <time>2018-01-12T14:37:31Z</time>
      </trkpt>
      <trkpt lat="46.60456" lon="-1.66103">
        <ele>46</ele>
        <time>2018-01-12T14:38:31Z</time>
      </trkpt>
      <trkpt lat="46.60452" lon="-1.66104">
        <ele>46</ele>
        <time>2018-01-12T14:39:31Z</time>
      </trkpt>
      <trkpt lat="46.60448" lon="-1.66103">
        <ele>46</ele>
        <time>2018-01-12T14:40:31Z</time>
      </trkpt>
      <trkpt lat="46.60446" lon="-1.6612">
        <ele>46</ele>
        <time>2018-01-12T14:41:31Z</time>
      </trkpt>
      <trkpt lat="46.60446" lon="-1.66127">
        <ele>46</ele>
        <time>2018-01-12T14:42:31Z</time>
      </trkpt>
      <trkpt lat="46.60447" lon="-1.66137">
        <ele>46</ele>
        <time>2018-01-12T14:43:31Z</time>
      </trkpt>
      <trkpt lat="46.60448" lon="-1.66142">
        <ele>46</ele>
        <time>2018-01-12T14:44:31Z</time>
      </trkpt>
      <trkpt lat="46.60449" lon="-1.66147">
        <ele>46</ele>
        <time>2018-01-12T14:45:31Z</time>
      </trkpt>
      <trkpt lat="46.6045" lon="-1.6615">
        <ele>46</ele>
        <time>2018-01-12T14:46:31Z</time>
      </trkpt>
      <trkpt lat="46.60451" lon="-1.66152">
        <ele>46</ele>
        <time>2018-01-12T14:47:31Z</time>
      </trkpt>
      <trkpt lat="46.60452" lon="-1.66154">
        <ele>46</ele>
        <time>2018-01-12T14:48:31Z</time>
      </trkpt>
      <trkpt lat="46.60464" lon="-1.66177">
        <ele>47</ele>
        <time>2018-01-12T14:49:31Z</time>
      </trkpt>
      <trkpt lat="46.60466" lon="-1.66182">
        <ele>47</ele>
        <time>2018-01-12T14:50:31Z</time>
      </trkpt>
      <trkpt lat="46.60479" lon="-1.66205">
        <ele>47</ele>
        <time>2018-01-12T14:51:31Z</time>
      </trkpt>
      <trkpt lat="46.60489" lon="-1.66223">
        <ele>48</ele>
        <time>2018-01-12T14:52:31Z</time>
      </trkpt>
      <trkpt lat="46.60497" lon="-1.66236">
        <ele>48</ele>
        <time>2018-01-12T14:53:31Z</time>
      </trkpt>
      <trkpt lat="46.60504" lon="-1.66247">
        <ele>48</ele>
        <time>2018-01-12T14:54:31Z</time>
      </trkpt>
      <trkpt lat="46.60515" lon="-1.66265">
        <ele>48</ele>
        <time>2018-01-12T14:55:31Z</time>
      </trkpt>
      <trkpt lat="46.60521" lon="-1.66276">
        <ele>48</ele>
        <time>2018-01-12T14:56:31Z</time>
      </trkpt>
      <trkpt lat="46.60528" lon="-1.66287">
        <ele>49</ele>
        <time>2018-01-12T14:57:31Z</time>
      </trkpt>
      <trkpt lat="46.60537" lon="-1.66301">
        <ele>49</ele>
        <time>2018-01-12T14:58:31Z</time>
      </trkpt>
      <trkpt lat="46.60542" lon="-1.66314">
        <ele>49</ele>
        <time>2018-01-12T14:59:31Z</time>
      </trkpt>
      <trkpt lat="46.60547" lon="-1.66326">
        <ele>49</ele>
        <time>2018-01-12T15:00:31Z</time>
      </trkpt>
      <trkpt lat="46.60549" lon="-1.66334">
        <ele>49</ele>
        <time>2018-01-12T15:01:31Z</time>
      </trkpt>
      <trkpt lat="46.6055" lon="-1.66338">
        <ele>49</ele>
        <time>2018-01-12T15:02:31Z</time>
      </trkpt>
      <trkpt lat="46.60553" lon="-1.66347">
        <ele>49</ele>
        <time>2018-01-12T15:03:31Z</time>
      </trkpt>
      <trkpt lat="46.60554" lon="-1.66354">
        <ele>49</ele>
        <time>2018-01-12T15:04:31Z</time>
      </trkpt>
      <trkpt lat="46.60555" lon="-1.66364">
        <ele>49</ele>
        <time>2018-01-12T15:05:31Z</time>
      </trkpt>
      <trkpt lat="46.60556" lon="-1.66375">
        <ele>49</ele>
        <time>2018-01-12T15:06:31Z</time>
      </trkpt>
      <trkpt lat="46.60556" lon="-1.66381">
        <ele>49</ele>
        <time>2018-01-12T15:07:31Z</time>
      </trkpt>
      <trkpt lat="46.60556" lon="-1.66388">
        <ele>49</ele>
        <time>2018-01-12T15:08:31Z</time>
      </trkpt>
      <trkpt lat="46.60556" lon="-1.66396">
        <ele>49</ele>
        <time>2018-01-12T15:09:31Z</time>
      </trkpt>
      <trkpt lat="46.60555" lon="-1.66407">
        <ele>49</ele>
        <time>2018-01-12T15:10:31Z</time>
      </trkpt>
      <trkpt lat="46.60555" lon="-1.66427">
        <ele>49</ele>
        <time>2018-01-12T15:11:31Z</time>
      </trkpt>
      <trkpt lat="46.60555" lon="-1.66427">
        <ele>49</ele>
        <time>2018-01-12T15:12:31Z</time>
      </trkpt>
      <trkpt lat="46.60558" lon="-1.66433">
        <ele>49</ele>
        <time>2018-01-12T15:13:31Z</time>
      </trkpt>
      <trkpt lat="46.60559" lon="-1.66437">
        <ele>49</ele>
        <time>2018-01-12T15:14:31Z</time>
      </trkpt>
      <trkpt lat="46.6056" lon="-1.66441">
        <ele>49</ele>
        <time>2018-01-12T15:15:31Z</time>
      </trkpt>
      <trkpt lat="46.60559" lon="-1.66446">
        <ele>49</ele>
        <time>2018-01-12T15:16:31Z</time>
      </trkpt>
      <trkpt lat="46.6056" lon="-1.66447">
        <ele>49</ele>
        <time>2018-01-12T15:17:31Z</time>
      </trkpt>
      <trkpt lat="46.60562" lon="-1.66449">
        <ele>49</ele>
        <time>2018-01-12T15:18:31Z</time>
      </trkpt>
      <trkpt lat="46.60564" lon="-1.66451">
        <ele>49</ele>
        <time>2018-01-12T15:19:31Z</time>
      </trkpt>
      <trkpt lat="46.60566" lon="-1.66453">
        <ele>49</ele>
        <time>2018-01-12T15:20:31Z</time>
      </trkpt>
      <trkpt lat="46.60568" lon="-1.66455">
        <ele>49</ele>
        <time>2018-01-12T15:21:31Z</time>
      </trkpt>
      <trkpt lat="46.6057" lon="-1.66458">
        <ele>49</ele>
        <time>2018-01-12T15:22:31Z</time>
      </trkpt>
      <trkpt lat="46.60571" lon="-1.6646">
        <ele>49</ele>
        <time>2018-01-12T15:23:31Z</time>
      </trkpt>
      <trkpt lat="46.60597" lon="-1.66474">
        <ele>49</ele>
        <time>2018-01-12T15:24:31Z</time>
      </trkpt>
      <trkpt lat="46.60608" lon="-1.66479">
        <ele>49</ele>
        <time>2018-01-12T15:25:31Z</time>
      </trkpt>
      <trkpt lat="46.60614" lon="-1.66483">
        <ele>49</ele>
        <time>2018-01-12T15:26:31Z</time>
      </trkpt>
      <trkpt lat="46.60621" lon="-1.66487">
        <ele>49</ele>
        <time>2018-01-12T15:27:31Z</time>
      </trkpt>
      <trkpt lat="46.60629" lon="-1.66491">
        <ele>49</ele>
        <time>2018-01-12T15:28:31Z</time>
      </trkpt>
      <trkpt lat="46.60636" lon="-1.66494">
        <ele>50</ele>
        <time>2018-01-12T15:29:31Z</time>
      </trkpt>
      <trkpt lat="46.60643" lon="-1.66498">
        <ele>50</ele>
        <time>2018-01-12T15:30:31Z</time>
      </trkpt>
      <trkpt lat="46.60651" lon="-1.66502">
        <ele>50</ele>
        <time>2018-01-12T15:31:31Z</time>
      </trkpt>
      <trkpt lat="46.60659" lon="-1.66506">
        <ele>50</ele>
        <time>2018-01-12T15:32:31Z</time>
      </trkpt>
      <trkpt lat="46.60667" lon="-1.6651">
        <ele>50</ele>
        <time>2018-01-12T15:33:31Z</time>
      </trkpt>
      <trkpt lat="46.60675" lon="-1.66514">
        <ele>49</ele>
        <time>2018-01-12T15:34:31Z</time>
      </trkpt>
      <trkpt lat="46.6076" lon="-1.66564">
        <ele>46</ele>
        <time>2018-01-12T15:35:31Z</time>
      </trkpt>
      <trkpt lat="46.6076" lon="-1.66564">
        <ele>46</ele>
        <time>2018-01-12T15:36:31Z</time>
      </trkpt>
      <trkpt lat="46.60762" lon="-1.66557">
        <ele>46</ele>
        <time>2018-01-12T15:37:31Z</time>
      </trkpt>
      <trkpt lat="46.60765" lon="-1.66552">
        <ele>46</ele>
        <time>2018-01-12T15:38:31Z</time>
      </trkpt>
      <trkpt lat="46.60768" lon="-1.66548">
        <ele>46</ele>
        <time>2018-01-12T15:39:31Z</time>
      </trkpt>
      <trkpt lat="46.60771" lon="-1.66545">
        <ele>46</ele>
        <time>2018-01-12T15:40:31Z</time>
      </trkpt>
      <trkpt lat="46.60776" lon="-1.66543">
        <ele>46</ele>
        <time>2018-01-12T15:41:31Z</time>
      </trkpt>
      <trkpt lat="46.60781" lon="-1.66542">
        <ele>45</ele>
        <time>2018-01-12T15:42:31Z</time>
      </trkpt>
      <trkpt lat="46.60785" lon="-1.66542">
        <ele>45</ele>
        <time>2018-01-12T15:43:31Z</time>
      </trkpt>
      <trkpt lat="46.6079" lon="-1.66545">
        <ele>45</ele>
        <time>2018-01-12T15:44:31Z</time>
      </trkpt>
      <trkpt lat="46.60794" lon="-1.66548">
        <ele>45</ele>
        <time>2018-01-12T15:45:31Z</time>
      </trkpt>
      <trkpt lat="46.60798" lon="-1.66554">
        <ele>45</ele>
        <time>2018-01-12T15:46:31Z</time>
      </trkpt>
      <trkpt lat="46.60801" lon="-1.6656">
        <ele>45</ele>
        <time>2018-01-12T15:47:31Z</time>
      </trkpt>
      <trkpt lat="46.60843" lon="-1.66518">
        <ele>44</ele>
        <time>2018-01-12T15:48:31Z</time>
      </trkpt>
      <trkpt lat="46.60876" lon="-1.66481">
        <ele>41</ele>
        <time>2018-01-12T15:49:31Z</time>
      </trkpt>
      <trkpt lat="46.60924" lon="-1.66427">
        <ele>40</ele>
        <time>2018-01-12T15:50:31Z</time>
      </trkpt>
      <trkpt lat="46.60948" lon="-1.66399">
        <ele>40</ele>
        <time>2018-01-12T15:51:31Z</time>
      </trkpt>
      <trkpt lat="46.60951" lon="-1.66396">
        <ele>40</ele>
        <time>2018-01-12T15:52:31Z</time>
      </trkpt>
      <trkpt lat="46.60963" lon="-1.66381">
        <ele>40</ele>
        <time>2018-01-12T15:53:31Z</time>
      </trkpt>
      <trkpt lat="46.60966" lon="-1.66377">
        <ele>40</ele>
        <time>2018-01-12T15:54:31Z</time>
      </trkpt>
      <trkpt lat="46.60969" lon="-1.66371">
        <ele>40</ele>
        <time>2018-01-12T15:55:31Z</time>
      </trkpt>
      <trkpt lat="46.60976" lon="-1.66361">
        <ele>40</ele>
        <time>2018-01-12T15:56:31Z</time>
      </trkpt>
      <trkpt lat="46.60979" lon="-1.66356">
        <ele>40</ele>
        <time>2018-01-12T15:57:31Z</time>
      </trkpt>
      <trkpt lat="46.60986" lon="-1.66349">
        <ele>40</ele>
        <time>2018-01-12T15:58:31Z</time>
      </trkpt>
      <trkpt lat="46.60991" lon="-1.66342">
        <ele>40</ele>
        <time>2018-01-12T15:59:31Z</time>
      </trkpt>
      <trkpt lat="46.60993" lon="-1.6634">
        <ele>40</ele>
        <time>2018-01-12T16:00:31Z</time>
      </trkpt>
      <trkpt lat="46.61014" lon="-1.66316">
        <ele>40</ele>
        <time>2018-01-12T16:01:31Z</time>
      </trkpt>
      <trkpt lat="46.61023" lon="-1.66307">
        <ele>40</ele>
        <time>2018-01-12T16:02:31Z</time>
      </trkpt>
      <trkpt lat="46.61035" lon="-1.66294">
        <ele>41</ele>
        <time>2018-01-12T16:03:31Z</time>
      </trkpt>
      <trkpt lat="46.61047" lon="-1.66283">
        <ele>41</ele>
        <time>2018-01-12T16:04:31Z</time>
      </trkpt>
      <trkpt lat="46.61056" lon="-1.66274">
        <ele>41</ele>
        <time>2018-01-12T16:05:31Z</time>
      </trkpt>
      <trkpt lat="46.61078" lon="-1.66258">
        <ele>41</ele>
        <time>2018-01-12T16:06:31Z</time>
      </trkpt>
      <trkpt lat="46.61078" lon="-1.66257">
        <ele>41</ele>
        <time>2018-01-12T16:07:31Z</time>
      </trkpt>
      <trkpt lat="46.61092" lon="-1.66247">
        <ele>41</ele>
        <time>2018-01-12T16:08:31Z</time>
      </trkpt>
      <trkpt lat="46.6111" lon="-1.66233">
        <ele>41</ele>
        <time>2018-01-12T16:09:31Z</time>
      </trkpt>
      <trkpt lat="46.61115" lon="-1.66232">
        <ele>41</ele>
        <time>2018-01-12T16:10:31Z</time>
      </trkpt>
      <trkpt lat="46.61133" lon="-1.66216">
        <ele>40</ele>
        <time>2018-01-12T16:11:31Z</time>
      </trkpt>
      <trkpt lat="46.61147" lon="-1.66206">
        <ele>40</ele>
        <time>2018-01-12T16:12:31Z</time>
      </trkpt>
      <trkpt lat="46.61149" lon="-1.66205">
        <ele>40</ele>
        <time>2018-01-12T16:13:31Z</time>
      </trkpt>
      <trkpt lat="46.6116" lon="-1.66196">
        <ele>40</ele>
        <time>2018-01-12T16:14:31Z</time>
      </trkpt>
      <trkpt lat="46.6117" lon="-1.66188">
        <ele>40</ele>
        <time>2018-01-12T16:15:31Z</time>
      </trkpt>
      <trkpt lat="46.61182" lon="-1.66179">
        <ele>40</ele>
        <time>2018-01-12T16:16:31Z</time>
      </trkpt>
      <trkpt lat="46.61192" lon="-1.66171">
        <ele>40</ele>
        <time>2018-01-12T16:17:31Z</time>
      </trkpt>
      <trkpt lat="46.61204" lon="-1.66161">
        <ele>40</ele>
        <time>2018-01-12T16:18:31Z</time>
      </trkpt>
      <trkpt lat="46.61214" lon="-1.66153">
        <ele>39</ele>
        <time>2018-01-12T16:19:31Z</time>
      </trkpt>
      <trkpt lat="46.61225" lon="-1.66143">
        <ele>39</ele>
        <time>2018-01-12T16:20:31Z</time>
      </trkpt>
      <trkpt lat="46.61236" lon="-1.66132">
        <ele>39</ele>
        <time>2018-01-12T16:21:31Z</time>
      </trkpt>
      <trkpt lat="46.61246" lon="-1.66121">
        <ele>39</ele>
        <time>2018-01-12T16:22:31Z</time>
      </trkpt>
      <trkpt lat="46.6126" lon="-1.66105">
        <ele>38</ele>
        <time>2018-01-12T16:23:31Z</time>
      </trkpt>
      <trkpt lat="46.6127" lon="-1.66094">
        <ele>38</ele>
        <time>2018-01-12T16:24:31Z</time>
      </trkpt>
      <trkpt lat="46.61306" lon="-1.66051">
        <ele>38</ele>
        <time>2018-01-12T16:25:31Z</time>
      </trkpt>
      <trkpt lat="46.61309" lon="-1.66043">
        <ele>38</ele>
        <time>2018-01-12T16:26:31Z</time>
      </trkpt>
      <trkpt lat="46.61343" lon="-1.66001">
        <ele>38</ele>
        <time>2018-01-12T16:27:31Z</time>
      </trkpt>
      <trkpt lat="46.61354" lon="-1.65988">
        <ele>38</ele>
        <time>2018-01-12T16:28:31Z</time>
      </trkpt>
      <trkpt lat="46.61361" lon="-1.6598">
        <ele>39</ele>
        <time>2018-01-12T16:29:31Z</time>
      </trkpt>
      <trkpt lat="46.61366" lon="-1.65974">
        <ele>39</ele>
        <time>2018-01-12T16:30:31Z</time>
      </trkpt>
      <trkpt lat="46.61404" lon="-1.6594">
        <ele>40</ele>
        <time>2018-01-12T16:31:31Z</time>
      </trkpt>
      <trkpt lat="46.61415" lon="-1.65936">
        <ele>40</ele>
        <time>2018-01-12T16:32:31Z</time>
      </trkpt>
      <trkpt lat="46.61421" lon="-1.65934">
        <ele>40</ele>
        <time>2018-01-12T16:33:31Z</time>
      </trkpt>
      <trkpt lat="46.61433" lon="-1.6593">
        <ele>40</ele>
        <time>2018-01-12T16:34:31Z</time>
      </trkpt>
      <trkpt lat="46.61439" lon="-1.65928">
        <ele>40</ele>
        <time>2018-01-12T16:35:31Z</time>
      </trkpt>
      <trkpt lat="46.61444" lon="-1.65926">
        <ele>40</ele>
        <time>2018-01-12T16:36:31Z</time>
      </trkpt>
      <trkpt lat="46.61453" lon="-1.65927">
        <ele>40</ele>
        <time>2018-01-12T16:37:31Z</time>
      </trkpt>
      <trkpt lat="46.6147" lon="-1.65922">
        <ele>40</ele>
        <time>2018-01-12T16:38:31Z</time>
      </trkpt>
      <trkpt lat="46.61493" lon="-1.65916">
        <ele>40</ele>
        <time>2018-01-12T16:39:31Z</time>
      </trkpt>
      <trkpt lat="46.61511" lon="-1.6591">
        <ele>40</ele>
        <time>2018-01-12T16:40:31Z</time>
      </trkpt>
      <trkpt lat="46.61516" lon="-1.65909">
        <ele>39</ele>
        <time>2018-01-12T16:41:31Z</time>
      </trkpt>
      <trkpt lat="46.61525" lon="-1.65907">
        <ele>39</ele>
        <time>2018-01-12T16:42:31Z</time>
      </trkpt>
      <trkpt lat="46.61541" lon="-1.65901">
        <ele>39</ele>
        <time>2018-01-12T16:43:31Z</time>
      </trkpt>
      <trkpt lat="46.61574" lon="-1.65889">
        <ele>38</ele>
        <time>2018-01-12T16:44:31Z</time>
      </trkpt>
      <trkpt lat="46.61583" lon="-1.65886">
        <ele>37</ele>
        <time>2018-01-12T16:45:31Z</time>
      </trkpt>
      <trkpt lat="46.61586" lon="-1.65884">
        <ele>37</ele>
        <time>2018-01-12T16:46:31Z</time>
      </trkpt>
      <trkpt lat="46.61608" lon="-1.65875">
        <ele>38</ele>
        <time>2018-01-12T16:47:31Z</time>
      </trkpt>
      <trkpt lat="46.61613" lon="-1.65869">
        <ele>38</ele>
        <time>2018-01-12T16:48:31Z</time>
      </trkpt>
      <trkpt lat="46.61627" lon="-1.65864">
        <ele>38</ele>
        <time>2018-01-12T16:49:31Z</time>
      </trkpt>
      <trkpt lat="46.61662" lon="-1.65852">
        <ele>38</ele>
        <time>2018-01-12T16:50:31Z</time>
      </trkpt>
      <trkpt lat="46.61665" lon="-1.65851">
        <ele>38</ele>
        <time>2018-01-12T16:51:31Z</time>
      </trkpt>
      <trkpt lat="46.61674" lon="-1.65848">
        <ele>38</ele>
        <time>2018-01-12T16:52:31Z</time>
      </trkpt>
      <trkpt lat="46.61689" lon="-1.65842">
        <ele>37</ele>
        <time>2018-01-12T16:53:31Z</time>
      </trkpt>
      <trkpt lat="46.6171" lon="-1.65838">
        <ele>36</ele>
        <time>2018-01-12T16:54:31Z</time>
      </trkpt>
      <trkpt lat="46.6171" lon="-1.65836">
        <ele>36</ele>
        <time>2018-01-12T16:55:31Z</time>
      </trkpt>
      <trkpt lat="46.61711" lon="-1.65834">
        <ele>36</ele>
        <time>2018-01-12T16:56:31Z</time>
      </trkpt>
      <trkpt lat="46.61712" lon="-1.65833">
        <ele>36</ele>
        <time>2018-01-12T16:57:31Z</time>
      </trkpt>
      <trkpt lat="46.61713" lon="-1.65832">
        <ele>36</ele>
        <time>2018-01-12T16:58:31Z</time>
      </trkpt>
      <trkpt lat="46.61715" lon="-1.65831">
        <ele>36</ele>
        <time>2018-01-12T16:59:31Z</time>
      </trkpt>
      <trkpt lat="46.61717" lon="-1.65831">
        <ele>36</ele>
        <time>2018-01-12T17:00:31Z</time>
      </trkpt>
      <trkpt lat="46.61719" lon="-1.65832">
        <ele>35</ele>
        <time>2018-01-12T17:01:31Z</time>
      </trkpt>
      <trkpt lat="46.61722" lon="-1.65833">
        <ele>35</ele>
        <time>2018-01-12T17:02:31Z</time>
      </trkpt>
      <trkpt lat="46.61723" lon="-1.65834">
        <ele>35</ele>
        <time>2018-01-12T17:03:31Z</time>
      </trkpt>
      <trkpt lat="46.61741" lon="-1.65826">
        <ele>34</ele>
        <time>2018-01-12T17:04:31Z</time>
      </trkpt>
      <trkpt lat="46.61756" lon="-1.65817">
        <ele>34</ele>
        <time>2018-01-12T17:05:31Z</time>
      </trkpt>
      <trkpt lat="46.61776" lon="-1.65807">
        <ele>34</ele>
        <time>2018-01-12T17:06:31Z</time>
      </trkpt>
      <trkpt lat="46.61784" lon="-1.65804">
        <ele>34</ele>
        <time>2018-01-12T17:07:31Z</time>
      </trkpt>
      <trkpt lat="46.61795" lon="-1.65801">
        <ele>33</ele>
        <time>2018-01-12T17:08:31Z</time>
      </trkpt>
      <trkpt lat="46.6181" lon="-1.65797">
        <ele>33</ele>
        <time>2018-01-12T17:09:31Z</time>
      </trkpt>
      <trkpt lat="46.61814" lon="-1.65796">
        <ele>33</ele>
        <time>2018-01-12T17:10:31Z</time>
      </trkpt>
      <trkpt lat="46.61826" lon="-1.65793">
        <ele>33</ele>
        <time>2018-01-12T17:11:31Z</time>
      </trkpt>
      <trkpt lat="46.61837" lon="-1.6579">
        <ele>33</ele>
        <time>2018-01-12T17:12:31Z</time>
      </trkpt>
      <trkpt lat="46.61874" lon="-1.65781">
        <ele>33</ele>
        <time>2018-01-12T17:13:31Z</time>
      </trkpt>
      <trkpt lat="46.61883" lon="-1.65778">
        <ele>32</ele>
        <time>2018-01-12T17:14:31Z</time>
      </trkpt>
      <trkpt lat="46.61892" lon="-1.65776">
        <ele>32</ele>
        <time>2018-01-12T17:15:31Z</time>
      </trkpt>
      <trkpt lat="46.61899" lon="-1.65773">
        <ele>32</ele>
        <time>2018-01-12T17:16:31Z</time>
      </trkpt>
      <trkpt lat="46.61906" lon="-1.6577">
        <ele>32</ele>
        <time>2018-01-12T17:17:31Z</time>
      </trkpt>
      <trkpt lat="46.61922" lon="-1.65762">
        <ele>32</ele>
        <time>2018-01-12T17:18:31Z</time>
      </trkpt>
      <trkpt lat="46.61933" lon="-1.65755">
        <ele>32</ele>
        <time>2018-01-12T17:19:31Z</time>
      </trkpt>
      <trkpt lat="46.61944" lon="-1.65749">
        <ele>32</ele>
        <time>2018-01-12T17:20:31Z</time>
      </trkpt>
      <trkpt lat="46.61947" lon="-1.65747">
        <ele>32</ele>
        <time>2018-01-12T17:21:31Z</time>
      </trkpt>
      <trkpt lat="46.6195" lon="-1.65746">
        <ele>32</ele>
        <time>2018-01-12T17:22:31Z</time>
      </trkpt>
      <trkpt lat="46.61952" lon="-1.65745">
        <ele>32</ele>
        <time>2018-01-12T17:23:31Z</time>
      </trkpt>
      <trkpt lat="46.61957" lon="-1.65744">
        <ele>32</ele>
        <time>2018-01-12T17:24:31Z</time>
      </trkpt>
      <trkpt lat="46.61962" lon="-1.65744">
        <ele>32</ele>
        <time>2018-01-12T17:25:31Z</time>
      </trkpt>
      <trkpt lat="46.61966" lon="-1.65746">
        <ele>32</ele>
        <time>2018-01-12T17:26:31Z</time>
      </trkpt>
      <trkpt lat="46.61996" lon="-1.65759">
        <ele>32</ele>
        <time>2018-01-12T17:27:31Z</time>
      </trkpt>
      <trkpt lat="46.62024" lon="-1.65773">
        <ele>31</ele>
        <time>2018-01-12T17:28:31Z</time>
      </trkpt>
      <trkpt lat="46.62024" lon="-1.65773">
        <ele>31</ele>
        <time>2018-01-12T17:29:31Z</time>
      </trkpt>
      <trkpt lat="46.62024" lon="-1.65772">
        <ele>31</ele>
        <time>2018-01-12T17:30:31Z</time>
      </trkpt>
      <trkpt lat="46.62024" lon="-1.65771">
        <ele>31</ele>
        <time>2018-01-12T17:31:31Z</time>
      </trkpt>
      <trkpt lat="46.62024" lon="-1.6577">
        <ele>31</ele>
        <time>2018-01-12T17:32:31Z</time>
      </trkpt>
      <trkpt lat="46.62025" lon="-1.6577">
        <ele>31</ele>
        <time>2018-01-12T17:33:31Z</time>
      </trkpt>
      <trkpt lat="46.62025" lon="-1.65769">
        <ele>31</ele>
        <time>2018-01-12T17:34:31Z</time>
      </trkpt>
      <trkpt lat="46.62026" lon="-1.65769">
        <ele>31</ele>
        <time>2018-01-12T17:35:31Z</time>
      </trkpt>
      <trkpt lat="46.62026" lon="-1.65768">
        <ele>31</ele>
        <time>2018-01-12T17:36:31Z</time>
      </trkpt>
      <trkpt lat="46.62027" lon="-1.65768">
        <ele>31</ele>
        <time>2018-01-12T17:37:31Z</time>
      </trkpt>
      <trkpt lat="46.62028" lon="-1.65768">
        <ele>31</ele>
        <time>2018-01-12T17:38:31Z</time>
      </trkpt>
      <trkpt lat="46.62029" lon="-1.65768">
        <ele>31</ele>
        <time>2018-01-12T17:39:31Z</time>
      </trkpt>
      <trkpt lat="46.6203" lon="-1.65768">
        <ele>31</ele>
        <time>2018-01-12T17:40:31Z</time>
      </trkpt>
      <trkpt lat="46.6203" lon="-1.65769">
        <ele>31</ele>
        <time>2018-01-12T17:41:31Z</time>
      </trkpt>
      <trkpt lat="46.62031" lon="-1.65769">
        <ele>31</ele>
        <time>2018-01-12T17:42:31Z</time>
      </trkpt>
      <trkpt lat="46.62031" lon="-1.6577">
        <ele>31</ele>
        <time>2018-01-12T17:43:31Z</time>
      </trkpt>
      <trkpt lat="46.62031" lon="-1.65771">
        <ele>31</ele>
        <time>2018-01-12T17:44:31Z</time>
      </trkpt>
      <trkpt lat="46.62032" lon="-1.65771">
        <ele>31</ele>
        <time>2018-01-12T17:45:31Z</time>
      </trkpt>
      <trkpt lat="46.62032" lon="-1.65772">
        <ele>31</ele>
        <time>2018-01-12T17:46:31Z</time>
      </trkpt>
      <trkpt lat="46.62032" lon="-1.65773">
        <ele>31</ele>
        <time>2018-01-12T17:47:31Z</time>
      </trkpt>
      <trkpt lat="46.62032" lon="-1.65774">
        <ele>31</ele>
        <time>2018-01-12T17:48:31Z</time>
      </trkpt>
      <trkpt lat="46.62032" lon="-1.65775">
        <ele>31</ele>
        <time>2018-01-12T17:49:31Z</time>
      </trkpt>
      <trkpt lat="46.62032" lon="-1.65776">
        <ele>31</ele>
        <time>2018-01-12T17:50:31Z</time>
      </trkpt>
      <trkpt lat="46.62032" lon="-1.65777">
        <ele>31</ele>
        <time>2018-01-12T17:51:31Z</time>
      </trkpt>
      <trkpt lat="46.62055" lon="-1.65789">
        <ele>30</ele>
        <time>2018-01-12T17:52:31Z</time>
      </trkpt>
      <trkpt lat="46.62063" lon="-1.65793">
        <ele>30</ele>
        <time>2018-01-12T17:53:31Z</time>
      </trkpt>
      <trkpt lat="46.62068" lon="-1.65797">
        <ele>30</ele>
        <time>2018-01-12T17:54:31Z</time>
      </trkpt>
      <trkpt lat="46.62072" lon="-1.65801">
        <ele>30</ele>
        <time>2018-01-12T17:55:31Z</time>
      </trkpt>
      <trkpt lat="46.62076" lon="-1.65807">
        <ele>30</ele>
        <time>2018-01-12T17:56:31Z</time>
      </trkpt>
      <trkpt lat="46.62078" lon="-1.65812">
        <ele>30</ele>
        <time>2018-01-12T17:57:31Z</time>
      </trkpt>
      <trkpt lat="46.6208" lon="-1.65817">
        <ele>30</ele>
        <time>2018-01-12T17:58:31Z</time>
      </trkpt>
      <trkpt lat="46.62081" lon="-1.65824">
        <ele>30</ele>
        <time>2018-01-12T17:59:31Z</time>
      </trkpt>
      <trkpt lat="46.62081" lon="-1.65825">
        <ele>30</ele>
        <time>2018-01-12T18:00:31Z</time>
      </trkpt>
      <trkpt lat="46.62082" lon="-1.65838">
        <ele>30</ele>
        <time>2018-01-12T18:01:31Z</time>
      </trkpt>
      <trkpt lat="46.62082" lon="-1.65847">
        <ele>30</ele>
        <time>2018-01-12T18:02:31Z</time>
      </trkpt>
      <trkpt lat="46.62084" lon="-1.65852">
        <ele>30</ele>
        <time>2018-01-12T18:03:31Z</time>
      </trkpt>
      <trkpt lat="46.62085" lon="-1.65854">
        <ele>30</ele>
        <time>2018-01-12T18:04:31Z</time>
      </trkpt>
      <trkpt lat="46.62087" lon="-1.6586">
        <ele>29</ele>
        <time>2018-01-12T18:05:31Z</time>
      </trkpt>
      <trkpt lat="46.62098" lon="-1.65865">
        <ele>29</ele>
        <time>2018-01-12T18:06:31Z</time>
      </trkpt>
      <trkpt lat="46.62103" lon="-1.65867">
        <ele>28</ele>
        <time>2018-01-12T18:07:31Z</time>
      </trkpt>
      <trkpt lat="46.62106" lon="-1.65868">
        <ele>28</ele>
        <time>2018-01-12T18:08:31Z</time>
      </trkpt>
      <trkpt lat="46.62109" lon="-1.65869">
        <ele>28</ele>
        <time>2018-01-12T18:09:31Z</time>
      </trkpt>
      <trkpt lat="46.62113" lon="-1.65869">
        <ele>28</ele>
        <time>2018-01-12T18:10:31Z</time>
      </trkpt>
      <trkpt lat="46.62119" lon="-1.65869">
        <ele>27</ele>
        <time>2018-01-12T18:11:31Z</time>
      </trkpt>
      <trkpt lat="46.62127" lon="-1.65868">
        <ele>27</ele>
        <time>2018-01-12T18:12:31Z</time>
      </trkpt>
      <trkpt lat="46.62137" lon="-1.65866">
        <ele>26</ele>
        <time>2018-01-12T18:13:31Z</time>
      </trkpt>
      <trkpt lat="46.62143" lon="-1.65865">
        <ele>26</ele>
        <time>2018-01-12T18:14:31Z</time>
      </trkpt>
      <trkpt lat="46.62152" lon="-1.65864">
        <ele>25</ele>
        <time>2018-01-12T18:15:31Z</time>
      </trkpt>
      <trkpt lat="46.62163" lon="-1.6586">
        <ele>24</ele>
        <time>2018-01-12T18:16:31Z</time>
      </trkpt>
      <trkpt lat="46.62173" lon="-1.65856">
        <ele>24</ele>
        <time>2018-01-12T18:17:31Z</time>
      </trkpt>
      <trkpt lat="46.62178" lon="-1.65856">
        <ele>24</ele>
        <time>2018-01-12T18:18:31Z</time>
      </trkpt>
      <trkpt lat="46.62183" lon="-1.65852">
        <ele>23</ele>
        <time>2018-01-12T18:19:31Z</time>
      </trkpt>
      <trkpt lat="46.62189" lon="-1.65849">
        <ele>23</ele>
        <time>2018-01-12T18:20:31Z</time>
      </trkpt>
      <trkpt lat="46.62192" lon="-1.65846">
        <ele>23</ele>
        <time>2018-01-12T18:21:31Z</time>
      </trkpt>
      <trkpt lat="46.62206" lon="-1.65832">
        <ele>23</ele>
        <time>2018-01-12T18:22:31Z</time>
      </trkpt>
      <trkpt lat="46.6221" lon="-1.65828">
        <ele>23</ele>
        <time>2018-01-12T18:23:31Z</time>
      </trkpt>
      <trkpt lat="46.6222" lon="-1.65816">
        <ele>22</ele>
        <time>2018-01-12T18:24:31Z</time>
      </trkpt>
      <trkpt lat="46.62228" lon="-1.65804">
        <ele>22</ele>
        <time>2018-01-12T18:25:31Z</time>
      </trkpt>
      <trkpt lat="46.62241" lon="-1.65787">
        <ele>22</ele>
        <time>2018-01-12T18:26:31Z</time>
      </trkpt>
      <trkpt lat="46.6225" lon="-1.65772">
        <ele>22</ele>
        <time>2018-01-12T18:27:31Z</time>
      </trkpt>
      <trkpt lat="46.62261" lon="-1.65756">
        <ele>23</ele>
        <time>2018-01-12T18:28:31Z</time>
      </trkpt>
      <trkpt lat="46.62267" lon="-1.65744">
        <ele>24</ele>
        <time>2018-01-12T18:29:31Z</time>
      </trkpt>
      <trkpt lat="46.62285" lon="-1.65714">
        <ele>25</ele>
        <time>2018-01-12T18:30:31Z</time>
      </trkpt>
      <trkpt lat="46.62289" lon="-1.65709">
        <ele>25</ele>
        <time>2018-01-12T18:31:31Z</time>
      </trkpt>
      <trkpt lat="46.62293" lon="-1.65703">
        <ele>25</ele>
        <time>2018-01-12T18:32:31Z</time>
      </trkpt>
      <trkpt lat="46.62303" lon="-1.65693">
        <ele>25</ele>
        <time>2018-01-12T18:33:31Z</time>
      </trkpt>
      <trkpt lat="46.62311" lon="-1.65686">
        <ele>25</ele>
        <time>2018-01-12T18:34:31Z</time>
      </trkpt>
      <trkpt lat="46.62317" lon="-1.6568">
        <ele>26</ele>
        <time>2018-01-12T18:35:31Z</time>
      </trkpt>
      <trkpt lat="46.62324" lon="-1.65675">
        <ele>26</ele>
        <time>2018-01-12T18:36:31Z</time>
      </trkpt>
      <trkpt lat="46.62335" lon="-1.65667">
        <ele>26</ele>
        <time>2018-01-12T18:37:31Z</time>
      </trkpt>
      <trkpt lat="46.62343" lon="-1.6566">
        <ele>26</ele>
        <time>2018-01-12T18:38:31Z</time>
      </trkpt>
      <trkpt lat="46.62347" lon="-1.65658">
        <ele>27</ele>
        <time>2018-01-12T18:39:31Z</time>
      </trkpt>
      <trkpt lat="46.62377" lon="-1.65643">
        <ele>28</ele>
        <time>2018-01-12T18:40:31Z</time>
      </trkpt>
      <trkpt lat="46.62395" lon="-1.65635">
        <ele>29</ele>
        <time>2018-01-12T18:41:31Z</time>
      </trkpt>
      <trkpt lat="46.62408" lon="-1.6563">
        <ele>30</ele>
        <time>2018-01-12T18:42:31Z</time>
      </trkpt>
      <trkpt lat="46.62419" lon="-1.65626">
        <ele>30</ele>
        <time>2018-01-12T18:43:31Z</time>
      </trkpt>
      <trkpt lat="46.6243" lon="-1.65624">
        <ele>30</ele>
        <time>2018-01-12T18:44:31Z</time>
      </trkpt>
      <trkpt lat="46.62446" lon="-1.65622">
        <ele>29</ele>
        <time>2018-01-12T18:45:31Z</time>
      </trkpt>
      <trkpt lat="46.62449" lon="-1.65621">
        <ele>29</ele>
        <time>2018-01-12T18:46:31Z</time>
      </trkpt>
      <trkpt lat="46.62468" lon="-1.65619">
        <ele>29</ele>
        <time>2018-01-12T18:47:31Z</time>
      </trkpt>
      <trkpt lat="46.62481" lon="-1.65617">
        <ele>29</ele>
        <time>2018-01-12T18:48:31Z</time>
      </trkpt>
      <trkpt lat="46.62484" lon="-1.65617">
        <ele>29</ele>
        <time>2018-01-12T18:49:31Z</time>
      </trkpt>
      <trkpt lat="46.62503" lon="-1.65614">
        <ele>28</ele>
        <time>2018-01-12T18:50:31Z</time>
      </trkpt>
      <trkpt lat="46.62527" lon="-1.65611">
        <ele>27</ele>
        <time>2018-01-12T18:51:31Z</time>
      </trkpt>
      <trkpt lat="46.62541" lon="-1.65608">
        <ele>27</ele>
        <time>2018-01-12T18:52:31Z</time>
      </trkpt>
      <trkpt lat="46.62549" lon="-1.65607">
        <ele>26</ele>
        <time>2018-01-12T18:53:31Z</time>
      </trkpt>
      <trkpt lat="46.62551" lon="-1.65607">
        <ele>26</ele>
        <time>2018-01-12T18:54:31Z</time>
      </trkpt>
      <trkpt lat="46.62568" lon="-1.65605">
        <ele>26</ele>
        <time>2018-01-12T18:55:31Z</time>
      </trkpt>
      <trkpt lat="46.62598" lon="-1.65601">
        <ele>25</ele>
        <time>2018-01-12T18:56:31Z</time>
      </trkpt>
      <trkpt lat="46.62625" lon="-1.65597">
        <ele>25</ele>
        <time>2018-01-12T18:57:31Z</time>
      </trkpt>
      <trkpt lat="46.62628" lon="-1.65596">
        <ele>25</ele>
        <time>2018-01-12T18:58:31Z</time>
      </trkpt>
      <trkpt lat="46.62648" lon="-1.65593">
        <ele>24</ele>
        <time>2018-01-12T18:59:31Z</time>
      </trkpt>
      <trkpt lat="46.62675" lon="-1.65589">
        <ele>24</ele>
        <time>2018-01-12T19:00:31Z</time>
      </trkpt>
      <trkpt lat="46.62701" lon="-1.65585">
        <ele>24</ele>
        <time>2018-01-12T19:01:31Z</time>
      </trkpt>
      <trkpt lat="46.62724" lon="-1.65582">
        <ele>23</ele>
        <time>2018-01-12T19:02:31Z</time>
      </trkpt>
      <trkpt lat="46.62825" lon="-1.65568">
        <ele>26</ele>
        <time>2018-01-12T19:03:31Z</time>
      </trkpt>
      <trkpt lat="46.62883" lon="-1.65559">
        <ele>27</ele>
        <time>2018-01-12T19:04:31Z</time>
      </trkpt>
      <trkpt lat="46.62894" lon="-1.65556">
        <ele>27</ele>
        <time>2018-01-12T19:05:31Z</time>
      </trkpt>
      <trkpt lat="46.62905" lon="-1.65552">
        <ele>27</ele>
        <time>2018-01-12T19:06:31Z</time>
      </trkpt>
      <trkpt lat="46.62913" lon="-1.65548">
        <ele>28</ele>
        <time>2018-01-12T19:07:31Z</time>
      </trkpt>
      <trkpt lat="46.62921" lon="-1.65543">
        <ele>28</ele>
        <time>2018-01-12T19:08:31Z</time>
      </trkpt>
      <trkpt lat="46.62928" lon="-1.65539">
        <ele>28</ele>
        <time>2018-01-12T19:09:31Z</time>
      </trkpt>
      <trkpt lat="46.62934" lon="-1.65534">
        <ele>28</ele>
        <time>2018-01-12T19:10:31Z</time>
      </trkpt>
      <trkpt lat="46.6297" lon="-1.65504">
        <ele>29</ele>
        <time>2018-01-12T19:11:31Z</time>
      </trkpt>
      <trkpt lat="46.63032" lon="-1.65452">
        <ele>32</ele>
        <time>2018-01-12T19:12:31Z</time>
      </trkpt>
      <trkpt lat="46.63057" lon="-1.6543">
        <ele>34</ele>
        <time>2018-01-12T19:13:31Z</time>
      </trkpt>
      <trkpt lat="46.63064" lon="-1.65424">
        <ele>34</ele>
        <time>2018-01-12T19:14:31Z</time>
      </trkpt>
      <trkpt lat="46.6307" lon="-1.65417">
        <ele>35</ele>
        <time>2018-01-12T19:15:31Z</time>
      </trkpt>
      <trkpt lat="46.63086" lon="-1.654">
        <ele>36</ele>
        <time>2018-01-12T19:16:31Z</time>
      </trkpt>
      <trkpt lat="46.63094" lon="-1.6539">
        <ele>36</ele>
        <time>2018-01-12T19:17:31Z</time>
      </trkpt>
      <trkpt lat="46.63098" lon="-1.65386">
        <ele>36</ele>
        <time>2018-01-12T19:18:31Z</time>
      </trkpt>
      <trkpt lat="46.63134" lon="-1.65345">
        <ele>37</ele>
        <time>2018-01-12T19:19:31Z</time>
      </trkpt>
      <trkpt lat="46.63179" lon="-1.65295">
        <ele>37</ele>
        <time>2018-01-12T19:20:31Z</time>
      </trkpt>
      <trkpt lat="46.6318" lon="-1.65293">
        <ele>37</ele>
        <time>2018-01-12T19:21:31Z</time>
      </trkpt>
      <trkpt lat="46.63189" lon="-1.65282">
        <ele>36</ele>
        <time>2018-01-12T19:22:31Z</time>
      </trkpt>
      <trkpt lat="46.63198" lon="-1.65269">
        <ele>36</ele>
        <time>2018-01-12T19:23:31Z</time>
      </trkpt>
      <trkpt lat="46.63204" lon="-1.65261">
        <ele>36</ele>
        <time>2018-01-12T19:24:31Z</time>
      </trkpt>
      <trkpt lat="46.63204" lon="-1.65261">
        <ele>36</ele>
        <time>2018-01-12T19:25:31Z</time>
      </trkpt>
      <trkpt lat="46.63207" lon="-1.65264">
        <ele>36</ele>
        <time>2018-01-12T19:26:31Z</time>
      </trkpt>
      <trkpt lat="46.63211" lon="-1.65268">
        <ele>36</ele>
        <time>2018-01-12T19:27:31Z</time>
      </trkpt>
      <trkpt lat="46.63213" lon="-1.65271">
        <ele>36</ele>
        <time>2018-01-12T19:28:31Z</time>
      </trkpt>
      <trkpt lat="46.63215" lon="-1.65273">
        <ele>36</ele>
        <time>2018-01-12T19:29:31Z</time>
      </trkpt>
      <trkpt lat="46.63217" lon="-1.65278">
        <ele>36</ele>
        <time>2018-01-12T19:30:31Z</time>
      </trkpt>
      <trkpt lat="46.63219" lon="-1.65283">
        <ele>36</ele>
        <time>2018-01-12T19:31:31Z</time>
      </trkpt>
      <trkpt lat="46.63222" lon="-1.6529">
        <ele>36</ele>
        <time>2018-01-12T19:32:31Z</time>
      </trkpt>
      <trkpt lat="46.63224" lon="-1.65298">
        <ele>37</ele>
        <time>2018-01-12T19:33:31Z</time>
      </trkpt>
      <trkpt lat="46.63235" lon="-1.65333">
        <ele>37</ele>
        <time>2018-01-12T19:34:31Z</time>
      </trkpt>
      <trkpt lat="46.6325" lon="-1.6538">
        <ele>36</ele>
        <time>2018-01-12T19:35:31Z</time>
      </trkpt>
      <trkpt lat="46.6326" lon="-1.65409">
        <ele>36</ele>
        <time>2018-01-12T19:36:31Z</time>
      </trkpt>
      <trkpt lat="46.63266" lon="-1.65429">
        <ele>35</ele>
        <time>2018-01-12T19:37:31Z</time>
      </trkpt>
      <trkpt lat="46.63272" lon="-1.65444">
        <ele>35</ele>
        <time>2018-01-12T19:38:31Z</time>
      </trkpt>
      <trkpt lat="46.63278" lon="-1.65461">
        <ele>34</ele>
        <time>2018-01-12T19:39:31Z</time>
      </trkpt>
      <trkpt lat="46.63284" lon="-1.65474">
        <ele>34</ele>
        <time>2018-01-12T19:40:31Z</time>
      </trkpt>
      <trkpt lat="46.63285" lon="-1.65476">
        <ele>34</ele>
        <time>2018-01-12T19:41:31Z</time>
      </trkpt>
      <trkpt lat="46.63292" lon="-1.65492">
        <ele>34</ele>
        <time>2018-01-12T19:42:31Z</time>
      </trkpt>
      <trkpt lat="46.6331" lon="-1.65527">
        <ele>33</ele>
        <time>2018-01-12T19:43:31Z</time>
      </trkpt>
      <trkpt lat="46.63337" lon="-1.65573">
        <ele>34</ele>
        <time>2018-01-12T19:44:31Z</time>
      </trkpt>
      <trkpt lat="46.63367" lon="-1.65626">
        <ele>35</ele>
        <time>2018-01-12T19:45:31Z</time>
      </trkpt>
      <trkpt lat="46.63372" lon="-1.65634">
        <ele>35</ele>
        <time>2018-01-12T19:46:31Z</time>
      </trkpt>
      <trkpt lat="46.63375" lon="-1.65641">
        <ele>36</ele>
        <time>2018-01-12T19:47:31Z</time>
      </trkpt>
      <trkpt lat="46.63378" lon="-1.65646">
        <ele>36</ele>
        <time>2018-01-12T19:48:31Z</time>
      </trkpt>
      <trkpt lat="46.6338" lon="-1.65652">
        <ele>36</ele>
        <time>2018-01-12T19:49:31Z</time>
      </trkpt>
      <trkpt lat="46.63382" lon="-1.65658">
        <ele>36</ele>
        <time>2018-01-12T19:50:31Z</time>
      </trkpt>
      <trkpt lat="46.63384" lon="-1.65664">
        <ele>37</ele>
        <time>2018-01-12T19:51:31Z</time>
      </trkpt>
      <trkpt lat="46.63386" lon="-1.65673">
        <ele>37</ele>
        <time>2018-01-12T19:52:31Z</time>
      </trkpt>
      <trkpt lat="46.63388" lon="-1.65685">
        <ele>37</ele>
        <time>2018-01-12T19:53:31Z</time>
      </trkpt>
      <trkpt lat="46.63397" lon="-1.65734">
        <ele>38</ele>
        <time>2018-01-12T19:54:31Z</time>
      </trkpt>
      <trkpt lat="46.63397" lon="-1.65734">
        <ele>38</ele>
        <time>2018-01-12T19:55:31Z</time>
      </trkpt>
      <trkpt lat="46.63403" lon="-1.65742">
        <ele>38</ele>
        <time>2018-01-12T19:56:31Z</time>
      </trkpt>
      <trkpt lat="46.6341" lon="-1.6575">
        <ele>39</ele>
        <time>2018-01-12T19:57:31Z</time>
      </trkpt>
      <trkpt lat="46.63418" lon="-1.65756">
        <ele>39</ele>
        <time>2018-01-12T19:58:31Z</time>
      </trkpt>
      <trkpt lat="46.63425" lon="-1.65762">
        <ele>39</ele>
        <time>2018-01-12T19:59:31Z</time>
      </trkpt>
      <trkpt lat="46.63432" lon="-1.65764">
        <ele>39</ele>
        <time>2018-01-12T20:00:31Z</time>
      </trkpt>
      <trkpt lat="46.63434" lon="-1.65764">
        <ele>39</ele>
        <time>2018-01-12T20:01:31Z</time>
      </trkpt>
      <trkpt lat="46.6348" lon="-1.65775">
        <ele>39</ele>
        <time>2018-01-12T20:02:31Z</time>
      </trkpt>
      <trkpt lat="46.63515" lon="-1.65783">
        <ele>39</ele>
        <time>2018-01-12T20:03:31Z</time>
      </trkpt>
      <trkpt lat="46.63522" lon="-1.65783">
        <ele>39</ele>
        <time>2018-01-12T20:04:31Z</time>
      </trkpt>
      <trkpt lat="46.63528" lon="-1.65784">
        <ele>39</ele>
        <time>2018-01-12T20:05:31Z</time>
      </trkpt>
      <trkpt lat="46.63535" lon="-1.65784">
        <ele>39</ele>
        <time>2018-01-12T20:06:31Z</time>
      </trkpt>
      <trkpt lat="46.63541" lon="-1.65783">
        <ele>39</ele>
        <time>2018-01-12T20:07:31Z</time>
      </trkpt>
      <trkpt lat="46.63548" lon="-1.65781">
        <ele>39</ele>
        <time>2018-01-12T20:08:31Z</time>
      </trkpt>
      <trkpt lat="46.63553" lon="-1.65779">
        <ele>39</ele>
        <time>2018-01-12T20:09:31Z</time>
      </trkpt>
      <trkpt lat="46.63598" lon="-1.65761">
        <ele>38</ele>
        <time>2018-01-12T20:10:31Z</time>
      </trkpt>
      <trkpt lat="46.63604" lon="-1.65759">
        <ele>38</ele>
        <time>2018-01-12T20:11:31Z</time>
      </trkpt>
      <trkpt lat="46.63609" lon="-1.65757">
        <ele>38</ele>
        <time>2018-01-12T20:12:31Z</time>
      </trkpt>
      <trkpt lat="46.63615" lon="-1.65755">
        <ele>38</ele>
        <time>2018-01-12T20:13:31Z</time>
      </trkpt>
      <trkpt lat="46.63621" lon="-1.65753">
        <ele>38</ele>
        <time>2018-01-12T20:14:31Z</time>
      </trkpt>
      <trkpt lat="46.63633" lon="-1.6575">
        <ele>38</ele>
        <time>2018-01-12T20:15:31Z</time>
      </trkpt>
      <trkpt lat="46.63664" lon="-1.65745">
        <ele>38</ele>
        <time>2018-01-12T20:16:31Z</time>
      </trkpt>
      <trkpt lat="46.63715" lon="-1.65736">
        <ele>37</ele>
        <time>2018-01-12T20:17:31Z</time>
      </trkpt>
      <trkpt lat="46.63743" lon="-1.65732">
        <ele>37</ele>
        <time>2018-01-12T20:18:31Z</time>
      </trkpt>
      <trkpt lat="46.63753" lon="-1.6573">
        <ele>37</ele>
        <time>2018-01-12T20:19:31Z</time>
      </trkpt>
      <trkpt lat="46.63764" lon="-1.6573">
        <ele>37</ele>
        <time>2018-01-12T20:20:31Z</time>
      </trkpt>
      <trkpt lat="46.63772" lon="-1.6573">
        <ele>37</ele>
        <time>2018-01-12T20:21:31Z</time>
      </trkpt>
      <trkpt lat="46.6378" lon="-1.65731">
        <ele>37</ele>
        <time>2018-01-12T20:22:31Z</time>
      </trkpt>
      <trkpt lat="46.63781" lon="-1.65731">
        <ele>37</ele>
        <time>2018-01-12T20:23:31Z</time>
      </trkpt>
      <trkpt lat="46.63789" lon="-1.65733">
        <ele>38</ele>
        <time>2018-01-12T20:24:31Z</time>
      </trkpt>
      <trkpt lat="46.638" lon="-1.65736">
        <ele>38</ele>
        <time>2018-01-12T20:25:31Z</time>
      </trkpt>
      <trkpt lat="46.63841" lon="-1.65746">
        <ele>39</ele>
        <time>2018-01-12T20:26:31Z</time>
      </trkpt>
      <trkpt lat="46.63905" lon="-1.65764">
        <ele>38</ele>
        <time>2018-01-12T20:27:31Z</time>
      </trkpt>
      <trkpt lat="46.6395" lon="-1.65776">
        <ele>38</ele>
        <time>2018-01-12T20:28:31Z</time>
      </trkpt>
      <trkpt lat="46.63956" lon="-1.65778">
        <ele>38</ele>
        <time>2018-01-12T20:29:31Z</time>
      </trkpt>
      <trkpt lat="46.63975" lon="-1.65783">
        <ele>38</ele>
        <time>2018-01-12T20:30:31Z</time>
      </trkpt>
      <trkpt lat="46.64005" lon="-1.65792">
        <ele>38</ele>
        <time>2018-01-12T20:31:31Z</time>
      </trkpt>
      <trkpt lat="46.64056" lon="-1.65806">
        <ele>37</ele>
        <time>2018-01-12T20:32:31Z</time>
      </trkpt>
      <trkpt lat="46.64088" lon="-1.65816">
        <ele>36</ele>
        <time>2018-01-12T20:33:31Z</time>
      </trkpt>
      <trkpt lat="46.64099" lon="-1.6582">
        <ele>37</ele>
        <time>2018-01-12T20:34:31Z</time>
      </trkpt>
      <trkpt lat="46.6411" lon="-1.65823">
        <ele>37</ele>
        <time>2018-01-12T20:35:31Z</time>
      </trkpt>
      <trkpt lat="46.64118" lon="-1.65826">
        <ele>38</ele>
        <time>2018-01-12T20:36:31Z</time>
      </trkpt>
      <trkpt lat="46.64126" lon="-1.65829">
        <ele>38</ele>
        <time>2018-01-12T20:37:31Z</time>
      </trkpt>
      <trkpt lat="46.64133" lon="-1.65833">
        <ele>38</ele>
        <time>2018-01-12T20:38:31Z</time>
      </trkpt>
      <trkpt lat="46.64145" lon="-1.65838">
        <ele>39</ele>
        <time>2018-01-12T20:39:31Z</time>
      </trkpt>
      <trkpt lat="46.64175" lon="-1.65854">
        <ele>40</ele>
        <time>2018-01-12T20:40:31Z</time>
      </trkpt>
      <trkpt lat="46.64177" lon="-1.65854">
        <ele>40</ele>
        <time>2018-01-12T20:41:31Z</time>
      </trkpt>
      <trkpt lat="46.64216" lon="-1.65875">
        <ele>42</ele>
        <time>2018-01-12T20:42:31Z</time>
      </trkpt>
      <trkpt lat="46.64243" lon="-1.65888">
        <ele>42</ele>
        <time>2018-01-12T20:43:31Z</time>
      </trkpt>
      <trkpt lat="46.64288" lon="-1.65911">
        <ele>43</ele>
        <time>2018-01-12T20:44:31Z</time>
      </trkpt>
      <trkpt lat="46.64302" lon="-1.65917">
        <ele>43</ele>
        <time>2018-01-12T20:45:31Z</time>
      </trkpt>
      <trkpt lat="46.64311" lon="-1.65922">
        <ele>43</ele>
        <time>2018-01-12T20:46:31Z</time>
      </trkpt>
      <trkpt lat="46.64325" lon="-1.6593">
        <ele>43</ele>
        <time>2018-01-12T20:47:31Z</time>
      </trkpt>
      <trkpt lat="46.64335" lon="-1.65934">
        <ele>43</ele>
        <time>2018-01-12T20:48:31Z</time>
      </trkpt>
      <trkpt lat="46.64346" lon="-1.65939">
        <ele>43</ele>
        <time>2018-01-12T20:49:31Z</time>
      </trkpt>
      <trkpt lat="46.64358" lon="-1.65944">
        <ele>44</ele>
        <time>2018-01-12T20:50:31Z</time>
      </trkpt>
      <trkpt lat="46.64369" lon="-1.65948">
        <ele>44</ele>
        <time>2018-01-12T20:51:31Z</time>
      </trkpt>
      <trkpt lat="46.6438" lon="-1.65952">
        <ele>45</ele>
        <time>2018-01-12T20:52:31Z</time>
      </trkpt>
      <trkpt lat="46.64391" lon="-1.65956">
        <ele>45</ele>
        <time>2018-01-12T20:53:31Z</time>
      </trkpt>
      <trkpt lat="46.64408" lon="-1.65962">
        <ele>46</ele>
        <time>2018-01-12T20:54:31Z</time>
      </trkpt>
      <trkpt lat="46.64434" lon="-1.65968">
        <ele>46</ele>
        <time>2018-01-12T20:55:31Z</time>
      </trkpt>
      <trkpt lat="46.64456" lon="-1.65973">
        <ele>46</ele>
        <time>2018-01-12T20:56:31Z</time>
      </trkpt>
      <trkpt lat="46.64466" lon="-1.65976">
        <ele>46</ele>
        <time>2018-01-12T20:57:31Z</time>
      </trkpt>
      <trkpt lat="46.64476" lon="-1.65979">
        <ele>46</ele>
        <time>2018-01-12T20:58:31Z</time>
      </trkpt>
      <trkpt lat="46.6449" lon="-1.65984">
        <ele>46</ele>
        <time>2018-01-12T20:59:31Z</time>
      </trkpt>
      <trkpt lat="46.64503" lon="-1.65989">
        <ele>46</ele>
        <time>2018-01-12T21:00:31Z</time>
      </trkpt>
      <trkpt lat="46.64519" lon="-1.65996">
        <ele>46</ele>
        <time>2018-01-12T21:01:31Z</time>
      </trkpt>
      <trkpt lat="46.64532" lon="-1.66002">
        <ele>47</ele>
        <time>2018-01-12T21:02:31Z</time>
      </trkpt>
      <trkpt lat="46.64561" lon="-1.66017">
        <ele>47</ele>
        <time>2018-01-12T21:03:31Z</time>
      </trkpt>
      <trkpt lat="46.64612" lon="-1.66044">
        <ele>49</ele>
        <time>2018-01-12T21:04:31Z</time>
      </trkpt>
      <trkpt lat="46.64619" lon="-1.66048">
        <ele>49</ele>
        <time>2018-01-12T21:05:31Z</time>
      </trkpt>
      <trkpt lat="46.64627" lon="-1.66055">
        <ele>49</ele>
        <time>2018-01-12T21:06:31Z</time>
      </trkpt>
      <trkpt lat="46.64633" lon="-1.66061">
        <ele>49</ele>
        <time>2018-01-12T21:07:31Z</time>
      </trkpt>
      <trkpt lat="46.64634" lon="-1.66062">
        <ele>49</ele>
        <time>2018-01-12T21:08:31Z</time>
      </trkpt>
      <trkpt lat="46.64635" lon="-1.66064">
        <ele>49</ele>
        <time>2018-01-12T21:09:31Z</time>
      </trkpt>
      <trkpt lat="46.64639" lon="-1.66069">
        <ele>49</ele>
        <time>2018-01-12T21:10:31Z</time>
      </trkpt>
      <trkpt lat="46.64644" lon="-1.66077">
        <ele>50</ele>
        <time>2018-01-12T21:11:31Z</time>
      </trkpt>
      <trkpt lat="46.64649" lon="-1.66085">
        <ele>50</ele>
        <time>2018-01-12T21:12:31Z</time>
      </trkpt>
      <trkpt lat="46.64653" lon="-1.66093">
        <ele>50</ele>
        <time>2018-01-12T21:13:31Z</time>
      </trkpt>
      <trkpt lat="46.64656" lon="-1.661">
        <ele>50</ele>
        <time>2018-01-12T21:14:31Z</time>
      </trkpt>
      <trkpt lat="46.64659" lon="-1.6611">
        <ele>50</ele>
        <time>2018-01-12T21:15:31Z</time>
      </trkpt>
      <trkpt lat="46.64669" lon="-1.66143">
        <ele>50</ele>
        <time>2018-01-12T21:16:31Z</time>
      </trkpt>
      <trkpt lat="46.64685" lon="-1.66197">
        <ele>50</ele>
        <time>2018-01-12T21:17:31Z</time>
      </trkpt>
      <trkpt lat="46.64696" lon="-1.66235">
        <ele>50</ele>
        <time>2018-01-12T21:18:31Z</time>
      </trkpt>
      <trkpt lat="46.647" lon="-1.66247">
        <ele>50</ele>
        <time>2018-01-12T21:19:31Z</time>
      </trkpt>
      <trkpt lat="46.64703" lon="-1.66257">
        <ele>50</ele>
        <time>2018-01-12T21:20:31Z</time>
      </trkpt>
      <trkpt lat="46.64709" lon="-1.66272">
        <ele>50</ele>
        <time>2018-01-12T21:21:31Z</time>
      </trkpt>
      <trkpt lat="46.64716" lon="-1.66289">
        <ele>50</ele>
        <time>2018-01-12T21:22:31Z</time>
      </trkpt>
      <trkpt lat="46.64721" lon="-1.66302">
        <ele>50</ele>
        <time>2018-01-12T21:23:31Z</time>
      </trkpt>
      <trkpt lat="46.64726" lon="-1.66313">
        <ele>50</ele>
        <time>2018-01-12T21:24:31Z</time>
      </trkpt>
      <trkpt lat="46.64729" lon="-1.66318">
        <ele>50</ele>
        <time>2018-01-12T21:25:31Z</time>
      </trkpt>
      <trkpt lat="46.64745" lon="-1.66352">
        <ele>50</ele>
        <time>2018-01-12T21:26:31Z</time>
      </trkpt>
      <trkpt lat="46.64774" lon="-1.66417">
        <ele>49</ele>
        <time>2018-01-12T21:27:31Z</time>
      </trkpt>
      <trkpt lat="46.64801" lon="-1.66472">
        <ele>47</ele>
        <time>2018-01-12T21:28:31Z</time>
      </trkpt>
      <trkpt lat="46.64808" lon="-1.66487">
        <ele>47</ele>
        <time>2018-01-12T21:29:31Z</time>
      </trkpt>
      <trkpt lat="46.64813" lon="-1.66498">
        <ele>46</ele>
        <time>2018-01-12T21:30:31Z</time>
      </trkpt>
      <trkpt lat="46.64817" lon="-1.66509">
        <ele>46</ele>
        <time>2018-01-12T21:31:31Z</time>
      </trkpt>
      <trkpt lat="46.64821" lon="-1.66522">
        <ele>46</ele>
        <time>2018-01-12T21:32:31Z</time>
      </trkpt>
      <trkpt lat="46.64829" lon="-1.66549">
        <ele>45</ele>
        <time>2018-01-12T21:33:31Z</time>
      </trkpt>
      <trkpt lat="46.64833" lon="-1.66568">
        <ele>44</ele>
        <time>2018-01-12T21:34:31Z</time>
      </trkpt>
      <trkpt lat="46.64845" lon="-1.66617">
        <ele>43</ele>
        <time>2018-01-12T21:35:31Z</time>
      </trkpt>
      <trkpt lat="46.64849" lon="-1.66634">
        <ele>42</ele>
        <time>2018-01-12T21:36:31Z</time>
      </trkpt>
      <trkpt lat="46.64852" lon="-1.66649">
        <ele>42</ele>
        <time>2018-01-12T21:37:31Z</time>
      </trkpt>
      <trkpt lat="46.64856" lon="-1.66664">
        <ele>41</ele>
        <time>2018-01-12T21:38:31Z</time>
      </trkpt>
      <trkpt lat="46.64861" lon="-1.6668">
        <ele>41</ele>
        <time>2018-01-12T21:39:31Z</time>
      </trkpt>
      <trkpt lat="46.64866" lon="-1.66694">
        <ele>41</ele>
        <time>2018-01-12T21:40:31Z</time>
      </trkpt>
      <trkpt lat="46.64873" lon="-1.66711">
        <ele>40</ele>
        <time>2018-01-12T21:41:31Z</time>
      </trkpt>
      <trkpt lat="46.64883" lon="-1.66735">
        <ele>39</ele>
        <time>2018-01-12T21:42:31Z</time>
      </trkpt>
      <trkpt lat="46.64887" lon="-1.66746">
        <ele>39</ele>
        <time>2018-01-12T21:43:31Z</time>
      </trkpt>
      <trkpt lat="46.64908" lon="-1.66794">
        <ele>38</ele>
        <time>2018-01-12T21:44:31Z</time>
      </trkpt>
      <trkpt lat="46.64908" lon="-1.66796">
        <ele>38</ele>
        <time>2018-01-12T21:45:31Z</time>
      </trkpt>
      <trkpt lat="46.64909" lon="-1.66799">
        <ele>38</ele>
        <time>2018-01-12T21:46:31Z</time>
      </trkpt>
      <trkpt lat="46.64915" lon="-1.66813">
        <ele>37</ele>
        <time>2018-01-12T21:47:31Z</time>
      </trkpt>
      <trkpt lat="46.64919" lon="-1.66822">
        <ele>37</ele>
        <time>2018-01-12T21:48:31Z</time>
      </trkpt>
      <trkpt lat="46.64924" lon="-1.66831">
        <ele>37</ele>
        <time>2018-01-12T21:49:31Z</time>
      </trkpt>
      <trkpt lat="46.6493" lon="-1.66839">
        <ele>37</ele>
        <time>2018-01-12T21:50:31Z</time>
      </trkpt>
      <trkpt lat="46.64937" lon="-1.66848">
        <ele>37</ele>
        <time>2018-01-12T21:51:31Z</time>
      </trkpt>
      <trkpt lat="46.64945" lon="-1.66857">
        <ele>37</ele>
        <time>2018-01-12T21:52:31Z</time>
      </trkpt>
      <trkpt lat="46.64981" lon="-1.6689">
        <ele>36</ele>
        <time>2018-01-12T21:53:31Z</time>
      </trkpt>
      <trkpt lat="46.64989" lon="-1.66897">
        <ele>36</ele>
        <time>2018-01-12T21:54:31Z</time>
      </trkpt>
      <trkpt lat="46.65042" lon="-1.66943">
        <ele>37</ele>
        <time>2018-01-12T21:55:31Z</time>
      </trkpt>
      <trkpt lat="46.6509" lon="-1.66984">
        <ele>38</ele>
        <time>2018-01-12T21:56:31Z</time>
      </trkpt>
      <trkpt lat="46.65093" lon="-1.66986">
        <ele>38</ele>
        <time>2018-01-12T21:57:31Z</time>
      </trkpt>
      <trkpt lat="46.65101" lon="-1.66992">
        <ele>39</ele>
        <time>2018-01-12T21:58:31Z</time>
      </trkpt>
      <trkpt lat="46.65109" lon="-1.66999">
        <ele>39</ele>
        <time>2018-01-12T21:59:31Z</time>
      </trkpt>
      <trkpt lat="46.6512" lon="-1.67007">
        <ele>39</ele>
        <time>2018-01-12T22:00:31Z</time>
      </trkpt>
      <trkpt lat="46.65134" lon="-1.67017">
        <ele>40</ele>
        <time>2018-01-12T22:01:31Z</time>
      </trkpt>
      <trkpt lat="46.65165" lon="-1.67037">
        <ele>41</ele>
        <time>2018-01-12T22:02:31Z</time>
      </trkpt>
      <trkpt lat="46.65219" lon="-1.67072">
        <ele>43</ele>
        <time>2018-01-12T22:03:31Z</time>
      </trkpt>
      <trkpt lat="46.65236" lon="-1.67083">
        <ele>44</ele>
        <time>2018-01-12T22:04:31Z</time>
      </trkpt>
      <trkpt lat="46.65295" lon="-1.67121">
        <ele>44</ele>
        <time>2018-01-12T22:05:31Z</time>
      </trkpt>
      <trkpt lat="46.65303" lon="-1.67124">
        <ele>44</ele>
        <time>2018-01-12T22:06:31Z</time>
      </trkpt>
      <trkpt lat="46.65311" lon="-1.67127">
        <ele>44</ele>
        <time>2018-01-12T22:07:31Z</time>
      </trkpt>
      <trkpt lat="46.65319" lon="-1.67129">
        <ele>44</ele>
        <time>2018-01-12T22:08:31Z</time>
      </trkpt>
      <trkpt lat="46.65329" lon="-1.67129">
        <ele>45</ele>
        <time>2018-01-12T22:09:31Z</time>
      </trkpt>
      <trkpt lat="46.65337" lon="-1.67129">
        <ele>45</ele>
        <time>2018-01-12T22:10:31Z</time>
      </trkpt>
      <trkpt lat="46.65369" lon="-1.67127">
        <ele>45</ele>
        <time>2018-01-12T22:11:31Z</time>
      </trkpt>
      <trkpt lat="46.65421" lon="-1.67121">
        <ele>45</ele>
        <time>2018-01-12T22:12:31Z</time>
      </trkpt>
      <trkpt lat="46.65429" lon="-1.67121">
        <ele>45</ele>
        <time>2018-01-12T22:13:31Z</time>
      </trkpt>
      <trkpt lat="46.65437" lon="-1.67122">
        <ele>45</ele>
        <time>2018-01-12T22:14:31Z</time>
      </trkpt>
      <trkpt lat="46.65445" lon="-1.67124">
        <ele>45</ele>
        <time>2018-01-12T22:15:31Z</time>
      </trkpt>
      <trkpt lat="46.65453" lon="-1.67126">
        <ele>45</ele>
        <time>2018-01-12T22:16:31Z</time>
      </trkpt>
      <trkpt lat="46.6546" lon="-1.67128">
        <ele>45</ele>
        <time>2018-01-12T22:17:31Z</time>
      </trkpt>
      <trkpt lat="46.65536" lon="-1.67177">
        <ele>45</ele>
        <time>2018-01-12T22:18:31Z</time>
      </trkpt>
      <trkpt lat="46.65613" lon="-1.67217">
        <ele>46</ele>
        <time>2018-01-12T22:19:31Z</time>
      </trkpt>
      <trkpt lat="46.65675" lon="-1.67246">
        <ele>47</ele>
        <time>2018-01-12T22:20:31Z</time>
      </trkpt>
      <trkpt lat="46.6575" lon="-1.67282">
        <ele>46</ele>
        <time>2018-01-12T22:21:31Z</time>
      </trkpt>
      <trkpt lat="46.65773" lon="-1.67298">
        <ele>46</ele>
        <time>2018-01-12T22:22:31Z</time>
      </trkpt>
      <trkpt lat="46.65795" lon="-1.67317">
        <ele>46</ele>
        <time>2018-01-12T22:23:31Z</time>
      </trkpt>
      <trkpt lat="46.65822" lon="-1.67346">
        <ele>46</ele>
        <time>2018-01-12T22:24:31Z</time>
      </trkpt>
      <trkpt lat="46.65843" lon="-1.67365">
        <ele>46</ele>
        <time>2018-01-12T22:25:31Z</time>
      </trkpt>
      <trkpt lat="46.65866" lon="-1.67383">
        <ele>46</ele>
        <time>2018-01-12T22:26:31Z</time>
      </trkpt>
      <trkpt lat="46.65895" lon="-1.67404">
        <ele>46</ele>
        <time>2018-01-12T22:27:31Z</time>
      </trkpt>
      <trkpt lat="46.65908" lon="-1.67412">
        <ele>46</ele>
        <time>2018-01-12T22:28:31Z</time>
      </trkpt>
      <trkpt lat="46.65918" lon="-1.6742">
        <ele>46</ele>
        <time>2018-01-12T22:29:31Z</time>
      </trkpt>
      <trkpt lat="46.65932" lon="-1.67433">
        <ele>46</ele>
        <time>2018-01-12T22:30:31Z</time>
      </trkpt>
      <trkpt lat="46.65954" lon="-1.67454">
        <ele>45</ele>
        <time>2018-01-12T22:31:31Z</time>
      </trkpt>
      <trkpt lat="46.65964" lon="-1.67466">
        <ele>45</ele>
        <time>2018-01-12T22:32:31Z</time>
      </trkpt>
      <trkpt lat="46.66003" lon="-1.67506">
        <ele>44</ele>
        <time>2018-01-12T22:33:31Z</time>
      </trkpt>
      <trkpt lat="46.66024" lon="-1.67527">
        <ele>43</ele>
        <time>2018-01-12T22:34:31Z</time>
      </trkpt>
      <trkpt lat="46.66044" lon="-1.67546">
        <ele>43</ele>
        <time>2018-01-12T22:35:31Z</time>
      </trkpt>
      <trkpt lat="46.66074" lon="-1.67581">
        <ele>42</ele>
        <time>2018-01-12T22:36:31Z</time>
      </trkpt>
      <trkpt lat="46.66089" lon="-1.67606">
        <ele>42</ele>
        <time>2018-01-12T22:37:31Z</time>
      </trkpt>
      <trkpt lat="46.66098" lon="-1.67623">
        <ele>41</ele>
        <time>2018-01-12T22:38:31Z</time>
      </trkpt>
      <trkpt lat="46.66136" lon="-1.67699">
        <ele>40</ele>
        <time>2018-01-12T22:39:31Z</time>
      </trkpt>
      <trkpt lat="46.66146" lon="-1.67719">
        <ele>40</ele>
        <time>2018-01-12T22:40:31Z</time>
      </trkpt>
      <trkpt lat="46.66156" lon="-1.67738">
        <ele>40</ele>
        <time>2018-01-12T22:41:31Z</time>
      </trkpt>
      <trkpt lat="46.66165" lon="-1.67758">
        <ele>40</ele>
        <time>2018-01-12T22:42:31Z</time>
      </trkpt>
      <trkpt lat="46.66171" lon="-1.67769">
        <ele>40</ele>
        <time>2018-01-12T22:43:31Z</time>
      </trkpt>
      <trkpt lat="46.66179" lon="-1.67786">
        <ele>40</ele>
        <time>2018-01-12T22:44:31Z</time>
      </trkpt>
      <trkpt lat="46.66194" lon="-1.67815">
        <ele>41</ele>
        <time>2018-01-12T22:45:31Z</time>
      </trkpt>
      <trkpt lat="46.66199" lon="-1.67825">
        <ele>41</ele>
        <time>2018-01-12T22:46:31Z</time>
      </trkpt>
      <trkpt lat="46.66206" lon="-1.67839">
        <ele>42</ele>
        <time>2018-01-12T22:47:31Z</time>
      </trkpt>
      <trkpt lat="46.66219" lon="-1.67863">
        <ele>42</ele>
        <time>2018-01-12T22:48:31Z</time>
      </trkpt>
      <trkpt lat="46.66233" lon="-1.6789">
        <ele>43</ele>
        <time>2018-01-12T22:49:31Z</time>
      </trkpt>
      <trkpt lat="46.66245" lon="-1.67919">
        <ele>43</ele>
        <time>2018-01-12T22:50:31Z</time>
      </trkpt>
      <trkpt lat="46.66256" lon="-1.67949">
        <ele>44</ele>
        <time>2018-01-12T22:51:31Z</time>
      </trkpt>
      <trkpt lat="46.66266" lon="-1.6799">
        <ele>45</ele>
        <time>2018-01-12T22:52:31Z</time>
      </trkpt>
      <trkpt lat="46.66274" lon="-1.68023">
        <ele>46</ele>
        <time>2018-01-12T22:53:31Z</time>
      </trkpt>
      <trkpt lat="46.66284" lon="-1.68067">
        <ele>47</ele>
        <time>2018-01-12T22:54:31Z</time>
      </trkpt>
      <trkpt lat="46.66295" lon="-1.68121">
        <ele>48</ele>
        <time>2018-01-12T22:55:31Z</time>
      </trkpt>
      <trkpt lat="46.66302" lon="-1.68162">
        <ele>49</ele>
        <time>2018-01-12T22:56:31Z</time>
      </trkpt>
      <trkpt lat="46.6631" lon="-1.68201">
        <ele>50</ele>
        <time>2018-01-12T22:57:31Z</time>
      </trkpt>
      <trkpt lat="46.66318" lon="-1.68242">
        <ele>51</ele>
        <time>2018-01-12T22:58:31Z</time>
      </trkpt>
      <trkpt lat="46.66326" lon="-1.68282">
        <ele>51</ele>
        <time>2018-01-12T22:59:31Z</time>
      </trkpt>
      <trkpt lat="46.6633" lon="-1.68304">
        <ele>52</ele>
        <time>2018-01-12T23:00:31Z</time>
      </trkpt>
      <trkpt lat="46.66332" lon="-1.68311">
        <ele>52</ele>
        <time>2018-01-12T23:01:31Z</time>
      </trkpt>
      <trkpt lat="46.66334" lon="-1.68318">
        <ele>52</ele>
        <time>2018-01-12T23:02:31Z</time>
      </trkpt>
      <trkpt lat="46.66339" lon="-1.68331">
        <ele>52</ele>
        <time>2018-01-12T23:03:31Z</time>
      </trkpt>
      <trkpt lat="46.66339" lon="-1.68331">
        <ele>52</ele>
        <time>2018-01-12T23:04:31Z</time>
      </trkpt>
      <trkpt lat="46.66346" lon="-1.68325">
        <ele>52</ele>
        <time>2018-01-12T23:05:31Z</time>
      </trkpt>
      <trkpt lat="46.66356" lon="-1.68317">
        <ele>51</ele>
        <time>2018-01-12T23:06:31Z</time>
      </trkpt>
      <trkpt lat="46.66371" lon="-1.68306">
        <ele>51</ele>
        <time>2018-01-12T23:07:31Z</time>
      </trkpt>
      <trkpt lat="46.66386" lon="-1.68299">
        <ele>51</ele>
        <time>2018-01-12T23:08:31Z</time>
      </trkpt>
      <trkpt lat="46.66403" lon="-1.68294">
        <ele>51</ele>
        <time>2018-01-12T23:09:31Z</time>
      </trkpt>
      <trkpt lat="46.66468" lon="-1.68286">
        <ele>51</ele>
        <time>2018-01-12T23:10:31Z</time>
      </trkpt>
      <trkpt lat="46.66493" lon="-1.68284">
        <ele>50</ele>
        <time>2018-01-12T23:11:31Z</time>
      </trkpt>
      <trkpt lat="46.66529" lon="-1.68281">
        <ele>50</ele>
        <time>2018-01-12T23:12:31Z</time>
      </trkpt>
      <trkpt lat="46.66555" lon="-1.68279">
        <ele>50</ele>
        <time>2018-01-12T23:13:31Z</time>
      </trkpt>
      <trkpt lat="46.66576" lon="-1.68277">
        <ele>50</ele>
        <time>2018-01-12T23:14:31Z</time>
      </trkpt>
      <trkpt lat="46.66594" lon="-1.68275">
        <ele>49</ele>
        <time>2018-01-12T23:15:31Z</time>
      </trkpt>
      <trkpt lat="46.66602" lon="-1.68273">
        <ele>49</ele>
        <time>2018-01-12T23:16:31Z</time>
      </trkpt>
      <trkpt lat="46.66611" lon="-1.68273">
        <ele>49</ele>
        <time>2018-01-12T23:17:31Z</time>
      </trkpt>
      <trkpt lat="46.66617" lon="-1.68272">
        <ele>49</ele>
        <time>2018-01-12T23:18:31Z</time>
      </trkpt>
      <trkpt lat="46.6663" lon="-1.68268">
        <ele>48</ele>
        <time>2018-01-12T23:19:31Z</time>
      </trkpt>
      <trkpt lat="46.66657" lon="-1.6826">
        <ele>48</ele>
        <time>2018-01-12T23:20:31Z</time>
      </trkpt>
      <trkpt lat="46.66686" lon="-1.68251">
        <ele>47</ele>
        <time>2018-01-12T23:21:31Z</time>
      </trkpt>
      <trkpt lat="46.66742" lon="-1.68235">
        <ele>46</ele>
        <time>2018-01-12T23:22:31Z</time>
      </trkpt>
      <trkpt lat="46.66781" lon="-1.68222">
        <ele>45</ele>
        <time>2018-01-12T23:23:31Z</time>
      </trkpt>
      <trkpt lat="46.66808" lon="-1.68215">
        <ele>44</ele>
        <time>2018-01-12T23:24:31Z</time>
      </trkpt>
      <trkpt lat="46.66834" lon="-1.68208">
        <ele>43</ele>
        <time>2018-01-12T23:25:31Z</time>
      </trkpt>
      <trkpt lat="46.66867" lon="-1.68197">
        <ele>43</ele>
        <time>2018-01-12T23:26:31Z</time>
      </trkpt>
      <trkpt lat="46.66884" lon="-1.68192">
        <ele>43</ele>
        <time>2018-01-12T23:27:31Z</time>
      </trkpt>
      <trkpt lat="46.66892" lon="-1.6819">
        <ele>43</ele>
        <time>2018-01-12T23:28:31Z</time>
      </trkpt>
      <trkpt lat="46.66901" lon="-1.68186">
        <ele>43</ele>
        <time>2018-01-12T23:29:31Z</time>
      </trkpt>
      <trkpt lat="46.66909" lon="-1.68185">
        <ele>43</ele>
        <time>2018-01-12T23:30:31Z</time>
      </trkpt>
      <trkpt lat="46.66923" lon="-1.68181">
        <ele>43</ele>
        <time>2018-01-12T23:31:31Z</time>
      </trkpt>
      <trkpt lat="46.66943" lon="-1.68174">
        <ele>43</ele>
        <time>2018-01-12T23:32:31Z</time>
      </trkpt>
      <trkpt lat="46.66965" lon="-1.68168">
        <ele>44</ele>
        <time>2018-01-12T23:33:31Z</time>
      </trkpt>
      <trkpt lat="46.6698" lon="-1.68163">
        <ele>44</ele>
        <time>2018-01-12T23:34:31Z</time>
      </trkpt>
      <trkpt lat="46.67003" lon="-1.68156">
        <ele>44</ele>
        <time>2018-01-12T23:35:31Z</time>
      </trkpt>
      <trkpt lat="46.67022" lon="-1.6815">
        <ele>44</ele>
        <time>2018-01-12T23:36:31Z</time>
      </trkpt>
      <trkpt lat="46.67031" lon="-1.68146">
        <ele>44</ele>
        <time>2018-01-12T23:37:31Z</time>
      </trkpt>
      <trkpt lat="46.67044" lon="-1.68142">
        <ele>43</ele>
        <time>2018-01-12T23:38:31Z</time>
      </trkpt>
      <trkpt lat="46.67068" lon="-1.68133">
        <ele>43</ele>
        <time>2018-01-12T23:39:31Z</time>
      </trkpt>
      <trkpt lat="46.67091" lon="-1.68125">
        <ele>43</ele>
        <time>2018-01-12T23:40:31Z</time>
      </trkpt>
      <trkpt lat="46.67121" lon="-1.68114">
        <ele>43</ele>
        <time>2018-01-12T23:41:31Z</time>
      </trkpt>
      <trkpt lat="46.67144" lon="-1.68106">
        <ele>42</ele>
        <time>2018-01-12T23:42:31Z</time>
      </trkpt>
      <trkpt lat="46.67158" lon="-1.68101">
        <ele>42</ele>
        <time>2018-01-12T23:43:31Z</time>
      </trkpt>
      <trkpt lat="46.67167" lon="-1.68098">
        <ele>42</ele>
        <time>2018-01-12T23:44:31Z</time>
      </trkpt>
      <trkpt lat="46.67173" lon="-1.68095">
        <ele>42</ele>
        <time>2018-01-12T23:45:31Z</time>
      </trkpt>
      <trkpt lat="46.67218" lon="-1.68085">
        <ele>43</ele>
        <time>2018-01-12T23:46:31Z</time>
      </trkpt>
      <trkpt lat="46.67223" lon="-1.68084">
        <ele>43</ele>
        <time>2018-01-12T23:47:31Z</time>
      </trkpt>
      <trkpt lat="46.67228" lon="-1.68083">
        <ele>43</ele>
        <time>2018-01-12T23:48:31Z</time>
      </trkpt>
      <trkpt lat="46.67235" lon="-1.6808">
        <ele>44</ele>
        <time>2018-01-12T23:49:31Z</time>
      </trkpt>
      <trkpt lat="46.67251" lon="-1.68077">
        <ele>44</ele>
        <time>2018-01-12T23:50:31Z</time>
      </trkpt>
      <trkpt lat="46.6726" lon="-1.68076">
        <ele>44</ele>
        <time>2018-01-12T23:51:31Z</time>
      </trkpt>
      <trkpt lat="46.67262" lon="-1.68076">
        <ele>44</ele>
        <time>2018-01-12T23:52:31Z</time>
      </trkpt>
      <trkpt lat="46.67284" lon="-1.68072">
        <ele>43</ele>
        <time>2018-01-12T23:53:31Z</time>
      </trkpt>
      <trkpt lat="46.67304" lon="-1.68068">
        <ele>43</ele>
        <time>2018-01-12T23:54:31Z</time>
      </trkpt>
      <trkpt lat="46.67324" lon="-1.68064">
        <ele>43</ele>
        <time>2018-01-12T23:55:31Z</time>
      </trkpt>
      <trkpt lat="46.67342" lon="-1.68061">
        <ele>42</ele>
        <time>2018-01-12T23:56:31Z</time>
      </trkpt>
      <trkpt lat="46.67365" lon="-1.68056">
        <ele>42</ele>
        <time>2018-01-12T23:57:31Z</time>
      </trkpt>
      <trkpt lat="46.67394" lon="-1.6805">
        <ele>42</ele>
        <time>2018-01-12T23:58:31Z</time>
      </trkpt>
      <trkpt lat="46.67413" lon="-1.68046">
        <ele>42</ele>
        <time>2018-01-12T23:59:31Z</time>
      </trkpt>
      <trkpt lat="46.67438" lon="-1.68041">
        <ele>42</ele>
        <time>2018-01-13T00:00:31Z</time>
      </trkpt>
      <trkpt lat="46.67456" lon="-1.68038">
        <ele>42</ele>
        <time>2018-01-13T00:01:31Z</time>
      </trkpt>
      <trkpt lat="46.67477" lon="-1.6803">
        <ele>42</ele>
        <time>2018-01-13T00:02:31Z</time>
      </trkpt>
      <trkpt lat="46.67479" lon="-1.6803">
        <ele>42</ele>
        <time>2018-01-13T00:03:31Z</time>
      </trkpt>
      <trkpt lat="46.67484" lon="-1.68028">
        <ele>42</ele>
        <time>2018-01-13T00:04:31Z</time>
      </trkpt>
      <trkpt lat="46.67491" lon="-1.68025">
        <ele>42</ele>
        <time>2018-01-13T00:05:31Z</time>
      </trkpt>
      <trkpt lat="46.67498" lon="-1.68021">
        <ele>42</ele>
        <time>2018-01-13T00:06:31Z</time>
      </trkpt>
      <trkpt lat="46.67512" lon="-1.68014">
        <ele>41</ele>
        <time>2018-01-13T00:07:31Z</time>
      </trkpt>
      <trkpt lat="46.67524" lon="-1.68006">
        <ele>41</ele>
        <time>2018-01-13T00:08:31Z</time>
      </trkpt>
      <trkpt lat="46.6754" lon="-1.67996">
        <ele>40</ele>
        <time>2018-01-13T00:09:31Z</time>
      </trkpt>
      <trkpt lat="46.67554" lon="-1.67985">
        <ele>39</ele>
        <time>2018-01-13T00:10:31Z</time>
      </trkpt>
      <trkpt lat="46.67562" lon="-1.67978">
        <ele>39</ele>
        <time>2018-01-13T00:11:31Z</time>
      </trkpt>
      <trkpt lat="46.67571" lon="-1.67971">
        <ele>39</ele>
        <time>2018-01-13T00:12:31Z</time>
      </trkpt>
      <trkpt lat="46.6758" lon="-1.67962">
        <ele>39</ele>
        <time>2018-01-13T00:13:31Z</time>
      </trkpt>
      <trkpt lat="46.6759" lon="-1.6795">
        <ele>38</ele>
        <time>2018-01-13T00:14:31Z</time>
      </trkpt>
      <trkpt lat="46.67601" lon="-1.67934">
        <ele>38</ele>
        <time>2018-01-13T00:15:31Z</time>
      </trkpt>
      <trkpt lat="46.67615" lon="-1.67914">
        <ele>37</ele>
        <time>2018-01-13T00:16:31Z</time>
      </trkpt>
      <trkpt lat="46.67629" lon="-1.67893">
        <ele>36</ele>
        <time>2018-01-13T00:17:31Z</time>
      </trkpt>
      <trkpt lat="46.6764" lon="-1.67875">
        <ele>36</ele>
        <time>2018-01-13T00:18:31Z</time>
      </trkpt>
      <trkpt lat="46.6764" lon="-1.67875">
        <ele>36</ele>
        <time>2018-01-13T00:19:31Z</time>
      </trkpt>
      <trkpt lat="46.67656" lon="-1.67946">
        <ele>34</ele>
        <time>2018-01-13T00:20:31Z</time>
      </trkpt>
      <trkpt lat="46.67665" lon="-1.67984">
        <ele>33</ele>
        <time>2018-01-13T00:21:31Z</time>
      </trkpt>
      <trkpt lat="46.67673" lon="-1.68018">
        <ele>33</ele>
        <time>2018-01-13T00:22:31Z</time>
      </trkpt>
      <trkpt lat="46.67682" lon="-1.6806">
        <ele>31</ele>
        <time>2018-01-13T00:23:31Z</time>
      </trkpt>
      <trkpt lat="46.67691" lon="-1.68099">
        <ele>30</ele>
        <time>2018-01-13T00:24:31Z</time>
      </trkpt>
      <trkpt lat="46.67694" lon="-1.68112">
        <ele>29</ele>
        <time>2018-01-13T00:25:31Z</time>
      </trkpt>
      <trkpt lat="46.67697" lon="-1.68121">
        <ele>29</ele>
        <time>2018-01-13T00:26:31Z</time>
      </trkpt>
      <trkpt lat="46.67699" lon="-1.68128">
        <ele>28</ele>
        <time>2018-01-13T00:27:31Z</time>
      </trkpt>
      <trkpt lat="46.677" lon="-1.68132">
        <ele>28</ele>
        <time>2018-01-13T00:28:31Z</time>
      </trkpt>
      <trkpt lat="46.67701" lon="-1.68136">
        <ele>28</ele>
        <time>2018-01-13T00:29:31Z</time>
      </trkpt>
      <trkpt lat="46.67703" lon="-1.68151">
        <ele>27</ele>
        <time>2018-01-13T00:30:31Z</time>
      </trkpt>
      <trkpt lat="46.67706" lon="-1.68173">
        <ele>27</ele>
        <time>2018-01-13T00:31:31Z</time>
      </trkpt>
      <trkpt lat="46.67706" lon="-1.68176">
        <ele>27</ele>
        <time>2018-01-13T00:32:31Z</time>
      </trkpt>
      <trkpt lat="46.67707" lon="-1.68183">
        <ele>26</ele>
        <time>2018-01-13T00:33:31Z</time>
      </trkpt>
      <trkpt lat="46.67711" lon="-1.68208">
        <ele>26</ele>
        <time>2018-01-13T00:34:31Z</time>
      </trkpt>
      <trkpt lat="46.67717" lon="-1.6824">
        <ele>25</ele>
        <time>2018-01-13T00:35:31Z</time>
      </trkpt>
      <trkpt lat="46.6772" lon="-1.68252">
        <ele>25</ele>
        <time>2018-01-13T00:36:31Z</time>
      </trkpt>
      <trkpt lat="46.67724" lon="-1.68273">
        <ele>25</ele>
        <time>2018-01-13T00:37:31Z</time>
      </trkpt>
      <trkpt lat="46.67728" lon="-1.68296">
        <ele>24</ele>
        <time>2018-01-13T00:38:31Z</time>
      </trkpt>
      <trkpt lat="46.67733" lon="-1.68322">
        <ele>24</ele>
        <time>2018-01-13T00:39:31Z</time>
      </trkpt>
      <trkpt lat="46.67737" lon="-1.68347">
        <ele>24</ele>
        <time>2018-01-13T00:40:31Z</time>
      </trkpt>
      <trkpt lat="46.67742" lon="-1.68373">
        <ele>24</ele>
        <time>2018-01-13T00:41:31Z</time>
      </trkpt>
      <trkpt lat="46.67746" lon="-1.68391">
        <ele>25</ele>
        <time>2018-01-13T00:42:31Z</time>
      </trkpt>
      <trkpt lat="46.67749" lon="-1.68409">
        <ele>25</ele>
        <time>2018-01-13T00:43:31Z</time>
      </trkpt>
      <trkpt lat="46.67753" lon="-1.68427">
        <ele>25</ele>
        <time>2018-01-13T00:44:31Z</time>
      </trkpt>
      <trkpt lat="46.67756" lon="-1.68448">
        <ele>25</ele>
        <time>2018-01-13T00:45:31Z</time>
      </trkpt>
      <trkpt lat="46.6776" lon="-1.68466">
        <ele>25</ele>
        <time>2018-01-13T00:46:31Z</time>
      </trkpt>
      <trkpt lat="46.6776" lon="-1.68469">
        <ele>25</ele>
        <time>2018-01-13T00:47:31Z</time>
      </trkpt>
      <trkpt lat="46.67762" lon="-1.6848">
        <ele>25</ele>
        <time>2018-01-13T00:48:31Z</time>
      </trkpt>
      <trkpt lat="46.67765" lon="-1.68493">
        <ele>26</ele>
        <time>2018-01-13T00:49:31Z</time>
      </trkpt>
      <trkpt lat="46.67766" lon="-1.685">
        <ele>26</ele>
        <time>2018-01-13T00:50:31Z</time>
      </trkpt>
      <trkpt lat="46.67772" lon="-1.68539">
        <ele>26</ele>
        <time>2018-01-13T00:51:31Z</time>
      </trkpt>
      <trkpt lat="46.6778" lon="-1.68583">
        <ele>27</ele>
        <time>2018-01-13T00:52:31Z</time>
      </trkpt>
      <trkpt lat="46.67783" lon="-1.68599">
        <ele>26</ele>
        <time>2018-01-13T00:53:31Z</time>
      </trkpt>
      <trkpt lat="46.67787" lon="-1.68611">
        <ele>26</ele>
        <time>2018-01-13T00:54:31Z</time>
      </trkpt>
      <trkpt lat="46.67791" lon="-1.68624">
        <ele>26</ele>
        <time>2018-01-13T00:55:31Z</time>
      </trkpt>
      <trkpt lat="46.67794" lon="-1.6863">
        <ele>26</ele>
        <time>2018-01-13T00:56:31Z</time>
      </trkpt>
      <trkpt lat="46.67796" lon="-1.68635">
        <ele>26</ele>
        <time>2018-01-13T00:57:31Z</time>
      </trkpt>
      <trkpt lat="46.67802" lon="-1.68648">
        <ele>26</ele>
        <time>2018-01-13T00:58:31Z</time>
      </trkpt>
      <trkpt lat="46.67808" lon="-1.68657">
        <ele>26</ele>
        <time>2018-01-13T00:59:31Z</time>
      </trkpt>
      <trkpt lat="46.67814" lon="-1.68665">
        <ele>26</ele>
        <time>2018-01-13T01:00:31Z</time>
      </trkpt>
      <trkpt lat="46.6782" lon="-1.68671">
        <ele>26</ele>
        <time>2018-01-13T01:01:31Z</time>
      </trkpt>
      <trkpt lat="46.67827" lon="-1.68677">
        <ele>26</ele>
        <time>2018-01-13T01:02:31Z</time>
      </trkpt>
      <trkpt lat="46.67833" lon="-1.68682">
        <ele>25</ele>
        <time>2018-01-13T01:03:31Z</time>
      </trkpt>
      <trkpt lat="46.67848" lon="-1.68691">
        <ele>25</ele>
        <time>2018-01-13T01:04:31Z</time>
      </trkpt>
      <trkpt lat="46.67864" lon="-1.687">
        <ele>25</ele>
        <time>2018-01-13T01:05:31Z</time>
      </trkpt>
      <trkpt lat="46.67881" lon="-1.68709">
        <ele>24</ele>
        <time>2018-01-13T01:06:31Z</time>
      </trkpt>
      <trkpt lat="46.67899" lon="-1.68719">
        <ele>24</ele>
        <time>2018-01-13T01:07:31Z</time>
      </trkpt>
      <trkpt lat="46.67918" lon="-1.68729">
        <ele>23</ele>
        <time>2018-01-13T01:08:31Z</time>
      </trkpt>
      <trkpt lat="46.67931" lon="-1.68735">
        <ele>23</ele>
        <time>2018-01-13T01:09:31Z</time>
      </trkpt>
      <trkpt lat="46.67937" lon="-1.68738">
        <ele>23</ele>
        <time>2018-01-13T01:10:31Z</time>
      </trkpt>
      <trkpt lat="46.67943" lon="-1.68741">
        <ele>23</ele>
        <time>2018-01-13T01:11:31Z</time>
      </trkpt>
      <trkpt lat="46.6795" lon="-1.68744">
        <ele>22</ele>
        <time>2018-01-13T01:12:31Z</time>
      </trkpt>
      <trkpt lat="46.67957" lon="-1.68748">
        <ele>22</ele>
        <time>2018-01-13T01:13:31Z</time>
      </trkpt>
      <trkpt lat="46.67963" lon="-1.68751">
        <ele>22</ele>
        <time>2018-01-13T01:14:31Z</time>
      </trkpt>
      <trkpt lat="46.67982" lon="-1.6876">
        <ele>21</ele>
        <time>2018-01-13T01:15:31Z</time>
      </trkpt>
      <trkpt lat="46.68001" lon="-1.68769">
        <ele>21</ele>
        <time>2018-01-13T01:16:31Z</time>
      </trkpt>
      <trkpt lat="46.68014" lon="-1.68775">
        <ele>21</ele>
        <time>2018-01-13T01:17:31Z</time>
      </trkpt>
      <trkpt lat="46.68022" lon="-1.68779">
        <ele>22</ele>
        <time>2018-01-13T01:18:31Z</time>
      </trkpt>
      <trkpt lat="46.68028" lon="-1.68784">
        <ele>22</ele>
        <time>2018-01-13T01:19:31Z</time>
      </trkpt>
      <trkpt lat="46.68036" lon="-1.68789">
        <ele>22</ele>
        <time>2018-01-13T01:20:31Z</time>
      </trkpt>
      <trkpt lat="46.68042" lon="-1.68796">
        <ele>23</ele>
        <time>2018-01-13T01:21:31Z</time>
      </trkpt>
      <trkpt lat="46.68046" lon="-1.68801">
        <ele>23</ele>
        <time>2018-01-13T01:22:31Z</time>
      </trkpt>
      <trkpt lat="46.68052" lon="-1.68809">
        <ele>23</ele>
        <time>2018-01-13T01:23:31Z</time>
      </trkpt>
      <trkpt lat="46.68058" lon="-1.68823">
        <ele>24</ele>
        <time>2018-01-13T01:24:31Z</time>
      </trkpt>
      <trkpt lat="46.68062" lon="-1.68838">
        <ele>25</ele>
        <time>2018-01-13T01:25:31Z</time>
      </trkpt>
      <trkpt lat="46.68064" lon="-1.6885">
        <ele>25</ele>
        <time>2018-01-13T01:26:31Z</time>
      </trkpt>
      <trkpt lat="46.68066" lon="-1.6887">
        <ele>26</ele>
        <time>2018-01-13T01:27:31Z</time>
      </trkpt>
      <trkpt lat="46.68066" lon="-1.68888">
        <ele>26</ele>
        <time>2018-01-13T01:28:31Z</time>
      </trkpt>
      <trkpt lat="46.68064" lon="-1.68919">
        <ele>27</ele>
        <time>2018-01-13T01:29:31Z</time>
      </trkpt>
      <trkpt lat="46.68061" lon="-1.68962">
        <ele>27</ele>
        <time>2018-01-13T01:30:31Z</time>
      </trkpt>
      <trkpt lat="46.68058" lon="-1.68992">
        <ele>27</ele>
        <time>2018-01-13T01:31:31Z</time>
      </trkpt>
      <trkpt lat="46.68056" lon="-1.69016">
        <ele>27</ele>
        <time>2018-01-13T01:32:31Z</time>
      </trkpt>
      <trkpt lat="46.68054" lon="-1.69036">
        <ele>27</ele>
        <time>2018-01-13T01:33:31Z</time>
      </trkpt>
      <trkpt lat="46.68046" lon="-1.69093">
        <ele>26</ele>
        <time>2018-01-13T01:34:31Z</time>
      </trkpt>
      <trkpt lat="46.68044" lon="-1.69117">
        <ele>26</ele>
        <time>2018-01-13T01:35:31Z</time>
      </trkpt>
      <trkpt lat="46.68043" lon="-1.69141">
        <ele>25</ele>
        <time>2018-01-13T01:36:31Z</time>
      </trkpt>
      <trkpt lat="46.68044" lon="-1.69245">
        <ele>26</ele>
        <time>2018-01-13T01:37:31Z</time>
      </trkpt>
      <trkpt lat="46.68046" lon="-1.69285">
        <ele>26</ele>
        <time>2018-01-13T01:38:31Z</time>
      </trkpt>
      <trkpt lat="46.68047" lon="-1.69306">
        <ele>26</ele>
        <time>2018-01-13T01:39:31Z</time>
      </trkpt>
      <trkpt lat="46.68047" lon="-1.69326">
        <ele>26</ele>
        <time>2018-01-13T01:40:31Z</time>
      </trkpt>
      <trkpt lat="46.68048" lon="-1.69369">
        <ele>25</ele>
        <time>2018-01-13T01:41:31Z</time>
      </trkpt>
      <trkpt lat="46.6805" lon="-1.69409">
        <ele>24</ele>
        <time>2018-01-13T01:42:31Z</time>
      </trkpt>
      <trkpt lat="46.68051" lon="-1.69451">
        <ele>24</ele>
        <time>2018-01-13T01:43:31Z</time>
      </trkpt>
      <trkpt lat="46.68053" lon="-1.69491">
        <ele>24</ele>
        <time>2018-01-13T01:44:31Z</time>
      </trkpt>
      <trkpt lat="46.68054" lon="-1.69532">
        <ele>24</ele>
        <time>2018-01-13T01:45:31Z</time>
      </trkpt>
      <trkpt lat="46.68055" lon="-1.69572">
        <ele>24</ele>
        <time>2018-01-13T01:46:31Z</time>
      </trkpt>
      <trkpt lat="46.68058" lon="-1.69624">
        <ele>25</ele>
        <time>2018-01-13T01:47:31Z</time>
      </trkpt>
      <trkpt lat="46.68064" lon="-1.69679">
        <ele>27</ele>
        <time>2018-01-13T01:48:31Z</time>
      </trkpt>
      <trkpt lat="46.68071" lon="-1.69728">
        <ele>29</ele>
        <time>2018-01-13T01:49:31Z</time>
      </trkpt>
      <trkpt lat="46.68096" lon="-1.69846">
        <ele>34</ele>
        <time>2018-01-13T01:50:31Z</time>
      </trkpt>
      <trkpt lat="46.681" lon="-1.69864">
        <ele>34</ele>
        <time>2018-01-13T01:51:31Z</time>
      </trkpt>
      <trkpt lat="46.6811" lon="-1.69893">
        <ele>34</ele>
        <time>2018-01-13T01:52:31Z</time>
      </trkpt>
      <trkpt lat="46.68121" lon="-1.69918">
        <ele>35</ele>
        <time>2018-01-13T01:53:31Z</time>
      </trkpt>
      <trkpt lat="46.68128" lon="-1.69931">
        <ele>35</ele>
        <time>2018-01-13T01:54:31Z</time>
      </trkpt>
      <trkpt lat="46.68136" lon="-1.69944">
        <ele>36</ele>
        <time>2018-01-13T01:55:31Z</time>
      </trkpt>
      <trkpt lat="46.68148" lon="-1.69959">
        <ele>37</ele>
        <time>2018-01-13T01:56:31Z</time>
      </trkpt>
      <trkpt lat="46.68163" lon="-1.69978">
        <ele>38</ele>
        <time>2018-01-13T01:57:31Z</time>
      </trkpt>
      <trkpt lat="46.68177" lon="-1.69992">
        <ele>37</ele>
        <time>2018-01-13T01:58:31Z</time>
      </trkpt>
      <trkpt lat="46.68194" lon="-1.70014">
        <ele>37</ele>
        <time>2018-01-13T01:59:31Z</time>
      </trkpt>
      <trkpt lat="46.68215" lon="-1.70038">
        <ele>36</ele>
        <time>2018-01-13T02:00:31Z</time>
      </trkpt>
      <trkpt lat="46.68231" lon="-1.70062">
        <ele>35</ele>
        <time>2018-01-13T02:01:31Z</time>
      </trkpt>
      <trkpt lat="46.68238" lon="-1.70077">
        <ele>35</ele>
        <time>2018-01-13T02:02:31Z</time>
      </trkpt>
      <trkpt lat="46.68244" lon="-1.70092">
        <ele>35</ele>
        <time>2018-01-13T02:03:31Z</time>
      </trkpt>
      <trkpt lat="46.6825" lon="-1.70114">
        <ele>36</ele>
        <time>2018-01-13T02:04:31Z</time>
      </trkpt>
      <trkpt lat="46.68255" lon="-1.70143">
        <ele>36</ele>
        <time>2018-01-13T02:05:31Z</time>
      </trkpt>
      <trkpt lat="46.68257" lon="-1.70169">
        <ele>37</ele>
        <time>2018-01-13T02:06:31Z</time>
      </trkpt>
      <trkpt lat="46.68257" lon="-1.70221">
        <ele>38</ele>
        <time>2018-01-13T02:07:31Z</time>
      </trkpt>
      <trkpt lat="46.68258" lon="-1.70271">
        <ele>40</ele>
        <time>2018-01-13T02:08:31Z</time>
      </trkpt>
      <trkpt lat="46.68258" lon="-1.70316">
        <ele>41</ele>
        <time>2018-01-13T02:09:31Z</time>
      </trkpt>
      <trkpt lat="46.68259" lon="-1.70337">
        <ele>42</ele>
        <time>2018-01-13T02:10:31Z</time>
      </trkpt>
      <trkpt lat="46.68263" lon="-1.70381">
        <ele>43</ele>
        <time>2018-01-13T02:11:31Z</time>
      </trkpt>
      <trkpt lat="46.68271" lon="-1.70435">
        <ele>45</ele>
        <time>2018-01-13T02:12:31Z</time>
      </trkpt>
      <trkpt lat="46.68284" lon="-1.70491">
        <ele>45</ele>
        <time>2018-01-13T02:13:31Z</time>
      </trkpt>
      <trkpt lat="46.68299" lon="-1.70552">
        <ele>46</ele>
        <time>2018-01-13T02:14:31Z</time>
      </trkpt>
      <trkpt lat="46.68317" lon="-1.70631">
        <ele>47</ele>
        <time>2018-01-13T02:15:31Z</time>
      </trkpt>
      <trkpt lat="46.68339" lon="-1.70714">
        <ele>48</ele>
        <time>2018-01-13T02:16:31Z</time>
      </trkpt>
      <trkpt lat="46.68356" lon="-1.70784">
        <ele>50</ele>
        <time>2018-01-13T02:17:31Z</time>
      </trkpt>
      <trkpt lat="46.68368" lon="-1.70831">
        <ele>50</ele>
        <time>2018-01-13T02:18:31Z</time>
      </trkpt>
      <trkpt lat="46.68375" lon="-1.70873">
        <ele>51</ele>
        <time>2018-01-13T02:19:31Z</time>
      </trkpt>
      <trkpt lat="46.68379" lon="-1.70903">
        <ele>52</ele>
        <time>2018-01-13T02:20:31Z</time>
      </trkpt>
      <trkpt lat="46.6838" lon="-1.70922">
        <ele>52</ele>
        <time>2018-01-13T02:21:31Z</time>
      </trkpt>
      <trkpt lat="46.68381" lon="-1.70947">
        <ele>52</ele>
        <time>2018-01-13T02:22:31Z</time>
      </trkpt>
      <trkpt lat="46.6838" lon="-1.70975">
        <ele>53</ele>
        <time>2018-01-13T02:23:31Z</time>
      </trkpt>
      <trkpt lat="46.68379" lon="-1.71001">
        <ele>53</ele>
        <time>2018-01-13T02:24:31Z</time>
      </trkpt>
      <trkpt lat="46.68377" lon="-1.71036">
        <ele>54</ele>
        <time>2018-01-13T02:25:31Z</time>
      </trkpt>
      <trkpt lat="46.68374" lon="-1.71103">
        <ele>54</ele>
        <time>2018-01-13T02:26:31Z</time>
      </trkpt>
      <trkpt lat="46.68372" lon="-1.71141">
        <ele>54</ele>
        <time>2018-01-13T02:27:31Z</time>
      </trkpt>
      <trkpt lat="46.6837" lon="-1.71179">
        <ele>54</ele>
        <time>2018-01-13T02:28:31Z</time>
      </trkpt>
      <trkpt lat="46.68367" lon="-1.71208">
        <ele>54</ele>
        <time>2018-01-13T02:29:31Z</time>
      </trkpt>
      <trkpt lat="46.68365" lon="-1.71235">
        <ele>53</ele>
        <time>2018-01-13T02:30:31Z</time>
      </trkpt>
      <trkpt lat="46.68358" lon="-1.71278">
        <ele>53</ele>
        <time>2018-01-13T02:31:31Z</time>
      </trkpt>
      <trkpt lat="46.68351" lon="-1.71325">
        <ele>52</ele>
        <time>2018-01-13T02:32:31Z</time>
      </trkpt>
      <trkpt lat="46.68343" lon="-1.71375">
        <ele>51</ele>
        <time>2018-01-13T02:33:31Z</time>
      </trkpt>
      <trkpt lat="46.68337" lon="-1.71414">
        <ele>51</ele>
        <time>2018-01-13T02:34:31Z</time>
      </trkpt>
      <trkpt lat="46.68329" lon="-1.71466">
        <ele>51</ele>
        <time>2018-01-13T02:35:31Z</time>
      </trkpt>
      <trkpt lat="46.68323" lon="-1.71507">
        <ele>50</ele>
        <time>2018-01-13T02:36:31Z</time>
      </trkpt>
      <trkpt lat="46.68318" lon="-1.71539">
        <ele>50</ele>
        <time>2018-01-13T02:37:31Z</time>
      </trkpt>
      <trkpt lat="46.68311" lon="-1.71582">
        <ele>49</ele>
        <time>2018-01-13T02:38:31Z</time>
      </trkpt>
      <trkpt lat="46.68303" lon="-1.71634">
        <ele>49</ele>
        <time>2018-01-13T02:39:31Z</time>
      </trkpt>
      <trkpt lat="46.68294" lon="-1.71693">
        <ele>50</ele>
        <time>2018-01-13T02:40:31Z</time>
      </trkpt>
      <trkpt lat="46.68286" lon="-1.71739">
        <ele>49</ele>
        <time>2018-01-13T02:41:31Z</time>
      </trkpt>
      <trkpt lat="46.68279" lon="-1.71789">
        <ele>50</ele>
        <time>2018-01-13T02:42:31Z</time>
      </trkpt>
      <trkpt lat="46.68271" lon="-1.7184">
        <ele>51</ele>
        <time>2018-01-13T02:43:31Z</time>
      </trkpt>
      <trkpt lat="46.68264" lon="-1.71881">
        <ele>53</ele>
        <time>2018-01-13T02:44:31Z</time>
      </trkpt>
      <trkpt lat="46.68261" lon="-1.71902">
        <ele>54</ele>
        <time>2018-01-13T02:45:31Z</time>
      </trkpt>
      <trkpt lat="46.68257" lon="-1.71918">
        <ele>54</ele>
        <time>2018-01-13T02:46:31Z</time>
      </trkpt>
      <trkpt lat="46.68256" lon="-1.7192">
        <ele>54</ele>
        <time>2018-01-13T02:47:31Z</time>
      </trkpt>
      <trkpt lat="46.68255" lon="-1.71923">
        <ele>54</ele>
        <time>2018-01-13T02:48:31Z</time>
      </trkpt>
      <trkpt lat="46.6825" lon="-1.71931">
        <ele>54</ele>
        <time>2018-01-13T02:49:31Z</time>
      </trkpt>
      <trkpt lat="46.68238" lon="-1.71947">
        <ele>54</ele>
        <time>2018-01-13T02:50:31Z</time>
      </trkpt>
      <trkpt lat="46.68232" lon="-1.71954">
        <ele>54</ele>
        <time>2018-01-13T02:51:31Z</time>
      </trkpt>
      <trkpt lat="46.6823" lon="-1.71961">
        <ele>54</ele>
        <time>2018-01-13T02:52:31Z</time>
      </trkpt>
      <trkpt lat="46.68225" lon="-1.71977">
        <ele>54</ele>
        <time>2018-01-13T02:53:31Z</time>
      </trkpt>
      <trkpt lat="46.68225" lon="-1.71977">
        <ele>54</ele>
        <time>2018-01-13T02:54:31Z</time>
      </trkpt>
      <trkpt lat="46.68218" lon="-1.72009">
        <ele>54</ele>
        <time>2018-01-13T02:55:31Z</time>
      </trkpt>
      <trkpt lat="46.68214" lon="-1.7203">
        <ele>54</ele>
        <time>2018-01-13T02:56:31Z</time>
      </trkpt>
      <trkpt lat="46.68206" lon="-1.72075">
        <ele>54</ele>
        <time>2018-01-13T02:57:31Z</time>
      </trkpt>
      <trkpt lat="46.68196" lon="-1.72131">
        <ele>53</ele>
        <time>2018-01-13T02:58:31Z</time>
      </trkpt>
      <trkpt lat="46.68193" lon="-1.72148">
        <ele>53</ele>
        <time>2018-01-13T02:59:31Z</time>
      </trkpt>
      <trkpt lat="46.68184" lon="-1.72208">
        <ele>53</ele>
        <time>2018-01-13T03:00:31Z</time>
      </trkpt>
      <trkpt lat="46.6818" lon="-1.7223">
        <ele>52</ele>
        <time>2018-01-13T03:01:31Z</time>
      </trkpt>
      <trkpt lat="46.68172" lon="-1.72282">
        <ele>52</ele>
        <time>2018-01-13T03:02:31Z</time>
      </trkpt>
      <trkpt lat="46.68165" lon="-1.72324">
        <ele>52</ele>
        <time>2018-01-13T03:03:31Z</time>
      </trkpt>
      <trkpt lat="46.68164" lon="-1.72334">
        <ele>52</ele>
        <time>2018-01-13T03:04:31Z</time>
      </trkpt>
      <trkpt lat="46.68158" lon="-1.72367">
        <ele>53</ele>
        <time>2018-01-13T03:05:31Z</time>
      </trkpt>
      <trkpt lat="46.68158" lon="-1.72384">
        <ele>53</ele>
        <time>2018-01-13T03:06:31Z</time>
      </trkpt>
      <trkpt lat="46.68159" lon="-1.72389">
        <ele>53</ele>
        <time>2018-01-13T03:07:31Z</time>
      </trkpt>
      <trkpt lat="46.68168" lon="-1.72413">
        <ele>54</ele>
        <time>2018-01-13T03:08:31Z</time>
      </trkpt>
      <trkpt lat="46.68188" lon="-1.72444">
        <ele>54</ele>
        <time>2018-01-13T03:09:31Z</time>
      </trkpt>
      <trkpt lat="46.68214" lon="-1.72483">
        <ele>55</ele>
        <time>2018-01-13T03:10:31Z</time>
      </trkpt>
      <trkpt lat="46.68236" lon="-1.72517">
        <ele>56</ele>
        <time>2018-01-13T03:11:31Z</time>
      </trkpt>
      <trkpt lat="46.68268" lon="-1.72563">
        <ele>56</ele>
        <time>2018-01-13T03:12:31Z</time>
      </trkpt>
      <trkpt lat="46.68278" lon="-1.72575">
        <ele>57</ele>
        <time>2018-01-13T03:13:31Z</time>
      </trkpt>
      <trkpt lat="46.68278" lon="-1.72575">
        <ele>57</ele>
        <time>2018-01-13T03:14:31Z</time>
      </trkpt>
      <trkpt lat="46.68269" lon="-1.7261">
        <ele>56</ele>
        <time>2018-01-13T03:15:31Z</time>
      </trkpt>
      <trkpt lat="46.68266" lon="-1.72621">
        <ele>56</ele>
        <time>2018-01-13T03:16:31Z</time>
      </trkpt>
      <trkpt lat="46.68263" lon="-1.72627">
        <ele>56</ele>
        <time>2018-01-13T03:17:31Z</time>
      </trkpt>
      <trkpt lat="46.68252" lon="-1.72655">
        <ele>56</ele>
        <time>2018-01-13T03:18:31Z</time>
      </trkpt>
      <trkpt lat="46.68228" lon="-1.72705">
        <ele>56</ele>
        <time>2018-01-13T03:19:31Z</time>
      </trkpt>
      <trkpt lat="46.68205" lon="-1.72753">
        <ele>56</ele>
        <time>2018-01-13T03:20:31Z</time>
      </trkpt>
      <trkpt lat="46.68183" lon="-1.72801">
        <ele>56</ele>
        <time>2018-01-13T03:21:31Z</time>
      </trkpt>
      <trkpt lat="46.68164" lon="-1.72843">
        <ele>57</ele>
        <time>2018-01-13T03:22:31Z</time>
      </trkpt>
      <trkpt lat="46.68155" lon="-1.72862">
        <ele>57</ele>
        <time>2018-01-13T03:23:31Z</time>
      </trkpt>
      <trkpt lat="46.68147" lon="-1.72879">
        <ele>57</ele>
        <time>2018-01-13T03:24:31Z</time>
      </trkpt>
      <trkpt lat="46.68147" lon="-1.72879">
        <ele>57</ele>
        <time>2018-01-13T03:25:31Z</time>
      </trkpt>
      <trkpt lat="46.68124" lon="-1.72932">
        <ele>57</ele>
        <time>2018-01-13T03:26:31Z</time>
      </trkpt>
      <trkpt lat="46.68099" lon="-1.72985">
        <ele>57</ele>
        <time>2018-01-13T03:27:31Z</time>
      </trkpt>
      <trkpt lat="46.68075" lon="-1.73037">
        <ele>57</ele>
        <time>2018-01-13T03:28:31Z</time>
      </trkpt>
      <trkpt lat="46.68058" lon="-1.73071">
        <ele>57</ele>
        <time>2018-01-13T03:29:31Z</time>
      </trkpt>
      <trkpt lat="46.68052" lon="-1.73087">
        <ele>57</ele>
        <time>2018-01-13T03:30:31Z</time>
      </trkpt>
      <trkpt lat="46.6804" lon="-1.73107">
        <ele>57</ele>
        <time>2018-01-13T03:31:31Z</time>
      </trkpt>
      <trkpt lat="46.68017" lon="-1.73152">
        <ele>57</ele>
        <time>2018-01-13T03:32:31Z</time>
      </trkpt>
      <trkpt lat="46.6799" lon="-1.7319">
        <ele>56</ele>
        <time>2018-01-13T03:33:31Z</time>
      </trkpt>
      <trkpt lat="46.67973" lon="-1.73214">
        <ele>56</ele>
        <time>2018-01-13T03:34:31Z</time>
      </trkpt>
      <trkpt lat="46.67943" lon="-1.73253">
        <ele>55</ele>
        <time>2018-01-13T03:35:31Z</time>
      </trkpt>
      <trkpt lat="46.67918" lon="-1.73284">
        <ele>55</ele>
        <time>2018-01-13T03:36:31Z</time>
      </trkpt>
      <trkpt lat="46.67895" lon="-1.73314">
        <ele>54</ele>
        <time>2018-01-13T03:37:31Z</time>
      </trkpt>
      <trkpt lat="46.67883" lon="-1.73328">
        <ele>54</ele>
        <time>2018-01-13T03:38:31Z</time>
      </trkpt>
      <trkpt lat="46.67858" lon="-1.7336">
        <ele>54</ele>
        <time>2018-01-13T03:39:31Z</time>
      </trkpt>
      <trkpt lat="46.67828" lon="-1.734">
        <ele>55</ele>
        <time>2018-01-13T03:40:31Z</time>
      </trkpt>
      <trkpt lat="46.67807" lon="-1.73435">
        <ele>55</ele>
        <time>2018-01-13T03:41:31Z</time>
      </trkpt>
      <trkpt lat="46.67794" lon="-1.7346">
        <ele>56</ele>
        <time>2018-01-13T03:42:31Z</time>
      </trkpt>
      <trkpt lat="46.67788" lon="-1.73472">
        <ele>56</ele>
        <time>2018-01-13T03:43:31Z</time>
      </trkpt>
      <trkpt lat="46.6778" lon="-1.73487">
        <ele>57</ele>
        <time>2018-01-13T03:44:31Z</time>
      </trkpt>
      <trkpt lat="46.6776" lon="-1.73529">
        <ele>57</ele>
        <time>2018-01-13T03:45:31Z</time>
      </trkpt>
      <trkpt lat="46.67736" lon="-1.73571">
        <ele>56</ele>
        <time>2018-01-13T03:46:31Z</time>
      </trkpt>
      <trkpt lat="46.67717" lon="-1.73602">
        <ele>56</ele>
        <time>2018-01-13T03:47:31Z</time>
      </trkpt>
      <trkpt lat="46.67702" lon="-1.73625">
        <ele>56</ele>
        <time>2018-01-13T03:48:31Z</time>
      </trkpt>
      <trkpt lat="46.67688" lon="-1.73647">
        <ele>55</ele>
        <time>2018-01-13T03:49:31Z</time>
      </trkpt>
      <trkpt lat="46.67673" lon="-1.7367">
        <ele>55</ele>
        <time>2018-01-13T03:50:31Z</time>
      </trkpt>
      <trkpt lat="46.67654" lon="-1.73705">
        <ele>55</ele>
        <time>2018-01-13T03:51:31Z</time>
      </trkpt>
      <trkpt lat="46.67649" lon="-1.73715">
        <ele>55</ele>
        <time>2018-01-13T03:52:31Z</time>
      </trkpt>
      <trkpt lat="46.67646" lon="-1.73722">
        <ele>55</ele>
        <time>2018-01-13T03:53:31Z</time>
      </trkpt>
      <trkpt lat="46.67641" lon="-1.73732">
        <ele>56</ele>
        <time>2018-01-13T03:54:31Z</time>
      </trkpt>
      <trkpt lat="46.67638" lon="-1.73739">
        <ele>56</ele>
        <time>2018-01-13T03:55:31Z</time>
      </trkpt>
      <trkpt lat="46.67635" lon="-1.73748">
        <ele>56</ele>
        <time>2018-01-13T03:56:31Z</time>
      </trkpt>
      <trkpt lat="46.6763" lon="-1.7376">
        <ele>56</ele>
        <time>2018-01-13T03:57:31Z</time>
      </trkpt>
      <trkpt lat="46.67628" lon="-1.73767">
        <ele>56</ele>
        <time>2018-01-13T03:58:31Z</time>
      </trkpt>
      <trkpt lat="46.67626" lon="-1.73772">
        <ele>56</ele>
        <time>2018-01-13T03:59:31Z</time>
      </trkpt>
      <trkpt lat="46.67616" lon="-1.73811">
        <ele>57</ele>
        <time>2018-01-13T04:00:31Z</time>
      </trkpt>
      <trkpt lat="46.676" lon="-1.7387">
        <ele>57</ele>
        <time>2018-01-13T04:01:31Z</time>
      </trkpt>
      <trkpt lat="46.67588" lon="-1.73917">
        <ele>57</ele>
        <time>2018-01-13T04:02:31Z</time>
      </trkpt>
      <trkpt lat="46.67584" lon="-1.73933">
        <ele>57</ele>
        <time>2018-01-13T04:03:31Z</time>
      </trkpt>
      <trkpt lat="46.67573" lon="-1.73977">
        <ele>56</ele>
        <time>2018-01-13T04:04:31Z</time>
      </trkpt>
      <trkpt lat="46.6757" lon="-1.73991">
        <ele>56</ele>
        <time>2018-01-13T04:05:31Z</time>
      </trkpt>
      <trkpt lat="46.67567" lon="-1.74002">
        <ele>56</ele>
        <time>2018-01-13T04:06:31Z</time>
      </trkpt>
      <trkpt lat="46.67565" lon="-1.74013">
        <ele>56</ele>
        <time>2018-01-13T04:07:31Z</time>
      </trkpt>
      <trkpt lat="46.67564" lon="-1.7402">
        <ele>56</ele>
        <time>2018-01-13T04:08:31Z</time>
      </trkpt>
      <trkpt lat="46.67562" lon="-1.7403">
        <ele>56</ele>
        <time>2018-01-13T04:09:31Z</time>
      </trkpt>
      <trkpt lat="46.67561" lon="-1.74041">
        <ele>56</ele>
        <time>2018-01-13T04:10:31Z</time>
      </trkpt>
      <trkpt lat="46.67559" lon="-1.74058">
        <ele>56</ele>
        <time>2018-01-13T04:11:31Z</time>
      </trkpt>
      <trkpt lat="46.67558" lon="-1.7407">
        <ele>56</ele>
        <time>2018-01-13T04:12:31Z</time>
      </trkpt>
      <trkpt lat="46.67556" lon="-1.74086">
        <ele>56</ele>
        <time>2018-01-13T04:13:31Z</time>
      </trkpt>
      <trkpt lat="46.67554" lon="-1.74112">
        <ele>56</ele>
        <time>2018-01-13T04:14:31Z</time>
      </trkpt>
      <trkpt lat="46.67553" lon="-1.74134">
        <ele>56</ele>
        <time>2018-01-13T04:15:31Z</time>
      </trkpt>
      <trkpt lat="46.67551" lon="-1.74173">
        <ele>55</ele>
        <time>2018-01-13T04:16:31Z</time>
      </trkpt>
      <trkpt lat="46.67551" lon="-1.74185">
        <ele>55</ele>
        <time>2018-01-13T04:17:31Z</time>
      </trkpt>
      <trkpt lat="46.6755" lon="-1.74196">
        <ele>56</ele>
        <time>2018-01-13T04:18:31Z</time>
      </trkpt>
      <trkpt lat="46.6755" lon="-1.74219">
        <ele>56</ele>
        <time>2018-01-13T04:19:31Z</time>
      </trkpt>
      <trkpt lat="46.6755" lon="-1.74269">
        <ele>56</ele>
        <time>2018-01-13T04:20:31Z</time>
      </trkpt>
      <trkpt lat="46.67551" lon="-1.74311">
        <ele>55</ele>
        <time>2018-01-13T04:21:31Z</time>
      </trkpt>
      <trkpt lat="46.67551" lon="-1.74341">
        <ele>55</ele>
        <time>2018-01-13T04:22:31Z</time>
      </trkpt>
      <trkpt lat="46.67551" lon="-1.74348">
        <ele>55</ele>
        <time>2018-01-13T04:23:31Z</time>
      </trkpt>
      <trkpt lat="46.67551" lon="-1.74355">
        <ele>56</ele>
        <time>2018-01-13T04:24:31Z</time>
      </trkpt>
      <trkpt lat="46.67551" lon="-1.74362">
        <ele>56</ele>
        <time>2018-01-13T04:25:31Z</time>
      </trkpt>
      <trkpt lat="46.6755" lon="-1.74368">
        <ele>56</ele>
        <time>2018-01-13T04:26:31Z</time>
      </trkpt>
      <trkpt lat="46.6755" lon="-1.74375">
        <ele>56</ele>
        <time>2018-01-13T04:27:31Z</time>
      </trkpt>
      <trkpt lat="46.67548" lon="-1.7439">
        <ele>56</ele>
        <time>2018-01-13T04:28:31Z</time>
      </trkpt>
      <trkpt lat="46.67546" lon="-1.74405">
        <ele>56</ele>
        <time>2018-01-13T04:29:31Z</time>
      </trkpt>
      <trkpt lat="46.67541" lon="-1.7444">
        <ele>56</ele>
        <time>2018-01-13T04:30:31Z</time>
      </trkpt>
      <trkpt lat="46.67539" lon="-1.7445">
        <ele>56</ele>
        <time>2018-01-13T04:31:31Z</time>
      </trkpt>
      <trkpt lat="46.67537" lon="-1.74466">
        <ele>56</ele>
        <time>2018-01-13T04:32:31Z</time>
      </trkpt>
      <trkpt lat="46.67536" lon="-1.74472">
        <ele>56</ele>
        <time>2018-01-13T04:33:31Z</time>
      </trkpt>
      <trkpt lat="46.67535" lon="-1.74478">
        <ele>56</ele>
        <time>2018-01-13T04:34:31Z</time>
      </trkpt>
      <trkpt lat="46.67533" lon="-1.74483">
        <ele>56</ele>
        <time>2018-01-13T04:35:31Z</time>
      </trkpt>
      <trkpt lat="46.67532" lon="-1.74489">
        <ele>56</ele>
        <time>2018-01-13T04:36:31Z</time>
      </trkpt>
      <trkpt lat="46.67528" lon="-1.74505">
        <ele>56</ele>
        <time>2018-01-13T04:37:31Z</time>
      </trkpt>
      <trkpt lat="46.67523" lon="-1.7452">
        <ele>56</ele>
        <time>2018-01-13T04:38:31Z</time>
      </trkpt>
      <trkpt lat="46.6752" lon="-1.74532">
        <ele>56</ele>
        <time>2018-01-13T04:39:31Z</time>
      </trkpt>
      <trkpt lat="46.67517" lon="-1.74543">
        <ele>57</ele>
        <time>2018-01-13T04:40:31Z</time>
      </trkpt>
      <trkpt lat="46.67513" lon="-1.74555">
        <ele>57</ele>
        <time>2018-01-13T04:41:31Z</time>
      </trkpt>
      <trkpt lat="46.67508" lon="-1.74569">
        <ele>57</ele>
        <time>2018-01-13T04:42:31Z</time>
      </trkpt>
      <trkpt lat="46.67505" lon="-1.7458">
        <ele>58</ele>
        <time>2018-01-13T04:43:31Z</time>
      </trkpt>
      <trkpt lat="46.67504" lon="-1.74584">
        <ele>58</ele>
        <time>2018-01-13T04:44:31Z</time>
      </trkpt>
      <trkpt lat="46.67502" lon="-1.74587">
        <ele>58</ele>
        <time>2018-01-13T04:45:31Z</time>
      </trkpt>
      <trkpt lat="46.675" lon="-1.74593">
        <ele>58</ele>
        <time>2018-01-13T04:46:31Z</time>
      </trkpt>
      <trkpt lat="46.67496" lon="-1.74603">
        <ele>58</ele>
        <time>2018-01-13T04:47:31Z</time>
      </trkpt>
      <trkpt lat="46.67493" lon="-1.74612">
        <ele>58</ele>
        <time>2018-01-13T04:48:31Z</time>
      </trkpt>
      <trkpt lat="46.6749" lon="-1.7462">
        <ele>58</ele>
        <time>2018-01-13T04:49:31Z</time>
      </trkpt>
      <trkpt lat="46.67486" lon="-1.7463">
        <ele>58</ele>
        <time>2018-01-13T04:50:31Z</time>
      </trkpt>
      <trkpt lat="46.67483" lon="-1.74636">
        <ele>58</ele>
        <time>2018-01-13T04:51:31Z</time>
      </trkpt>
      <trkpt lat="46.67479" lon="-1.74645">
        <ele>58</ele>
        <time>2018-01-13T04:52:31Z</time>
      </trkpt>
      <trkpt lat="46.67472" lon="-1.74661">
        <ele>58</ele>
        <time>2018-01-13T04:53:31Z</time>
      </trkpt>
      <trkpt lat="46.6747" lon="-1.74665">
        <ele>58</ele>
        <time>2018-01-13T04:54:31Z</time>
      </trkpt>
      <trkpt lat="46.67464" lon="-1.74677">
        <ele>58</ele>
        <time>2018-01-13T04:55:31Z</time>
      </trkpt>
      <trkpt lat="46.6746" lon="-1.74685">
        <ele>58</ele>
        <time>2018-01-13T04:56:31Z</time>
      </trkpt>
      <trkpt lat="46.67453" lon="-1.74697">
        <ele>58</ele>
        <time>2018-01-13T04:57:31Z</time>
      </trkpt>
      <trkpt lat="46.67434" lon="-1.74731">
        <ele>57</ele>
        <time>2018-01-13T04:58:31Z</time>
      </trkpt>
      <trkpt lat="46.67419" lon="-1.74759">
        <ele>57</ele>
        <time>2018-01-13T04:59:31Z</time>
      </trkpt>
      <trkpt lat="46.67414" lon="-1.74767">
        <ele>57</ele>
        <time>2018-01-13T05:00:31Z</time>
      </trkpt>
      <trkpt lat="46.67402" lon="-1.74791">
        <ele>56</ele>
        <time>2018-01-13T05:01:31Z</time>
      </trkpt>
      <trkpt lat="46.6738" lon="-1.74835">
        <ele>56</ele>
        <time>2018-01-13T05:02:31Z</time>
      </trkpt>
      <trkpt lat="46.67367" lon="-1.7486">
        <ele>56</ele>
        <time>2018-01-13T05:03:31Z</time>
      </trkpt>
      <trkpt lat="46.67358" lon="-1.74879">
        <ele>56</ele>
        <time>2018-01-13T05:04:31Z</time>
      </trkpt>
      <trkpt lat="46.67356" lon="-1.74883">
        <ele>56</ele>
        <time>2018-01-13T05:05:31Z</time>
      </trkpt>
      <trkpt lat="46.67354" lon="-1.74887">
        <ele>56</ele>
        <time>2018-01-13T05:06:31Z</time>
      </trkpt>
      <trkpt lat="46.67353" lon="-1.7489">
        <ele>56</ele>
        <time>2018-01-13T05:07:31Z</time>
      </trkpt>
      <trkpt lat="46.67351" lon="-1.74898">
        <ele>56</ele>
        <time>2018-01-13T05:08:31Z</time>
      </trkpt>
      <trkpt lat="46.67349" lon="-1.74904">
        <ele>56</ele>
        <time>2018-01-13T05:09:31Z</time>
      </trkpt>
      <trkpt lat="46.67344" lon="-1.74923">
        <ele>56</ele>
        <time>2018-01-13T05:10:31Z</time>
      </trkpt>
      <trkpt lat="46.6734" lon="-1.74943">
        <ele>56</ele>
        <time>2018-01-13T05:11:31Z</time>
      </trkpt>
      <trkpt lat="46.67338" lon="-1.74952">
        <ele>56</ele>
        <time>2018-01-13T05:12:31Z</time>
      </trkpt>
      <trkpt lat="46.67337" lon="-1.74956">
        <ele>56</ele>
        <time>2018-01-13T05:13:31Z</time>
      </trkpt>
      <trkpt lat="46.67336" lon="-1.74959">
        <ele>56</ele>
        <time>2018-01-13T05:14:31Z</time>
      </trkpt>
      <trkpt lat="46.67334" lon="-1.74964">
        <ele>56</ele>
        <time>2018-01-13T05:15:31Z</time>
      </trkpt>
      <trkpt lat="46.67333" lon="-1.74969">
        <ele>56</ele>
        <time>2018-01-13T05:16:31Z</time>
      </trkpt>
      <trkpt lat="46.67331" lon="-1.74975">
        <ele>56</ele>
        <time>2018-01-13T05:17:31Z</time>
      </trkpt>
      <trkpt lat="46.6733" lon="-1.74979">
        <ele>56</ele>
        <time>2018-01-13T05:18:31Z</time>
      </trkpt>
      <trkpt lat="46.67329" lon="-1.74984">
        <ele>56</ele>
        <time>2018-01-13T05:19:31Z</time>
      </trkpt>
      <trkpt lat="46.67323" lon="-1.74998">
        <ele>56</ele>
        <time>2018-01-13T05:20:31Z</time>
      </trkpt>
      <trkpt lat="46.67323" lon="-1.74998">
        <ele>56</ele>
        <time>2018-01-13T05:21:31Z</time>
      </trkpt>
      <trkpt lat="46.67328" lon="-1.75013">
        <ele>56</ele>
        <time>2018-01-13T05:22:31Z</time>
      </trkpt>
      <trkpt lat="46.67332" lon="-1.75025">
        <ele>56</ele>
        <time>2018-01-13T05:23:31Z</time>
      </trkpt>
      <trkpt lat="46.67337" lon="-1.7504">
        <ele>56</ele>
        <time>2018-01-13T05:24:31Z</time>
      </trkpt>
      <trkpt lat="46.67347" lon="-1.75067">
        <ele>55</ele>
        <time>2018-01-13T05:25:31Z</time>
      </trkpt>
      <trkpt lat="46.67353" lon="-1.75086">
        <ele>55</ele>
        <time>2018-01-13T05:26:31Z</time>
      </trkpt>
      <trkpt lat="46.67358" lon="-1.75099">
        <ele>55</ele>
        <time>2018-01-13T05:27:31Z</time>
      </trkpt>
      <trkpt lat="46.67371" lon="-1.75119">
        <ele>55</ele>
        <time>2018-01-13T05:28:31Z</time>
      </trkpt>
      <trkpt lat="46.67373" lon="-1.75124">
        <ele>55</ele>
        <time>2018-01-13T05:29:31Z</time>
      </trkpt>
      <trkpt lat="46.67375" lon="-1.75129">
        <ele>55</ele>
        <time>2018-01-13T05:30:31Z</time>
      </trkpt>
      <trkpt lat="46.67384" lon="-1.75132">
        <ele>55</ele>
        <time>2018-01-13T05:31:31Z</time>
      </trkpt>
      <trkpt lat="46.67407" lon="-1.75142">
        <ele>55</ele>
        <time>2018-01-13T05:32:31Z</time>
      </trkpt>
      <trkpt lat="46.67418" lon="-1.75147">
        <ele>55</ele>
        <time>2018-01-13T05:33:31Z</time>
      </trkpt>
      <trkpt lat="46.67442" lon="-1.75156">
        <ele>55</ele>
        <time>2018-01-13T05:34:31Z</time>
      </trkpt>
      <trkpt lat="46.67469" lon="-1.75167">
        <ele>55</ele>
        <time>2018-01-13T05:35:31Z</time>
      </trkpt>
      <trkpt lat="46.67508" lon="-1.75182">
        <ele>55</ele>
        <time>2018-01-13T05:36:31Z</time>
      </trkpt>
      <trkpt lat="46.67526" lon="-1.75189">
        <ele>55</ele>
        <time>2018-01-13T05:37:31Z</time>
      </trkpt>
      <trkpt lat="46.67538" lon="-1.75194">
        <ele>55</ele>
        <time>2018-01-13T05:38:31Z</time>
      </trkpt>
      <trkpt lat="46.67551" lon="-1.75199">
        <ele>55</ele>
        <time>2018-01-13T05:39:31Z</time>
      </trkpt>
      <trkpt lat="46.67559" lon="-1.75202">
        <ele>55</ele>
        <time>2018-01-13T05:40:31Z</time>
      </trkpt>
      <trkpt lat="46.67565" lon="-1.75204">
        <ele>55</ele>
        <time>2018-01-13T05:41:31Z</time>
      </trkpt>
      <trkpt lat="46.67571" lon="-1.75205">
        <ele>55</ele>
        <time>2018-01-13T05:42:31Z</time>
      </trkpt>
      <trkpt lat="46.67579" lon="-1.75206">
        <ele>55</ele>
        <time>2018-01-13T05:43:31Z</time>
      </trkpt>
      <trkpt lat="46.67585" lon="-1.75206">
        <ele>56</ele>
        <time>2018-01-13T05:44:31Z</time>
      </trkpt>
      <trkpt lat="46.67591" lon="-1.75205">
        <ele>56</ele>
        <time>2018-01-13T05:45:31Z</time>
      </trkpt>
      <trkpt lat="46.67596" lon="-1.75204">
        <ele>56</ele>
        <time>2018-01-13T05:46:31Z</time>
      </trkpt>
      <trkpt lat="46.676" lon="-1.75203">
        <ele>56</ele>
        <time>2018-01-13T05:47:31Z</time>
      </trkpt>
      <trkpt lat="46.67633" lon="-1.75191">
        <ele>56</ele>
        <time>2018-01-13T05:48:31Z</time>
      </trkpt>
      <trkpt lat="46.67669" lon="-1.75176">
        <ele>57</ele>
        <time>2018-01-13T05:49:31Z</time>
      </trkpt>
      <trkpt lat="46.67669" lon="-1.75176">
        <ele>57</ele>
        <time>2018-01-13T05:50:31Z</time>
      </trkpt>
      <trkpt lat="46.67674" lon="-1.75177">
        <ele>57</ele>
        <time>2018-01-13T05:51:31Z</time>
      </trkpt>
      <trkpt lat="46.67678" lon="-1.75179">
        <ele>57</ele>
        <time>2018-01-13T05:52:31Z</time>
      </trkpt>
      <trkpt lat="46.67681" lon="-1.7518">
        <ele>57</ele>
        <time>2018-01-13T05:53:31Z</time>
      </trkpt>
      <trkpt lat="46.67684" lon="-1.75183">
        <ele>57</ele>
        <time>2018-01-13T05:54:31Z</time>
      </trkpt>
      <trkpt lat="46.67686" lon="-1.75185">
        <ele>57</ele>
        <time>2018-01-13T05:55:31Z</time>
      </trkpt>
      <trkpt lat="46.67691" lon="-1.7519">
        <ele>57</ele>
        <time>2018-01-13T05:56:31Z</time>
      </trkpt>
      <trkpt lat="46.67695" lon="-1.75195">
        <ele>57</ele>
        <time>2018-01-13T05:57:31Z</time>
      </trkpt>
      <trkpt lat="46.67698" lon="-1.75201">
        <ele>57</ele>
        <time>2018-01-13T05:58:31Z</time>
      </trkpt>
      <trkpt lat="46.67701" lon="-1.75206">
        <ele>57</ele>
        <time>2018-01-13T05:59:31Z</time>
      </trkpt>
      <trkpt lat="46.67704" lon="-1.75214">
        <ele>57</ele>
        <time>2018-01-13T06:00:31Z</time>
      </trkpt>
      <trkpt lat="46.67706" lon="-1.75219">
        <ele>57</ele>
        <time>2018-01-13T06:01:31Z</time>
      </trkpt>
      <trkpt lat="46.67709" lon="-1.75229">
        <ele>56</ele>
        <time>2018-01-13T06:02:31Z</time>
      </trkpt>
      <trkpt lat="46.67711" lon="-1.75239">
        <ele>56</ele>
        <time>2018-01-13T06:03:31Z</time>
      </trkpt>
      <trkpt lat="46.67714" lon="-1.75249">
        <ele>56</ele>
        <time>2018-01-13T06:04:31Z</time>
      </trkpt>
      <trkpt lat="46.67715" lon="-1.75262">
        <ele>56</ele>
        <time>2018-01-13T06:05:31Z</time>
      </trkpt>
      <trkpt lat="46.67716" lon="-1.75277">
        <ele>56</ele>
        <time>2018-01-13T06:06:31Z</time>
      </trkpt>
      <trkpt lat="46.67717" lon="-1.75295">
        <ele>56</ele>
        <time>2018-01-13T06:07:31Z</time>
      </trkpt>
      <trkpt lat="46.67716" lon="-1.75319">
        <ele>56</ele>
        <time>2018-01-13T06:08:31Z</time>
      </trkpt>
      <trkpt lat="46.67716" lon="-1.75348">
        <ele>56</ele>
        <time>2018-01-13T06:09:31Z</time>
      </trkpt>
      <trkpt lat="46.67716" lon="-1.75356">
        <ele>56</ele>
        <time>2018-01-13T06:10:31Z</time>
      </trkpt>
      <trkpt lat="46.67715" lon="-1.75367">
        <ele>56</ele>
        <time>2018-01-13T06:11:31Z</time>
      </trkpt>
      <trkpt lat="46.67715" lon="-1.75378">
        <ele>56</ele>
        <time>2018-01-13T06:12:31Z</time>
      </trkpt>
      <trkpt lat="46.67716" lon="-1.75393">
        <ele>56</ele>
        <time>2018-01-13T06:13:31Z</time>
      </trkpt>
      <trkpt lat="46.67719" lon="-1.75481">
        <ele>55</ele>
        <time>2018-01-13T06:14:31Z</time>
      </trkpt>
      <trkpt lat="46.67721" lon="-1.75528">
        <ele>55</ele>
        <time>2018-01-13T06:15:31Z</time>
      </trkpt>
      <trkpt lat="46.67725" lon="-1.75622">
        <ele>55</ele>
        <time>2018-01-13T06:16:31Z</time>
      </trkpt>
      <trkpt lat="46.67728" lon="-1.75682">
        <ele>55</ele>
        <time>2018-01-13T06:17:31Z</time>
      </trkpt>
      <trkpt lat="46.67728" lon="-1.75693">
        <ele>55</ele>
        <time>2018-01-13T06:18:31Z</time>
      </trkpt>
      <trkpt lat="46.67729" lon="-1.75701">
        <ele>55</ele>
        <time>2018-01-13T06:19:31Z</time>
      </trkpt>
      <trkpt lat="46.67729" lon="-1.75707">
        <ele>55</ele>
        <time>2018-01-13T06:20:31Z</time>
      </trkpt>
      <trkpt lat="46.6773" lon="-1.7571">
        <ele>55</ele>
        <time>2018-01-13T06:21:31Z</time>
      </trkpt>
      <trkpt lat="46.6773" lon="-1.75714">
        <ele>55</ele>
        <time>2018-01-13T06:22:31Z</time>
      </trkpt>
      <trkpt lat="46.67731" lon="-1.75717">
        <ele>55</ele>
        <time>2018-01-13T06:23:31Z</time>
      </trkpt>
      <trkpt lat="46.67732" lon="-1.75721">
        <ele>55</ele>
        <time>2018-01-13T06:24:31Z</time>
      </trkpt>
      <trkpt lat="46.67733" lon="-1.75723">
        <ele>55</ele>
        <time>2018-01-13T06:25:31Z</time>
      </trkpt>
      <trkpt lat="46.67734" lon="-1.75726">
        <ele>55</ele>
        <time>2018-01-13T06:26:31Z</time>
      </trkpt>
      <trkpt lat="46.67736" lon="-1.75728">
        <ele>55</ele>
        <time>2018-01-13T06:27:31Z</time>
      </trkpt>
      <trkpt lat="46.67738" lon="-1.75731">
        <ele>55</ele>
        <time>2018-01-13T06:28:31Z</time>
      </trkpt>
      <trkpt lat="46.6774" lon="-1.75732">
        <ele>55</ele>
        <time>2018-01-13T06:29:31Z</time>
      </trkpt>
      <trkpt lat="46.67743" lon="-1.75733">
        <ele>55</ele>
        <time>2018-01-13T06:30:31Z</time>
      </trkpt>
      <trkpt lat="46.67746" lon="-1.75734">
        <ele>55</ele>
        <time>2018-01-13T06:31:31Z</time>
      </trkpt>
      <trkpt lat="46.67752" lon="-1.75734">
        <ele>55</ele>
        <time>2018-01-13T06:32:31Z</time>
      </trkpt>
      <trkpt lat="46.67765" lon="-1.75732">
        <ele>55</ele>
        <time>2018-01-13T06:33:31Z</time>
      </trkpt>
      <trkpt lat="46.67789" lon="-1.75728">
        <ele>55</ele>
        <time>2018-01-13T06:34:31Z</time>
      </trkpt>
      <trkpt lat="46.67823" lon="-1.75722">
        <ele>55</ele>
        <time>2018-01-13T06:35:31Z</time>
      </trkpt>
      <trkpt lat="46.67865" lon="-1.75715">
        <ele>54</ele>
        <time>2018-01-13T06:36:31Z</time>
      </trkpt>
      <trkpt lat="46.67871" lon="-1.75714">
        <ele>54</ele>
        <time>2018-01-13T06:37:31Z</time>
      </trkpt>
      <trkpt lat="46.6788" lon="-1.75712">
        <ele>54</ele>
        <time>2018-01-13T06:38:31Z</time>
      </trkpt>
      <trkpt lat="46.67926" lon="-1.75699">
        <ele>53</ele>
        <time>2018-01-13T06:39:31Z</time>
      </trkpt>
      <trkpt lat="46.67939" lon="-1.75696">
        <ele>53</ele>
        <time>2018-01-13T06:40:31Z</time>
      </trkpt>
      <trkpt lat="46.67947" lon="-1.75694">
        <ele>53</ele>
        <time>2018-01-13T06:41:31Z</time>
      </trkpt>
      <trkpt lat="46.67956" lon="-1.75691">
        <ele>53</ele>
        <time>2018-01-13T06:42:31Z</time>
      </trkpt>
      <trkpt lat="46.67961" lon="-1.7569">
        <ele>53</ele>
        <time>2018-01-13T06:43:31Z</time>
      </trkpt>
      <trkpt lat="46.67969" lon="-1.75688">
        <ele>53</ele>
        <time>2018-01-13T06:44:31Z</time>
      </trkpt>
      <trkpt lat="46.67982" lon="-1.75685">
        <ele>53</ele>
        <time>2018-01-13T06:45:31Z</time>
      </trkpt>
      <trkpt lat="46.67993" lon="-1.75684">
        <ele>53</ele>
        <time>2018-01-13T06:46:31Z</time>
      </trkpt>
      <trkpt lat="46.67998" lon="-1.75684">
        <ele>53</ele>
        <time>2018-01-13T06:47:31Z</time>
      </trkpt>
      <trkpt lat="46.68019" lon="-1.75687">
        <ele>53</ele>
        <time>2018-01-13T06:48:31Z</time>
      </trkpt>
      <trkpt lat="46.6804" lon="-1.75689">
        <ele>53</ele>
        <time>2018-01-13T06:49:31Z</time>
      </trkpt>
      <trkpt lat="46.6806" lon="-1.75689">
        <ele>52</ele>
        <time>2018-01-13T06:50:31Z</time>
      </trkpt>
      <trkpt lat="46.6808" lon="-1.75691">
        <ele>52</ele>
        <time>2018-01-13T06:51:31Z</time>
      </trkpt>
      <trkpt lat="46.68086" lon="-1.75692">
        <ele>52</ele>
        <time>2018-01-13T06:52:31Z</time>
      </trkpt>
      <trkpt lat="46.68091" lon="-1.75693">
        <ele>52</ele>
        <time>2018-01-13T06:53:31Z</time>
      </trkpt>
      <trkpt lat="46.68098" lon="-1.75695">
        <ele>52</ele>
        <time>2018-01-13T06:54:31Z</time>
      </trkpt>
      <trkpt lat="46.68111" lon="-1.75699">
        <ele>52</ele>
        <time>2018-01-13T06:55:31Z</time>
      </trkpt>
      <trkpt lat="46.68123" lon="-1.75703">
        <ele>52</ele>
        <time>2018-01-13T06:56:31Z</time>
      </trkpt>
      <trkpt lat="46.68145" lon="-1.75712">
        <ele>52</ele>
        <time>2018-01-13T06:57:31Z</time>
      </trkpt>
      <trkpt lat="46.68169" lon="-1.75721">
        <ele>51</ele>
        <time>2018-01-13T06:58:31Z</time>
      </trkpt>
      <trkpt lat="46.68185" lon="-1.75727">
        <ele>51</ele>
        <time>2018-01-13T06:59:31Z</time>
      </trkpt>
      <trkpt lat="46.68191" lon="-1.75729">
        <ele>51</ele>
        <time>2018-01-13T07:00:31Z</time>
      </trkpt>
      <trkpt lat="46.68198" lon="-1.75732">
        <ele>52</ele>
        <time>2018-01-13T07:01:31Z</time>
      </trkpt>
      <trkpt lat="46.68204" lon="-1.75735">
        <ele>52</ele>
        <time>2018-01-13T07:02:31Z</time>
      </trkpt>
      <trkpt lat="46.68211" lon="-1.75739">
        <ele>52</ele>
        <time>2018-01-13T07:03:31Z</time>
      </trkpt>
      <trkpt lat="46.68218" lon="-1.75744">
        <ele>52</ele>
        <time>2018-01-13T07:04:31Z</time>
      </trkpt>
      <trkpt lat="46.68226" lon="-1.75749">
        <ele>52</ele>
        <time>2018-01-13T07:05:31Z</time>
      </trkpt>
      <trkpt lat="46.6824" lon="-1.75759">
        <ele>52</ele>
        <time>2018-01-13T07:06:31Z</time>
      </trkpt>
      <trkpt lat="46.68265" lon="-1.75776">
        <ele>52</ele>
        <time>2018-01-13T07:07:31Z</time>
      </trkpt>
      <trkpt lat="46.68282" lon="-1.75787">
        <ele>52</ele>
        <time>2018-01-13T07:08:31Z</time>
      </trkpt>
      <trkpt lat="46.68306" lon="-1.75803">
        <ele>52</ele>
        <time>2018-01-13T07:09:31Z</time>
      </trkpt>
      <trkpt lat="46.68313" lon="-1.75807">
        <ele>52</ele>
        <time>2018-01-13T07:10:31Z</time>
      </trkpt>
      <trkpt lat="46.68317" lon="-1.7581">
        <ele>52</ele>
        <time>2018-01-13T07:11:31Z</time>
      </trkpt>
      <trkpt lat="46.68322" lon="-1.75811">
        <ele>52</ele>
        <time>2018-01-13T07:12:31Z</time>
      </trkpt>
      <trkpt lat="46.68327" lon="-1.75813">
        <ele>52</ele>
        <time>2018-01-13T07:13:31Z</time>
      </trkpt>
      <trkpt lat="46.68331" lon="-1.75814">
        <ele>52</ele>
        <time>2018-01-13T07:14:31Z</time>
      </trkpt>
      <trkpt lat="46.68335" lon="-1.75814">
        <ele>52</ele>
        <time>2018-01-13T07:15:31Z</time>
      </trkpt>
      <trkpt lat="46.6834" lon="-1.75814">
        <ele>52</ele>
        <time>2018-01-13T07:16:31Z</time>
      </trkpt>
      <trkpt lat="46.68346" lon="-1.75813">
        <ele>52</ele>
        <time>2018-01-13T07:17:31Z</time>
      </trkpt>
      <trkpt lat="46.68351" lon="-1.75813">
        <ele>52</ele>
        <time>2018-01-13T07:18:31Z</time>
      </trkpt>
      <trkpt lat="46.68356" lon="-1.75812">
        <ele>52</ele>
        <time>2018-01-13T07:19:31Z</time>
      </trkpt>
      <trkpt lat="46.68365" lon="-1.7581">
        <ele>52</ele>
        <time>2018-01-13T07:20:31Z</time>
      </trkpt>
      <trkpt lat="46.68372" lon="-1.75808">
        <ele>52</ele>
        <time>2018-01-13T07:21:31Z</time>
      </trkpt>
      <trkpt lat="46.6838" lon="-1.75806">
        <ele>52</ele>
        <time>2018-01-13T07:22:31Z</time>
      </trkpt>
      <trkpt lat="46.68395" lon="-1.758">
        <ele>52</ele>
        <time>2018-01-13T07:23:31Z</time>
      </trkpt>
      <trkpt lat="46.68404" lon="-1.75796">
        <ele>52</ele>
        <time>2018-01-13T07:24:31Z</time>
      </trkpt>
      <trkpt lat="46.68426" lon="-1.75786">
        <ele>52</ele>
        <time>2018-01-13T07:25:31Z</time>
      </trkpt>
      <trkpt lat="46.68426" lon="-1.75786">
        <ele>52</ele>
        <time>2018-01-13T07:26:31Z</time>
      </trkpt>
      <trkpt lat="46.68467" lon="-1.75768">
        <ele>51</ele>
        <time>2018-01-13T07:27:31Z</time>
      </trkpt>
      <trkpt lat="46.68492" lon="-1.75756">
        <ele>51</ele>
        <time>2018-01-13T07:28:31Z</time>
      </trkpt>
      <trkpt lat="46.68502" lon="-1.75752">
        <ele>51</ele>
        <time>2018-01-13T07:29:31Z</time>
      </trkpt>
      <trkpt lat="46.68512" lon="-1.75747">
        <ele>51</ele>
        <time>2018-01-13T07:30:31Z</time>
      </trkpt>
      <trkpt lat="46.68524" lon="-1.75741">
        <ele>50</ele>
        <time>2018-01-13T07:31:31Z</time>
      </trkpt>
      <trkpt lat="46.68547" lon="-1.75731">
        <ele>50</ele>
        <time>2018-01-13T07:32:31Z</time>
      </trkpt>
      <trkpt lat="46.68564" lon="-1.75724">
        <ele>50</ele>
        <time>2018-01-13T07:33:31Z</time>
      </trkpt>
      <trkpt lat="46.68574" lon="-1.7572">
        <ele>49</ele>
        <time>2018-01-13T07:34:31Z</time>
      </trkpt>
      <trkpt lat="46.68591" lon="-1.75715">
        <ele>49</ele>
        <time>2018-01-13T07:35:31Z</time>
      </trkpt>
      <trkpt lat="46.6861" lon="-1.75711">
        <ele>49</ele>
        <time>2018-01-13T07:36:31Z</time>
      </trkpt>
      <trkpt lat="46.68633" lon="-1.75708">
        <ele>48</ele>
        <time>2018-01-13T07:37:31Z</time>
      </trkpt>
      <trkpt lat="46.68648" lon="-1.75707">
        <ele>48</ele>
        <time>2018-01-13T07:38:31Z</time>
      </trkpt>
      <trkpt lat="46.68655" lon="-1.75706">
        <ele>48</ele>
        <time>2018-01-13T07:39:31Z</time>
      </trkpt>
      <trkpt lat="46.68661" lon="-1.75705">
        <ele>48</ele>
        <time>2018-01-13T07:40:31Z</time>
      </trkpt>
      <trkpt lat="46.68664" lon="-1.75704">
        <ele>47</ele>
        <time>2018-01-13T07:41:31Z</time>
      </trkpt>
      <trkpt lat="46.6867" lon="-1.75702">
        <ele>47</ele>
        <time>2018-01-13T07:42:31Z</time>
      </trkpt>
      <trkpt lat="46.68674" lon="-1.75701">
        <ele>47</ele>
        <time>2018-01-13T07:43:31Z</time>
      </trkpt>
      <trkpt lat="46.68677" lon="-1.757">
        <ele>47</ele>
        <time>2018-01-13T07:44:31Z</time>
      </trkpt>
      <trkpt lat="46.68697" lon="-1.75693">
        <ele>48</ele>
        <time>2018-01-13T07:45:31Z</time>
      </trkpt>
      <trkpt lat="46.68712" lon="-1.75686">
        <ele>48</ele>
        <time>2018-01-13T07:46:31Z</time>
      </trkpt>
      <trkpt lat="46.68715" lon="-1.75684">
        <ele>48</ele>
        <time>2018-01-13T07:47:31Z</time>
      </trkpt>
      <trkpt lat="46.6872" lon="-1.75682">
        <ele>48</ele>
        <time>2018-01-13T07:48:31Z</time>
      </trkpt>
      <trkpt lat="46.68727" lon="-1.75678">
        <ele>48</ele>
        <time>2018-01-13T07:49:31Z</time>
      </trkpt>
      <trkpt lat="46.6873" lon="-1.75675">
        <ele>48</ele>
        <time>2018-01-13T07:50:31Z</time>
      </trkpt>
      <trkpt lat="46.68732" lon="-1.75674">
        <ele>48</ele>
        <time>2018-01-13T07:51:31Z</time>
      </trkpt>
      <trkpt lat="46.68737" lon="-1.7567">
        <ele>48</ele>
        <time>2018-01-13T07:52:31Z</time>
      </trkpt>
      <trkpt lat="46.68742" lon="-1.75666">
        <ele>48</ele>
        <time>2018-01-13T07:53:31Z</time>
      </trkpt>
      <trkpt lat="46.68748" lon="-1.7566">
        <ele>48</ele>
        <time>2018-01-13T07:54:31Z</time>
      </trkpt>
      <trkpt lat="46.68761" lon="-1.75648">
        <ele>48</ele>
        <time>2018-01-13T07:55:31Z</time>
      </trkpt>
      <trkpt lat="46.68767" lon="-1.75641">
        <ele>48</ele>
        <time>2018-01-13T07:56:31Z</time>
      </trkpt>
      <trkpt lat="46.68776" lon="-1.75633">
        <ele>47</ele>
        <time>2018-01-13T07:57:31Z</time>
      </trkpt>
      <trkpt lat="46.68787" lon="-1.75624">
        <ele>47</ele>
        <time>2018-01-13T07:58:31Z</time>
      </trkpt>
      <trkpt lat="46.68787" lon="-1.75624">
        <ele>47</ele>
        <time>2018-01-13T07:59:31Z</time>
      </trkpt>
      <trkpt lat="46.6879" lon="-1.75621">
        <ele>47</ele>
        <time>2018-01-13T08:00:31Z</time>
      </trkpt>
      <trkpt lat="46.68805" lon="-1.7561">
        <ele>47</ele>
        <time>2018-01-13T08:01:31Z</time>
      </trkpt>
      <trkpt lat="46.68808" lon="-1.75608">
        <ele>47</ele>
        <time>2018-01-13T08:02:31Z</time>
      </trkpt>
      <trkpt lat="46.6881" lon="-1.75606">
        <ele>47</ele>
        <time>2018-01-13T08:03:31Z</time>
      </trkpt>
      <trkpt lat="46.68814" lon="-1.75604">
        <ele>47</ele>
        <time>2018-01-13T08:04:31Z</time>
      </trkpt>
      <trkpt lat="46.68816" lon="-1.75602">
        <ele>47</ele>
        <time>2018-01-13T08:05:31Z</time>
      </trkpt>
      <trkpt lat="46.68819" lon="-1.75601">
        <ele>47</ele>
        <time>2018-01-13T08:06:31Z</time>
      </trkpt>
      <trkpt lat="46.68822" lon="-1.756">
        <ele>47</ele>
        <time>2018-01-13T08:07:31Z</time>
      </trkpt>
      <trkpt lat="46.68831" lon="-1.75597">
        <ele>47</ele>
        <time>2018-01-13T08:08:31Z</time>
      </trkpt>
      <trkpt lat="46.68839" lon="-1.75595">
        <ele>47</ele>
        <time>2018-01-13T08:09:31Z</time>
      </trkpt>
      <trkpt lat="46.68848" lon="-1.75593">
        <ele>47</ele>
        <time>2018-01-13T08:10:31Z</time>
      </trkpt>
      <trkpt lat="46.68854" lon="-1.75591">
        <ele>47</ele>
        <time>2018-01-13T08:11:31Z</time>
      </trkpt>
      <trkpt lat="46.68862" lon="-1.7559">
        <ele>48</ele>
        <time>2018-01-13T08:12:31Z</time>
      </trkpt>
      <trkpt lat="46.68869" lon="-1.75589">
        <ele>48</ele>
        <time>2018-01-13T08:13:31Z</time>
      </trkpt>
      <trkpt lat="46.68872" lon="-1.75588">
        <ele>48</ele>
        <time>2018-01-13T08:14:31Z</time>
      </trkpt>
      <trkpt lat="46.68882" lon="-1.75587">
        <ele>48</ele>
        <time>2018-01-13T08:15:31Z</time>
      </trkpt>
      <trkpt lat="46.68885" lon="-1.75587">
        <ele>48</ele>
        <time>2018-01-13T08:16:31Z</time>
      </trkpt>
      <trkpt lat="46.68888" lon="-1.75587">
        <ele>48</ele>
        <time>2018-01-13T08:17:31Z</time>
      </trkpt>
      <trkpt lat="46.68891" lon="-1.75587">
        <ele>48</ele>
        <time>2018-01-13T08:18:31Z</time>
      </trkpt>
      <trkpt lat="46.68896" lon="-1.75588">
        <ele>48</ele>
        <time>2018-01-13T08:19:31Z</time>
      </trkpt>
      <trkpt lat="46.68911" lon="-1.75592">
        <ele>49</ele>
        <time>2018-01-13T08:20:31Z</time>
      </trkpt>
      <trkpt lat="46.68943" lon="-1.75601">
        <ele>46</ele>
        <time>2018-01-13T08:21:31Z</time>
      </trkpt>
      <trkpt lat="46.68959" lon="-1.75606">
        <ele>45</ele>
        <time>2018-01-13T08:22:31Z</time>
      </trkpt>
      <trkpt lat="46.6896" lon="-1.75606">
        <ele>45</ele>
        <time>2018-01-13T08:23:31Z</time>
      </trkpt>
      <trkpt lat="46.68977" lon="-1.75611">
        <ele>44</ele>
        <time>2018-01-13T08:24:31Z</time>
      </trkpt>
      <trkpt lat="46.68992" lon="-1.75614">
        <ele>43</ele>
        <time>2018-01-13T08:25:31Z</time>
      </trkpt>
      <trkpt lat="46.69013" lon="-1.75618">
        <ele>43</ele>
        <time>2018-01-13T08:26:31Z</time>
      </trkpt>
      <trkpt lat="46.69025" lon="-1.75619">
        <ele>42</ele>
        <time>2018-01-13T08:27:31Z</time>
      </trkpt>
      <trkpt lat="46.69037" lon="-1.7562">
        <ele>42</ele>
        <time>2018-01-13T08:28:31Z</time>
      </trkpt>
      <trkpt lat="46.69049" lon="-1.7562">
        <ele>42</ele>
        <time>2018-01-13T08:29:31Z</time>
      </trkpt>
      <trkpt lat="46.69055" lon="-1.7562">
        <ele>42</ele>
        <time>2018-01-13T08:30:31Z</time>
      </trkpt>
      <trkpt lat="46.69063" lon="-1.75621">
        <ele>42</ele>
        <time>2018-01-13T08:31:31Z</time>
      </trkpt>
      <trkpt lat="46.69067" lon="-1.75622">
        <ele>42</ele>
        <time>2018-01-13T08:32:31Z</time>
      </trkpt>
      <trkpt lat="46.6907" lon="-1.75624">
        <ele>42</ele>
        <time>2018-01-13T08:33:31Z</time>
      </trkpt>
      <trkpt lat="46.69082" lon="-1.75629">
        <ele>42</ele>
        <time>2018-01-13T08:34:31Z</time>
      </trkpt>
      <trkpt lat="46.69115" lon="-1.75641">
        <ele>41</ele>
        <time>2018-01-13T08:35:31Z</time>
      </trkpt>
      <trkpt lat="46.69116" lon="-1.75641">
        <ele>41</ele>
        <time>2018-01-13T08:36:31Z</time>
      </trkpt>
      <trkpt lat="46.69127" lon="-1.75645">
        <ele>41</ele>
        <time>2018-01-13T08:37:31Z</time>
      </trkpt>
      <trkpt lat="46.69133" lon="-1.75648">
        <ele>41</ele>
        <time>2018-01-13T08:38:31Z</time>
      </trkpt>
      <trkpt lat="46.69136" lon="-1.7565">
        <ele>41</ele>
        <time>2018-01-13T08:39:31Z</time>
      </trkpt>
      <trkpt lat="46.69139" lon="-1.75653">
        <ele>41</ele>
        <time>2018-01-13T08:40:31Z</time>
      </trkpt>
      <trkpt lat="46.69142" lon="-1.75655">
        <ele>41</ele>
        <time>2018-01-13T08:41:31Z</time>
      </trkpt>
      <trkpt lat="46.69144" lon="-1.75658">
        <ele>41</ele>
        <time>2018-01-13T08:42:31Z</time>
      </trkpt>
      <trkpt lat="46.6915" lon="-1.75667">
        <ele>40</ele>
        <time>2018-01-13T08:43:31Z</time>
      </trkpt>
      <trkpt lat="46.69152" lon="-1.75671">
        <ele>40</ele>
        <time>2018-01-13T08:44:31Z</time>
      </trkpt>
      <trkpt lat="46.6917" lon="-1.75709">
        <ele>40</ele>
        <time>2018-01-13T08:45:31Z</time>
      </trkpt>
      <trkpt lat="46.69182" lon="-1.75731">
        <ele>41</ele>
        <time>2018-01-13T08:46:31Z</time>
      </trkpt>
      <trkpt lat="46.69191" lon="-1.75748">
        <ele>41</ele>
        <time>2018-01-13T08:47:31Z</time>
      </trkpt>
      <trkpt lat="46.69201" lon="-1.75765">
        <ele>42</ele>
        <time>2018-01-13T08:48:31Z</time>
      </trkpt>
      <trkpt lat="46.69217" lon="-1.75791">
        <ele>43</ele>
        <time>2018-01-13T08:49:31Z</time>
      </trkpt>
      <trkpt lat="46.69223" lon="-1.75802">
        <ele>43</ele>
        <time>2018-01-13T08:50:31Z</time>
      </trkpt>
      <trkpt lat="46.69241" lon="-1.75831">
        <ele>44</ele>
        <time>2018-01-13T08:51:31Z</time>
      </trkpt>
      <trkpt lat="46.69252" lon="-1.75847">
        <ele>44</ele>
        <time>2018-01-13T08:52:31Z</time>
      </trkpt>
      <trkpt lat="46.6927" lon="-1.75874">
        <ele>44</ele>
        <time>2018-01-13T08:53:31Z</time>
      </trkpt>
      <trkpt lat="46.69284" lon="-1.75891">
        <ele>44</ele>
        <time>2018-01-13T08:54:31Z</time>
      </trkpt>
      <trkpt lat="46.6929" lon="-1.75898">
        <ele>44</ele>
        <time>2018-01-13T08:55:31Z</time>
      </trkpt>
      <trkpt lat="46.69295" lon="-1.75903">
        <ele>44</ele>
        <time>2018-01-13T08:56:31Z</time>
      </trkpt>
      <trkpt lat="46.69302" lon="-1.7591">
        <ele>43</ele>
        <time>2018-01-13T08:57:31Z</time>
      </trkpt>
      <trkpt lat="46.69306" lon="-1.75914">
        <ele>43</ele>
        <time>2018-01-13T08:58:31Z</time>
      </trkpt>
      <trkpt lat="46.6931" lon="-1.75918">
        <ele>43</ele>
        <time>2018-01-13T08:59:31Z</time>
      </trkpt>
      <trkpt lat="46.69315" lon="-1.75921">
        <ele>43</ele>
        <time>2018-01-13T09:00:31Z</time>
      </trkpt>
      <trkpt lat="46.69318" lon="-1.75924">
        <ele>43</ele>
        <time>2018-01-13T09:01:31Z</time>
      </trkpt>
      <trkpt lat="46.69323" lon="-1.75927">
        <ele>43</ele>
        <time>2018-01-13T09:02:31Z</time>
      </trkpt>
      <trkpt lat="46.69327" lon="-1.7593">
        <ele>44</ele>
        <time>2018-01-13T09:03:31Z</time>
      </trkpt>
      <trkpt lat="46.69331" lon="-1.75934">
        <ele>44</ele>
        <time>2018-01-13T09:04:31Z</time>
      </trkpt>
      <trkpt lat="46.69335" lon="-1.75936">
        <ele>44</ele>
        <time>2018-01-13T09:05:31Z</time>
      </trkpt>
      <trkpt lat="46.69339" lon="-1.75938">
        <ele>44</ele>
        <time>2018-01-13T09:06:31Z</time>
      </trkpt>
      <trkpt lat="46.69342" lon="-1.75939">
        <ele>44</ele>
        <time>2018-01-13T09:07:31Z</time>
      </trkpt>
      <trkpt lat="46.69348" lon="-1.75941">
        <ele>43</ele>
        <time>2018-01-13T09:08:31Z</time>
      </trkpt>
      <trkpt lat="46.69357" lon="-1.75944">
        <ele>43</ele>
        <time>2018-01-13T09:09:31Z</time>
      </trkpt>
      <trkpt lat="46.69368" lon="-1.75948">
        <ele>43</ele>
        <time>2018-01-13T09:10:31Z</time>
      </trkpt>
      <trkpt lat="46.69376" lon="-1.7595">
        <ele>43</ele>
        <time>2018-01-13T09:11:31Z</time>
      </trkpt>
      <trkpt lat="46.69383" lon="-1.75952">
        <ele>42</ele>
        <time>2018-01-13T09:12:31Z</time>
      </trkpt>
      <trkpt lat="46.6941" lon="-1.75957">
        <ele>41</ele>
        <time>2018-01-13T09:13:31Z</time>
      </trkpt>
      <trkpt lat="46.69414" lon="-1.75958">
        <ele>41</ele>
        <time>2018-01-13T09:14:31Z</time>
      </trkpt>
      <trkpt lat="46.69417" lon="-1.75958">
        <ele>41</ele>
        <time>2018-01-13T09:15:31Z</time>
      </trkpt>
      <trkpt lat="46.69422" lon="-1.75957">
        <ele>41</ele>
        <time>2018-01-13T09:16:31Z</time>
      </trkpt>
      <trkpt lat="46.69434" lon="-1.75956">
        <ele>41</ele>
        <time>2018-01-13T09:17:31Z</time>
      </trkpt>
      <trkpt lat="46.69438" lon="-1.75956">
        <ele>41</ele>
        <time>2018-01-13T09:18:31Z</time>
      </trkpt>
      <trkpt lat="46.69441" lon="-1.75955">
        <ele>41</ele>
        <time>2018-01-13T09:19:31Z</time>
      </trkpt>
      <trkpt lat="46.69443" lon="-1.75954">
        <ele>41</ele>
        <time>2018-01-13T09:20:31Z</time>
      </trkpt>
      <trkpt lat="46.69446" lon="-1.75953">
        <ele>41</ele>
        <time>2018-01-13T09:21:31Z</time>
      </trkpt>
      <trkpt lat="46.6945" lon="-1.75951">
        <ele>41</ele>
        <time>2018-01-13T09:22:31Z</time>
      </trkpt>
      <trkpt lat="46.69451" lon="-1.7595">
        <ele>41</ele>
        <time>2018-01-13T09:23:31Z</time>
      </trkpt>
      <trkpt lat="46.69462" lon="-1.75941">
        <ele>41</ele>
        <time>2018-01-13T09:24:31Z</time>
      </trkpt>
      <trkpt lat="46.69471" lon="-1.75933">
        <ele>41</ele>
        <time>2018-01-13T09:25:31Z</time>
      </trkpt>
      <trkpt lat="46.69485" lon="-1.75921">
        <ele>42</ele>
        <time>2018-01-13T09:26:31Z</time>
      </trkpt>
      <trkpt lat="46.69491" lon="-1.75915">
        <ele>42</ele>
        <time>2018-01-13T09:27:31Z</time>
      </trkpt>
      <trkpt lat="46.69492" lon="-1.75914">
        <ele>42</ele>
        <time>2018-01-13T09:28:31Z</time>
      </trkpt>
      <trkpt lat="46.69495" lon="-1.75912">
        <ele>42</ele>
        <time>2018-01-13T09:29:31Z</time>
      </trkpt>
      <trkpt lat="46.69498" lon="-1.75911">
        <ele>42</ele>
        <time>2018-01-13T09:30:31Z</time>
      </trkpt>
      <trkpt lat="46.69501" lon="-1.7591">
        <ele>42</ele>
        <time>2018-01-13T09:31:31Z</time>
      </trkpt>
      <trkpt lat="46.69505" lon="-1.75909">
        <ele>42</ele>
        <time>2018-01-13T09:32:31Z</time>
      </trkpt>
      <trkpt lat="46.69507" lon="-1.75909">
        <ele>42</ele>
        <time>2018-01-13T09:33:31Z</time>
      </trkpt>
      <trkpt lat="46.6951" lon="-1.75909">
        <ele>42</ele>
        <time>2018-01-13T09:34:31Z</time>
      </trkpt>
      <trkpt lat="46.69512" lon="-1.75909">
        <ele>42</ele>
        <time>2018-01-13T09:35:31Z</time>
      </trkpt>
      <trkpt lat="46.69514" lon="-1.75909">
        <ele>42</ele>
        <time>2018-01-13T09:36:31Z</time>
      </trkpt>
      <trkpt lat="46.69515" lon="-1.7591">
        <ele>42</ele>
        <time>2018-01-13T09:37:31Z</time>
      </trkpt>
      <trkpt lat="46.69519" lon="-1.75911">
        <ele>42</ele>
        <time>2018-01-13T09:38:31Z</time>
      </trkpt>
      <trkpt lat="46.69531" lon="-1.75917">
        <ele>41</ele>
        <time>2018-01-13T09:39:31Z</time>
      </trkpt>
      <trkpt lat="46.69545" lon="-1.75924">
        <ele>41</ele>
        <time>2018-01-13T09:40:31Z</time>
      </trkpt>
      <trkpt lat="46.69557" lon="-1.75929">
        <ele>40</ele>
        <time>2018-01-13T09:41:31Z</time>
      </trkpt>
      <trkpt lat="46.69561" lon="-1.75931">
        <ele>40</ele>
        <time>2018-01-13T09:42:31Z</time>
      </trkpt>
      <trkpt lat="46.69563" lon="-1.75931">
        <ele>40</ele>
        <time>2018-01-13T09:43:31Z</time>
      </trkpt>
      <trkpt lat="46.69565" lon="-1.75931">
        <ele>40</ele>
        <time>2018-01-13T09:44:31Z</time>
      </trkpt>
      <trkpt lat="46.69569" lon="-1.75929">
        <ele>40</ele>
        <time>2018-01-13T09:45:31Z</time>
      </trkpt>
      <trkpt lat="46.69571" lon="-1.75928">
        <ele>40</ele>
        <time>2018-01-13T09:46:31Z</time>
      </trkpt>
      <trkpt lat="46.69578" lon="-1.7592">
        <ele>40</ele>
        <time>2018-01-13T09:47:31Z</time>
      </trkpt>
      <trkpt lat="46.69585" lon="-1.7591">
        <ele>40</ele>
        <time>2018-01-13T09:48:31Z</time>
      </trkpt>
      <trkpt lat="46.69587" lon="-1.75907">
        <ele>40</ele>
        <time>2018-01-13T09:49:31Z</time>
      </trkpt>
      <trkpt lat="46.69587" lon="-1.75907">
        <ele>40</ele>
        <time>2018-01-13T09:50:31Z</time>
      </trkpt>
      <trkpt lat="46.69594" lon="-1.75908">
        <ele>41</ele>
        <time>2018-01-13T09:51:31Z</time>
      </trkpt>
      <trkpt lat="46.69601" lon="-1.75913">
        <ele>41</ele>
        <time>2018-01-13T09:52:31Z</time>
      </trkpt>
      <trkpt lat="46.69603" lon="-1.75914">
        <ele>41</ele>
        <time>2018-01-13T09:53:31Z</time>
      </trkpt>
      <trkpt lat="46.69609" lon="-1.75918">
        <ele>42</ele>
        <time>2018-01-13T09:54:31Z</time>
      </trkpt>
      <trkpt lat="46.69617" lon="-1.75925">
        <ele>42</ele>
        <time>2018-01-13T09:55:31Z</time>
      </trkpt>
      <trkpt lat="46.69628" lon="-1.75935">
        <ele>43</ele>
        <time>2018-01-13T09:56:31Z</time>
      </trkpt>
      <trkpt lat="46.69631" lon="-1.75937">
        <ele>43</ele>
        <time>2018-01-13T09:57:31Z</time>
      </trkpt>
      <trkpt lat="46.69647" lon="-1.75951">
        <ele>45</ele>
        <time>2018-01-13T09:58:31Z</time>
      </trkpt>
      <trkpt lat="46.69656" lon="-1.75959">
        <ele>45</ele>
        <time>2018-01-13T09:59:31Z</time>
      </trkpt>
      <trkpt lat="46.69666" lon="-1.75967">
        <ele>46</ele>
        <time>2018-01-13T10:00:31Z</time>
      </trkpt>
      <trkpt lat="46.69666" lon="-1.75967">
        <ele>46</ele>
        <time>2018-01-13T10:01:31Z</time>
      </trkpt>
      <trkpt lat="46.69674" lon="-1.75963">
        <ele>46</ele>
        <time>2018-01-13T10:02:31Z</time>
      </trkpt>
      <trkpt lat="46.69681" lon="-1.75954">
        <ele>47</ele>
        <time>2018-01-13T10:03:31Z</time>
      </trkpt>
      <trkpt lat="46.69691" lon="-1.75942">
        <ele>47</ele>
        <time>2018-01-13T10:04:31Z</time>
      </trkpt>
      <trkpt lat="46.69694" lon="-1.75939">
        <ele>47</ele>
        <time>2018-01-13T10:05:31Z</time>
      </trkpt>
      <trkpt lat="46.69696" lon="-1.75937">
        <ele>47</ele>
        <time>2018-01-13T10:06:31Z</time>
      </trkpt>
      <trkpt lat="46.69699" lon="-1.75936">
        <ele>47</ele>
        <time>2018-01-13T10:07:31Z</time>
      </trkpt>
      <trkpt lat="46.69706" lon="-1.75934">
        <ele>47</ele>
        <time>2018-01-13T10:08:31Z</time>
      </trkpt>
      <trkpt lat="46.69706" lon="-1.75934">
        <ele>47</ele>
        <time>2018-01-13T10:09:31Z</time>
      </trkpt>
      <trkpt lat="46.69707" lon="-1.75958">
        <ele>47</ele>
        <time>2018-01-13T10:10:31Z</time>
      </trkpt>
      <trkpt lat="46.69709" lon="-1.75977">
        <ele>48</ele>
        <time>2018-01-13T10:11:31Z</time>
      </trkpt>
      <trkpt lat="46.69713" lon="-1.75991">
        <ele>48</ele>
        <time>2018-01-13T10:12:31Z</time>
      </trkpt>
      <trkpt lat="46.69714" lon="-1.75997">
        <ele>48</ele>
        <time>2018-01-13T10:13:31Z</time>
      </trkpt>
      <trkpt lat="46.69718" lon="-1.76009">
        <ele>48</ele>
        <time>2018-01-13T10:14:31Z</time>
      </trkpt>
      <trkpt lat="46.69719" lon="-1.76013">
        <ele>48</ele>
        <time>2018-01-13T10:15:31Z</time>
      </trkpt>
      <trkpt lat="46.69725" lon="-1.76034">
        <ele>48</ele>
        <time>2018-01-13T10:16:31Z</time>
      </trkpt>
      <trkpt lat="46.6973" lon="-1.76055">
        <ele>49</ele>
        <time>2018-01-13T10:17:31Z</time>
      </trkpt>
      <trkpt lat="46.69736" lon="-1.76071">
        <ele>49</ele>
        <time>2018-01-13T10:18:31Z</time>
      </trkpt>
      <trkpt lat="46.6974" lon="-1.76079">
        <ele>49</ele>
        <time>2018-01-13T10:19:31Z</time>
      </trkpt>
      <trkpt lat="46.69744" lon="-1.76088">
        <ele>50</ele>
        <time>2018-01-13T10:20:31Z</time>
      </trkpt>
      <trkpt lat="46.69751" lon="-1.76109">
        <ele>50</ele>
        <time>2018-01-13T10:21:31Z</time>
      </trkpt>
      <trkpt lat="46.69754" lon="-1.76126">
        <ele>49</ele>
        <time>2018-01-13T10:22:31Z</time>
      </trkpt>
      <trkpt lat="46.69755" lon="-1.76132">
        <ele>49</ele>
        <time>2018-01-13T10:23:31Z</time>
      </trkpt>
      <trkpt lat="46.69758" lon="-1.76148">
        <ele>49</ele>
        <time>2018-01-13T10:24:31Z</time>
      </trkpt>
      <trkpt lat="46.69759" lon="-1.76164">
        <ele>49</ele>
        <time>2018-01-13T10:25:31Z</time>
      </trkpt>
      <trkpt lat="46.6976" lon="-1.76174">
        <ele>49</ele>
        <time>2018-01-13T10:26:31Z</time>
      </trkpt>
      <trkpt lat="46.69761" lon="-1.76192">
        <ele>47</ele>
        <time>2018-01-13T10:27:31Z</time>
      </trkpt>
      <trkpt lat="46.69759" lon="-1.76206">
        <ele>46</ele>
        <time>2018-01-13T10:28:31Z</time>
      </trkpt>
      <trkpt lat="46.69756" lon="-1.76225">
        <ele>45</ele>
        <time>2018-01-13T10:29:31Z</time>
      </trkpt>
      <trkpt lat="46.69756" lon="-1.76225">
        <ele>45</ele>
        <time>2018-01-13T10:30:31Z</time>
      </trkpt>
      <trkpt lat="46.69764" lon="-1.7623">
        <ele>45</ele>
        <time>2018-01-13T10:31:31Z</time>
      </trkpt>
      <trkpt lat="46.69773" lon="-1.76236">
        <ele>45</ele>
        <time>2018-01-13T10:32:31Z</time>
      </trkpt>
      <trkpt lat="46.69783" lon="-1.76239">
        <ele>45</ele>
        <time>2018-01-13T10:33:31Z</time>
      </trkpt>
      <trkpt lat="46.69792" lon="-1.76239">
        <ele>46</ele>
        <time>2018-01-13T10:34:31Z</time>
      </trkpt>
      <trkpt lat="46.69797" lon="-1.7624">
        <ele>46</ele>
        <time>2018-01-13T10:35:31Z</time>
      </trkpt>
      <trkpt lat="46.698" lon="-1.76241">
        <ele>46</ele>
        <time>2018-01-13T10:36:31Z</time>
      </trkpt>
      <trkpt lat="46.69801" lon="-1.76242">
        <ele>46</ele>
        <time>2018-01-13T10:37:31Z</time>
      </trkpt>
      <trkpt lat="46.69802" lon="-1.76243">
        <ele>46</ele>
        <time>2018-01-13T10:38:31Z</time>
      </trkpt>
      <trkpt lat="46.69805" lon="-1.76252">
        <ele>46</ele>
        <time>2018-01-13T10:39:31Z</time>
      </trkpt>
      <trkpt lat="46.6981" lon="-1.76267">
        <ele>46</ele>
        <time>2018-01-13T10:40:31Z</time>
      </trkpt>
      <trkpt lat="46.69811" lon="-1.76272">
        <ele>46</ele>
        <time>2018-01-13T10:41:31Z</time>
      </trkpt>
      <trkpt lat="46.69817" lon="-1.76299">
        <ele>46</ele>
        <time>2018-01-13T10:42:31Z</time>
      </trkpt>
      <trkpt lat="46.69818" lon="-1.76304">
        <ele>46</ele>
        <time>2018-01-13T10:43:31Z</time>
      </trkpt>
      <trkpt lat="46.69819" lon="-1.76309">
        <ele>46</ele>
        <time>2018-01-13T10:44:31Z</time>
      </trkpt>
      <trkpt lat="46.69821" lon="-1.76313">
        <ele>46</ele>
        <time>2018-01-13T10:45:31Z</time>
      </trkpt>
      <trkpt lat="46.69822" lon="-1.76315">
        <ele>46</ele>
        <time>2018-01-13T10:46:31Z</time>
      </trkpt>
      <trkpt lat="46.69823" lon="-1.76317">
        <ele>46</ele>
        <time>2018-01-13T10:47:31Z</time>
      </trkpt>
      <trkpt lat="46.69833" lon="-1.76329">
        <ele>46</ele>
        <time>2018-01-13T10:48:31Z</time>
      </trkpt>
      <trkpt lat="46.69841" lon="-1.76336">
        <ele>46</ele>
        <time>2018-01-13T10:49:31Z</time>
      </trkpt>
      <trkpt lat="46.69862" lon="-1.76351">
        <ele>46</ele>
        <time>2018-01-13T10:50:31Z</time>
      </trkpt>
      <trkpt lat="46.6988" lon="-1.76366">
        <ele>45</ele>
        <time>2018-01-13T10:51:31Z</time>
      </trkpt>
      <trkpt lat="46.69893" lon="-1.76374">
        <ele>45</ele>
        <time>2018-01-13T10:52:31Z</time>
      </trkpt>
      <trkpt lat="46.69901" lon="-1.76377">
        <ele>45</ele>
        <time>2018-01-13T10:53:31Z</time>
      </trkpt>
      <trkpt lat="46.69905" lon="-1.76378">
        <ele>45</ele>
        <time>2018-01-13T10:54:31Z</time>
      </trkpt>
      <trkpt lat="46.69922" lon="-1.76381">
        <ele>45</ele>
        <time>2018-01-13T10:55:31Z</time>
      </trkpt>
      <trkpt lat="46.69937" lon="-1.76384">
        <ele>46</ele>
        <time>2018-01-13T10:56:31Z</time>
      </trkpt>
      <trkpt lat="46.6994" lon="-1.76385">
        <ele>46</ele>
        <time>2018-01-13T10:57:31Z</time>
      </trkpt>
      <trkpt lat="46.69947" lon="-1.7639">
        <ele>46</ele>
        <time>2018-01-13T10:58:31Z</time>
      </trkpt>
      <trkpt lat="46.69953" lon="-1.76397">
        <ele>46</ele>
        <time>2018-01-13T10:59:31Z</time>
      </trkpt>
      <trkpt lat="46.69958" lon="-1.76405">
        <ele>46</ele>
        <time>2018-01-13T11:00:31Z</time>
      </trkpt>
      <trkpt lat="46.69962" lon="-1.76411">
        <ele>46</ele>
        <time>2018-01-13T11:01:31Z</time>
      </trkpt>
      <trkpt lat="46.69983" lon="-1.76444">
        <ele>47</ele>
        <time>2018-01-13T11:02:31Z</time>
      </trkpt>
      <trkpt lat="46.70001" lon="-1.76472">
        <ele>47</ele>
        <time>2018-01-13T11:03:31Z</time>
      </trkpt>
      <trkpt lat="46.70014" lon="-1.76492">
        <ele>47</ele>
        <time>2018-01-13T11:04:31Z</time>
      </trkpt>
      <trkpt lat="46.70017" lon="-1.76496">
        <ele>47</ele>
        <time>2018-01-13T11:05:31Z</time>
      </trkpt>
      <trkpt lat="46.70031" lon="-1.76518">
        <ele>48</ele>
        <time>2018-01-13T11:06:31Z</time>
      </trkpt>
      <trkpt lat="46.7005" lon="-1.76539">
        <ele>48</ele>
        <time>2018-01-13T11:07:31Z</time>
      </trkpt>
      <trkpt lat="46.7006" lon="-1.76551">
        <ele>48</ele>
        <time>2018-01-13T11:08:31Z</time>
      </trkpt>
      <trkpt lat="46.70074" lon="-1.76567">
        <ele>49</ele>
        <time>2018-01-13T11:09:31Z</time>
      </trkpt>
      <trkpt lat="46.70084" lon="-1.7658">
        <ele>49</ele>
        <time>2018-01-13T11:10:31Z</time>
      </trkpt>
      <trkpt lat="46.70094" lon="-1.76596">
        <ele>49</ele>
        <time>2018-01-13T11:11:31Z</time>
      </trkpt>
      <trkpt lat="46.70108" lon="-1.76623">
        <ele>48</ele>
        <time>2018-01-13T11:12:31Z</time>
      </trkpt>
      <trkpt lat="46.70123" lon="-1.76655">
        <ele>47</ele>
        <time>2018-01-13T11:13:31Z</time>
      </trkpt>
      <trkpt lat="46.70152" lon="-1.76712">
        <ele>45</ele>
        <time>2018-01-13T11:14:31Z</time>
      </trkpt>
      <trkpt lat="46.70176" lon="-1.76762">
        <ele>44</ele>
        <time>2018-01-13T11:15:31Z</time>
      </trkpt>
      <trkpt lat="46.70191" lon="-1.76795">
        <ele>43</ele>
        <time>2018-01-13T11:16:31Z</time>
      </trkpt>
      <trkpt lat="46.70199" lon="-1.76807">
        <ele>43</ele>
        <time>2018-01-13T11:17:31Z</time>
      </trkpt>
      <trkpt lat="46.70209" lon="-1.76828">
        <ele>43</ele>
        <time>2018-01-13T11:18:31Z</time>
      </trkpt>
      <trkpt lat="46.70215" lon="-1.76837">
        <ele>43</ele>
        <time>2018-01-13T11:19:31Z</time>
      </trkpt>
      <trkpt lat="46.70218" lon="-1.76841">
        <ele>43</ele>
        <time>2018-01-13T11:20:31Z</time>
      </trkpt>
      <trkpt lat="46.70224" lon="-1.76849">
        <ele>43</ele>
        <time>2018-01-13T11:21:31Z</time>
      </trkpt>
      <trkpt lat="46.70232" lon="-1.76855">
        <ele>43</ele>
        <time>2018-01-13T11:22:31Z</time>
      </trkpt>
      <trkpt lat="46.70244" lon="-1.76862">
        <ele>43</ele>
        <time>2018-01-13T11:23:31Z</time>
      </trkpt>
      <trkpt lat="46.70259" lon="-1.76868">
        <ele>44</ele>
        <time>2018-01-13T11:24:31Z</time>
      </trkpt>
      <trkpt lat="46.70275" lon="-1.76876">
        <ele>44</ele>
        <time>2018-01-13T11:25:31Z</time>
      </trkpt>
      <trkpt lat="46.70275" lon="-1.76876">
        <ele>44</ele>
        <time>2018-01-13T11:26:31Z</time>
      </trkpt>
      <trkpt lat="46.70287" lon="-1.76884">
        <ele>44</ele>
        <time>2018-01-13T11:27:31Z</time>
      </trkpt>
      <trkpt lat="46.703" lon="-1.76893">
        <ele>45</ele>
        <time>2018-01-13T11:28:31Z</time>
      </trkpt>
      <trkpt lat="46.70315" lon="-1.76907">
        <ele>45</ele>
        <time>2018-01-13T11:29:31Z</time>
      </trkpt>
      <trkpt lat="46.70334" lon="-1.76928">
        <ele>45</ele>
        <time>2018-01-13T11:30:31Z</time>
      </trkpt>
      <trkpt lat="46.70356" lon="-1.76951">
        <ele>46</ele>
        <time>2018-01-13T11:31:31Z</time>
      </trkpt>
      <trkpt lat="46.70365" lon="-1.76959">
        <ele>46</ele>
        <time>2018-01-13T11:32:31Z</time>
      </trkpt>
      <trkpt lat="46.7039" lon="-1.76987">
        <ele>47</ele>
        <time>2018-01-13T11:33:31Z</time>
      </trkpt>
      <trkpt lat="46.70415" lon="-1.77014">
        <ele>48</ele>
        <time>2018-01-13T11:34:31Z</time>
      </trkpt>
      <trkpt lat="46.70438" lon="-1.77039">
        <ele>49</ele>
        <time>2018-01-13T11:35:31Z</time>
      </trkpt>
      <trkpt lat="46.70453" lon="-1.77058">
        <ele>49</ele>
        <time>2018-01-13T11:36:31Z</time>
      </trkpt>
      <trkpt lat="46.70479" lon="-1.7709">
        <ele>49</ele>
        <time>2018-01-13T11:37:31Z</time>
      </trkpt>
      <trkpt lat="46.70503" lon="-1.77124">
        <ele>50</ele>
        <time>2018-01-13T11:38:31Z</time>
      </trkpt>
      <trkpt lat="46.70518" lon="-1.77143">
        <ele>50</ele>
        <time>2018-01-13T11:39:31Z</time>
      </trkpt>
      <trkpt lat="46.70528" lon="-1.77157">
        <ele>50</ele>
        <time>2018-01-13T11:40:31Z</time>
      </trkpt>
      <trkpt lat="46.70538" lon="-1.77173">
        <ele>50</ele>
        <time>2018-01-13T11:41:31Z</time>
      </trkpt>
      <trkpt lat="46.70543" lon="-1.77184">
        <ele>50</ele>
        <time>2018-01-13T11:42:31Z</time>
      </trkpt>
      <trkpt lat="46.70546" lon="-1.772">
        <ele>50</ele>
        <time>2018-01-13T11:43:31Z</time>
      </trkpt>
      <trkpt lat="46.70547" lon="-1.7722">
        <ele>50</ele>
        <time>2018-01-13T11:44:31Z</time>
      </trkpt>
      <trkpt lat="46.70545" lon="-1.77249">
        <ele>50</ele>
        <time>2018-01-13T11:45:31Z</time>
      </trkpt>
      <trkpt lat="46.70543" lon="-1.77275">
        <ele>49</ele>
        <time>2018-01-13T11:46:31Z</time>
      </trkpt>
      <trkpt lat="46.70543" lon="-1.77285">
        <ele>49</ele>
        <time>2018-01-13T11:47:31Z</time>
      </trkpt>
      <trkpt lat="46.70543" lon="-1.77306">
        <ele>49</ele>
        <time>2018-01-13T11:48:31Z</time>
      </trkpt>
      <trkpt lat="46.70544" lon="-1.77322">
        <ele>49</ele>
        <time>2018-01-13T11:49:31Z</time>
      </trkpt>
      <trkpt lat="46.70547" lon="-1.77339">
        <ele>48</ele>
        <time>2018-01-13T11:50:31Z</time>
      </trkpt>
      <trkpt lat="46.70553" lon="-1.77358">
        <ele>48</ele>
        <time>2018-01-13T11:51:31Z</time>
      </trkpt>
      <trkpt lat="46.7056" lon="-1.77378">
        <ele>48</ele>
        <time>2018-01-13T11:52:31Z</time>
      </trkpt>
      <trkpt lat="46.7057" lon="-1.77402">
        <ele>47</ele>
        <time>2018-01-13T11:53:31Z</time>
      </trkpt>
      <trkpt lat="46.70577" lon="-1.7742">
        <ele>47</ele>
        <time>2018-01-13T11:54:31Z</time>
      </trkpt>
      <trkpt lat="46.70583" lon="-1.77437">
        <ele>47</ele>
        <time>2018-01-13T11:55:31Z</time>
      </trkpt>
      <trkpt lat="46.70587" lon="-1.77451">
        <ele>47</ele>
        <time>2018-01-13T11:56:31Z</time>
      </trkpt>
      <trkpt lat="46.70589" lon="-1.77465">
        <ele>46</ele>
        <time>2018-01-13T11:57:31Z</time>
      </trkpt>
      <trkpt lat="46.70592" lon="-1.77487">
        <ele>46</ele>
        <time>2018-01-13T11:58:31Z</time>
      </trkpt>
      <trkpt lat="46.70595" lon="-1.77508">
        <ele>46</ele>
        <time>2018-01-13T11:59:31Z</time>
      </trkpt>
      <trkpt lat="46.70599" lon="-1.77528">
        <ele>45</ele>
        <time>2018-01-13T12:00:31Z</time>
      </trkpt>
      <trkpt lat="46.70608" lon="-1.77549">
        <ele>45</ele>
        <time>2018-01-13T12:01:31Z</time>
      </trkpt>
      <trkpt lat="46.70621" lon="-1.77576">
        <ele>45</ele>
        <time>2018-01-13T12:02:31Z</time>
      </trkpt>
      <trkpt lat="46.70628" lon="-1.7759">
        <ele>44</ele>
        <time>2018-01-13T12:03:31Z</time>
      </trkpt>
      <trkpt lat="46.70631" lon="-1.77596">
        <ele>45</ele>
        <time>2018-01-13T12:04:31Z</time>
      </trkpt>
      <trkpt lat="46.70642" lon="-1.77619">
        <ele>45</ele>
        <time>2018-01-13T12:05:31Z</time>
      </trkpt>
      <trkpt lat="46.70655" lon="-1.77647">
        <ele>45</ele>
        <time>2018-01-13T12:06:31Z</time>
      </trkpt>
      <trkpt lat="46.70676" lon="-1.77694">
        <ele>46</ele>
        <time>2018-01-13T12:07:31Z</time>
      </trkpt>
      <trkpt lat="46.70697" lon="-1.7774">
        <ele>47</ele>
        <time>2018-01-13T12:08:31Z</time>
      </trkpt>
      <trkpt lat="46.70722" lon="-1.77794">
        <ele>48</ele>
        <time>2018-01-13T12:09:31Z</time>
      </trkpt>
      <trkpt lat="46.7075" lon="-1.77853">
        <ele>49</ele>
        <time>2018-01-13T12:10:31Z</time>
      </trkpt>
      <trkpt lat="46.70761" lon="-1.77875">
        <ele>49</ele>
        <time>2018-01-13T12:11:31Z</time>
      </trkpt>
      <trkpt lat="46.70767" lon="-1.77891">
        <ele>49</ele>
        <time>2018-01-13T12:12:31Z</time>
      </trkpt>
      <trkpt lat="46.70772" lon="-1.77903">
        <ele>49</ele>
        <time>2018-01-13T12:13:31Z</time>
      </trkpt>
      <trkpt lat="46.70778" lon="-1.77925">
        <ele>48</ele>
        <time>2018-01-13T12:14:31Z</time>
      </trkpt>
      <trkpt lat="46.70785" lon="-1.77958">
        <ele>47</ele>
        <time>2018-01-13T12:15:31Z</time>
      </trkpt>
      <trkpt lat="46.70792" lon="-1.78">
        <ele>47</ele>
        <time>2018-01-13T12:16:31Z</time>
      </trkpt>
      <trkpt lat="46.70797" lon="-1.78031">
        <ele>47</ele>
        <time>2018-01-13T12:17:31Z</time>
      </trkpt>
      <trkpt lat="46.70802" lon="-1.78063">
        <ele>47</ele>
        <time>2018-01-13T12:18:31Z</time>
      </trkpt>
      <trkpt lat="46.70808" lon="-1.78087">
        <ele>47</ele>
        <time>2018-01-13T12:19:31Z</time>
      </trkpt>
      <trkpt lat="46.70812" lon="-1.78103">
        <ele>47</ele>
        <time>2018-01-13T12:20:31Z</time>
      </trkpt>
      <trkpt lat="46.70816" lon="-1.78118">
        <ele>47</ele>
        <time>2018-01-13T12:21:31Z</time>
      </trkpt>
      <trkpt lat="46.70822" lon="-1.78134">
        <ele>47</ele>
        <time>2018-01-13T12:22:31Z</time>
      </trkpt>
      <trkpt lat="46.70833" lon="-1.78165">
        <ele>47</ele>
        <time>2018-01-13T12:23:31Z</time>
      </trkpt>
      <trkpt lat="46.70842" lon="-1.78188">
        <ele>47</ele>
        <time>2018-01-13T12:24:31Z</time>
      </trkpt>
      <trkpt lat="46.70857" lon="-1.7823">
        <ele>47</ele>
        <time>2018-01-13T12:25:31Z</time>
      </trkpt>
      <trkpt lat="46.70867" lon="-1.78256">
        <ele>47</ele>
        <time>2018-01-13T12:26:31Z</time>
      </trkpt>
      <trkpt lat="46.70874" lon="-1.78277">
        <ele>47</ele>
        <time>2018-01-13T12:27:31Z</time>
      </trkpt>
      <trkpt lat="46.70874" lon="-1.78277">
        <ele>47</ele>
        <time>2018-01-13T12:28:31Z</time>
      </trkpt>
      <trkpt lat="46.70881" lon="-1.78294">
        <ele>46</ele>
        <time>2018-01-13T12:29:31Z</time>
      </trkpt>
      <trkpt lat="46.70887" lon="-1.78316">
        <ele>46</ele>
        <time>2018-01-13T12:30:31Z</time>
      </trkpt>
      <trkpt lat="46.7089" lon="-1.78334">
        <ele>46</ele>
        <time>2018-01-13T12:31:31Z</time>
      </trkpt>
      <trkpt lat="46.70892" lon="-1.78364">
        <ele>46</ele>
        <time>2018-01-13T12:32:31Z</time>
      </trkpt>
      <trkpt lat="46.70894" lon="-1.78404">
        <ele>46</ele>
        <time>2018-01-13T12:33:31Z</time>
      </trkpt>
      <trkpt lat="46.70896" lon="-1.78459">
        <ele>46</ele>
        <time>2018-01-13T12:34:31Z</time>
      </trkpt>
      <trkpt lat="46.70899" lon="-1.78505">
        <ele>46</ele>
        <time>2018-01-13T12:35:31Z</time>
      </trkpt>
      <trkpt lat="46.70899" lon="-1.7852">
        <ele>46</ele>
        <time>2018-01-13T12:36:31Z</time>
      </trkpt>
      <trkpt lat="46.70901" lon="-1.78566">
        <ele>46</ele>
        <time>2018-01-13T12:37:31Z</time>
      </trkpt>
      <trkpt lat="46.70904" lon="-1.78618">
        <ele>46</ele>
        <time>2018-01-13T12:38:31Z</time>
      </trkpt>
      <trkpt lat="46.70906" lon="-1.78664">
        <ele>46</ele>
        <time>2018-01-13T12:39:31Z</time>
      </trkpt>
      <trkpt lat="46.70907" lon="-1.78681">
        <ele>46</ele>
        <time>2018-01-13T12:40:31Z</time>
      </trkpt>
      <trkpt lat="46.70908" lon="-1.78691">
        <ele>46</ele>
        <time>2018-01-13T12:41:31Z</time>
      </trkpt>
      <trkpt lat="46.70909" lon="-1.78703">
        <ele>46</ele>
        <time>2018-01-13T12:42:31Z</time>
      </trkpt>
      <trkpt lat="46.70911" lon="-1.78713">
        <ele>46</ele>
        <time>2018-01-13T12:43:31Z</time>
      </trkpt>
      <trkpt lat="46.70916" lon="-1.7873">
        <ele>47</ele>
        <time>2018-01-13T12:44:31Z</time>
      </trkpt>
      <trkpt lat="46.70924" lon="-1.78759">
        <ele>47</ele>
        <time>2018-01-13T12:45:31Z</time>
      </trkpt>
      <trkpt lat="46.70938" lon="-1.78799">
        <ele>47</ele>
        <time>2018-01-13T12:46:31Z</time>
      </trkpt>
      <trkpt lat="46.70948" lon="-1.78829">
        <ele>47</ele>
        <time>2018-01-13T12:47:31Z</time>
      </trkpt>
      <trkpt lat="46.70954" lon="-1.78847">
        <ele>47</ele>
        <time>2018-01-13T12:48:31Z</time>
      </trkpt>
      <trkpt lat="46.70969" lon="-1.78895">
        <ele>46</ele>
        <time>2018-01-13T12:49:31Z</time>
      </trkpt>
      <trkpt lat="46.70979" lon="-1.78925">
        <ele>46</ele>
        <time>2018-01-13T12:50:31Z</time>
      </trkpt>
      <trkpt lat="46.70985" lon="-1.78942">
        <ele>46</ele>
        <time>2018-01-13T12:51:31Z</time>
      </trkpt>
      <trkpt lat="46.70988" lon="-1.78949">
        <ele>46</ele>
        <time>2018-01-13T12:52:31Z</time>
      </trkpt>
      <trkpt lat="46.70998" lon="-1.78971">
        <ele>45</ele>
        <time>2018-01-13T12:53:31Z</time>
      </trkpt>
      <trkpt lat="46.71014" lon="-1.79008">
        <ele>45</ele>
        <time>2018-01-13T12:54:31Z</time>
      </trkpt>
      <trkpt lat="46.71023" lon="-1.79026">
        <ele>45</ele>
        <time>2018-01-13T12:55:31Z</time>
      </trkpt>
      <trkpt lat="46.71047" lon="-1.79075">
        <ele>44</ele>
        <time>2018-01-13T12:56:31Z</time>
      </trkpt>
      <trkpt lat="46.71067" lon="-1.7912">
        <ele>43</ele>
        <time>2018-01-13T12:57:31Z</time>
      </trkpt>
      <trkpt lat="46.71084" lon="-1.79165">
        <ele>42</ele>
        <time>2018-01-13T12:58:31Z</time>
      </trkpt>
      <trkpt lat="46.71088" lon="-1.79176">
        <ele>42</ele>
        <time>2018-01-13T12:59:31Z</time>
      </trkpt>
      <trkpt lat="46.71092" lon="-1.79188">
        <ele>42</ele>
        <time>2018-01-13T13:00:31Z</time>
      </trkpt>
      <trkpt lat="46.71103" lon="-1.7922">
        <ele>41</ele>
        <time>2018-01-13T13:01:31Z</time>
      </trkpt>
      <trkpt lat="46.71116" lon="-1.79257">
        <ele>41</ele>
        <time>2018-01-13T13:02:31Z</time>
      </trkpt>
      <trkpt lat="46.71122" lon="-1.79277">
        <ele>41</ele>
        <time>2018-01-13T13:03:31Z</time>
      </trkpt>
      <trkpt lat="46.71124" lon="-1.7929">
        <ele>40</ele>
        <time>2018-01-13T13:04:31Z</time>
      </trkpt>
      <trkpt lat="46.71124" lon="-1.793">
        <ele>40</ele>
        <time>2018-01-13T13:05:31Z</time>
      </trkpt>
      <trkpt lat="46.71124" lon="-1.79304">
        <ele>40</ele>
        <time>2018-01-13T13:06:31Z</time>
      </trkpt>
      <trkpt lat="46.71124" lon="-1.7931">
        <ele>40</ele>
        <time>2018-01-13T13:07:31Z</time>
      </trkpt>
      <trkpt lat="46.71123" lon="-1.79318">
        <ele>40</ele>
        <time>2018-01-13T13:08:31Z</time>
      </trkpt>
      <trkpt lat="46.7112" lon="-1.7935">
        <ele>39</ele>
        <time>2018-01-13T13:09:31Z</time>
      </trkpt>
      <trkpt lat="46.71116" lon="-1.79388">
        <ele>39</ele>
        <time>2018-01-13T13:10:31Z</time>
      </trkpt>
      <trkpt lat="46.71111" lon="-1.79421">
        <ele>39</ele>
        <time>2018-01-13T13:11:31Z</time>
      </trkpt>
      <trkpt lat="46.7111" lon="-1.79436">
        <ele>39</ele>
        <time>2018-01-13T13:12:31Z</time>
      </trkpt>
      <trkpt lat="46.71107" lon="-1.79449">
        <ele>39</ele>
        <time>2018-01-13T13:13:31Z</time>
      </trkpt>
      <trkpt lat="46.71104" lon="-1.79463">
        <ele>39</ele>
        <time>2018-01-13T13:14:31Z</time>
      </trkpt>
      <trkpt lat="46.71102" lon="-1.79476">
        <ele>39</ele>
        <time>2018-01-13T13:15:31Z</time>
      </trkpt>
      <trkpt lat="46.71098" lon="-1.7949">
        <ele>39</ele>
        <time>2018-01-13T13:16:31Z</time>
      </trkpt>
      <trkpt lat="46.7109" lon="-1.79517">
        <ele>39</ele>
        <time>2018-01-13T13:17:31Z</time>
      </trkpt>
      <trkpt lat="46.71075" lon="-1.79573">
        <ele>39</ele>
        <time>2018-01-13T13:18:31Z</time>
      </trkpt>
      <trkpt lat="46.71071" lon="-1.79593">
        <ele>39</ele>
        <time>2018-01-13T13:19:31Z</time>
      </trkpt>
      <trkpt lat="46.71067" lon="-1.79611">
        <ele>39</ele>
        <time>2018-01-13T13:20:31Z</time>
      </trkpt>
      <trkpt lat="46.71065" lon="-1.79628">
        <ele>39</ele>
        <time>2018-01-13T13:21:31Z</time>
      </trkpt>
      <trkpt lat="46.71065" lon="-1.79641">
        <ele>39</ele>
        <time>2018-01-13T13:22:31Z</time>
      </trkpt>
      <trkpt lat="46.71065" lon="-1.79654">
        <ele>40</ele>
        <time>2018-01-13T13:23:31Z</time>
      </trkpt>
      <trkpt lat="46.71067" lon="-1.79668">
        <ele>40</ele>
        <time>2018-01-13T13:24:31Z</time>
      </trkpt>
      <trkpt lat="46.71067" lon="-1.79668">
        <ele>40</ele>
        <time>2018-01-13T13:25:31Z</time>
      </trkpt>
      <trkpt lat="46.7107" lon="-1.79681">
        <ele>40</ele>
        <time>2018-01-13T13:26:31Z</time>
      </trkpt>
      <trkpt lat="46.71073" lon="-1.79698">
        <ele>40</ele>
        <time>2018-01-13T13:27:31Z</time>
      </trkpt>
      <trkpt lat="46.71076" lon="-1.79714">
        <ele>39</ele>
        <time>2018-01-13T13:28:31Z</time>
      </trkpt>
      <trkpt lat="46.71078" lon="-1.79727">
        <ele>39</ele>
        <time>2018-01-13T13:29:31Z</time>
      </trkpt>
      <trkpt lat="46.71079" lon="-1.7974">
        <ele>39</ele>
        <time>2018-01-13T13:30:31Z</time>
      </trkpt>
      <trkpt lat="46.71079" lon="-1.79756">
        <ele>39</ele>
        <time>2018-01-13T13:31:31Z</time>
      </trkpt>
      <trkpt lat="46.71078" lon="-1.79781">
        <ele>39</ele>
        <time>2018-01-13T13:32:31Z</time>
      </trkpt>
      <trkpt lat="46.71078" lon="-1.79833">
        <ele>38</ele>
        <time>2018-01-13T13:33:31Z</time>
      </trkpt>
      <trkpt lat="46.71077" lon="-1.79882">
        <ele>38</ele>
        <time>2018-01-13T13:34:31Z</time>
      </trkpt>
      <trkpt lat="46.71076" lon="-1.79914">
        <ele>38</ele>
        <time>2018-01-13T13:35:31Z</time>
      </trkpt>
      <trkpt lat="46.71076" lon="-1.79932">
        <ele>38</ele>
        <time>2018-01-13T13:36:31Z</time>
      </trkpt>
      <trkpt lat="46.71074" lon="-1.7995">
        <ele>38</ele>
        <time>2018-01-13T13:37:31Z</time>
      </trkpt>
      <trkpt lat="46.71072" lon="-1.79969">
        <ele>38</ele>
        <time>2018-01-13T13:38:31Z</time>
      </trkpt>
      <trkpt lat="46.71069" lon="-1.79987">
        <ele>37</ele>
        <time>2018-01-13T13:39:31Z</time>
      </trkpt>
      <trkpt lat="46.71063" lon="-1.80027">
        <ele>38</ele>
        <time>2018-01-13T13:40:31Z</time>
      </trkpt>
      <trkpt lat="46.7106" lon="-1.80048">
        <ele>38</ele>
        <time>2018-01-13T13:41:31Z</time>
      </trkpt>
      <trkpt lat="46.7106" lon="-1.80057">
        <ele>38</ele>
        <time>2018-01-13T13:42:31Z</time>
      </trkpt>
      <trkpt lat="46.71059" lon="-1.80067">
        <ele>38</ele>
        <time>2018-01-13T13:43:31Z</time>
      </trkpt>
      <trkpt lat="46.7106" lon="-1.8008">
        <ele>38</ele>
        <time>2018-01-13T13:44:31Z</time>
      </trkpt>
      <trkpt lat="46.71068" lon="-1.80123">
        <ele>39</ele>
        <time>2018-01-13T13:45:31Z</time>
      </trkpt>
      <trkpt lat="46.71082" lon="-1.80187">
        <ele>39</ele>
        <time>2018-01-13T13:46:31Z</time>
      </trkpt>
      <trkpt lat="46.71091" lon="-1.80232">
        <ele>39</ele>
        <time>2018-01-13T13:47:31Z</time>
      </trkpt>
      <trkpt lat="46.71098" lon="-1.80266">
        <ele>38</ele>
        <time>2018-01-13T13:48:31Z</time>
      </trkpt>
      <trkpt lat="46.71102" lon="-1.80286">
        <ele>38</ele>
        <time>2018-01-13T13:49:31Z</time>
      </trkpt>
      <trkpt lat="46.71105" lon="-1.80304">
        <ele>38</ele>
        <time>2018-01-13T13:50:31Z</time>
      </trkpt>
      <trkpt lat="46.71107" lon="-1.80323">
        <ele>37</ele>
        <time>2018-01-13T13:51:31Z</time>
      </trkpt>
      <trkpt lat="46.71111" lon="-1.80352">
        <ele>37</ele>
        <time>2018-01-13T13:52:31Z</time>
      </trkpt>
      <trkpt lat="46.71115" lon="-1.80385">
        <ele>37</ele>
        <time>2018-01-13T13:53:31Z</time>
      </trkpt>
      <trkpt lat="46.7112" lon="-1.80424">
        <ele>36</ele>
        <time>2018-01-13T13:54:31Z</time>
      </trkpt>
      <trkpt lat="46.71124" lon="-1.80446">
        <ele>36</ele>
        <time>2018-01-13T13:55:31Z</time>
      </trkpt>
      <trkpt lat="46.71125" lon="-1.80451">
        <ele>36</ele>
        <time>2018-01-13T13:56:31Z</time>
      </trkpt>
      <trkpt lat="46.71128" lon="-1.80458">
        <ele>36</ele>
        <time>2018-01-13T13:57:31Z</time>
      </trkpt>
      <trkpt lat="46.71131" lon="-1.80469">
        <ele>36</ele>
        <time>2018-01-13T13:58:31Z</time>
      </trkpt>
      <trkpt lat="46.71135" lon="-1.80478">
        <ele>36</ele>
        <time>2018-01-13T13:59:31Z</time>
      </trkpt>
      <trkpt lat="46.7114" lon="-1.80489">
        <ele>35</ele>
        <time>2018-01-13T14:00:31Z</time>
      </trkpt>
      <trkpt lat="46.71148" lon="-1.80502">
        <ele>35</ele>
        <time>2018-01-13T14:01:31Z</time>
      </trkpt>
      <trkpt lat="46.71159" lon="-1.80524">
        <ele>35</ele>
        <time>2018-01-13T14:02:31Z</time>
      </trkpt>
      <trkpt lat="46.71165" lon="-1.80538">
        <ele>35</ele>
        <time>2018-01-13T14:03:31Z</time>
      </trkpt>
      <trkpt lat="46.71174" lon="-1.8056">
        <ele>34</ele>
        <time>2018-01-13T14:04:31Z</time>
      </trkpt>
      <trkpt lat="46.71185" lon="-1.80586">
        <ele>33</ele>
        <time>2018-01-13T14:05:31Z</time>
      </trkpt>
      <trkpt lat="46.71194" lon="-1.80608">
        <ele>32</ele>
        <time>2018-01-13T14:06:31Z</time>
      </trkpt>
      <trkpt lat="46.71199" lon="-1.80618">
        <ele>32</ele>
        <time>2018-01-13T14:07:31Z</time>
      </trkpt>
      <trkpt lat="46.71205" lon="-1.80626">
        <ele>31</ele>
        <time>2018-01-13T14:08:31Z</time>
      </trkpt>
      <trkpt lat="46.71212" lon="-1.80635">
        <ele>31</ele>
        <time>2018-01-13T14:09:31Z</time>
      </trkpt>
      <trkpt lat="46.7123" lon="-1.80657">
        <ele>29</ele>
        <time>2018-01-13T14:10:31Z</time>
      </trkpt>
      <trkpt lat="46.7126" lon="-1.80692">
        <ele>27</ele>
        <time>2018-01-13T14:11:31Z</time>
      </trkpt>
      <trkpt lat="46.71285" lon="-1.8072">
        <ele>26</ele>
        <time>2018-01-13T14:12:31Z</time>
      </trkpt>
      <trkpt lat="46.71291" lon="-1.80728">
        <ele>26</ele>
        <time>2018-01-13T14:13:31Z</time>
      </trkpt>
      <trkpt lat="46.71296" lon="-1.80741">
        <ele>26</ele>
        <time>2018-01-13T14:14:31Z</time>
      </trkpt>
      <trkpt lat="46.71298" lon="-1.80748">
        <ele>25</ele>
        <time>2018-01-13T14:15:31Z</time>
      </trkpt>
      <trkpt lat="46.71298" lon="-1.80748">
        <ele>25</ele>
        <time>2018-01-13T14:16:31Z</time>
      </trkpt>
      <trkpt lat="46.71299" lon="-1.80754">
        <ele>25</ele>
        <time>2018-01-13T14:17:31Z</time>
      </trkpt>
      <trkpt lat="46.713" lon="-1.80768">
        <ele>25</ele>
        <time>2018-01-13T14:18:31Z</time>
      </trkpt>
      <trkpt lat="46.71302" lon="-1.80799">
        <ele>25</ele>
        <time>2018-01-13T14:19:31Z</time>
      </trkpt>
      <trkpt lat="46.71303" lon="-1.8082">
        <ele>25</ele>
        <time>2018-01-13T14:20:31Z</time>
      </trkpt>
      <trkpt lat="46.71306" lon="-1.8085">
        <ele>25</ele>
        <time>2018-01-13T14:21:31Z</time>
      </trkpt>
      <trkpt lat="46.71307" lon="-1.80865">
        <ele>25</ele>
        <time>2018-01-13T14:22:31Z</time>
      </trkpt>
      <trkpt lat="46.71308" lon="-1.80888">
        <ele>24</ele>
        <time>2018-01-13T14:23:31Z</time>
      </trkpt>
      <trkpt lat="46.71309" lon="-1.80901">
        <ele>24</ele>
        <time>2018-01-13T14:24:31Z</time>
      </trkpt>
      <trkpt lat="46.7131" lon="-1.80912">
        <ele>24</ele>
        <time>2018-01-13T14:25:31Z</time>
      </trkpt>
      <trkpt lat="46.71313" lon="-1.80924">
        <ele>23</ele>
        <time>2018-01-13T14:26:31Z</time>
      </trkpt>
      <trkpt lat="46.71315" lon="-1.80934">
        <ele>23</ele>
        <time>2018-01-13T14:27:31Z</time>
      </trkpt>
      <trkpt lat="46.7132" lon="-1.80948">
        <ele>23</ele>
        <time>2018-01-13T14:28:31Z</time>
      </trkpt>
      <trkpt lat="46.7133" lon="-1.80975">
        <ele>22</ele>
        <time>2018-01-13T14:29:31Z</time>
      </trkpt>
      <trkpt lat="46.71338" lon="-1.80999">
        <ele>21</ele>
        <time>2018-01-13T14:30:31Z</time>
      </trkpt>
      <trkpt lat="46.71346" lon="-1.8102">
        <ele>20</ele>
        <time>2018-01-13T14:31:31Z</time>
      </trkpt>
      <trkpt lat="46.71365" lon="-1.81077">
        <ele>19</ele>
        <time>2018-01-13T14:32:31Z</time>
      </trkpt>
      <trkpt lat="46.7137" lon="-1.81093">
        <ele>19</ele>
        <time>2018-01-13T14:33:31Z</time>
      </trkpt>
      <trkpt lat="46.71374" lon="-1.81105">
        <ele>19</ele>
        <time>2018-01-13T14:34:31Z</time>
      </trkpt>
      <trkpt lat="46.71376" lon="-1.81116">
        <ele>19</ele>
        <time>2018-01-13T14:35:31Z</time>
      </trkpt>
      <trkpt lat="46.71377" lon="-1.81127">
        <ele>19</ele>
        <time>2018-01-13T14:36:31Z</time>
      </trkpt>
      <trkpt lat="46.71377" lon="-1.81137">
        <ele>19</ele>
        <time>2018-01-13T14:37:31Z</time>
      </trkpt>
      <trkpt lat="46.71376" lon="-1.81148">
        <ele>19</ele>
        <time>2018-01-13T14:38:31Z</time>
      </trkpt>
      <trkpt lat="46.71369" lon="-1.8118">
        <ele>19</ele>
        <time>2018-01-13T14:39:31Z</time>
      </trkpt>
      <trkpt lat="46.71366" lon="-1.81199">
        <ele>19</ele>
        <time>2018-01-13T14:40:31Z</time>
      </trkpt>
      <trkpt lat="46.71365" lon="-1.81214">
        <ele>19</ele>
        <time>2018-01-13T14:41:31Z</time>
      </trkpt>
      <trkpt lat="46.71364" lon="-1.81229">
        <ele>19</ele>
        <time>2018-01-13T14:42:31Z</time>
      </trkpt>
      <trkpt lat="46.71364" lon="-1.8124">
        <ele>19</ele>
        <time>2018-01-13T14:43:31Z</time>
      </trkpt>
      <trkpt lat="46.71365" lon="-1.8126">
        <ele>19</ele>
        <time>2018-01-13T14:44:31Z</time>
      </trkpt>
      <trkpt lat="46.71368" lon="-1.81299">
        <ele>19</ele>
        <time>2018-01-13T14:45:31Z</time>
      </trkpt>
      <trkpt lat="46.71371" lon="-1.81332">
        <ele>19</ele>
        <time>2018-01-13T14:46:31Z</time>
      </trkpt>
      <trkpt lat="46.71373" lon="-1.81367">
        <ele>20</ele>
        <time>2018-01-13T14:47:31Z</time>
      </trkpt>
      <trkpt lat="46.71376" lon="-1.81409">
        <ele>20</ele>
        <time>2018-01-13T14:48:31Z</time>
      </trkpt>
      <trkpt lat="46.71378" lon="-1.81442">
        <ele>21</ele>
        <time>2018-01-13T14:49:31Z</time>
      </trkpt>
      <trkpt lat="46.71378" lon="-1.81442">
        <ele>21</ele>
        <time>2018-01-13T14:50:31Z</time>
      </trkpt>
      <trkpt lat="46.7138" lon="-1.81484">
        <ele>21</ele>
        <time>2018-01-13T14:51:31Z</time>
      </trkpt>
      <trkpt lat="46.71382" lon="-1.81531">
        <ele>21</ele>
        <time>2018-01-13T14:52:31Z</time>
      </trkpt>
      <trkpt lat="46.71383" lon="-1.81569">
        <ele>21</ele>
        <time>2018-01-13T14:53:31Z</time>
      </trkpt>
      <trkpt lat="46.71384" lon="-1.81597">
        <ele>20</ele>
        <time>2018-01-13T14:54:31Z</time>
      </trkpt>
      <trkpt lat="46.71385" lon="-1.81623">
        <ele>20</ele>
        <time>2018-01-13T14:55:31Z</time>
      </trkpt>
      <trkpt lat="46.71388" lon="-1.81649">
        <ele>21</ele>
        <time>2018-01-13T14:56:31Z</time>
      </trkpt>
      <trkpt lat="46.71392" lon="-1.81678">
        <ele>21</ele>
        <time>2018-01-13T14:57:31Z</time>
      </trkpt>
      <trkpt lat="46.71403" lon="-1.81746">
        <ele>20</ele>
        <time>2018-01-13T14:58:31Z</time>
      </trkpt>
      <trkpt lat="46.71417" lon="-1.81823">
        <ele>19</ele>
        <time>2018-01-13T14:59:31Z</time>
      </trkpt>
      <trkpt lat="46.7142" lon="-1.81847">
        <ele>19</ele>
        <time>2018-01-13T15:00:31Z</time>
      </trkpt>
      <trkpt lat="46.7142" lon="-1.81858">
        <ele>19</ele>
        <time>2018-01-13T15:01:31Z</time>
      </trkpt>
      <trkpt lat="46.7142" lon="-1.81865">
        <ele>19</ele>
        <time>2018-01-13T15:02:31Z</time>
      </trkpt>
      <trkpt lat="46.7142" lon="-1.81865">
        <ele>19</ele>
        <time>2018-01-13T15:03:31Z</time>
      </trkpt>
      <trkpt lat="46.71419" lon="-1.81865">
        <ele>19</ele>
        <time>2018-01-13T15:04:31Z</time>
      </trkpt>
      <trkpt lat="46.71405" lon="-1.81863">
        <ele>19</ele>
        <time>2018-01-13T15:05:31Z</time>
      </trkpt>
      <trkpt lat="46.7139" lon="-1.81858">
        <ele>18</ele>
        <time>2018-01-13T15:06:31Z</time>
      </trkpt>
      <trkpt lat="46.71373" lon="-1.8185">
        <ele>17</ele>
        <time>2018-01-13T15:07:31Z</time>
      </trkpt>
      <trkpt lat="46.71354" lon="-1.81835">
        <ele>17</ele>
        <time>2018-01-13T15:08:31Z</time>
      </trkpt>
      <trkpt lat="46.71323" lon="-1.81811">
        <ele>16</ele>
        <time>2018-01-13T15:09:31Z</time>
      </trkpt>
      <trkpt lat="46.71295" lon="-1.8179">
        <ele>15</ele>
        <time>2018-01-13T15:10:31Z</time>
      </trkpt>
      <trkpt lat="46.71256" lon="-1.8176">
        <ele>14</ele>
        <time>2018-01-13T15:11:31Z</time>
      </trkpt>
      <trkpt lat="46.71251" lon="-1.81756">
        <ele>14</ele>
        <time>2018-01-13T15:12:31Z</time>
      </trkpt>
      <trkpt lat="46.71247" lon="-1.81752">
        <ele>14</ele>
        <time>2018-01-13T15:13:31Z</time>
      </trkpt>
      <trkpt lat="46.71224" lon="-1.81735">
        <ele>14</ele>
        <time>2018-01-13T15:14:31Z</time>
      </trkpt>
      <trkpt lat="46.71185" lon="-1.81706">
        <ele>15</ele>
        <time>2018-01-13T15:15:31Z</time>
      </trkpt>
      <trkpt lat="46.71165" lon="-1.81692">
        <ele>15</ele>
        <time>2018-01-13T15:16:31Z</time>
      </trkpt>
      <trkpt lat="46.7115" lon="-1.81687">
        <ele>16</ele>
        <time>2018-01-13T15:17:31Z</time>
      </trkpt>
      <trkpt lat="46.71142" lon="-1.81685">
        <ele>16</ele>
        <time>2018-01-13T15:18:31Z</time>
      </trkpt>
      <trkpt lat="46.71134" lon="-1.81685">
        <ele>16</ele>
        <time>2018-01-13T15:19:31Z</time>
      </trkpt>
      <trkpt lat="46.71126" lon="-1.81685">
        <ele>17</ele>
        <time>2018-01-13T15:20:31Z</time>
      </trkpt>
      <trkpt lat="46.71118" lon="-1.81687">
        <ele>17</ele>
        <time>2018-01-13T15:21:31Z</time>
      </trkpt>
      <trkpt lat="46.71103" lon="-1.81693">
        <ele>18</ele>
        <time>2018-01-13T15:22:31Z</time>
      </trkpt>
      <trkpt lat="46.71089" lon="-1.817">
        <ele>19</ele>
        <time>2018-01-13T15:23:31Z</time>
      </trkpt>
      <trkpt lat="46.71072" lon="-1.81712">
        <ele>19</ele>
        <time>2018-01-13T15:24:31Z</time>
      </trkpt>
      <trkpt lat="46.71063" lon="-1.8172">
        <ele>20</ele>
        <time>2018-01-13T15:25:31Z</time>
      </trkpt>
      <trkpt lat="46.71052" lon="-1.81731">
        <ele>20</ele>
        <time>2018-01-13T15:26:31Z</time>
      </trkpt>
      <trkpt lat="46.71046" lon="-1.81738">
        <ele>21</ele>
        <time>2018-01-13T15:27:31Z</time>
      </trkpt>
      <trkpt lat="46.71038" lon="-1.81748">
        <ele>21</ele>
        <time>2018-01-13T15:28:31Z</time>
      </trkpt>
      <trkpt lat="46.71032" lon="-1.81757">
        <ele>21</ele>
        <time>2018-01-13T15:29:31Z</time>
      </trkpt>
      <trkpt lat="46.71027" lon="-1.81764">
        <ele>21</ele>
        <time>2018-01-13T15:30:31Z</time>
      </trkpt>
      <trkpt lat="46.71017" lon="-1.81781">
        <ele>21</ele>
        <time>2018-01-13T15:31:31Z</time>
      </trkpt>
      <trkpt lat="46.71011" lon="-1.81795">
        <ele>21</ele>
        <time>2018-01-13T15:32:31Z</time>
      </trkpt>
      <trkpt lat="46.70998" lon="-1.8182">
        <ele>21</ele>
        <time>2018-01-13T15:33:31Z</time>
      </trkpt>
      <trkpt lat="46.70983" lon="-1.81862">
        <ele>22</ele>
        <time>2018-01-13T15:34:31Z</time>
      </trkpt>
      <trkpt lat="46.70968" lon="-1.81906">
        <ele>23</ele>
        <time>2018-01-13T15:35:31Z</time>
      </trkpt>
      <trkpt lat="46.70948" lon="-1.81963">
        <ele>25</ele>
        <time>2018-01-13T15:36:31Z</time>
      </trkpt>
      <trkpt lat="46.70929" lon="-1.82023">
        <ele>26</ele>
        <time>2018-01-13T15:37:31Z</time>
      </trkpt>
      <trkpt lat="46.70897" lon="-1.82116">
        <ele>26</ele>
        <time>2018-01-13T15:38:31Z</time>
      </trkpt>
      <trkpt lat="46.70876" lon="-1.82175">
        <ele>24</ele>
        <time>2018-01-13T15:39:31Z</time>
      </trkpt>
      <trkpt lat="46.70865" lon="-1.8221">
        <ele>24</ele>
        <time>2018-01-13T15:40:31Z</time>
      </trkpt>
      <trkpt lat="46.70852" lon="-1.82245">
        <ele>23</ele>
        <time>2018-01-13T15:41:31Z</time>
      </trkpt>
      <trkpt lat="46.70843" lon="-1.82268">
        <ele>23</ele>
        <time>2018-01-13T15:42:31Z</time>
      </trkpt>
      <trkpt lat="46.70833" lon="-1.8229">
        <ele>23</ele>
        <time>2018-01-13T15:43:31Z</time>
      </trkpt>
      <trkpt lat="46.70805" lon="-1.82343">
        <ele>23</ele>
        <time>2018-01-13T15:44:31Z</time>
      </trkpt>
      <trkpt lat="46.70782" lon="-1.82385">
        <ele>23</ele>
        <time>2018-01-13T15:45:31Z</time>
      </trkpt>
      <trkpt lat="46.70765" lon="-1.82415">
        <ele>23</ele>
        <time>2018-01-13T15:46:31Z</time>
      </trkpt>
      <trkpt lat="46.70754" lon="-1.82434">
        <ele>23</ele>
        <time>2018-01-13T15:47:31Z</time>
      </trkpt>
      <trkpt lat="46.70742" lon="-1.82451">
        <ele>23</ele>
        <time>2018-01-13T15:48:31Z</time>
      </trkpt>
      <trkpt lat="46.70728" lon="-1.82466">
        <ele>23</ele>
        <time>2018-01-13T15:49:31Z</time>
      </trkpt>
      <trkpt lat="46.70715" lon="-1.82477">
        <ele>22</ele>
        <time>2018-01-13T15:50:31Z</time>
      </trkpt>
      <trkpt lat="46.70692" lon="-1.82493">
        <ele>23</ele>
        <time>2018-01-13T15:51:31Z</time>
      </trkpt>
      <trkpt lat="46.70667" lon="-1.82511">
        <ele>23</ele>
        <time>2018-01-13T15:52:31Z</time>
      </trkpt>
      <trkpt lat="46.70629" lon="-1.82536">
        <ele>23</ele>
        <time>2018-01-13T15:53:31Z</time>
      </trkpt>
      <trkpt lat="46.70593" lon="-1.82559">
        <ele>23</ele>
        <time>2018-01-13T15:54:31Z</time>
      </trkpt>
      <trkpt lat="46.70581" lon="-1.82568">
        <ele>23</ele>
        <time>2018-01-13T15:55:31Z</time>
      </trkpt>
      <trkpt lat="46.70546" lon="-1.8259">
        <ele>23</ele>
        <time>2018-01-13T15:56:31Z</time>
      </trkpt>
      <trkpt lat="46.70511" lon="-1.82615">
        <ele>22</ele>
        <time>2018-01-13T15:57:31Z</time>
      </trkpt>
      <trkpt lat="46.70476" lon="-1.82638">
        <ele>23</ele>
        <time>2018-01-13T15:58:31Z</time>
      </trkpt>
      <trkpt lat="46.7043" lon="-1.8267">
        <ele>24</ele>
        <time>2018-01-13T15:59:31Z</time>
      </trkpt>
      <trkpt lat="46.70373" lon="-1.82709">
        <ele>23</ele>
        <time>2018-01-13T16:00:31Z</time>
      </trkpt>
      <trkpt lat="46.70341" lon="-1.82731">
        <ele>23</ele>
        <time>2018-01-13T16:01:31Z</time>
      </trkpt>
      <trkpt lat="46.70292" lon="-1.82765">
        <ele>22</ele>
        <time>2018-01-13T16:02:31Z</time>
      </trkpt>
      <trkpt lat="46.70246" lon="-1.82796">
        <ele>20</ele>
        <time>2018-01-13T16:03:31Z</time>
      </trkpt>
      <trkpt lat="46.70202" lon="-1.82826">
        <ele>18</ele>
        <time>2018-01-13T16:04:31Z</time>
      </trkpt>
      <trkpt lat="46.70172" lon="-1.82846">
        <ele>17</ele>
        <time>2018-01-13T16:05:31Z</time>
      </trkpt>
      <trkpt lat="46.70133" lon="-1.82873">
        <ele>17</ele>
        <time>2018-01-13T16:06:31Z</time>
      </trkpt>
      <trkpt lat="46.70117" lon="-1.82884">
        <ele>17</ele>
        <time>2018-01-13T16:07:31Z</time>
      </trkpt>
      <trkpt lat="46.70079" lon="-1.82909">
        <ele>18</ele>
        <time>2018-01-13T16:08:31Z</time>
      </trkpt>
      <trkpt lat="46.70074" lon="-1.82913">
        <ele>18</ele>
        <time>2018-01-13T16:09:31Z</time>
      </trkpt>
      <trkpt lat="46.70055" lon="-1.82926">
        <ele>18</ele>
        <time>2018-01-13T16:10:31Z</time>
      </trkpt>
      <trkpt lat="46.7002" lon="-1.8295">
        <ele>17</ele>
        <time>2018-01-13T16:11:31Z</time>
      </trkpt>
      <trkpt lat="46.69992" lon="-1.82969">
        <ele>16</ele>
        <time>2018-01-13T16:12:31Z</time>
      </trkpt>
      <trkpt lat="46.69981" lon="-1.82977">
        <ele>16</ele>
        <time>2018-01-13T16:13:31Z</time>
      </trkpt>
      <trkpt lat="46.69971" lon="-1.82984">
        <ele>15</ele>
        <time>2018-01-13T16:14:31Z</time>
      </trkpt>
      <trkpt lat="46.69963" lon="-1.82989">
        <ele>15</ele>
        <time>2018-01-13T16:15:31Z</time>
      </trkpt>
      <trkpt lat="46.69956" lon="-1.82994">
        <ele>15</ele>
        <time>2018-01-13T16:16:31Z</time>
      </trkpt>
      <trkpt lat="46.6995" lon="-1.82999">
        <ele>15</ele>
        <time>2018-01-13T16:17:31Z</time>
      </trkpt>
      <trkpt lat="46.69947" lon="-1.83001">
        <ele>15</ele>
        <time>2018-01-13T16:18:31Z</time>
      </trkpt>
      <trkpt lat="46.69942" lon="-1.83005">
        <ele>15</ele>
        <time>2018-01-13T16:19:31Z</time>
      </trkpt>
      <trkpt lat="46.69937" lon="-1.83008">
        <ele>15</ele>
        <time>2018-01-13T16:20:31Z</time>
      </trkpt>
      <trkpt lat="46.69933" lon="-1.8301">
        <ele>15</ele>
        <time>2018-01-13T16:21:31Z</time>
      </trkpt>
      <trkpt lat="46.69927" lon="-1.83011">
        <ele>15</ele>
        <time>2018-01-13T16:22:31Z</time>
      </trkpt>
      <trkpt lat="46.69927" lon="-1.83011">
        <ele>15</ele>
        <time>2018-01-13T16:23:31Z</time>
      </trkpt>
      <trkpt lat="46.69929" lon="-1.83016">
        <ele>14</ele>
        <time>2018-01-13T16:24:31Z</time>
      </trkpt>
      <trkpt lat="46.69935" lon="-1.83028">
        <ele>14</ele>
        <time>2018-01-13T16:25:31Z</time>
      </trkpt>
      <trkpt lat="46.69944" lon="-1.83041">
        <ele>14</ele>
        <time>2018-01-13T16:26:31Z</time>
      </trkpt>
      <trkpt lat="46.69952" lon="-1.83052">
        <ele>13</ele>
        <time>2018-01-13T16:27:31Z</time>
      </trkpt>
      <trkpt lat="46.69961" lon="-1.83065">
        <ele>13</ele>
        <time>2018-01-13T16:28:31Z</time>
      </trkpt>
      <trkpt lat="46.69968" lon="-1.83074">
        <ele>13</ele>
        <time>2018-01-13T16:29:31Z</time>
      </trkpt>
      <trkpt lat="46.69973" lon="-1.83081">
        <ele>12</ele>
        <time>2018-01-13T16:30:31Z</time>
      </trkpt>
      <trkpt lat="46.69977" lon="-1.83089">
        <ele>12</ele>
        <time>2018-01-13T16:31:31Z</time>
      </trkpt>
      <trkpt lat="46.69984" lon="-1.831">
        <ele>12</ele>
        <time>2018-01-13T16:32:31Z</time>
      </trkpt>
      <trkpt lat="46.69988" lon="-1.8311">
        <ele>12</ele>
        <time>2018-01-13T16:33:31Z</time>
      </trkpt>
      <trkpt lat="46.6999" lon="-1.83114">
        <ele>12</ele>
        <time>2018-01-13T16:34:31Z</time>
      </trkpt>
      <trkpt lat="46.69992" lon="-1.83119">
        <ele>12</ele>
        <time>2018-01-13T16:35:31Z</time>
      </trkpt>
      <trkpt lat="46.69995" lon="-1.83128">
        <ele>12</ele>
        <time>2018-01-13T16:36:31Z</time>
      </trkpt>
      <trkpt lat="46.7" lon="-1.83142">
        <ele>11</ele>
        <time>2018-01-13T16:37:31Z</time>
      </trkpt>
      <trkpt lat="46.70001" lon="-1.83147">
        <ele>11</ele>
        <time>2018-01-13T16:38:31Z</time>
      </trkpt>
      <trkpt lat="46.70002" lon="-1.8315">
        <ele>11</ele>
        <time>2018-01-13T16:39:31Z</time>
      </trkpt>
      <trkpt lat="46.70002" lon="-1.83152">
        <ele>11</ele>
        <time>2018-01-13T16:40:31Z</time>
      </trkpt>
      <trkpt lat="46.70003" lon="-1.83155">
        <ele>11</ele>
        <time>2018-01-13T16:41:31Z</time>
      </trkpt>
      <trkpt lat="46.70002" lon="-1.83157">
        <ele>11</ele>
        <time>2018-01-13T16:42:31Z</time>
      </trkpt>
      <trkpt lat="46.70002" lon="-1.83159">
        <ele>11</ele>
        <time>2018-01-13T16:43:31Z</time>
      </trkpt>
      <trkpt lat="46.70002" lon="-1.83162">
        <ele>11</ele>
        <time>2018-01-13T16:44:31Z</time>
      </trkpt>
      <trkpt lat="46.69998" lon="-1.83169">
        <ele>11</ele>
        <time>2018-01-13T16:45:31Z</time>
      </trkpt>
      <trkpt lat="46.69992" lon="-1.83175">
        <ele>11</ele>
        <time>2018-01-13T16:46:31Z</time>
      </trkpt>
      <trkpt lat="46.69984" lon="-1.83184">
        <ele>11</ele>
        <time>2018-01-13T16:47:31Z</time>
      </trkpt>
      <trkpt lat="46.69975" lon="-1.83195">
        <ele>11</ele>
        <time>2018-01-13T16:48:31Z</time>
      </trkpt>
      <trkpt lat="46.69972" lon="-1.83199">
        <ele>11</ele>
        <time>2018-01-13T16:49:31Z</time>
      </trkpt>
      <trkpt lat="46.6997" lon="-1.83203">
        <ele>11</ele>
        <time>2018-01-13T16:50:31Z</time>
      </trkpt>
      <trkpt lat="46.69967" lon="-1.83211">
        <ele>11</ele>
        <time>2018-01-13T16:51:31Z</time>
      </trkpt>
      <trkpt lat="46.69964" lon="-1.8322">
        <ele>11</ele>
        <time>2018-01-13T16:52:31Z</time>
      </trkpt>
      <trkpt lat="46.6996" lon="-1.83236">
        <ele>11</ele>
        <time>2018-01-13T16:53:31Z</time>
      </trkpt>
      <trkpt lat="46.69958" lon="-1.83243">
        <ele>11</ele>
        <time>2018-01-13T16:54:31Z</time>
      </trkpt>
      <trkpt lat="46.69958" lon="-1.83252">
        <ele>11</ele>
        <time>2018-01-13T16:55:31Z</time>
      </trkpt>
      <trkpt lat="46.69958" lon="-1.83258">
        <ele>11</ele>
        <time>2018-01-13T16:56:31Z</time>
      </trkpt>
      <trkpt lat="46.69959" lon="-1.83262">
        <ele>11</ele>
        <time>2018-01-13T16:57:31Z</time>
      </trkpt>
      <trkpt lat="46.6996" lon="-1.83268">
        <ele>11</ele>
        <time>2018-01-13T16:58:31Z</time>
      </trkpt>
      <trkpt lat="46.69964" lon="-1.8328">
        <ele>10</ele>
        <time>2018-01-13T16:59:31Z</time>
      </trkpt>
      <trkpt lat="46.69972" lon="-1.83295">
        <ele>10</ele>
        <time>2018-01-13T17:00:31Z</time>
      </trkpt>
      <trkpt lat="46.69975" lon="-1.83302">
        <ele>10</ele>
        <time>2018-01-13T17:01:31Z</time>
      </trkpt>
      <trkpt lat="46.69981" lon="-1.83314">
        <ele>10</ele>
        <time>2018-01-13T17:02:31Z</time>
      </trkpt>
      <trkpt lat="46.69987" lon="-1.83327">
        <ele>9</ele>
        <time>2018-01-13T17:03:31Z</time>
      </trkpt>
      <trkpt lat="46.69989" lon="-1.83337">
        <ele>9</ele>
        <time>2018-01-13T17:04:31Z</time>
      </trkpt>
      <trkpt lat="46.6999" lon="-1.83343">
        <ele>9</ele>
        <time>2018-01-13T17:05:31Z</time>
      </trkpt>
      <trkpt lat="46.6999" lon="-1.83349">
        <ele>10</ele>
        <time>2018-01-13T17:06:31Z</time>
      </trkpt>
      <trkpt lat="46.69991" lon="-1.83357">
        <ele>10</ele>
        <time>2018-01-13T17:07:31Z</time>
      </trkpt>
      <trkpt lat="46.69992" lon="-1.83364">
        <ele>10</ele>
        <time>2018-01-13T17:08:31Z</time>
      </trkpt>
      <trkpt lat="46.69993" lon="-1.8338">
        <ele>11</ele>
        <time>2018-01-13T17:09:31Z</time>
      </trkpt>
      <trkpt lat="46.69994" lon="-1.83398">
        <ele>11</ele>
        <time>2018-01-13T17:10:31Z</time>
      </trkpt>
      <trkpt lat="46.69997" lon="-1.83415">
        <ele>12</ele>
        <time>2018-01-13T17:11:31Z</time>
      </trkpt>
      <trkpt lat="46.7" lon="-1.8343">
        <ele>12</ele>
        <time>2018-01-13T17:12:31Z</time>
      </trkpt>
      <trkpt lat="46.70002" lon="-1.83442">
        <ele>13</ele>
        <time>2018-01-13T17:13:31Z</time>
      </trkpt>
      <trkpt lat="46.70006" lon="-1.83454">
        <ele>13</ele>
        <time>2018-01-13T17:14:31Z</time>
      </trkpt>
      <trkpt lat="46.70012" lon="-1.8347">
        <ele>14</ele>
        <time>2018-01-13T17:15:31Z</time>
      </trkpt>
      <trkpt lat="46.70019" lon="-1.83485">
        <ele>15</ele>
        <time>2018-01-13T17:16:31Z</time>
      </trkpt>
      <trkpt lat="46.70028" lon="-1.83503">
        <ele>15</ele>
        <time>2018-01-13T17:17:31Z</time>
      </trkpt>
      <trkpt lat="46.70035" lon="-1.83519">
        <ele>16</ele>
        <time>2018-01-13T17:18:31Z</time>
      </trkpt>
      <trkpt lat="46.70043" lon="-1.83534">
        <ele>16</ele>
        <time>2018-01-13T17:19:31Z</time>
      </trkpt>
      <trkpt lat="46.70054" lon="-1.83555">
        <ele>16</ele>
        <time>2018-01-13T17:20:31Z</time>
      </trkpt>
      <trkpt lat="46.70068" lon="-1.83582">
        <ele>17</ele>
        <time>2018-01-13T17:21:31Z</time>
      </trkpt>
      <trkpt lat="46.70087" lon="-1.83624">
        <ele>18</ele>
        <time>2018-01-13T17:22:31Z</time>
      </trkpt>
      <trkpt lat="46.70103" lon="-1.8366">
        <ele>19</ele>
        <time>2018-01-13T17:23:31Z</time>
      </trkpt>
      <trkpt lat="46.70125" lon="-1.83717">
        <ele>19</ele>
        <time>2018-01-13T17:24:31Z</time>
      </trkpt>
      <trkpt lat="46.70138" lon="-1.83749">
        <ele>20</ele>
        <time>2018-01-13T17:25:31Z</time>
      </trkpt>
      <trkpt lat="46.7015" lon="-1.83781">
        <ele>20</ele>
        <time>2018-01-13T17:26:31Z</time>
      </trkpt>
      <trkpt lat="46.70163" lon="-1.83812">
        <ele>20</ele>
        <time>2018-01-13T17:27:31Z</time>
      </trkpt>
      <trkpt lat="46.70171" lon="-1.83831">
        <ele>20</ele>
        <time>2018-01-13T17:28:31Z</time>
      </trkpt>
      <trkpt lat="46.70181" lon="-1.83852">
        <ele>20</ele>
        <time>2018-01-13T17:29:31Z</time>
      </trkpt>
      <trkpt lat="46.70193" lon="-1.83875">
        <ele>21</ele>
        <time>2018-01-13T17:30:31Z</time>
      </trkpt>
      <trkpt lat="46.70201" lon="-1.8389">
        <ele>21</ele>
        <time>2018-01-13T17:31:31Z</time>
      </trkpt>
      <trkpt lat="46.70212" lon="-1.8391">
        <ele>21</ele>
        <time>2018-01-13T17:32:31Z</time>
      </trkpt>
      <trkpt lat="46.70212" lon="-1.83911">
        <ele>21</ele>
        <time>2018-01-13T17:33:31Z</time>
      </trkpt>
      <trkpt lat="46.70222" lon="-1.83931">
        <ele>21</ele>
        <time>2018-01-13T17:34:31Z</time>
      </trkpt>
      <trkpt lat="46.70228" lon="-1.83942">
        <ele>21</ele>
        <time>2018-01-13T17:35:31Z</time>
      </trkpt>
      <trkpt lat="46.70234" lon="-1.83956">
        <ele>22</ele>
        <time>2018-01-13T17:36:31Z</time>
      </trkpt>
      <trkpt lat="46.70235" lon="-1.8396">
        <ele>22</ele>
        <time>2018-01-13T17:37:31Z</time>
      </trkpt>
      <trkpt lat="46.70237" lon="-1.83967">
        <ele>22</ele>
        <time>2018-01-13T17:38:31Z</time>
      </trkpt>
      <trkpt lat="46.70241" lon="-1.83978">
        <ele>22</ele>
        <time>2018-01-13T17:39:31Z</time>
      </trkpt>
      <trkpt lat="46.7025" lon="-1.84012">
        <ele>22</ele>
        <time>2018-01-13T17:40:31Z</time>
      </trkpt>
      <trkpt lat="46.70257" lon="-1.84037">
        <ele>22</ele>
        <time>2018-01-13T17:41:31Z</time>
      </trkpt>
      <trkpt lat="46.70261" lon="-1.84056">
        <ele>22</ele>
        <time>2018-01-13T17:42:31Z</time>
      </trkpt>
      <trkpt lat="46.7027" lon="-1.84122">
        <ele>22</ele>
        <time>2018-01-13T17:43:31Z</time>
      </trkpt>
      <trkpt lat="46.70275" lon="-1.8416">
        <ele>22</ele>
        <time>2018-01-13T17:44:31Z</time>
      </trkpt>
      <trkpt lat="46.70281" lon="-1.84202">
        <ele>21</ele>
        <time>2018-01-13T17:45:31Z</time>
      </trkpt>
      <trkpt lat="46.70285" lon="-1.84234">
        <ele>21</ele>
        <time>2018-01-13T17:46:31Z</time>
      </trkpt>
      <trkpt lat="46.7029" lon="-1.84278">
        <ele>21</ele>
        <time>2018-01-13T17:47:31Z</time>
      </trkpt>
      <trkpt lat="46.70292" lon="-1.84314">
        <ele>21</ele>
        <time>2018-01-13T17:48:31Z</time>
      </trkpt>
      <trkpt lat="46.70296" lon="-1.84357">
        <ele>20</ele>
        <time>2018-01-13T17:49:31Z</time>
      </trkpt>
      <trkpt lat="46.70298" lon="-1.84387">
        <ele>20</ele>
        <time>2018-01-13T17:50:31Z</time>
      </trkpt>
      <trkpt lat="46.70299" lon="-1.84401">
        <ele>20</ele>
        <time>2018-01-13T17:51:31Z</time>
      </trkpt>
      <trkpt lat="46.70299" lon="-1.84401">
        <ele>20</ele>
        <time>2018-01-13T17:52:31Z</time>
      </trkpt>
      <trkpt lat="46.70302" lon="-1.84417">
        <ele>19</ele>
        <time>2018-01-13T17:53:31Z</time>
      </trkpt>
      <trkpt lat="46.70305" lon="-1.84434">
        <ele>19</ele>
        <time>2018-01-13T17:54:31Z</time>
      </trkpt>
      <trkpt lat="46.7031" lon="-1.84451">
        <ele>19</ele>
        <time>2018-01-13T17:55:31Z</time>
      </trkpt>
      <trkpt lat="46.70317" lon="-1.84477">
        <ele>19</ele>
        <time>2018-01-13T17:56:31Z</time>
      </trkpt>
      <trkpt lat="46.70334" lon="-1.8453">
        <ele>19</ele>
        <time>2018-01-13T17:57:31Z</time>
      </trkpt>
      <trkpt lat="46.70344" lon="-1.84563">
        <ele>19</ele>
        <time>2018-01-13T17:58:31Z</time>
      </trkpt>
      <trkpt lat="46.7035" lon="-1.84584">
        <ele>20</ele>
        <time>2018-01-13T17:59:31Z</time>
      </trkpt>
      <trkpt lat="46.70361" lon="-1.84622">
        <ele>19</ele>
        <time>2018-01-13T18:00:31Z</time>
      </trkpt>
      <trkpt lat="46.70374" lon="-1.8466">
        <ele>19</ele>
        <time>2018-01-13T18:01:31Z</time>
      </trkpt>
      <trkpt lat="46.70386" lon="-1.8469">
        <ele>20</ele>
        <time>2018-01-13T18:02:31Z</time>
      </trkpt>
      <trkpt lat="46.70396" lon="-1.84716">
        <ele>20</ele>
        <time>2018-01-13T18:03:31Z</time>
      </trkpt>
      <trkpt lat="46.70404" lon="-1.84735">
        <ele>20</ele>
        <time>2018-01-13T18:04:31Z</time>
      </trkpt>
      <trkpt lat="46.70409" lon="-1.8475">
        <ele>20</ele>
        <time>2018-01-13T18:05:31Z</time>
      </trkpt>
      <trkpt lat="46.70412" lon="-1.84763">
        <ele>20</ele>
        <time>2018-01-13T18:06:31Z</time>
      </trkpt>
      <trkpt lat="46.70417" lon="-1.84785">
        <ele>21</ele>
        <time>2018-01-13T18:07:31Z</time>
      </trkpt>
      <trkpt lat="46.70422" lon="-1.84808">
        <ele>22</ele>
        <time>2018-01-13T18:08:31Z</time>
      </trkpt>
      <trkpt lat="46.70426" lon="-1.84829">
        <ele>22</ele>
        <time>2018-01-13T18:09:31Z</time>
      </trkpt>
      <trkpt lat="46.70432" lon="-1.84855">
        <ele>22</ele>
        <time>2018-01-13T18:10:31Z</time>
      </trkpt>
      <trkpt lat="46.70439" lon="-1.84875">
        <ele>23</ele>
        <time>2018-01-13T18:11:31Z</time>
      </trkpt>
      <trkpt lat="46.70446" lon="-1.84893">
        <ele>23</ele>
        <time>2018-01-13T18:12:31Z</time>
      </trkpt>
      <trkpt lat="46.70452" lon="-1.84911">
        <ele>23</ele>
        <time>2018-01-13T18:13:31Z</time>
      </trkpt>
      <trkpt lat="46.70458" lon="-1.84928">
        <ele>24</ele>
        <time>2018-01-13T18:14:31Z</time>
      </trkpt>
      <trkpt lat="46.70458" lon="-1.84928">
        <ele>24</ele>
        <time>2018-01-13T18:15:31Z</time>
      </trkpt>
      <trkpt lat="46.70462" lon="-1.84939">
        <ele>24</ele>
        <time>2018-01-13T18:16:31Z</time>
      </trkpt>
      <trkpt lat="46.70465" lon="-1.84952">
        <ele>24</ele>
        <time>2018-01-13T18:17:31Z</time>
      </trkpt>
      <trkpt lat="46.70466" lon="-1.84963">
        <ele>25</ele>
        <time>2018-01-13T18:18:31Z</time>
      </trkpt>
      <trkpt lat="46.70467" lon="-1.84972">
        <ele>25</ele>
        <time>2018-01-13T18:19:31Z</time>
      </trkpt>
      <trkpt lat="46.70468" lon="-1.84981">
        <ele>25</ele>
        <time>2018-01-13T18:20:31Z</time>
      </trkpt>
      <trkpt lat="46.70468" lon="-1.8499">
        <ele>25</ele>
        <time>2018-01-13T18:21:31Z</time>
      </trkpt>
      <trkpt lat="46.70467" lon="-1.8501">
        <ele>25</ele>
        <time>2018-01-13T18:22:31Z</time>
      </trkpt>
      <trkpt lat="46.70466" lon="-1.8503">
        <ele>25</ele>
        <time>2018-01-13T18:23:31Z</time>
      </trkpt>
      <trkpt lat="46.70465" lon="-1.8505">
        <ele>25</ele>
        <time>2018-01-13T18:24:31Z</time>
      </trkpt>
      <trkpt lat="46.70463" lon="-1.85071">
        <ele>25</ele>
        <time>2018-01-13T18:25:31Z</time>
      </trkpt>
      <trkpt lat="46.70461" lon="-1.85103">
        <ele>25</ele>
        <time>2018-01-13T18:26:31Z</time>
      </trkpt>
      <trkpt lat="46.70459" lon="-1.85124">
        <ele>25</ele>
        <time>2018-01-13T18:27:31Z</time>
      </trkpt>
      <trkpt lat="46.70458" lon="-1.85143">
        <ele>24</ele>
        <time>2018-01-13T18:28:31Z</time>
      </trkpt>
      <trkpt lat="46.70457" lon="-1.85156">
        <ele>24</ele>
        <time>2018-01-13T18:29:31Z</time>
      </trkpt>
      <trkpt lat="46.70457" lon="-1.85167">
        <ele>24</ele>
        <time>2018-01-13T18:30:31Z</time>
      </trkpt>
      <trkpt lat="46.70457" lon="-1.85178">
        <ele>24</ele>
        <time>2018-01-13T18:31:31Z</time>
      </trkpt>
      <trkpt lat="46.70457" lon="-1.8519">
        <ele>24</ele>
        <time>2018-01-13T18:32:31Z</time>
      </trkpt>
      <trkpt lat="46.70459" lon="-1.85201">
        <ele>24</ele>
        <time>2018-01-13T18:33:31Z</time>
      </trkpt>
      <trkpt lat="46.7046" lon="-1.85211">
        <ele>25</ele>
        <time>2018-01-13T18:34:31Z</time>
      </trkpt>
      <trkpt lat="46.70462" lon="-1.85222">
        <ele>25</ele>
        <time>2018-01-13T18:35:31Z</time>
      </trkpt>
      <trkpt lat="46.70464" lon="-1.85232">
        <ele>25</ele>
        <time>2018-01-13T18:36:31Z</time>
      </trkpt>
      <trkpt lat="46.70468" lon="-1.85254">
        <ele>25</ele>
        <time>2018-01-13T18:37:31Z</time>
      </trkpt>
      <trkpt lat="46.70473" lon="-1.85276">
        <ele>25</ele>
        <time>2018-01-13T18:38:31Z</time>
      </trkpt>
      <trkpt lat="46.70477" lon="-1.85299">
        <ele>25</ele>
        <time>2018-01-13T18:39:31Z</time>
      </trkpt>
      <trkpt lat="46.7048" lon="-1.85321">
        <ele>25</ele>
        <time>2018-01-13T18:40:31Z</time>
      </trkpt>
      <trkpt lat="46.70483" lon="-1.85346">
        <ele>25</ele>
        <time>2018-01-13T18:41:31Z</time>
      </trkpt>
      <trkpt lat="46.70487" lon="-1.8538">
        <ele>25</ele>
        <time>2018-01-13T18:42:31Z</time>
      </trkpt>
      <trkpt lat="46.70492" lon="-1.85438">
        <ele>25</ele>
        <time>2018-01-13T18:43:31Z</time>
      </trkpt>
      <trkpt lat="46.70496" lon="-1.85469">
        <ele>25</ele>
        <time>2018-01-13T18:44:31Z</time>
      </trkpt>
      <trkpt lat="46.70498" lon="-1.85494">
        <ele>25</ele>
        <time>2018-01-13T18:45:31Z</time>
      </trkpt>
      <trkpt lat="46.705" lon="-1.8552">
        <ele>25</ele>
        <time>2018-01-13T18:46:31Z</time>
      </trkpt>
      <trkpt lat="46.70503" lon="-1.85543">
        <ele>26</ele>
        <time>2018-01-13T18:47:31Z</time>
      </trkpt>
      <trkpt lat="46.70504" lon="-1.85557">
        <ele>26</ele>
        <time>2018-01-13T18:48:31Z</time>
      </trkpt>
      <trkpt lat="46.70505" lon="-1.85573">
        <ele>27</ele>
        <time>2018-01-13T18:49:31Z</time>
      </trkpt>
      <trkpt lat="46.70505" lon="-1.85587">
        <ele>27</ele>
        <time>2018-01-13T18:50:31Z</time>
      </trkpt>
      <trkpt lat="46.70505" lon="-1.85607">
        <ele>27</ele>
        <time>2018-01-13T18:51:31Z</time>
      </trkpt>
      <trkpt lat="46.70503" lon="-1.85622">
        <ele>27</ele>
        <time>2018-01-13T18:52:31Z</time>
      </trkpt>
      <trkpt lat="46.70502" lon="-1.85641">
        <ele>28</ele>
        <time>2018-01-13T18:53:31Z</time>
      </trkpt>
      <trkpt lat="46.705" lon="-1.85664">
        <ele>28</ele>
        <time>2018-01-13T18:54:31Z</time>
      </trkpt>
      <trkpt lat="46.70499" lon="-1.85674">
        <ele>28</ele>
        <time>2018-01-13T18:55:31Z</time>
      </trkpt>
      <trkpt lat="46.70498" lon="-1.85686">
        <ele>28</ele>
        <time>2018-01-13T18:56:31Z</time>
      </trkpt>
      <trkpt lat="46.70498" lon="-1.85697">
        <ele>28</ele>
        <time>2018-01-13T18:57:31Z</time>
      </trkpt>
      <trkpt lat="46.70498" lon="-1.85708">
        <ele>27</ele>
        <time>2018-01-13T18:58:31Z</time>
      </trkpt>
      <trkpt lat="46.70498" lon="-1.85719">
        <ele>27</ele>
        <time>2018-01-13T18:59:31Z</time>
      </trkpt>
      <trkpt lat="46.70499" lon="-1.8573">
        <ele>27</ele>
        <time>2018-01-13T19:00:31Z</time>
      </trkpt>
      <trkpt lat="46.705" lon="-1.85741">
        <ele>27</ele>
        <time>2018-01-13T19:01:31Z</time>
      </trkpt>
      <trkpt lat="46.70502" lon="-1.85763">
        <ele>27</ele>
        <time>2018-01-13T19:02:31Z</time>
      </trkpt>
      <trkpt lat="46.70509" lon="-1.85817">
        <ele>27</ele>
        <time>2018-01-13T19:03:31Z</time>
      </trkpt>
      <trkpt lat="46.70511" lon="-1.85837">
        <ele>27</ele>
        <time>2018-01-13T19:04:31Z</time>
      </trkpt>
      <trkpt lat="46.70513" lon="-1.85858">
        <ele>27</ele>
        <time>2018-01-13T19:05:31Z</time>
      </trkpt>
      <trkpt lat="46.70514" lon="-1.85879">
        <ele>28</ele>
        <time>2018-01-13T19:06:31Z</time>
      </trkpt>
      <trkpt lat="46.70516" lon="-1.85898">
        <ele>28</ele>
        <time>2018-01-13T19:07:31Z</time>
      </trkpt>
      <trkpt lat="46.70516" lon="-1.85918">
        <ele>28</ele>
        <time>2018-01-13T19:08:31Z</time>
      </trkpt>
      <trkpt lat="46.70517" lon="-1.85938">
        <ele>28</ele>
        <time>2018-01-13T19:09:31Z</time>
      </trkpt>
      <trkpt lat="46.70518" lon="-1.85964">
        <ele>29</ele>
        <time>2018-01-13T19:10:31Z</time>
      </trkpt>
      <trkpt lat="46.70518" lon="-1.8598">
        <ele>29</ele>
        <time>2018-01-13T19:11:31Z</time>
      </trkpt>
      <trkpt lat="46.70519" lon="-1.85999">
        <ele>29</ele>
        <time>2018-01-13T19:12:31Z</time>
      </trkpt>
      <trkpt lat="46.70519" lon="-1.86015">
        <ele>29</ele>
        <time>2018-01-13T19:13:31Z</time>
      </trkpt>
      <trkpt lat="46.7052" lon="-1.86033">
        <ele>29</ele>
        <time>2018-01-13T19:14:31Z</time>
      </trkpt>
      <trkpt lat="46.7052" lon="-1.86033">
        <ele>29</ele>
        <time>2018-01-13T19:15:31Z</time>
      </trkpt>
      <trkpt lat="46.7052" lon="-1.86063">
        <ele>29</ele>
        <time>2018-01-13T19:16:31Z</time>
      </trkpt>
      <trkpt lat="46.7052" lon="-1.86097">
        <ele>29</ele>
        <time>2018-01-13T19:17:31Z</time>
      </trkpt>
      <trkpt lat="46.70521" lon="-1.8613">
        <ele>29</ele>
        <time>2018-01-13T19:18:31Z</time>
      </trkpt>
      <trkpt lat="46.70524" lon="-1.86177">
        <ele>29</ele>
        <time>2018-01-13T19:19:31Z</time>
      </trkpt>
      <trkpt lat="46.70527" lon="-1.86226">
        <ele>29</ele>
        <time>2018-01-13T19:20:31Z</time>
      </trkpt>
      <trkpt lat="46.70532" lon="-1.86266">
        <ele>29</ele>
        <time>2018-01-13T19:21:31Z</time>
      </trkpt>
      <trkpt lat="46.70533" lon="-1.86295">
        <ele>29</ele>
        <time>2018-01-13T19:22:31Z</time>
      </trkpt>
      <trkpt lat="46.70535" lon="-1.86328">
        <ele>28</ele>
        <time>2018-01-13T19:23:31Z</time>
      </trkpt>
      <trkpt lat="46.70535" lon="-1.86356">
        <ele>29</ele>
        <time>2018-01-13T19:24:31Z</time>
      </trkpt>
      <trkpt lat="46.70535" lon="-1.8637">
        <ele>29</ele>
        <time>2018-01-13T19:25:31Z</time>
      </trkpt>
      <trkpt lat="46.70533" lon="-1.8638">
        <ele>29</ele>
        <time>2018-01-13T19:26:31Z</time>
      </trkpt>
      <trkpt lat="46.70531" lon="-1.86396">
        <ele>29</ele>
        <time>2018-01-13T19:27:31Z</time>
      </trkpt>
      <trkpt lat="46.70525" lon="-1.86434">
        <ele>30</ele>
        <time>2018-01-13T19:28:31Z</time>
      </trkpt>
      <trkpt lat="46.70519" lon="-1.86477">
        <ele>30</ele>
        <time>2018-01-13T19:29:31Z</time>
      </trkpt>
      <trkpt lat="46.70511" lon="-1.86524">
        <ele>31</ele>
        <time>2018-01-13T19:30:31Z</time>
      </trkpt>
      <trkpt lat="46.70502" lon="-1.86575">
        <ele>30</ele>
        <time>2018-01-13T19:31:31Z</time>
      </trkpt>
      <trkpt lat="46.7049" lon="-1.86648">
        <ele>30</ele>
        <time>2018-01-13T19:32:31Z</time>
      </trkpt>
      <trkpt lat="46.70478" lon="-1.86722">
        <ele>30</ele>
        <time>2018-01-13T19:33:31Z</time>
      </trkpt>
      <trkpt lat="46.7047" lon="-1.86777">
        <ele>29</ele>
        <time>2018-01-13T19:34:31Z</time>
      </trkpt>
      <trkpt lat="46.70469" lon="-1.86787">
        <ele>29</ele>
        <time>2018-01-13T19:35:31Z</time>
      </trkpt>
      <trkpt lat="46.70467" lon="-1.86803">
        <ele>29</ele>
        <time>2018-01-13T19:36:31Z</time>
      </trkpt>
      <trkpt lat="46.70468" lon="-1.86815">
        <ele>28</ele>
        <time>2018-01-13T19:37:31Z</time>
      </trkpt>
      <trkpt lat="46.7047" lon="-1.86824">
        <ele>28</ele>
        <time>2018-01-13T19:38:31Z</time>
      </trkpt>
      <trkpt lat="46.70474" lon="-1.86836">
        <ele>28</ele>
        <time>2018-01-13T19:39:31Z</time>
      </trkpt>
      <trkpt lat="46.70484" lon="-1.86853">
        <ele>28</ele>
        <time>2018-01-13T19:40:31Z</time>
      </trkpt>
      <trkpt lat="46.70506" lon="-1.86879">
        <ele>29</ele>
        <time>2018-01-13T19:41:31Z</time>
      </trkpt>
      <trkpt lat="46.70533" lon="-1.8691">
        <ele>29</ele>
        <time>2018-01-13T19:42:31Z</time>
      </trkpt>
      <trkpt lat="46.70556" lon="-1.8694">
        <ele>30</ele>
        <time>2018-01-13T19:43:31Z</time>
      </trkpt>
      <trkpt lat="46.70569" lon="-1.86957">
        <ele>30</ele>
        <time>2018-01-13T19:44:31Z</time>
      </trkpt>
      <trkpt lat="46.7058" lon="-1.86972">
        <ele>31</ele>
        <time>2018-01-13T19:45:31Z</time>
      </trkpt>
      <trkpt lat="46.70586" lon="-1.86981">
        <ele>31</ele>
        <time>2018-01-13T19:46:31Z</time>
      </trkpt>
      <trkpt lat="46.706" lon="-1.87006">
        <ele>31</ele>
        <time>2018-01-13T19:47:31Z</time>
      </trkpt>
      <trkpt lat="46.70613" lon="-1.87027">
        <ele>31</ele>
        <time>2018-01-13T19:48:31Z</time>
      </trkpt>
      <trkpt lat="46.70613" lon="-1.87027">
        <ele>31</ele>
        <time>2018-01-13T19:49:31Z</time>
      </trkpt>
      <trkpt lat="46.70623" lon="-1.87043">
        <ele>31</ele>
        <time>2018-01-13T19:50:31Z</time>
      </trkpt>
      <trkpt lat="46.70633" lon="-1.8706">
        <ele>30</ele>
        <time>2018-01-13T19:51:31Z</time>
      </trkpt>
      <trkpt lat="46.70647" lon="-1.87082">
        <ele>29</ele>
        <time>2018-01-13T19:52:31Z</time>
      </trkpt>
      <trkpt lat="46.70665" lon="-1.87107">
        <ele>29</ele>
        <time>2018-01-13T19:53:31Z</time>
      </trkpt>
      <trkpt lat="46.70675" lon="-1.87122">
        <ele>29</ele>
        <time>2018-01-13T19:54:31Z</time>
      </trkpt>
      <trkpt lat="46.7069" lon="-1.87145">
        <ele>29</ele>
        <time>2018-01-13T19:55:31Z</time>
      </trkpt>
      <trkpt lat="46.70705" lon="-1.87168">
        <ele>29</ele>
        <time>2018-01-13T19:56:31Z</time>
      </trkpt>
      <trkpt lat="46.70719" lon="-1.87197">
        <ele>29</ele>
        <time>2018-01-13T19:57:31Z</time>
      </trkpt>
      <trkpt lat="46.70739" lon="-1.8724">
        <ele>29</ele>
        <time>2018-01-13T19:58:31Z</time>
      </trkpt>
      <trkpt lat="46.70745" lon="-1.87253">
        <ele>29</ele>
        <time>2018-01-13T19:59:31Z</time>
      </trkpt>
      <trkpt lat="46.70761" lon="-1.87289">
        <ele>29</ele>
        <time>2018-01-13T20:00:31Z</time>
      </trkpt>
      <trkpt lat="46.70762" lon="-1.8729">
        <ele>29</ele>
        <time>2018-01-13T20:01:31Z</time>
      </trkpt>
      <trkpt lat="46.70785" lon="-1.87338">
        <ele>28</ele>
        <time>2018-01-13T20:02:31Z</time>
      </trkpt>
      <trkpt lat="46.70825" lon="-1.87411">
        <ele>28</ele>
        <time>2018-01-13T20:03:31Z</time>
      </trkpt>
      <trkpt lat="46.70858" lon="-1.87473">
        <ele>29</ele>
        <time>2018-01-13T20:04:31Z</time>
      </trkpt>
      <trkpt lat="46.70897" lon="-1.87545">
        <ele>30</ele>
        <time>2018-01-13T20:05:31Z</time>
      </trkpt>
      <trkpt lat="46.7091" lon="-1.87574">
        <ele>31</ele>
        <time>2018-01-13T20:06:31Z</time>
      </trkpt>
      <trkpt lat="46.70919" lon="-1.87593">
        <ele>31</ele>
        <time>2018-01-13T20:07:31Z</time>
      </trkpt>
      <trkpt lat="46.70927" lon="-1.87614">
        <ele>30</ele>
        <time>2018-01-13T20:08:31Z</time>
      </trkpt>
      <trkpt lat="46.70946" lon="-1.87665">
        <ele>29</ele>
        <time>2018-01-13T20:09:31Z</time>
      </trkpt>
      <trkpt lat="46.70963" lon="-1.87708">
        <ele>29</ele>
        <time>2018-01-13T20:10:31Z</time>
      </trkpt>
      <trkpt lat="46.70997" lon="-1.87797">
        <ele>29</ele>
        <time>2018-01-13T20:11:31Z</time>
      </trkpt>
      <trkpt lat="46.71003" lon="-1.87814">
        <ele>29</ele>
        <time>2018-01-13T20:12:31Z</time>
      </trkpt>
      <trkpt lat="46.71012" lon="-1.87837">
        <ele>29</ele>
        <time>2018-01-13T20:13:31Z</time>
      </trkpt>
      <trkpt lat="46.71022" lon="-1.87863">
        <ele>28</ele>
        <time>2018-01-13T20:14:31Z</time>
      </trkpt>
      <trkpt lat="46.71033" lon="-1.87893">
        <ele>28</ele>
        <time>2018-01-13T20:15:31Z</time>
      </trkpt>
      <trkpt lat="46.71041" lon="-1.87914">
        <ele>28</ele>
        <time>2018-01-13T20:16:31Z</time>
      </trkpt>
      <trkpt lat="46.7106" lon="-1.87965">
        <ele>28</ele>
        <time>2018-01-13T20:17:31Z</time>
      </trkpt>
      <trkpt lat="46.71081" lon="-1.88022">
        <ele>27</ele>
        <time>2018-01-13T20:18:31Z</time>
      </trkpt>
      <trkpt lat="46.71098" lon="-1.88067">
        <ele>27</ele>
        <time>2018-01-13T20:19:31Z</time>
      </trkpt>
      <trkpt lat="46.71104" lon="-1.88089">
        <ele>27</ele>
        <time>2018-01-13T20:20:31Z</time>
      </trkpt>
      <trkpt lat="46.71112" lon="-1.88118">
        <ele>26</ele>
        <time>2018-01-13T20:21:31Z</time>
      </trkpt>
      <trkpt lat="46.71121" lon="-1.88156">
        <ele>26</ele>
        <time>2018-01-13T20:22:31Z</time>
      </trkpt>
      <trkpt lat="46.71127" lon="-1.88197">
        <ele>26</ele>
        <time>2018-01-13T20:23:31Z</time>
      </trkpt>
      <trkpt lat="46.71128" lon="-1.88215">
        <ele>26</ele>
        <time>2018-01-13T20:24:31Z</time>
      </trkpt>
      <trkpt lat="46.71128" lon="-1.88269">
        <ele>26</ele>
        <time>2018-01-13T20:25:31Z</time>
      </trkpt>
      <trkpt lat="46.71127" lon="-1.88303">
        <ele>25</ele>
        <time>2018-01-13T20:26:31Z</time>
      </trkpt>
      <trkpt lat="46.71125" lon="-1.8833">
        <ele>25</ele>
        <time>2018-01-13T20:27:31Z</time>
      </trkpt>
      <trkpt lat="46.71126" lon="-1.88355">
        <ele>25</ele>
        <time>2018-01-13T20:28:31Z</time>
      </trkpt>
      <trkpt lat="46.71127" lon="-1.8838">
        <ele>24</ele>
        <time>2018-01-13T20:29:31Z</time>
      </trkpt>
      <trkpt lat="46.71132" lon="-1.88414">
        <ele>24</ele>
        <time>2018-01-13T20:30:31Z</time>
      </trkpt>
      <trkpt lat="46.71143" lon="-1.88462">
        <ele>24</ele>
        <time>2018-01-13T20:31:31Z</time>
      </trkpt>
      <trkpt lat="46.71151" lon="-1.88495">
        <ele>25</ele>
        <time>2018-01-13T20:32:31Z</time>
      </trkpt>
      <trkpt lat="46.71161" lon="-1.88541">
        <ele>24</ele>
        <time>2018-01-13T20:33:31Z</time>
      </trkpt>
      <trkpt lat="46.71168" lon="-1.88573">
        <ele>24</ele>
        <time>2018-01-13T20:34:31Z</time>
      </trkpt>
      <trkpt lat="46.71174" lon="-1.88598">
        <ele>24</ele>
        <time>2018-01-13T20:35:31Z</time>
      </trkpt>
      <trkpt lat="46.71177" lon="-1.8861">
        <ele>24</ele>
        <time>2018-01-13T20:36:31Z</time>
      </trkpt>
      <trkpt lat="46.71178" lon="-1.88612">
        <ele>24</ele>
        <time>2018-01-13T20:37:31Z</time>
      </trkpt>
      <trkpt lat="46.71187" lon="-1.88643">
        <ele>23</ele>
        <time>2018-01-13T20:38:31Z</time>
      </trkpt>
      <trkpt lat="46.71189" lon="-1.8865">
        <ele>23</ele>
        <time>2018-01-13T20:39:31Z</time>
      </trkpt>
      <trkpt lat="46.71204" lon="-1.88698">
        <ele>23</ele>
        <time>2018-01-13T20:40:31Z</time>
      </trkpt>
      <trkpt lat="46.71218" lon="-1.8874">
        <ele>23</ele>
        <time>2018-01-13T20:41:31Z</time>
      </trkpt>
      <trkpt lat="46.71233" lon="-1.88781">
        <ele>22</ele>
        <time>2018-01-13T20:42:31Z</time>
      </trkpt>
      <trkpt lat="46.71243" lon="-1.8881">
        <ele>22</ele>
        <time>2018-01-13T20:43:31Z</time>
      </trkpt>
      <trkpt lat="46.71259" lon="-1.88848">
        <ele>22</ele>
        <time>2018-01-13T20:44:31Z</time>
      </trkpt>
      <trkpt lat="46.71261" lon="-1.88853">
        <ele>21</ele>
        <time>2018-01-13T20:45:31Z</time>
      </trkpt>
      <trkpt lat="46.71272" lon="-1.88877">
        <ele>21</ele>
        <time>2018-01-13T20:46:31Z</time>
      </trkpt>
      <trkpt lat="46.71274" lon="-1.88884">
        <ele>21</ele>
        <time>2018-01-13T20:47:31Z</time>
      </trkpt>
      <trkpt lat="46.71275" lon="-1.88885">
        <ele>21</ele>
        <time>2018-01-13T20:48:31Z</time>
      </trkpt>
      <trkpt lat="46.71282" lon="-1.88901">
        <ele>21</ele>
        <time>2018-01-13T20:49:31Z</time>
      </trkpt>
      <trkpt lat="46.7129" lon="-1.88921">
        <ele>20</ele>
        <time>2018-01-13T20:50:31Z</time>
      </trkpt>
      <trkpt lat="46.71306" lon="-1.88954">
        <ele>20</ele>
        <time>2018-01-13T20:51:31Z</time>
      </trkpt>
      <trkpt lat="46.71311" lon="-1.88967">
        <ele>20</ele>
        <time>2018-01-13T20:52:31Z</time>
      </trkpt>
      <trkpt lat="46.71333" lon="-1.89015">
        <ele>20</ele>
        <time>2018-01-13T20:53:31Z</time>
      </trkpt>
      <trkpt lat="46.71346" lon="-1.89045">
        <ele>19</ele>
        <time>2018-01-13T20:54:31Z</time>
      </trkpt>
      <trkpt lat="46.71354" lon="-1.89064">
        <ele>18</ele>
        <time>2018-01-13T20:55:31Z</time>
      </trkpt>
      <trkpt lat="46.71357" lon="-1.89072">
        <ele>18</ele>
        <time>2018-01-13T20:56:31Z</time>
      </trkpt>
      <trkpt lat="46.7137" lon="-1.89101">
        <ele>18</ele>
        <time>2018-01-13T20:57:31Z</time>
      </trkpt>
      <trkpt lat="46.7139" lon="-1.89146">
        <ele>18</ele>
        <time>2018-01-13T20:58:31Z</time>
      </trkpt>
      <trkpt lat="46.71396" lon="-1.89163">
        <ele>18</ele>
        <time>2018-01-13T20:59:31Z</time>
      </trkpt>
      <trkpt lat="46.71404" lon="-1.89181">
        <ele>18</ele>
        <time>2018-01-13T21:00:31Z</time>
      </trkpt>
      <trkpt lat="46.71413" lon="-1.89205">
        <ele>17</ele>
        <time>2018-01-13T21:01:31Z</time>
      </trkpt>
      <trkpt lat="46.71417" lon="-1.89216">
        <ele>17</ele>
        <time>2018-01-13T21:02:31Z</time>
      </trkpt>
      <trkpt lat="46.71425" lon="-1.89236">
        <ele>17</ele>
        <time>2018-01-13T21:03:31Z</time>
      </trkpt>
      <trkpt lat="46.71426" lon="-1.89239">
        <ele>17</ele>
        <time>2018-01-13T21:04:31Z</time>
      </trkpt>
      <trkpt lat="46.71443" lon="-1.89287">
        <ele>17</ele>
        <time>2018-01-13T21:05:31Z</time>
      </trkpt>
      <trkpt lat="46.71452" lon="-1.89312">
        <ele>17</ele>
        <time>2018-01-13T21:06:31Z</time>
      </trkpt>
      <trkpt lat="46.71457" lon="-1.89326">
        <ele>17</ele>
        <time>2018-01-13T21:07:31Z</time>
      </trkpt>
      <trkpt lat="46.71462" lon="-1.89346">
        <ele>16</ele>
        <time>2018-01-13T21:08:31Z</time>
      </trkpt>
      <trkpt lat="46.71463" lon="-1.89348">
        <ele>16</ele>
        <time>2018-01-13T21:09:31Z</time>
      </trkpt>
      <trkpt lat="46.71474" lon="-1.89392">
        <ele>16</ele>
        <time>2018-01-13T21:10:31Z</time>
      </trkpt>
      <trkpt lat="46.71484" lon="-1.89431">
        <ele>16</ele>
        <time>2018-01-13T21:11:31Z</time>
      </trkpt>
      <trkpt lat="46.71488" lon="-1.89458">
        <ele>16</ele>
        <time>2018-01-13T21:12:31Z</time>
      </trkpt>
      <trkpt lat="46.7149" lon="-1.89463">
        <ele>15</ele>
        <time>2018-01-13T21:13:31Z</time>
      </trkpt>
      <trkpt lat="46.71495" lon="-1.89485">
        <ele>15</ele>
        <time>2018-01-13T21:14:31Z</time>
      </trkpt>
      <trkpt lat="46.71495" lon="-1.89485">
        <ele>15</ele>
        <time>2018-01-13T21:15:31Z</time>
      </trkpt>
      <trkpt lat="46.71497" lon="-1.89489">
        <ele>15</ele>
        <time>2018-01-13T21:16:31Z</time>
      </trkpt>
      <trkpt lat="46.71498" lon="-1.8949">
        <ele>15</ele>
        <time>2018-01-13T21:17:31Z</time>
      </trkpt>
      <trkpt lat="46.715" lon="-1.89496">
        <ele>15</ele>
        <time>2018-01-13T21:18:31Z</time>
      </trkpt>
      <trkpt lat="46.715" lon="-1.89503">
        <ele>15</ele>
        <time>2018-01-13T21:19:31Z</time>
      </trkpt>
      <trkpt lat="46.71497" lon="-1.89511">
        <ele>15</ele>
        <time>2018-01-13T21:20:31Z</time>
      </trkpt>
      <trkpt lat="46.71505" lon="-1.89524">
        <ele>15</ele>
        <time>2018-01-13T21:21:31Z</time>
      </trkpt>
      <trkpt lat="46.7151" lon="-1.89538">
        <ele>15</ele>
        <time>2018-01-13T21:22:31Z</time>
      </trkpt>
      <trkpt lat="46.71524" lon="-1.89558">
        <ele>15</ele>
        <time>2018-01-13T21:23:31Z</time>
      </trkpt>
      <trkpt lat="46.7154" lon="-1.89579">
        <ele>14</ele>
        <time>2018-01-13T21:24:31Z</time>
      </trkpt>
      <trkpt lat="46.71549" lon="-1.8959">
        <ele>14</ele>
        <time>2018-01-13T21:25:31Z</time>
      </trkpt>
      <trkpt lat="46.71562" lon="-1.89605">
        <ele>13</ele>
        <time>2018-01-13T21:26:31Z</time>
      </trkpt>
      <trkpt lat="46.7158" lon="-1.89626">
        <ele>13</ele>
        <time>2018-01-13T21:27:31Z</time>
      </trkpt>
      <trkpt lat="46.7161" lon="-1.8966">
        <ele>13</ele>
        <time>2018-01-13T21:28:31Z</time>
      </trkpt>
      <trkpt lat="46.71615" lon="-1.89666">
        <ele>13</ele>
        <time>2018-01-13T21:29:31Z</time>
      </trkpt>
      <trkpt lat="46.71642" lon="-1.89697">
        <ele>14</ele>
        <time>2018-01-13T21:30:31Z</time>
      </trkpt>
      <trkpt lat="46.71667" lon="-1.89725">
        <ele>13</ele>
        <time>2018-01-13T21:31:31Z</time>
      </trkpt>
      <trkpt lat="46.71677" lon="-1.89735">
        <ele>13</ele>
        <time>2018-01-13T21:32:31Z</time>
      </trkpt>
      <trkpt lat="46.71694" lon="-1.89753">
        <ele>12</ele>
        <time>2018-01-13T21:33:31Z</time>
      </trkpt>
      <trkpt lat="46.71696" lon="-1.89754">
        <ele>12</ele>
        <time>2018-01-13T21:34:31Z</time>
      </trkpt>
      <trkpt lat="46.71701" lon="-1.8976">
        <ele>12</ele>
        <time>2018-01-13T21:35:31Z</time>
      </trkpt>
      <trkpt lat="46.71724" lon="-1.89779">
        <ele>11</ele>
        <time>2018-01-13T21:36:31Z</time>
      </trkpt>
      <trkpt lat="46.7173" lon="-1.89784">
        <ele>11</ele>
        <time>2018-01-13T21:37:31Z</time>
      </trkpt>
      <trkpt lat="46.71742" lon="-1.89795">
        <ele>11</ele>
        <time>2018-01-13T21:38:31Z</time>
      </trkpt>
      <trkpt lat="46.71757" lon="-1.8981">
        <ele>10</ele>
        <time>2018-01-13T21:39:31Z</time>
      </trkpt>
      <trkpt lat="46.71769" lon="-1.89825">
        <ele>10</ele>
        <time>2018-01-13T21:40:31Z</time>
      </trkpt>
      <trkpt lat="46.71805" lon="-1.89868">
        <ele>10</ele>
        <time>2018-01-13T21:41:31Z</time>
      </trkpt>
      <trkpt lat="46.7182" lon="-1.89887">
        <ele>9</ele>
        <time>2018-01-13T21:42:31Z</time>
      </trkpt>
      <trkpt lat="46.71876" lon="-1.89957">
        <ele>7</ele>
        <time>2018-01-13T21:43:31Z</time>
      </trkpt>
      <trkpt lat="46.71915" lon="-1.90005">
        <ele>6</ele>
        <time>2018-01-13T21:44:31Z</time>
      </trkpt>
      <trkpt lat="46.7195" lon="-1.90039">
        <ele>6</ele>
        <time>2018-01-13T21:45:31Z</time>
      </trkpt>
      <trkpt lat="46.71964" lon="-1.90053">
        <ele>6</ele>
        <time>2018-01-13T21:46:31Z</time>
      </trkpt>
      <trkpt lat="46.71973" lon="-1.90062">
        <ele>6</ele>
        <time>2018-01-13T21:47:31Z</time>
      </trkpt>
      <trkpt lat="46.71973" lon="-1.90062">
        <ele>6</ele>
        <time>2018-01-13T21:48:31Z</time>
      </trkpt>
      <trkpt lat="46.71968" lon="-1.9008">
        <ele>6</ele>
        <time>2018-01-13T21:49:31Z</time>
      </trkpt>
      <trkpt lat="46.71965" lon="-1.90106">
        <ele>6</ele>
        <time>2018-01-13T21:50:31Z</time>
      </trkpt>
      <trkpt lat="46.71962" lon="-1.90125">
        <ele>6</ele>
        <time>2018-01-13T21:51:31Z</time>
      </trkpt>
      <trkpt lat="46.71959" lon="-1.90153">
        <ele>6</ele>
        <time>2018-01-13T21:52:31Z</time>
      </trkpt>
      <trkpt lat="46.71958" lon="-1.90176">
        <ele>6</ele>
        <time>2018-01-13T21:53:31Z</time>
      </trkpt>
      <trkpt lat="46.71956" lon="-1.90191">
        <ele>6</ele>
        <time>2018-01-13T21:54:31Z</time>
      </trkpt>
      <trkpt lat="46.71953" lon="-1.90201">
        <ele>6</ele>
        <time>2018-01-13T21:55:31Z</time>
      </trkpt>
      <trkpt lat="46.71953" lon="-1.90203">
        <ele>6</ele>
        <time>2018-01-13T21:56:31Z</time>
      </trkpt>
      <trkpt lat="46.71949" lon="-1.90211">
        <ele>6</ele>
        <time>2018-01-13T21:57:31Z</time>
      </trkpt>
      <trkpt lat="46.71946" lon="-1.90218">
        <ele>6</ele>
        <time>2018-01-13T21:58:31Z</time>
      </trkpt>
      <trkpt lat="46.71941" lon="-1.90227">
        <ele>6</ele>
        <time>2018-01-13T21:59:31Z</time>
      </trkpt>
      <trkpt lat="46.71934" lon="-1.90235">
        <ele>6</ele>
        <time>2018-01-13T22:00:31Z</time>
      </trkpt>
      <trkpt lat="46.71927" lon="-1.9024">
        <ele>6</ele>
        <time>2018-01-13T22:01:31Z</time>
      </trkpt>
      <trkpt lat="46.71914" lon="-1.90248">
        <ele>6</ele>
        <time>2018-01-13T22:02:31Z</time>
      </trkpt>
      <trkpt lat="46.719" lon="-1.90254">
        <ele>7</ele>
        <time>2018-01-13T22:03:31Z</time>
      </trkpt>
      <trkpt lat="46.71896" lon="-1.90256">
        <ele>7</ele>
        <time>2018-01-13T22:04:31Z</time>
      </trkpt>
      <trkpt lat="46.7189" lon="-1.9026">
        <ele>7</ele>
        <time>2018-01-13T22:05:31Z</time>
      </trkpt>
      <trkpt lat="46.71886" lon="-1.90263">
        <ele>7</ele>
        <time>2018-01-13T22:06:31Z</time>
      </trkpt>
      <trkpt lat="46.71883" lon="-1.90267">
        <ele>7</ele>
        <time>2018-01-13T22:07:31Z</time>
      </trkpt>
      <trkpt lat="46.71879" lon="-1.90274">
        <ele>7</ele>
        <time>2018-01-13T22:08:31Z</time>
      </trkpt>
      <trkpt lat="46.71876" lon="-1.90283">
        <ele>7</ele>
        <time>2018-01-13T22:09:31Z</time>
      </trkpt>
      <trkpt lat="46.71872" lon="-1.90301">
        <ele>6</ele>
        <time>2018-01-13T22:10:31Z</time>
      </trkpt>
      <trkpt lat="46.71869" lon="-1.90308">
        <ele>6</ele>
        <time>2018-01-13T22:11:31Z</time>
      </trkpt>
      <trkpt lat="46.71865" lon="-1.90316">
        <ele>6</ele>
        <time>2018-01-13T22:12:31Z</time>
      </trkpt>
      <trkpt lat="46.71839" lon="-1.90349">
        <ele>6</ele>
        <time>2018-01-13T22:13:31Z</time>
      </trkpt>
      <trkpt lat="46.7179" lon="-1.90406">
        <ele>6</ele>
        <time>2018-01-13T22:14:31Z</time>
      </trkpt>
      <trkpt lat="46.71783" lon="-1.90415">
        <ele>6</ele>
        <time>2018-01-13T22:15:31Z</time>
      </trkpt>
      <trkpt lat="46.71764" lon="-1.90437">
        <ele>7</ele>
        <time>2018-01-13T22:16:31Z</time>
      </trkpt>
      <trkpt lat="46.71729" lon="-1.90479">
        <ele>7</ele>
        <time>2018-01-13T22:17:31Z</time>
      </trkpt>
      <trkpt lat="46.71702" lon="-1.90512">
        <ele>8</ele>
        <time>2018-01-13T22:18:31Z</time>
      </trkpt>
      <trkpt lat="46.71687" lon="-1.9053">
        <ele>8</ele>
        <time>2018-01-13T22:19:31Z</time>
      </trkpt>
      <trkpt lat="46.71673" lon="-1.90547">
        <ele>8</ele>
        <time>2018-01-13T22:20:31Z</time>
      </trkpt>
      <trkpt lat="46.71651" lon="-1.90574">
        <ele>9</ele>
        <time>2018-01-13T22:21:31Z</time>
      </trkpt>
      <trkpt lat="46.71615" lon="-1.90615">
        <ele>9</ele>
        <time>2018-01-13T22:22:31Z</time>
      </trkpt>
      <trkpt lat="46.71615" lon="-1.90616">
        <ele>9</ele>
        <time>2018-01-13T22:23:31Z</time>
      </trkpt>
      <trkpt lat="46.7161" lon="-1.90622">
        <ele>9</ele>
        <time>2018-01-13T22:24:31Z</time>
      </trkpt>
      <trkpt lat="46.71589" lon="-1.90649">
        <ele>9</ele>
        <time>2018-01-13T22:25:31Z</time>
      </trkpt>
      <trkpt lat="46.71557" lon="-1.90688">
        <ele>10</ele>
        <time>2018-01-13T22:26:31Z</time>
      </trkpt>
      <trkpt lat="46.71554" lon="-1.90691">
        <ele>10</ele>
        <time>2018-01-13T22:27:31Z</time>
      </trkpt>
      <trkpt lat="46.71544" lon="-1.90706">
        <ele>10</ele>
        <time>2018-01-13T22:28:31Z</time>
      </trkpt>
      <trkpt lat="46.71545" lon="-1.90706">
        <ele>10</ele>
        <time>2018-01-13T22:29:31Z</time>
      </trkpt>
      <trkpt lat="46.71545" lon="-1.90707">
        <ele>10</ele>
        <time>2018-01-13T22:30:31Z</time>
      </trkpt>
      <trkpt lat="46.71545" lon="-1.90708">
        <ele>10</ele>
        <time>2018-01-13T22:31:31Z</time>
      </trkpt>
      <trkpt lat="46.71546" lon="-1.90708">
        <ele>10</ele>
        <time>2018-01-13T22:32:31Z</time>
      </trkpt>
      <trkpt lat="46.71546" lon="-1.90709">
        <ele>10</ele>
        <time>2018-01-13T22:33:31Z</time>
      </trkpt>
      <trkpt lat="46.71546" lon="-1.9071">
        <ele>10</ele>
        <time>2018-01-13T22:34:31Z</time>
      </trkpt>
      <trkpt lat="46.71546" lon="-1.90711">
        <ele>10</ele>
        <time>2018-01-13T22:35:31Z</time>
      </trkpt>
      <trkpt lat="46.71546" lon="-1.90712">
        <ele>10</ele>
        <time>2018-01-13T22:36:31Z</time>
      </trkpt>
      <trkpt lat="46.71546" lon="-1.90713">
        <ele>10</ele>
        <time>2018-01-13T22:37:31Z</time>
      </trkpt>
      <trkpt lat="46.71546" lon="-1.90714">
        <ele>10</ele>
        <time>2018-01-13T22:38:31Z</time>
      </trkpt>
      <trkpt lat="46.71546" lon="-1.90715">
        <ele>10</ele>
        <time>2018-01-13T22:39:31Z</time>
      </trkpt>
      <trkpt lat="46.71546" lon="-1.90716">
        <ele>10</ele>
        <time>2018-01-13T22:40:31Z</time>
      </trkpt>
      <trkpt lat="46.71546" lon="-1.90717">
        <ele>10</ele>
        <time>2018-01-13T22:41:31Z</time>
      </trkpt>
      <trkpt lat="46.71545" lon="-1.90717">
        <ele>10</ele>
        <time>2018-01-13T22:42:31Z</time>
      </trkpt>
      <trkpt lat="46.71545" lon="-1.90718">
        <ele>10</ele>
        <time>2018-01-13T22:43:31Z</time>
      </trkpt>
      <trkpt lat="46.71545" lon="-1.90719">
        <ele>10</ele>
        <time>2018-01-13T22:44:31Z</time>
      </trkpt>
      <trkpt lat="46.71544" lon="-1.90719">
        <ele>10</ele>
        <time>2018-01-13T22:45:31Z</time>
      </trkpt>
      <trkpt lat="46.71544" lon="-1.9072">
        <ele>10</ele>
        <time>2018-01-13T22:46:31Z</time>
      </trkpt>
      <trkpt lat="46.71543" lon="-1.9072">
        <ele>10</ele>
        <time>2018-01-13T22:47:31Z</time>
      </trkpt>
      <trkpt lat="46.71542" lon="-1.9072">
        <ele>10</ele>
        <time>2018-01-13T22:48:31Z</time>
      </trkpt>
      <trkpt lat="46.71541" lon="-1.9072">
        <ele>10</ele>
        <time>2018-01-13T22:49:31Z</time>
      </trkpt>
      <trkpt lat="46.71541" lon="-1.90721">
        <ele>10</ele>
        <time>2018-01-13T22:50:31Z</time>
      </trkpt>
      <trkpt lat="46.71541" lon="-1.9072">
        <ele>10</ele>
        <time>2018-01-13T22:51:31Z</time>
      </trkpt>
      <trkpt lat="46.7154" lon="-1.9072">
        <ele>10</ele>
        <time>2018-01-13T22:52:31Z</time>
      </trkpt>
      <trkpt lat="46.71539" lon="-1.9072">
        <ele>10</ele>
        <time>2018-01-13T22:53:31Z</time>
      </trkpt>
      <trkpt lat="46.71538" lon="-1.9072">
        <ele>10</ele>
        <time>2018-01-13T22:54:31Z</time>
      </trkpt>
      <trkpt lat="46.71538" lon="-1.90719">
        <ele>10</ele>
        <time>2018-01-13T22:55:31Z</time>
      </trkpt>
      <trkpt lat="46.71537" lon="-1.90719">
        <ele>10</ele>
        <time>2018-01-13T22:56:31Z</time>
      </trkpt>
      <trkpt lat="46.71537" lon="-1.90718">
        <ele>10</ele>
        <time>2018-01-13T22:57:31Z</time>
      </trkpt>
      <trkpt lat="46.71537" lon="-1.90717">
        <ele>10</ele>
        <time>2018-01-13T22:58:31Z</time>
      </trkpt>
      <trkpt lat="46.71504" lon="-1.90753">
        <ele>11</ele>
        <time>2018-01-13T22:59:31Z</time>
      </trkpt>
      <trkpt lat="46.71468" lon="-1.90796">
        <ele>11</ele>
        <time>2018-01-13T23:00:31Z</time>
      </trkpt>
      <trkpt lat="46.71449" lon="-1.90818">
        <ele>12</ele>
        <time>2018-01-13T23:01:31Z</time>
      </trkpt>
      <trkpt lat="46.71439" lon="-1.9083">
        <ele>12</ele>
        <time>2018-01-13T23:02:31Z</time>
      </trkpt>
      <trkpt lat="46.71414" lon="-1.90862">
        <ele>13</ele>
        <time>2018-01-13T23:03:31Z</time>
      </trkpt>
      <trkpt lat="46.71394" lon="-1.90886">
        <ele>13</ele>
        <time>2018-01-13T23:04:31Z</time>
      </trkpt>
      <trkpt lat="46.71377" lon="-1.90906">
        <ele>13</ele>
        <time>2018-01-13T23:05:31Z</time>
      </trkpt>
      <trkpt lat="46.71372" lon="-1.90912">
        <ele>13</ele>
        <time>2018-01-13T23:06:31Z</time>
      </trkpt>
      <trkpt lat="46.71354" lon="-1.90933">
        <ele>12</ele>
        <time>2018-01-13T23:07:31Z</time>
      </trkpt>
      <trkpt lat="46.71332" lon="-1.90962">
        <ele>12</ele>
        <time>2018-01-13T23:08:31Z</time>
      </trkpt>
      <trkpt lat="46.7131" lon="-1.90988">
        <ele>12</ele>
        <time>2018-01-13T23:09:31Z</time>
      </trkpt>
      <trkpt lat="46.713" lon="-1.91004">
        <ele>12</ele>
        <time>2018-01-13T23:10:31Z</time>
      </trkpt>
      <trkpt lat="46.71289" lon="-1.9102">
        <ele>12</ele>
        <time>2018-01-13T23:11:31Z</time>
      </trkpt>
      <trkpt lat="46.71277" lon="-1.9104">
        <ele>12</ele>
        <time>2018-01-13T23:12:31Z</time>
      </trkpt>
      <trkpt lat="46.71264" lon="-1.91064">
        <ele>12</ele>
        <time>2018-01-13T23:13:31Z</time>
      </trkpt>
      <trkpt lat="46.71255" lon="-1.91084">
        <ele>12</ele>
        <time>2018-01-13T23:14:31Z</time>
      </trkpt>
      <trkpt lat="46.71244" lon="-1.91108">
        <ele>12</ele>
        <time>2018-01-13T23:15:31Z</time>
      </trkpt>
      <trkpt lat="46.71231" lon="-1.91139">
        <ele>11</ele>
        <time>2018-01-13T23:16:31Z</time>
      </trkpt>
      <trkpt lat="46.71227" lon="-1.91147">
        <ele>11</ele>
        <time>2018-01-13T23:17:31Z</time>
      </trkpt>
      <trkpt lat="46.71216" lon="-1.91174">
        <ele>11</ele>
        <time>2018-01-13T23:18:31Z</time>
      </trkpt>
      <trkpt lat="46.712" lon="-1.9121">
        <ele>11</ele>
        <time>2018-01-13T23:19:31Z</time>
      </trkpt>
      <trkpt lat="46.71185" lon="-1.91246">
        <ele>11</ele>
        <time>2018-01-13T23:20:31Z</time>
      </trkpt>
      <trkpt lat="46.71175" lon="-1.91271">
        <ele>11</ele>
        <time>2018-01-13T23:21:31Z</time>
      </trkpt>
      <trkpt lat="46.71164" lon="-1.91298">
        <ele>11</ele>
        <time>2018-01-13T23:22:31Z</time>
      </trkpt>
      <trkpt lat="46.71152" lon="-1.91328">
        <ele>12</ele>
        <time>2018-01-13T23:23:31Z</time>
      </trkpt>
      <trkpt lat="46.7115" lon="-1.91334">
        <ele>12</ele>
        <time>2018-01-13T23:24:31Z</time>
      </trkpt>
      <trkpt lat="46.71148" lon="-1.91339">
        <ele>12</ele>
        <time>2018-01-13T23:25:31Z</time>
      </trkpt>
      <trkpt lat="46.71136" lon="-1.91372">
        <ele>12</ele>
        <time>2018-01-13T23:26:31Z</time>
      </trkpt>
      <trkpt lat="46.71122" lon="-1.91407">
        <ele>13</ele>
        <time>2018-01-13T23:27:31Z</time>
      </trkpt>
      <trkpt lat="46.71113" lon="-1.91429">
        <ele>14</ele>
        <time>2018-01-13T23:28:31Z</time>
      </trkpt>
      <trkpt lat="46.71106" lon="-1.91442">
        <ele>14</ele>
        <time>2018-01-13T23:29:31Z</time>
      </trkpt>
      <trkpt lat="46.71103" lon="-1.91449">
        <ele>14</ele>
        <time>2018-01-13T23:30:31Z</time>
      </trkpt>
      <trkpt lat="46.71102" lon="-1.91452">
        <ele>14</ele>
        <time>2018-01-13T23:31:31Z</time>
      </trkpt>
      <trkpt lat="46.71099" lon="-1.91459">
        <ele>14</ele>
        <time>2018-01-13T23:32:31Z</time>
      </trkpt>
      <trkpt lat="46.71097" lon="-1.91462">
        <ele>15</ele>
        <time>2018-01-13T23:33:31Z</time>
      </trkpt>
      <trkpt lat="46.71096" lon="-1.91463">
        <ele>15</ele>
        <time>2018-01-13T23:34:31Z</time>
      </trkpt>
      <trkpt lat="46.71095" lon="-1.91465">
        <ele>15</ele>
        <time>2018-01-13T23:35:31Z</time>
      </trkpt>
      <trkpt lat="46.71085" lon="-1.91481">
        <ele>15</ele>
        <time>2018-01-13T23:36:31Z</time>
      </trkpt>
      <trkpt lat="46.7107" lon="-1.91503">
        <ele>15</ele>
        <time>2018-01-13T23:37:31Z</time>
      </trkpt>
      <trkpt lat="46.71064" lon="-1.91509">
        <ele>15</ele>
        <time>2018-01-13T23:38:31Z</time>
      </trkpt>
      <trkpt lat="46.71054" lon="-1.91523">
        <ele>16</ele>
        <time>2018-01-13T23:39:31Z</time>
      </trkpt>
      <trkpt lat="46.71042" lon="-1.91539">
        <ele>16</ele>
        <time>2018-01-13T23:40:31Z</time>
      </trkpt>
      <trkpt lat="46.71022" lon="-1.91567">
        <ele>16</ele>
        <time>2018-01-13T23:41:31Z</time>
      </trkpt>
      <trkpt lat="46.7102" lon="-1.9157">
        <ele>17</ele>
        <time>2018-01-13T23:42:31Z</time>
      </trkpt>
      <trkpt lat="46.71018" lon="-1.91572">
        <ele>17</ele>
        <time>2018-01-13T23:43:31Z</time>
      </trkpt>
      <trkpt lat="46.70999" lon="-1.91598">
        <ele>17</ele>
        <time>2018-01-13T23:44:31Z</time>
      </trkpt>
      <trkpt lat="46.70971" lon="-1.91634">
        <ele>17</ele>
        <time>2018-01-13T23:45:31Z</time>
      </trkpt>
      <trkpt lat="46.70954" lon="-1.91659">
        <ele>18</ele>
        <time>2018-01-13T23:46:31Z</time>
      </trkpt>
      <trkpt lat="46.70951" lon="-1.91664">
        <ele>18</ele>
        <time>2018-01-13T23:47:31Z</time>
      </trkpt>
      <trkpt lat="46.70946" lon="-1.91669">
        <ele>18</ele>
        <time>2018-01-13T23:48:31Z</time>
      </trkpt>
      <trkpt lat="46.70932" lon="-1.91688">
        <ele>18</ele>
        <time>2018-01-13T23:49:31Z</time>
      </trkpt>
      <trkpt lat="46.70913" lon="-1.91714">
        <ele>18</ele>
        <time>2018-01-13T23:50:31Z</time>
      </trkpt>
      <trkpt lat="46.70894" lon="-1.91739">
        <ele>18</ele>
        <time>2018-01-13T23:51:31Z</time>
      </trkpt>
      <trkpt lat="46.70883" lon="-1.91753">
        <ele>18</ele>
        <time>2018-01-13T23:52:31Z</time>
      </trkpt>
      <trkpt lat="46.7087" lon="-1.91769">
        <ele>19</ele>
        <time>2018-01-13T23:53:31Z</time>
      </trkpt>
      <trkpt lat="46.7087" lon="-1.9177">
        <ele>19</ele>
        <time>2018-01-13T23:54:31Z</time>
      </trkpt>
      <trkpt lat="46.7087" lon="-1.91771">
        <ele>19</ele>
        <time>2018-01-13T23:55:31Z</time>
      </trkpt>
      <trkpt lat="46.70871" lon="-1.91771">
        <ele>19</ele>
        <time>2018-01-13T23:56:31Z</time>
      </trkpt>
      <trkpt lat="46.70871" lon="-1.91772">
        <ele>19</ele>
        <time>2018-01-13T23:57:31Z</time>
      </trkpt>
      <trkpt lat="46.70871" lon="-1.91773">
        <ele>19</ele>
        <time>2018-01-13T23:58:31Z</time>
      </trkpt>
      <trkpt lat="46.70871" lon="-1.91774">
        <ele>19</ele>
        <time>2018-01-13T23:59:31Z</time>
      </trkpt>
      <trkpt lat="46.70871" lon="-1.91775">
        <ele>19</ele>
        <time>2018-01-14T00:00:31Z</time>
      </trkpt>
      <trkpt lat="46.70871" lon="-1.91776">
        <ele>19</ele>
        <time>2018-01-14T00:01:31Z</time>
      </trkpt>
      <trkpt lat="46.70871" lon="-1.91777">
        <ele>19</ele>
        <time>2018-01-14T00:02:31Z</time>
      </trkpt>
      <trkpt lat="46.70871" lon="-1.91778">
        <ele>19</ele>
        <time>2018-01-14T00:03:31Z</time>
      </trkpt>
      <trkpt lat="46.70871" lon="-1.91779">
        <ele>19</ele>
        <time>2018-01-14T00:04:31Z</time>
      </trkpt>
      <trkpt lat="46.7087" lon="-1.91779">
        <ele>19</ele>
        <time>2018-01-14T00:05:31Z</time>
      </trkpt>
      <trkpt lat="46.7087" lon="-1.9178">
        <ele>19</ele>
        <time>2018-01-14T00:06:31Z</time>
      </trkpt>
      <trkpt lat="46.7087" lon="-1.91781">
        <ele>19</ele>
        <time>2018-01-14T00:07:31Z</time>
      </trkpt>
      <trkpt lat="46.7087" lon="-1.91782">
        <ele>19</ele>
        <time>2018-01-14T00:08:31Z</time>
      </trkpt>
      <trkpt lat="46.70869" lon="-1.91782">
        <ele>19</ele>
        <time>2018-01-14T00:09:31Z</time>
      </trkpt>
      <trkpt lat="46.70869" lon="-1.91783">
        <ele>19</ele>
        <time>2018-01-14T00:10:31Z</time>
      </trkpt>
      <trkpt lat="46.70868" lon="-1.91784">
        <ele>19</ele>
        <time>2018-01-14T00:11:31Z</time>
      </trkpt>
      <trkpt lat="46.70868" lon="-1.91785">
        <ele>19</ele>
        <time>2018-01-14T00:12:31Z</time>
      </trkpt>
      <trkpt lat="46.70867" lon="-1.91785">
        <ele>19</ele>
        <time>2018-01-14T00:13:31Z</time>
      </trkpt>
      <trkpt lat="46.70866" lon="-1.91786">
        <ele>19</ele>
        <time>2018-01-14T00:14:31Z</time>
      </trkpt>
      <trkpt lat="46.70865" lon="-1.91786">
        <ele>19</ele>
        <time>2018-01-14T00:15:31Z</time>
      </trkpt>
      <trkpt lat="46.70864" lon="-1.91786">
        <ele>19</ele>
        <time>2018-01-14T00:16:31Z</time>
      </trkpt>
      <trkpt lat="46.70864" lon="-1.91787">
        <ele>19</ele>
        <time>2018-01-14T00:17:31Z</time>
      </trkpt>
      <trkpt lat="46.70863" lon="-1.91787">
        <ele>19</ele>
        <time>2018-01-14T00:18:31Z</time>
      </trkpt>
      <trkpt lat="46.70862" lon="-1.91787">
        <ele>19</ele>
        <time>2018-01-14T00:19:31Z</time>
      </trkpt>
      <trkpt lat="46.70861" lon="-1.91787">
        <ele>19</ele>
        <time>2018-01-14T00:20:31Z</time>
      </trkpt>
      <trkpt lat="46.70861" lon="-1.91786">
        <ele>19</ele>
        <time>2018-01-14T00:21:31Z</time>
      </trkpt>
      <trkpt lat="46.7086" lon="-1.91786">
        <ele>19</ele>
        <time>2018-01-14T00:22:31Z</time>
      </trkpt>
      <trkpt lat="46.70859" lon="-1.91786">
        <ele>19</ele>
        <time>2018-01-14T00:23:31Z</time>
      </trkpt>
      <trkpt lat="46.70859" lon="-1.91785">
        <ele>19</ele>
        <time>2018-01-14T00:24:31Z</time>
      </trkpt>
      <trkpt lat="46.70858" lon="-1.91785">
        <ele>19</ele>
        <time>2018-01-14T00:25:31Z</time>
      </trkpt>
      <trkpt lat="46.70858" lon="-1.91784">
        <ele>19</ele>
        <time>2018-01-14T00:26:31Z</time>
      </trkpt>
      <trkpt lat="46.70836" lon="-1.9181">
        <ele>20</ele>
        <time>2018-01-14T00:27:31Z</time>
      </trkpt>
      <trkpt lat="46.70799" lon="-1.91849">
        <ele>20</ele>
        <time>2018-01-14T00:28:31Z</time>
      </trkpt>
      <trkpt lat="46.70793" lon="-1.91854">
        <ele>20</ele>
        <time>2018-01-14T00:29:31Z</time>
      </trkpt>
      <trkpt lat="46.70789" lon="-1.91861">
        <ele>19</ele>
        <time>2018-01-14T00:30:31Z</time>
      </trkpt>
      <trkpt lat="46.70758" lon="-1.91893">
        <ele>19</ele>
        <time>2018-01-14T00:31:31Z</time>
      </trkpt>
      <trkpt lat="46.7073" lon="-1.91923">
        <ele>18</ele>
        <time>2018-01-14T00:32:31Z</time>
      </trkpt>
      <trkpt lat="46.70726" lon="-1.91928">
        <ele>19</ele>
        <time>2018-01-14T00:33:31Z</time>
      </trkpt>
      <trkpt lat="46.70721" lon="-1.9193">
        <ele>19</ele>
        <time>2018-01-14T00:34:31Z</time>
      </trkpt>
      <trkpt lat="46.70684" lon="-1.91967">
        <ele>19</ele>
        <time>2018-01-14T00:35:31Z</time>
      </trkpt>
      <trkpt lat="46.70677" lon="-1.91974">
        <ele>19</ele>
        <time>2018-01-14T00:36:31Z</time>
      </trkpt>
      <trkpt lat="46.70671" lon="-1.91985">
        <ele>19</ele>
        <time>2018-01-14T00:37:31Z</time>
      </trkpt>
      <trkpt lat="46.70655" lon="-1.92006">
        <ele>19</ele>
        <time>2018-01-14T00:38:31Z</time>
      </trkpt>
      <trkpt lat="46.70655" lon="-1.92006">
        <ele>19</ele>
        <time>2018-01-14T00:39:31Z</time>
      </trkpt>
      <trkpt lat="46.70655" lon="-1.92007">
        <ele>19</ele>
        <time>2018-01-14T00:40:31Z</time>
      </trkpt>
      <trkpt lat="46.70655" lon="-1.92008">
        <ele>19</ele>
        <time>2018-01-14T00:41:31Z</time>
      </trkpt>
      <trkpt lat="46.70655" lon="-1.92009">
        <ele>19</ele>
        <time>2018-01-14T00:42:31Z</time>
      </trkpt>
      <trkpt lat="46.70655" lon="-1.9201">
        <ele>19</ele>
        <time>2018-01-14T00:43:31Z</time>
      </trkpt>
      <trkpt lat="46.70655" lon="-1.92011">
        <ele>19</ele>
        <time>2018-01-14T00:44:31Z</time>
      </trkpt>
      <trkpt lat="46.70655" lon="-1.92012">
        <ele>19</ele>
        <time>2018-01-14T00:45:31Z</time>
      </trkpt>
      <trkpt lat="46.70655" lon="-1.92013">
        <ele>19</ele>
        <time>2018-01-14T00:46:31Z</time>
      </trkpt>
      <trkpt lat="46.70655" lon="-1.92014">
        <ele>19</ele>
        <time>2018-01-14T00:47:31Z</time>
      </trkpt>
      <trkpt lat="46.70655" lon="-1.92015">
        <ele>19</ele>
        <time>2018-01-14T00:48:31Z</time>
      </trkpt>
      <trkpt lat="46.70654" lon="-1.92015">
        <ele>19</ele>
        <time>2018-01-14T00:49:31Z</time>
      </trkpt>
      <trkpt lat="46.70654" lon="-1.92016">
        <ele>19</ele>
        <time>2018-01-14T00:50:31Z</time>
      </trkpt>
      <trkpt lat="46.70654" lon="-1.92017">
        <ele>19</ele>
        <time>2018-01-14T00:51:31Z</time>
      </trkpt>
      <trkpt lat="46.70654" lon="-1.92018">
        <ele>19</ele>
        <time>2018-01-14T00:52:31Z</time>
      </trkpt>
      <trkpt lat="46.70653" lon="-1.92019">
        <ele>19</ele>
        <time>2018-01-14T00:53:31Z</time>
      </trkpt>
      <trkpt lat="46.70653" lon="-1.9202">
        <ele>19</ele>
        <time>2018-01-14T00:54:31Z</time>
      </trkpt>
      <trkpt lat="46.70652" lon="-1.92021">
        <ele>19</ele>
        <time>2018-01-14T00:55:31Z</time>
      </trkpt>
      <trkpt lat="46.70652" lon="-1.92022">
        <ele>19</ele>
        <time>2018-01-14T00:56:31Z</time>
      </trkpt>
      <trkpt lat="46.70651" lon="-1.92022">
        <ele>19</ele>
        <time>2018-01-14T00:57:31Z</time>
      </trkpt>
      <trkpt lat="46.70651" lon="-1.92023">
        <ele>19</ele>
        <time>2018-01-14T00:58:31Z</time>
      </trkpt>
      <trkpt lat="46.7065" lon="-1.92023">
        <ele>19</ele>
        <time>2018-01-14T00:59:31Z</time>
      </trkpt>
      <trkpt lat="46.70649" lon="-1.92024">
        <ele>19</ele>
        <time>2018-01-14T01:00:31Z</time>
      </trkpt>
      <trkpt lat="46.70644" lon="-1.92039">
        <ele>19</ele>
        <time>2018-01-14T01:01:31Z</time>
      </trkpt>
      <trkpt lat="46.70642" lon="-1.9205">
        <ele>19</ele>
        <time>2018-01-14T01:02:31Z</time>
      </trkpt>
      <trkpt lat="46.70642" lon="-1.92056">
        <ele>19</ele>
        <time>2018-01-14T01:03:31Z</time>
      </trkpt>
      <trkpt lat="46.7064" lon="-1.92095">
        <ele>20</ele>
        <time>2018-01-14T01:04:31Z</time>
      </trkpt>
      <trkpt lat="46.7064" lon="-1.92109">
        <ele>20</ele>
        <time>2018-01-14T01:05:31Z</time>
      </trkpt>
      <trkpt lat="46.7064" lon="-1.92121">
        <ele>20</ele>
        <time>2018-01-14T01:06:31Z</time>
      </trkpt>
      <trkpt lat="46.7064" lon="-1.92121">
        <ele>20</ele>
        <time>2018-01-14T01:07:31Z</time>
      </trkpt>
      <trkpt lat="46.70639" lon="-1.92134">
        <ele>19</ele>
        <time>2018-01-14T01:08:31Z</time>
      </trkpt>
      <trkpt lat="46.70637" lon="-1.92186">
        <ele>19</ele>
        <time>2018-01-14T01:09:31Z</time>
      </trkpt>
      <trkpt lat="46.70634" lon="-1.92221">
        <ele>19</ele>
        <time>2018-01-14T01:10:31Z</time>
      </trkpt>
      <trkpt lat="46.70628" lon="-1.92248">
        <ele>20</ele>
        <time>2018-01-14T01:11:31Z</time>
      </trkpt>
      <trkpt lat="46.70619" lon="-1.92271">
        <ele>19</ele>
        <time>2018-01-14T01:12:31Z</time>
      </trkpt>
      <trkpt lat="46.7061" lon="-1.92289">
        <ele>19</ele>
        <time>2018-01-14T01:13:31Z</time>
      </trkpt>
      <trkpt lat="46.70602" lon="-1.92304">
        <ele>18</ele>
        <time>2018-01-14T01:14:31Z</time>
      </trkpt>
      <trkpt lat="46.70586" lon="-1.92327">
        <ele>18</ele>
        <time>2018-01-14T01:15:31Z</time>
      </trkpt>
      <trkpt lat="46.70582" lon="-1.92333">
        <ele>18</ele>
        <time>2018-01-14T01:16:31Z</time>
      </trkpt>
      <trkpt lat="46.70571" lon="-1.92356">
        <ele>17</ele>
        <time>2018-01-14T01:17:31Z</time>
      </trkpt>
      <trkpt lat="46.70562" lon="-1.92377">
        <ele>17</ele>
        <time>2018-01-14T01:18:31Z</time>
      </trkpt>
      <trkpt lat="46.70559" lon="-1.92387">
        <ele>16</ele>
        <time>2018-01-14T01:19:31Z</time>
      </trkpt>
      <trkpt lat="46.70555" lon="-1.92398">
        <ele>16</ele>
        <time>2018-01-14T01:20:31Z</time>
      </trkpt>
      <trkpt lat="46.70552" lon="-1.92414">
        <ele>16</ele>
        <time>2018-01-14T01:21:31Z</time>
      </trkpt>
      <trkpt lat="46.70546" lon="-1.92441">
        <ele>15</ele>
        <time>2018-01-14T01:22:31Z</time>
      </trkpt>
      <trkpt lat="46.70541" lon="-1.92464">
        <ele>15</ele>
        <time>2018-01-14T01:23:31Z</time>
      </trkpt>
      <trkpt lat="46.7054" lon="-1.92472">
        <ele>15</ele>
        <time>2018-01-14T01:24:31Z</time>
      </trkpt>
      <trkpt lat="46.70535" lon="-1.92496">
        <ele>14</ele>
        <time>2018-01-14T01:25:31Z</time>
      </trkpt>
      <trkpt lat="46.70534" lon="-1.925">
        <ele>14</ele>
        <time>2018-01-14T01:26:31Z</time>
      </trkpt>
      <trkpt lat="46.70533" lon="-1.92502">
        <ele>14</ele>
        <time>2018-01-14T01:27:31Z</time>
      </trkpt>
      <trkpt lat="46.70527" lon="-1.92538">
        <ele>13</ele>
        <time>2018-01-14T01:28:31Z</time>
      </trkpt>
      <trkpt lat="46.70523" lon="-1.92561">
        <ele>12</ele>
        <time>2018-01-14T01:29:31Z</time>
      </trkpt>
      <trkpt lat="46.70524" lon="-1.92565">
        <ele>12</ele>
        <time>2018-01-14T01:30:31Z</time>
      </trkpt>
      <trkpt lat="46.70525" lon="-1.92575">
        <ele>12</ele>
        <time>2018-01-14T01:31:31Z</time>
      </trkpt>
      <trkpt lat="46.70525" lon="-1.92582">
        <ele>12</ele>
        <time>2018-01-14T01:32:31Z</time>
      </trkpt>
      <trkpt lat="46.70525" lon="-1.92582">
        <ele>12</ele>
        <time>2018-01-14T01:33:31Z</time>
      </trkpt>
      <trkpt lat="46.70529" lon="-1.92587">
        <ele>12</ele>
        <time>2018-01-14T01:34:31Z</time>
      </trkpt>
      <trkpt lat="46.7053" lon="-1.92592">
        <ele>12</ele>
        <time>2018-01-14T01:35:31Z</time>
      </trkpt>
      <trkpt lat="46.70531" lon="-1.92598">
        <ele>12</ele>
        <time>2018-01-14T01:36:31Z</time>
      </trkpt>
      <trkpt lat="46.7053" lon="-1.92602">
        <ele>12</ele>
        <time>2018-01-14T01:37:31Z</time>
      </trkpt>
      <trkpt lat="46.70528" lon="-1.92606">
        <ele>12</ele>
        <time>2018-01-14T01:38:31Z</time>
      </trkpt>
      <trkpt lat="46.70527" lon="-1.92607">
        <ele>12</ele>
        <time>2018-01-14T01:39:31Z</time>
      </trkpt>
      <trkpt lat="46.70525" lon="-1.92609">
        <ele>12</ele>
        <time>2018-01-14T01:40:31Z</time>
      </trkpt>
      <trkpt lat="46.70523" lon="-1.92609">
        <ele>11</ele>
        <time>2018-01-14T01:41:31Z</time>
      </trkpt>
      <trkpt lat="46.70512" lon="-1.92624">
        <ele>11</ele>
        <time>2018-01-14T01:42:31Z</time>
      </trkpt>
      <trkpt lat="46.70507" lon="-1.92632">
        <ele>11</ele>
        <time>2018-01-14T01:43:31Z</time>
      </trkpt>
      <trkpt lat="46.70504" lon="-1.92634">
        <ele>11</ele>
        <time>2018-01-14T01:44:31Z</time>
      </trkpt>
      <trkpt lat="46.70499" lon="-1.9265">
        <ele>11</ele>
        <time>2018-01-14T01:45:31Z</time>
      </trkpt>
      <trkpt lat="46.70496" lon="-1.9267">
        <ele>11</ele>
        <time>2018-01-14T01:46:31Z</time>
      </trkpt>
      <trkpt lat="46.70489" lon="-1.92701">
        <ele>10</ele>
        <time>2018-01-14T01:47:31Z</time>
      </trkpt>
      <trkpt lat="46.70484" lon="-1.9273">
        <ele>9</ele>
        <time>2018-01-14T01:48:31Z</time>
      </trkpt>
      <trkpt lat="46.70482" lon="-1.92747">
        <ele>8</ele>
        <time>2018-01-14T01:49:31Z</time>
      </trkpt>
      <trkpt lat="46.70478" lon="-1.92796">
        <ele>8</ele>
        <time>2018-01-14T01:50:31Z</time>
      </trkpt>
      <trkpt lat="46.70475" lon="-1.92841">
        <ele>8</ele>
        <time>2018-01-14T01:51:31Z</time>
      </trkpt>
      <trkpt lat="46.70472" lon="-1.92898">
        <ele>8</ele>
        <time>2018-01-14T01:52:31Z</time>
      </trkpt>
      <trkpt lat="46.70468" lon="-1.92952">
        <ele>7</ele>
        <time>2018-01-14T01:53:31Z</time>
      </trkpt>
      <trkpt lat="46.70465" lon="-1.93009">
        <ele>6</ele>
        <time>2018-01-14T01:54:31Z</time>
      </trkpt>
      <trkpt lat="46.70462" lon="-1.93045">
        <ele>6</ele>
        <time>2018-01-14T01:55:31Z</time>
      </trkpt>
      <trkpt lat="46.70458" lon="-1.93108">
        <ele>5</ele>
        <time>2018-01-14T01:56:31Z</time>
      </trkpt>
      <trkpt lat="46.70455" lon="-1.93156">
        <ele>5</ele>
        <time>2018-01-14T01:57:31Z</time>
      </trkpt>
      <trkpt lat="46.70452" lon="-1.93209">
        <ele>4</ele>
        <time>2018-01-14T01:58:31Z</time>
      </trkpt>
      <trkpt lat="46.70449" lon="-1.93254">
        <ele>3</ele>
        <time>2018-01-14T01:59:31Z</time>
      </trkpt>
      <trkpt lat="46.70449" lon="-1.93267">
        <ele>3</ele>
        <time>2018-01-14T02:00:31Z</time>
      </trkpt>
      <trkpt lat="46.70449" lon="-1.93267">
        <ele>3</ele>
        <time>2018-01-14T02:01:31Z</time>
      </trkpt>
      <trkpt lat="46.70439" lon="-1.93265">
        <ele>3</ele>
        <time>2018-01-14T02:02:31Z</time>
      </trkpt>
      <trkpt lat="46.70429" lon="-1.93262">
        <ele>3</ele>
        <time>2018-01-14T02:03:31Z</time>
      </trkpt>
      <trkpt lat="46.70419" lon="-1.93258">
        <ele>3</ele>
        <time>2018-01-14T02:04:31Z</time>
      </trkpt>
      <trkpt lat="46.70398" lon="-1.93249">
        <ele>3</ele>
        <time>2018-01-14T02:05:31Z</time>
      </trkpt>
      <trkpt lat="46.70362" lon="-1.9324">
        <ele>2</ele>
        <time>2018-01-14T02:06:31Z</time>
      </trkpt>
      <trkpt lat="46.70328" lon="-1.93232">
        <ele>2</ele>
        <time>2018-01-14T02:07:31Z</time>
      </trkpt>
      <trkpt lat="46.70304" lon="-1.9323">
        <ele>2</ele>
        <time>2018-01-14T02:08:31Z</time>
      </trkpt>
      <trkpt lat="46.70304" lon="-1.9323">
        <ele>2</ele>
        <time>2018-01-14T02:09:31Z</time>
      </trkpt>
      <trkpt lat="46.70295" lon="-1.93245">
        <ele>2</ele>
        <time>2018-01-14T02:10:31Z</time>
      </trkpt>
      <trkpt lat="46.70288" lon="-1.93253">
        <ele>2</ele>
        <time>2018-01-14T02:11:31Z</time>
      </trkpt>
      <trkpt lat="46.7028" lon="-1.9326">
        <ele>2</ele>
        <time>2018-01-14T02:12:31Z</time>
      </trkpt>
      <trkpt lat="46.70276" lon="-1.93263">
        <ele>2</ele>
        <time>2018-01-14T02:13:31Z</time>
      </trkpt>
      <trkpt lat="46.70263" lon="-1.93271">
        <ele>2</ele>
        <time>2018-01-14T02:14:31Z</time>
      </trkpt>
      <trkpt lat="46.70251" lon="-1.9328">
        <ele>2</ele>
        <time>2018-01-14T02:15:31Z</time>
      </trkpt>
      <trkpt lat="46.70239" lon="-1.93295">
        <ele>2</ele>
        <time>2018-01-14T02:16:31Z</time>
      </trkpt>
      <trkpt lat="46.70224" lon="-1.9332">
        <ele>1</ele>
        <time>2018-01-14T02:17:31Z</time>
      </trkpt>
      <trkpt lat="46.70216" lon="-1.93332">
        <ele>1</ele>
        <time>2018-01-14T02:18:31Z</time>
      </trkpt>
      <trkpt lat="46.70211" lon="-1.9334">
        <ele>1</ele>
        <time>2018-01-14T02:19:31Z</time>
      </trkpt>
      <trkpt lat="46.70205" lon="-1.93347">
        <ele>1</ele>
        <time>2018-01-14T02:20:31Z</time>
      </trkpt>
      <trkpt lat="46.70194" lon="-1.93356">
        <ele>1</ele>
        <time>2018-01-14T02:21:31Z</time>
      </trkpt>
      <trkpt lat="46.70181" lon="-1.93366">
        <ele>2</ele>
        <time>2018-01-14T02:22:31Z</time>
      </trkpt>
      <trkpt lat="46.70173" lon="-1.93372">
        <ele>1</ele>
        <time>2018-01-14T02:23:31Z</time>
      </trkpt>
      <trkpt lat="46.7017" lon="-1.93374">
        <ele>1</ele>
        <time>2018-01-14T02:24:31Z</time>
      </trkpt>
      <trkpt lat="46.70166" lon="-1.9338">
        <ele>1</ele>
        <time>2018-01-14T02:25:31Z</time>
      </trkpt>
      <trkpt lat="46.70161" lon="-1.93382">
        <ele>1</ele>
        <time>2018-01-14T02:26:31Z</time>
      </trkpt>
      <trkpt lat="46.70152" lon="-1.93386">
        <ele>1</ele>
        <time>2018-01-14T02:27:31Z</time>
      </trkpt>
      <trkpt lat="46.70141" lon="-1.93391">
        <ele>1</ele>
        <time>2018-01-14T02:28:31Z</time>
      </trkpt>
      <trkpt lat="46.70141" lon="-1.93391">
        <ele>1</ele>
        <time>2018-01-14T02:29:31Z</time>
      </trkpt>
      <trkpt lat="46.70141" lon="-1.93393">
        <ele>1</ele>
        <time>2018-01-14T02:30:31Z</time>
      </trkpt>
      <trkpt lat="46.70141" lon="-1.93394">
        <ele>1</ele>
        <time>2018-01-14T02:31:31Z</time>
      </trkpt>
      <trkpt lat="46.70141" lon="-1.93395">
        <ele>1</ele>
        <time>2018-01-14T02:32:31Z</time>
      </trkpt>
      <trkpt lat="46.7014" lon="-1.93396">
        <ele>1</ele>
        <time>2018-01-14T02:33:31Z</time>
      </trkpt>
      <trkpt lat="46.7014" lon="-1.93397">
        <ele>1</ele>
        <time>2018-01-14T02:34:31Z</time>
      </trkpt>
      <trkpt lat="46.7014" lon="-1.93398">
        <ele>1</ele>
        <time>2018-01-14T02:35:31Z</time>
      </trkpt>
      <trkpt lat="46.70139" lon="-1.93399">
        <ele>1</ele>
        <time>2018-01-14T02:36:31Z</time>
      </trkpt>
      <trkpt lat="46.70139" lon="-1.93401">
        <ele>1</ele>
        <time>2018-01-14T02:37:31Z</time>
      </trkpt>
      <trkpt lat="46.70138" lon="-1.93402">
        <ele>1</ele>
        <time>2018-01-14T02:38:31Z</time>
      </trkpt>
      <trkpt lat="46.70138" lon="-1.93403">
        <ele>1</ele>
        <time>2018-01-14T02:39:31Z</time>
      </trkpt>
      <trkpt lat="46.70137" lon="-1.93403">
        <ele>1</ele>
        <time>2018-01-14T02:40:31Z</time>
      </trkpt>
      <trkpt lat="46.70136" lon="-1.93404">
        <ele>1</ele>
        <time>2018-01-14T02:41:31Z</time>
      </trkpt>
      <trkpt lat="46.70136" lon="-1.93405">
        <ele>1</ele>
        <time>2018-01-14T02:42:31Z</time>
      </trkpt>
      <trkpt lat="46.70135" lon="-1.93406">
        <ele>1</ele>
        <time>2018-01-14T02:43:31Z</time>
      </trkpt>
      <trkpt lat="46.70134" lon="-1.93406">
        <ele>1</ele>
        <time>2018-01-14T02:44:31Z</time>
      </trkpt>
      <trkpt lat="46.70133" lon="-1.93407">
        <ele>1</ele>
        <time>2018-01-14T02:45:31Z</time>
      </trkpt>
      <trkpt lat="46.70132" lon="-1.93408">
        <ele>1</ele>
        <time>2018-01-14T02:46:31Z</time>
      </trkpt>
      <trkpt lat="46.70131" lon="-1.93408">
        <ele>1</ele>
        <time>2018-01-14T02:47:31Z</time>
      </trkpt>
      <trkpt lat="46.7013" lon="-1.93409">
        <ele>1</ele>
        <time>2018-01-14T02:48:31Z</time>
      </trkpt>
      <trkpt lat="46.70129" lon="-1.93409">
        <ele>1</ele>
        <time>2018-01-14T02:49:31Z</time>
      </trkpt>
      <trkpt lat="46.70128" lon="-1.93409">
        <ele>1</ele>
        <time>2018-01-14T02:50:31Z</time>
      </trkpt>
      <trkpt lat="46.70127" lon="-1.93409">
        <ele>1</ele>
        <time>2018-01-14T02:51:31Z</time>
      </trkpt>
      <trkpt lat="46.70126" lon="-1.93409">
        <ele>1</ele>
        <time>2018-01-14T02:52:31Z</time>
      </trkpt>
      <trkpt lat="46.70125" lon="-1.93409">
        <ele>1</ele>
        <time>2018-01-14T02:53:31Z</time>
      </trkpt>
      <trkpt lat="46.70124" lon="-1.93408">
        <ele>2</ele>
        <time>2018-01-14T02:54:31Z</time>
      </trkpt>
      <trkpt lat="46.70123" lon="-1.93408">
        <ele>2</ele>
        <time>2018-01-14T02:55:31Z</time>
      </trkpt>
      <trkpt lat="46.70122" lon="-1.93407">
        <ele>2</ele>
        <time>2018-01-14T02:56:31Z</time>
      </trkpt>
      <trkpt lat="46.70121" lon="-1.93407">
        <ele>2</ele>
        <time>2018-01-14T02:57:31Z</time>
      </trkpt>
      <trkpt lat="46.7012" lon="-1.93406">
        <ele>2</ele>
        <time>2018-01-14T02:58:31Z</time>
      </trkpt>
      <trkpt lat="46.7012" lon="-1.93405">
        <ele>2</ele>
        <time>2018-01-14T02:59:31Z</time>
      </trkpt>
      <trkpt lat="46.70119" lon="-1.93405">
        <ele>2</ele>
        <time>2018-01-14T03:00:31Z</time>
      </trkpt>
      <trkpt lat="46.70107" lon="-1.93404">
        <ele>2</ele>
        <time>2018-01-14T03:01:31Z</time>
      </trkpt>
      <trkpt lat="46.701" lon="-1.93405">
        <ele>2</ele>
        <time>2018-01-14T03:02:31Z</time>
      </trkpt>
      <trkpt lat="46.70092" lon="-1.93406">
        <ele>2</ele>
        <time>2018-01-14T03:03:31Z</time>
      </trkpt>
      <trkpt lat="46.70088" lon="-1.93406">
        <ele>2</ele>
        <time>2018-01-14T03:04:31Z</time>
      </trkpt>
      <trkpt lat="46.70085" lon="-1.93405">
        <ele>2</ele>
        <time>2018-01-14T03:05:31Z</time>
      </trkpt>
      <trkpt lat="46.70083" lon="-1.93405">
        <ele>2</ele>
        <time>2018-01-14T03:06:31Z</time>
      </trkpt>
      <trkpt lat="46.70062" lon="-1.93405">
        <ele>2</ele>
        <time>2018-01-14T03:07:31Z</time>
      </trkpt>
      <trkpt lat="46.70062" lon="-1.93406">
        <ele>2</ele>
        <time>2018-01-14T03:08:31Z</time>
      </trkpt>
      <trkpt lat="46.70062" lon="-1.93407">
        <ele>2</ele>
        <time>2018-01-14T03:09:31Z</time>
      </trkpt>
      <trkpt lat="46.70062" lon="-1.93408">
        <ele>2</ele>
        <time>2018-01-14T03:10:31Z</time>
      </trkpt>
      <trkpt lat="46.70062" lon="-1.93409">
        <ele>2</ele>
        <time>2018-01-14T03:11:31Z</time>
      </trkpt>
      <trkpt lat="46.70062" lon="-1.9341">
        <ele>2</ele>
        <time>2018-01-14T03:12:31Z</time>
      </trkpt>
      <trkpt lat="46.70061" lon="-1.9341">
        <ele>2</ele>
        <time>2018-01-14T03:13:31Z</time>
      </trkpt>
      <trkpt lat="46.70061" lon="-1.93411">
        <ele>2</ele>
        <time>2018-01-14T03:14:31Z</time>
      </trkpt>
      <trkpt lat="46.7006" lon="-1.93411">
        <ele>2</ele>
        <time>2018-01-14T03:15:31Z</time>
      </trkpt>
      <trkpt lat="46.7006" lon="-1.93412">
        <ele>2</ele>
        <time>2018-01-14T03:16:31Z</time>
      </trkpt>
      <trkpt lat="46.70059" lon="-1.93412">
        <ele>2</ele>
        <time>2018-01-14T03:17:31Z</time>
      </trkpt>
      <trkpt lat="46.70059" lon="-1.93413">
        <ele>2</ele>
        <time>2018-01-14T03:18:31Z</time>
      </trkpt>
      <trkpt lat="46.70058" lon="-1.93413">
        <ele>2</ele>
        <time>2018-01-14T03:19:31Z</time>
      </trkpt>
      <trkpt lat="46.70057" lon="-1.93413">
        <ele>2</ele>
        <time>2018-01-14T03:20:31Z</time>
      </trkpt>
      <trkpt lat="46.70056" lon="-1.93413">
        <ele>2</ele>
        <time>2018-01-14T03:21:31Z</time>
      </trkpt>
      <trkpt lat="46.70055" lon="-1.93413">
        <ele>2</ele>
        <time>2018-01-14T03:22:31Z</time>
      </trkpt>
      <trkpt lat="46.70055" lon="-1.93412">
        <ele>2</ele>
        <time>2018-01-14T03:23:31Z</time>
      </trkpt>
      <trkpt lat="46.70054" lon="-1.93412">
        <ele>2</ele>
        <time>2018-01-14T03:24:31Z</time>
      </trkpt>
      <trkpt lat="46.70054" lon="-1.93411">
        <ele>2</ele>
        <time>2018-01-14T03:25:31Z</time>
      </trkpt>
      <trkpt lat="46.70053" lon="-1.93411">
        <ele>2</ele>
        <time>2018-01-14T03:26:31Z</time>
      </trkpt>
      <trkpt lat="46.70053" lon="-1.9341">
        <ele>2</ele>
        <time>2018-01-14T03:27:31Z</time>
      </trkpt>
      <trkpt lat="46.70053" lon="-1.93409">
        <ele>2</ele>
        <time>2018-01-14T03:28:31Z</time>
      </trkpt>
      <trkpt lat="46.70052" lon="-1.93409">
        <ele>2</ele>
        <time>2018-01-14T03:29:31Z</time>
      </trkpt>
      <trkpt lat="46.70052" lon="-1.93408">
        <ele>2</ele>
        <time>2018-01-14T03:30:31Z</time>
      </trkpt>
      <trkpt lat="46.70052" lon="-1.93407">
        <ele>2</ele>
        <time>2018-01-14T03:31:31Z</time>
      </trkpt>
      <trkpt lat="46.70052" lon="-1.93406">
        <ele>2</ele>
        <time>2018-01-14T03:32:31Z</time>
      </trkpt>
      <trkpt lat="46.70052" lon="-1.93405">
        <ele>2</ele>
        <time>2018-01-14T03:33:31Z</time>
      </trkpt>
      <trkpt lat="46.70046" lon="-1.93402">
        <ele>2</ele>
        <time>2018-01-14T03:34:31Z</time>
      </trkpt>
      <trkpt lat="46.70043" lon="-1.93401">
        <ele>2</ele>
        <time>2018-01-14T03:35:31Z</time>
      </trkpt>
      <trkpt lat="46.70041" lon="-1.934">
        <ele>2</ele>
        <time>2018-01-14T03:36:31Z</time>
      </trkpt>
      <trkpt lat="46.70038" lon="-1.93398">
        <ele>2</ele>
        <time>2018-01-14T03:37:31Z</time>
      </trkpt>
      <trkpt lat="46.70036" lon="-1.93397">
        <ele>2</ele>
        <time>2018-01-14T03:38:31Z</time>
      </trkpt>
      <trkpt lat="46.70033" lon="-1.93394">
        <ele>2</ele>
        <time>2018-01-14T03:39:31Z</time>
      </trkpt>
      <trkpt lat="46.7003" lon="-1.93391">
        <ele>3</ele>
        <time>2018-01-14T03:40:31Z</time>
      </trkpt>
      <trkpt lat="46.70028" lon="-1.93388">
        <ele>3</ele>
        <time>2018-01-14T03:41:31Z</time>
      </trkpt>
      <trkpt lat="46.70025" lon="-1.93386">
        <ele>3</ele>
        <time>2018-01-14T03:42:31Z</time>
      </trkpt>
      <trkpt lat="46.70023" lon="-1.93384">
        <ele>3</ele>
        <time>2018-01-14T03:43:31Z</time>
      </trkpt>
      <trkpt lat="46.7002" lon="-1.93382">
        <ele>3</ele>
        <time>2018-01-14T03:44:31Z</time>
      </trkpt>
      <trkpt lat="46.70015" lon="-1.9338">
        <ele>3</ele>
        <time>2018-01-14T03:45:31Z</time>
      </trkpt>
      <trkpt lat="46.70002" lon="-1.93375">
        <ele>3</ele>
        <time>2018-01-14T03:46:31Z</time>
      </trkpt>
      <trkpt lat="46.69987" lon="-1.93369">
        <ele>3</ele>
        <time>2018-01-14T03:47:31Z</time>
      </trkpt>
      <trkpt lat="46.69982" lon="-1.93367">
        <ele>3</ele>
        <time>2018-01-14T03:48:31Z</time>
      </trkpt>
      <trkpt lat="46.69979" lon="-1.93366">
        <ele>3</ele>
        <time>2018-01-14T03:49:31Z</time>
      </trkpt>
      <trkpt lat="46.69978" lon="-1.93366">
        <ele>3</ele>
        <time>2018-01-14T03:50:31Z</time>
      </trkpt>
      <trkpt lat="46.69976" lon="-1.93367">
        <ele>4</ele>
        <time>2018-01-14T03:51:31Z</time>
      </trkpt>
      <trkpt lat="46.69973" lon="-1.93367">
        <ele>4</ele>
        <time>2018-01-14T03:52:31Z</time>
      </trkpt>
      <trkpt lat="46.69969" lon="-1.9337">
        <ele>4</ele>
        <time>2018-01-14T03:53:31Z</time>
      </trkpt>
      <trkpt lat="46.69963" lon="-1.93373">
        <ele>4</ele>
        <time>2018-01-14T03:54:31Z</time>
      </trkpt>
      <trkpt lat="46.69958" lon="-1.93375">
        <ele>4</ele>
        <time>2018-01-14T03:55:31Z</time>
      </trkpt>
      <trkpt lat="46.69953" lon="-1.93377">
        <ele>4</ele>
        <time>2018-01-14T03:56:31Z</time>
      </trkpt>
      <trkpt lat="46.69949" lon="-1.93379">
        <ele>4</ele>
        <time>2018-01-14T03:57:31Z</time>
      </trkpt>
      <trkpt lat="46.69944" lon="-1.93381">
        <ele>4</ele>
        <time>2018-01-14T03:58:31Z</time>
      </trkpt>
      <trkpt lat="46.69935" lon="-1.93382">
        <ele>4</ele>
        <time>2018-01-14T03:59:31Z</time>
      </trkpt>
      <trkpt lat="46.69925" lon="-1.93383">
        <ele>4</ele>
        <time>2018-01-14T04:00:31Z</time>
      </trkpt>
      <trkpt lat="46.69922" lon="-1.93383">
        <ele>4</ele>
        <time>2018-01-14T04:01:31Z</time>
      </trkpt>
      <trkpt lat="46.69915" lon="-1.93383">
        <ele>4</ele>
        <time>2018-01-14T04:02:31Z</time>
      </trkpt>
    </trkseg>
  </trk>
</gpx>